MPMG - Transparência

Contra-cheque - Remuneração de todos os servidores ativos - Pré Resolução CNMP 200/2019

Período: 2020 - Janeiro

Ordem Matrícula Nome Cargo Efetivo Situação Unidade Administrativa Rendimentos Descontos Rendimento Líquido Total Indenizações Outras Remunerações Retroativas/Temporárias Data de Referência
Remuneração Básica Remuneração Eventual ou Temporária Total de Rendimentos Brutos Obrigatórios/Legais Total de Descontos
Remuneração do Cargo Efetivo Outras Verbas Remuneratórias Função de Confiança ou Cargo em Comissão Gratificação Natalina Férias Abono de Permanência Contribuição Previdenciária Imposto de Renda Retenção por Teto Constitucional
1 498900 ABDON MARCIO BARBOSA DA SILVA OFICIAL DO MP ATIVO ABRE CAMPO - COMARCA; ABRE CAMPO-PJ-01PJ 5.158,42 515,84 0,00 0,00 0,00 0,00 5.674,26 624,17 415,14 0,00 1.039,31 4.634,95 6.254,06 575,39 31/01/2020
2 177800 ADALBERTO MENEZES FARIA SAMORA OFICIAL DO MP ATIVO BELO HORIZONTE - COMARCA; DIR ESTRUTURA E PROCESSOS ORGANIZACIONAIS 13.715,83 5.486,33 0,00 0,00 0,00 0,00 19.202,16 2.112,24 3.726,09 0,00 5.838,33 13.363,83 7.084,04 1.180,74 31/01/2020
3 306400 ADALBERTO MOREIRA GONCALVES ANALISTA DO MP ATIVO BELO HORIZONTE - COMARCA; BH-24PJ JUIZO REGIONAL DO BARREIRO 14.162,21 4.248,66 0,00 0,00 6.136,96 0,00 24.547,83 2.025,20 5.324,36 0,00 7.349,56 17.198,27 7.441,48 1.016,79 31/01/2020
4 179300 ADENISE AUXILIADORA SOUZA SAD OFICIAL DO MP ATIVO BARBACENA - COMARCA; BARBACENA-PJ-06PJ 13.283,29 5.313,32 0,00 0,00 0,00 0,00 18.596,61 2.045,63 3.577,89 0,00 5.623,52 12.973,09 8.007,32 1.953,92 31/01/2020
5 272200 ADILSON BATISTA ORNELAS OFICIAL DO MP ATIVO LAVRAS - COMARCA; LAVRAS-PJ-SECRETARIA 4.763,08 952,62 0,00 0,00 0,00 0,00 5.715,70 628,73 477,42 0,00 1.106,15 4.609,55 7.265,70 523,94 31/01/2020
6 380100 ADILSON GONCALVES DE MELO JUNIOR ANALISTA DO MP ATIVO ARAXÁ - COMARCA; ARAXA-PJ-05PJ 9.641,94 1.928,39 0,00 0,00 0,00 0,00 11.570,33 1.272,74 1.858,20 0,00 3.130,94 8.439,39 7.873,15 509,09 31/01/2020
7 148800 ADILSON JANUARIO OFICIAL DO MP ATIVO BELO HORIZONTE - COMARCA; BH-22PJ PES COM DEF E IDOSOS-SECRETARIA 15.533,57 10.873,50 0,00 0,00 0,00 0,00 26.407,07 3.015,41 5.489,50 0,00 8.504,91 17.902,16 7.032,56 5.405,70 31/01/2020
8 322601 ADMILSON SILVEIRA ANALISTA DO MP ATIVO SAO JOAO DO PARAISO COMARCA; SAO JOAO DO PARAISO-PJ-UNPJ 8.214,70 821,47 0,00 0,00 3.012,06 0,00 12.048,23 1.068,36 2.170,56 0,00 3.238,92 8.809,31 7.738,88 3.237,26 31/01/2020
9 333700 ADRIANA ABRITTA TEIXEIRA OFICIAL DO MP ATIVO BELO HORIZONTE - COMARCA; DIRET DE PESSOAL DO MINISTERIO PUBLICO - DPMP 9.337,87 1.867,57 0,00 0,00 0,00 0,00 11.205,44 1.232,60 1.873,17 0,00 3.105,77 8.099,67 7.869,68 1.447,96 31/01/2020
10 468500 ADRIANA APARECIDA FIRMINO ANALISTA DO MP ATIVO CARATINGA - COMARCA; CARATINGA-PJ-04PJ 9.337,87 933,79 0,00 0,00 3.423,89 0,00 13.695,55 1.129,88 2.534,06 0,00 3.663,94 10.031,61 8.071,52 527,28 31/01/2020
11 326100 ADRIANA AUGUSTA AMARAL BELO OFICIAL DO MP ATIVO BARBACENA - COMARCA; BARBACENA-PJ-08PJ 9.337,87 1.867,57 0,00 0,00 0,00 0,00 11.205,44 1.232,60 1.768,90 0,00 3.001,50 8.203,94 7.869,68 1.447,96 31/01/2020
12 605700 ADRIANA COSTA LIRA ASSESSOR/OFICIAL ATIVO BELO HORIZONTE - COMARCA; COORD ESTADUAL DE DEFESA DA EDUCACAO 0,00 757,68 7.576,76 0,00 0,00 0,00 8.334,44 661,66 1.240,65 0,00 1.902,31 6.432,13 7.217,42 500,45 31/01/2020
13 541100 ADRIANA CRISTINA DE OLIVEIRA OFICIAL DO MP ATIVO GUAPÉ - COMARCA; GUAPE-PJ-UNPJ 4.612,94 461,29 0,00 0,00 1.691,41 0,00 6.765,64 558,17 785,56 0,00 1.343,73 5.421,91 2.319,39 142,40 31/01/2020
14 254800 ADRIANA DAS GRACAS FERNANDES ANALISTA DO MP ATIVO UBERABA - COMARCA; UBERABA-PJ-07PJ 16.148,50 11.303,95 0,00 0,00 0,00 0,00 27.452,45 3.019,77 5.797,49 0,00 8.817,26 18.635,19 7.207,75 1.433,68 31/01/2020
15 217400 ADRIANA DE CARVALHO CATAO BRAGA ASSESSOR ATIVO BELO HORIZONTE - COMARCA; DIV FISCAL ADM CONT TERCEIRIZACAO 0,00 2.273,03 7.576,76 0,00 0,00 0,00 9.849,79 671,12 1.957,27 0,00 2.628,39 7.221,40 1.550,00 0,00 31/01/2020
16 434600 ADRIANA FERREIRA DA SILVA ANALISTA DO MP ATIVO BELO HORIZONTE - COMARCA; BH-14PJ DEFESA CONSUMIDOR-GAB 112PJ 11.317,16 2.263,43 0,00 0,00 0,00 0,00 13.580,59 1.493,86 2.454,49 0,00 3.948,35 9.632,24 1.550,00 1.395,70 31/01/2020
17 499800 ADRIANA FERREIRA TIAGO OFICIAL DO MP ATIVO SALINAS - COMARCA; SALINAS-PJ-02PJ 6.251,74 625,17 0,00 0,00 0,00 0,00 6.876,91 780,31 813,76 0,00 1.594,07 5.282,84 5.676,15 1.366,84 31/01/2020
18 543400 ADRIANA GUIMARAES NUNES DE PAULA ANALISTA DO MP ATIVO PATROCÍNIO - COMARCA; PATROCINIO-PJ-01PJ 7.823,48 782,35 0,00 0,00 0,00 0,00 8.605,83 946,64 1.236,92 0,00 2.183,56 6.422,27 7.564,79 777,97 31/01/2020
19 471500 ADRIANA HORTA DE CARVALHO RODRIGUES DE SOUSA ANALISTA DO MP ATIVO BELO HORIZONTE - COMARCA; GRUPO ESP PROM PROC JUST DEF PROB ADM PAT PUB 9.337,87 933,79 0,00 0,00 0,00 0,00 10.271,66 1.129,88 1.592,49 0,00 2.722,37 7.549,29 1.550,00 0,00 31/01/2020
20 86400 ADRIANA MOREIRA CALDEIRA BRANT OFICIAL DO MP ATIVO BELO HORIZONTE - COMARCA; EXTINTA-TUTELA DAS FUNDACOES-21 PJ- GABINETE 13.715,83 9.601,08 0,00 0,00 0,00 0,00 23.316,91 2.645,74 4.837,45 0,00 7.483,19 15.833,72 1.550,00 3.353,01 31/01/2020
21 480700 ADRIANA MOREIRA DE AVELLAR CEZILIO OFICIAL DO MP ATIVO BELO HORIZONTE - COMARCA; BH-18PJ VIOLENCIA DOMESTICA-SECRETARIA 5.678,79 567,88 0,00 0,00 0,00 0,00 6.246,67 750,10 555,24 0,00 1.305,34 4.941,33 4.048,67 2.011,14 31/01/2020
22 326000 ADRIANA PEREIRA CARNEIRO RESENDE OFICIAL DO MP ATIVO BELO HORIZONTE - COMARCA; BH-25PJ DEFESA DA EDUCAÇÃO 8.758,36 1.751,67 0,00 0,00 0,00 0,00 10.510,03 1.262,06 1.702,97 0,00 2.965,03 7.545,00 7.435,62 5.252,97 31/01/2020
23 502200 ADRIANA PETRUCCI DAVINA OFICIAL DO MP ATIVO PATROCÍNIO - COMARCA; PATROCINIO-PJ-01PJ 6.882,47 688,25 0,00 0,00 0,00 0,00 7.570,72 909,10 983,57 0,00 1.892,67 5.678,05 5.102,80 3.617,07 31/01/2020
24 201900 ADRIANA REIS PIMENTA OFICIAL DO MP ATIVO TEÓFILO OTONI - COMARCA; TEOFILO OTONI-PJ-03PJ 13.283,29 5.313,32 0,00 0,00 6.198,87 0,00 24.795,48 2.045,63 5.386,85 0,00 7.432,48 17.363,00 7.978,10 2.062,26 31/01/2020
25 278700 ADRIANA RODRIGUES PINTO COELHO AMARAL ANALISTA DO MP ATIVO BELO HORIZONTE - COMARCA; ASSESS TECNICA DA CORREGEDORIA-GERAL DO MP 15.533,57 4.660,07 0,00 0,00 0,00 0,00 20.193,64 2.221,30 4.020,90 0,00 6.242,20 13.951,44 7.632,08 2.699,23 31/01/2020
26 468000 ADRIANA SANTOS DE SANTANA MOREIRA ANALISTA DO MP ATIVO ARAÇUAÍ - COMARCA; ARACUAI-PJ-02PJ 9.337,87 2.801,36 0,00 0,00 0,00 0,00 12.139,23 1.335,32 1.997,44 0,00 3.332,76 8.806,47 7.376,83 534,13 31/01/2020
27 194700 ADRIANA TSUKIDE OFICIAL DO MP ATIVO UBERABA - COMARCA; COORD REG BACIAS PARANAIBA BAIXO RIO GRANDE 13.283,29 5.313,32 0,00 0,00 0,00 0,00 18.596,61 2.045,63 3.630,02 0,00 5.675,65 12.920,96 7.500,92 1.953,92 31/01/2020
28 465500 ADRIANO CASSIANO MATOS ANALISTA DO MP ATIVO ARAXÁ - COMARCA; ARAXA-PJ-02PJ 9.337,87 933,79 0,00 0,00 0,00 0,00 10.271,66 1.129,88 1.644,63 0,00 2.774,51 7.497,15 1.550,00 0,00 31/01/2020
29 500500 ADRIANO DE ALMEIDA SILVA OFICIAL DO MP ATIVO UBERABA - COMARCA; UBERABA-PJ-12PJ 6.882,47 688,25 0,00 0,00 0,00 0,00 7.570,72 909,10 587,96 0,00 1.497,06 6.073,66 2.818,93 3.395,00 31/01/2020
30 187200 ADRIANO DE FREITAS MARON OFICIAL DO MP ATIVO PONTE NOVA - COMARCA; PONTE NOVA-PJ-03PJ 11.317,16 9.053,73 0,00 0,00 0,00 2.240,80 22.611,69 2.446,16 4.732,63 0,00 7.178,79 15.432,90 7.701,91 10.685,12 31/01/2020
31 477900 ADRIANO FERREIRA DE ALMEIDA OFICIAL DO MP ATIVO TAIOBEIRAS - COMARCA; TAIOBEIRAS-PJ-UNPJ 6.882,47 688,25 0,00 0,00 0,00 0,00 7.570,72 832,78 879,30 0,00 1.712,08 5.858,64 7.803,29 1.144,91 31/01/2020
32 269101 ADRIANO PEREIRA SILVA ANALISTA DO MP ATIVO UBERABA - COMARCA; UBERABA-PJ-02PJ 9.337,87 933,79 0,00 0,00 0,00 0,00 10.271,66 1.129,88 1.488,22 0,00 2.618,10 7.653,56 8.071,52 527,28 31/01/2020
33 414200 ADRIANO RODRIGUES FERNANDES ANALISTA DO MP ATIVO CARANDAÍ - COMARCA; CARANDAI-PJ-UNPJ 9.337,87 1.867,57 0,00 0,00 0,00 0,00 11.205,44 1.271,46 1.768,90 0,00 3.040,36 8.165,08 1.705,45 1.728,76 31/01/2020
34 536700 ADRIELLE COSTA MARIA MOURAO FIGUEIREDO OFICIAL DO MP ATIVO SERRO - COMARCA; SERRO-PJ-SECRETARIA 4.612,94 461,29 0,00 0,00 0,00 0,00 5.074,23 558,17 379,98 0,00 938,15 4.136,08 7.393,62 607,54 31/01/2020
35 514300 ADRIENE DAMASCENO BRAGA ANALISTA DO MP ATIVO ALFENAS - COMARCA; ALFENAS-PJ-03PJ 9.337,87 933,79 0,00 0,00 0,00 0,00 10.271,66 1.129,88 1.644,63 0,00 2.774,51 7.497,15 2.319,39 0,00 31/01/2020
36 254600 ADRIENE DOMINGUES COSTA ANALISTA DO MP ATIVO BELO HORIZONTE - COMARCA; SUPERINTENDENCIA DE RECURSOS HUMANOS 14.941,94 4.482,58 0,00 0,00 0,00 0,00 19.424,52 2.218,07 3.884,79 0,00 6.102,86 13.321,66 0,00 4.633,90 31/01/2020
37 252001 ADRIENE GOMES BARRETO ANALISTA DO MP ATIVO BELO HORIZONTE - COMARCA; BH-19PJ SAUDE-SECRETARIA 150PJ 12.065,98 4.826,39 0,00 0,00 5.630,79 0,00 22.523,16 1.916,74 4.813,52 0,00 6.730,26 15.792,90 6.955,56 3.101,55 31/01/2020
38 645000 AFONSO CELSO GUIMARAES JUNIOR OFICIAL DO MP ATIVO PIRAPORA - COMARCA; PIRAPORA-PJ-01PJ 3.930,12 235,81 0,00 0,00 0,00 0,00 4.165,93 497,87 201,35 0,00 699,22 3.466,71 1.737,31 480,28 31/01/2020
39 302500 AGENOR JOSE DA SILVA JUNIOR ANALISTA DO MP ATIVO JUIZ DE FORA - COMARCA; JUIZ DE FORA-PJ-07PJ 14.162,21 2.832,44 0,00 0,00 0,00 0,00 16.994,65 1.869,41 3.185,81 0,00 5.055,22 11.939,43 7.138,27 975,25 31/01/2020
40 357500 AILSON WAGNER DE ALENCAR SILVA OFICIAL DO MP ATIVO BELO HORIZONTE - COMARCA; BH-12PJ JUIZO CRIMINAL-SECRETARIA 8.482,22 3.392,89 0,00 0,00 0,00 0,00 11.875,11 1.347,46 1.880,66 0,00 3.228,12 8.646,99 7.414,84 2.355,20 31/01/2020
41 366400 AILTON ALEXSSANDRO ALVES OFICIAL DO MP ATIVO PARÁ DE MINAS - COMARCA; PARA DE MINAS-PJ-05PJ 7.955,66 3.182,26 0,00 0,00 3.712,64 0,00 14.850,56 1.244,07 2.877,62 0,00 4.121,69 10.728,87 1.550,00 783,54 31/01/2020
42 318900 AILTON DE CASTRO RIBEIRO JUNIOR OFICIAL DO MP ATIVO ITAJUBA - COMARCA; ITAJUBA-PJ-01PJ 8.758,36 2.627,51 0,00 0,00 0,00 0,00 11.385,87 1.288,90 1.708,78 0,00 2.997,68 8.388,19 8.399,10 2.164,24 31/01/2020
43 464400 ALAN MONTEIRO GASPAR ANALISTA DO MP ATIVO SETE LAGOAS - COMARCA; SETE LAGOAS-PJ-03PJ 9.337,87 933,79 0,00 0,00 0,00 0,00 10.271,66 1.129,88 1.644,63 0,00 2.774,51 7.497,15 7.302,13 527,28 31/01/2020
44 670200 ALANA ARAUJO AGUIAR ASSESSOR ATIVO BELO HORIZONTE - COMARCA; ASSESS EXECUTIVA DO CONSELHO SUPERIOR DO MP 0,00 0,00 2.852,73 0,00 0,00 0,00 2.852,73 434,80 172,89 0,00 607,69 2.245,04 1.550,00 648,00 31/01/2020
45 492000 ALANA DE CASTRO FREITAS OFICIAL DO MP ATIVO ITUMIRIM - COMARCA; ITUMIRIM-PJ-SECRETARIA 5.678,79 567,88 0,00 0,00 0,00 0,00 6.246,67 687,13 659,51 0,00 1.346,64 4.900,03 1.550,00 0,00 31/01/2020
46 306700 ALANA MARCIA DE OLIVEIRA OFICIAL DO MP ATIVO BELO HORIZONTE - COMARCA; DIRETORIA DE ADMINISTRACAO FINANCEIRA 8.758,36 2.627,51 0,00 0,00 0,00 0,00 11.385,87 1.252,45 1.917,33 0,00 3.169,78 8.216,09 7.971,53 1.400,01 31/01/2020
47 324500 ALANMAR COUTINHO COSTA OFICIAL DO MP ATIVO LEOPOLDINA - COMARCA; LEOPOLDINA-PJ-02PJ 8.482,22 1.696,44 0,00 0,00 0,00 0,00 10.178,66 1.119,65 1.517,59 0,00 2.637,24 7.541,42 7.404,14 808,21 31/01/2020
48 407300 ALBERTO LUIZ SOARES DE OLIVEIRA ANALISTA DO MP ATIVO BELO HORIZONTE - COMARCA; DIRETORIA DE PROJETOS DE EDIFICACOES 11.317,16 2.263,43 0,00 0,00 0,00 0,00 13.580,59 1.493,86 2.454,49 0,00 3.948,35 9.632,24 1.550,00 1.107,71 31/01/2020
49 118200 ALBERTO PEREIRA DA COSTA OFICIAL DO MP ATIVO DORES DO INDAIÁ - COMARCA; DORES DO INDAIA-PJ-UNPJ 14.162,21 11.329,76 0,00 0,00 0,00 2.804,12 28.296,09 2.804,12 6.036,66 0,00 8.840,78 19.455,31 6.809,09 1.270,83 31/01/2020
50 282400 ALCILENE MARISE DE ARAUJO ANALISTA DO MP ATIVO BELO HORIZONTE - COMARCA; BH-23PJ INF-FISC MED SOC FEC 15.533,57 4.660,07 0,00 0,00 6.731,21 0,00 26.924,85 2.221,30 5.819,84 0,00 8.041,14 18.883,71 1.550,00 1.586,67 31/01/2020
51 112600 ALCIONE DA MOTA JARDIM OFICIAL DO MP ATIVO BELO HORIZONTE - COMARCA; CAO-CRIANCAS E ADOLESCENTES-SECRETARIA 11.685,57 8.179,91 0,00 0,00 0,00 0,00 19.865,48 2.760,16 4.726,82 0,00 7.486,98 12.378,50 1.550,00 8.144,18 31/01/2020
52 396400 ALCIONE DE FREITAS E SILVA ANALISTA DO MP ATIVO BELO HORIZONTE - COMARCA; ASSESS JUR DO CONS SUPERIOR DO MINISTERIO PUB 12.065,98 4.826,39 0,00 0,00 0,00 0,00 16.892,37 1.916,74 3.265,05 0,00 5.181,79 11.710,58 6.955,56 2.924,03 31/01/2020
53 657400 ALCIONE MARIA FERREIRA ASSESSOR ATIVO BELO HORIZONTE - COMARCA; PROC JUST RECURSOS ESP E EXTRAORD CRIMINAIS 0,00 0,00 9.641,94 0,00 0,00 0,00 9.641,94 671,12 1.900,12 0,00 2.571,24 7.070,70 1.550,00 0,00 31/01/2020
54 161600 ALCIONE NERY SOUZA ASSESSOR ATIVO BELO HORIZONTE - COMARCA; BH-18PJ DIREITOS HUMANOS-SECRETARIA 0,00 3.788,38 7.576,76 0,00 0,00 0,00 11.365,14 671,12 2.374,00 0,00 3.045,12 8.320,02 1.550,00 0,00 31/01/2020
55 376000 ALDA GOMES LANA OFICIAL DO MP ATIVO BELO HORIZONTE - COMARCA; BH-18PJ VIOLENCIA DOMESTICA-SECRETARIA 7.955,66 1.591,13 0,00 0,00 0,00 0,00 9.546,79 1.050,15 1.415,08 0,00 2.465,23 7.081,56 7.693,24 1.184,89 31/01/2020
56 148000 ALDA MARTINS SIMOES OFICIAL DO MP ATIVO BELO HORIZONTE - COMARCA; BH-23PJ CIVEL- FISC ENT AB POL 15.533,57 7.766,79 0,00 0,00 0,00 0,00 23.300,36 2.563,04 4.833,40 0,00 7.396,44 15.903,92 1.550,00 2.516,45 31/01/2020
57 318400 ALDO CREPALDI JUNIOR OFICIAL DO MP ATIVO BELO HORIZONTE - COMARCA; DIVISAO DE MATERIAIS 8.758,36 2.627,51 0,00 0,00 0,00 0,00 11.385,87 1.358,41 1.805,38 0,00 3.163,79 8.222,08 7.470,65 5.038,67 31/01/2020
58 604500 ALENIZE APARECIDA RODRIGUES HENRIQUE OFICIAL DO MP ATIVO RIO NOVO - COMARCA; RIO NOVO-PJ-UNPJ 4.612,94 461,29 0,00 0,00 0,00 0,00 5.074,23 575,77 379,98 0,00 955,75 4.118,48 6.784,23 1.248,07 31/01/2020
59 197900 ALESSA DE SOUSA E SILVA OFICIAL DO MP ATIVO OLIVEIRA - COMARCA; OLIVEIRA-PJ-02PJ 13.715,83 5.486,33 0,00 0,00 0,00 0,00 19.202,16 2.112,24 3.726,09 0,00 5.838,33 13.363,83 7.168,04 993,31 31/01/2020
60 428500 ALESSANDRA ALVES DINIZ OFICIAL DO MP ATIVO BELO HORIZONTE - COMARCA; CENTRAL DE APOIO TECNICO-SECRETARIA 5.326,33 2.663,17 0,00 0,00 0,00 0,00 7.989,50 878,85 1.086,07 0,00 1.964,92 6.024,58 1.550,00 287,57 31/01/2020
61 286801 ALESSANDRA BOTELHO JUNQUEIRA DE MENEZES ANALISTA DO MP ATIVO PASSOS - COMARCA; PASSOS-PJ-05PJ 11.685,57 3.505,67 0,00 0,00 0,00 0,00 15.191,24 1.671,04 2.640,15 0,00 4.311,19 10.880,05 8.557,63 927,56 31/01/2020
62 307000 ALESSANDRA CRISTINA SANTOS MENDES ANALISTA DO MP ATIVO BELO HORIZONTE - COMARCA; BH-18PJ VIOLENCIA DOMESTICA 10.960,26 3.288,08 0,00 0,00 0,00 0,00 14.248,34 1.567,32 2.565,78 0,00 4.133,10 10.115,24 1.550,00 1.072,65 31/01/2020
63 264400 ALESSANDRA DE SOUZA SANTOS ANALISTA DO MP ATIVO BELO HORIZONTE - COMARCA; OUVIDORIA DO MPMG 16.148,50 6.459,40 0,00 0,00 0,00 0,00 22.607,90 2.486,87 4.663,92 0,00 7.150,79 15.457,11 1.550,00 766,20 31/01/2020
64 441500 ALESSANDRA DRUMMOND DE FIGUEIREDO ROSSI ANALISTA DO MP ATIVO BELO HORIZONTE - COMARCA; DIRETORIA DE PROJETOS DE EDIFICACOES 9.337,87 1.867,57 0,00 0,00 0,00 0,00 11.205,44 1.232,60 1.873,17 0,00 3.105,77 8.099,67 7.376,83 534,13 31/01/2020
65 524000 ALESSANDRA LUCIOLI DE BARROS GUERRA ANALISTA DO MP ATIVO BELO HORIZONTE - COMARCA; BH-19PJ SAUDE--SECRETARIA 9.337,87 933,79 0,00 0,00 0,00 0,00 10.271,66 1.129,88 1.488,22 0,00 2.618,10 7.653,56 7.791,56 1.364,97 31/01/2020
66 479900 ALESSANDRA MARA ANDRADE DE FARIA OFICIAL DO MP ATIVO UBERABA - COMARCA; UBERABA-PJ-09PJ 6.882,47 688,25 0,00 0,00 0,00 0,00 7.570,72 832,78 983,57 0,00 1.816,35 5.754,37 7.803,29 1.144,91 31/01/2020
67 226700 ALESSANDRA MARA VASCONCELOS REZENDE OFICIAL DO MP ATIVO CONSELHEIRO LAFAIETE - COMARCA; CONSELHEIRO LAFAIETE-PJ-07PJ 9.337,87 2.801,36 0,00 0,00 0,00 0,00 12.139,23 1.335,32 2.101,72 0,00 3.437,04 8.702,19 7.866,26 1.894,90 31/01/2020
68 112100 ALESSANDRA MARCIA FERREIRA OFICIAL DO MP ATIVO BELO HORIZONTE - COMARCA; BELO HORIZONTE- SECRETARIA DAS PROMOTORIAS 9.337,87 4.668,94 0,00 0,00 0,00 0,00 14.006,81 1.540,75 2.558,81 0,00 4.099,56 9.907,25 1.550,00 0,00 31/01/2020
69 196500 ALESSANDRA MARIA RIBEIRO LUCIANO OFICIAL DO MP ATIVO RIO PARANAÍBA - COMARCA; RIO PARANAIBA-PJ-UNPJ 13.715,83 5.486,33 0,00 0,00 0,00 0,00 19.202,16 2.178,85 3.726,09 0,00 5.904,94 13.297,22 1.550,00 2.963,20 31/01/2020
70 91400 ALESSANDRA MENDES VASCONCELOS DE SOUZA OFICIAL DO MP ATIVO BELO HORIZONTE - COMARCA; BH-23PJ INF-FISC MED SOC AB 17.452,52 12.216,76 0,00 0,00 0,00 3.263,62 32.932,90 3.263,62 7.289,69 0,00 10.553,31 22.379,59 1.550,00 0,00 31/01/2020
71 651700 ALESSANDRA PROFIRIO SOUZA OFICIAL DO MP ATIVO NOVA ERA - COMARCA; NOVA ERA-PJ-UNPJ 3.930,12 235,81 0,00 0,00 0,00 0,00 4.165,93 549,75 204,39 0,00 754,14 3.411,79 1.550,00 1.593,07 31/01/2020
72 384900 ALESSANDRA RODRIGUES ANALISTA DO MP ATIVO VISCONDE DO RIO BRANCO - COMARCA; VISCONDE DO RIO BRANCO-PJ-03PJ 12.065,98 2.413,20 0,00 0,00 0,00 0,00 14.479,18 1.642,92 2.622,28 0,00 4.265,20 10.213,98 8.275,40 2.764,65 31/01/2020
73 390000 ALESSANDRA SPADANO MASSARA VASCONCELOS OFICIAL DO MP ATIVO BETIM - COMARCA; BETIM-PJ-10PJ 7.955,66 1.591,13 0,00 0,00 0,00 0,00 9.546,79 1.131,70 1.467,22 0,00 2.598,92 6.947,87 1.550,00 3.380,65 31/01/2020
74 426500 ALESSANDRO CAMPOS DE PAIVA ANALISTA DO MP ATIVO BELO HORIZONTE - COMARCA; DIRETORIA DE PUBLICIDADE INSTITUCIONAL 11.685,57 2.337,11 0,00 0,00 4.674,23 0,00 18.696,91 1.587,07 3.794,18 0,00 5.381,25 13.315,66 1.550,00 1.832,00 31/01/2020
75 623400 ALESSANDRO DE OLIVEIRA REZENDE ANALISTA DO MP ATIVO BELO HORIZONTE - COMARCA; DIRET DE INFORMACAO E CONHECIMENTO-DINC/CEAF 7.576,76 757,68 0,00 0,00 2.778,15 0,00 11.112,59 916,79 2.215,87 0,00 3.132,66 7.979,93 1.550,00 1.678,22 31/01/2020
76 420600 ALESSANDRO SILVA OFICIAL DO MP ATIVO VISCONDE DO RIO BRANCO - COMARCA; VISCONDE DO RIO BRANCO-PJ-02PJ 7.576,76 2.273,03 0,00 0,00 0,00 0,00 9.849,79 1.083,48 989,43 0,00 2.072,91 7.776,88 7.965,31 1.345,04 31/01/2020
77 375301 ALETHEIA PATRICIA ASSIS MORAIS MOREIRA ANALISTA DO MP ATIVO ITABIRA - COMARCA; ITABIRA-PJ-02PJ 8.482,22 848,22 0,00 0,00 0,00 0,00 9.330,44 1.026,35 1.362,13 0,00 2.388,48 6.941,96 9.201,51 809,29 31/01/2020
78 382300 ALEX CARVALHO LIMA ANALISTA DO MP ATIVO UBERLÂNDIA - COMARCA; UBERLANDIA-PJ-14PJ 12.065,98 2.413,20 0,00 0,00 0,00 0,00 14.479,18 1.642,92 2.502,98 0,00 4.145,90 10.333,28 7.506,01 2.612,49 31/01/2020
79 195201 ALEX DE CASTRO PEREIRA ANALISTA DO MP ATIVO UBERABA - COMARCA; UBERABA-PJ-09PJ 15.533,57 6.213,43 0,00 0,00 0,00 0,00 21.747,00 2.392,17 4.453,22 0,00 6.845,39 14.901,61 7.197,14 2.065,10 31/01/2020
80 358900 ALEX DE PAULA LANZA ASSESSOR ATIVO BELO HORIZONTE - COMARCA; DIRETORIA DE IMPRENSA 0,00 0,00 9.641,94 0,00 0,00 0,00 9.641,94 671,12 1.900,12 0,00 2.571,24 7.070,70 2.319,39 0,00 31/01/2020
81 178400 ALEX RODRIGO SALDANHA GUIMARAES OFICIAL DO MP ATIVO BELO HORIZONTE - COMARCA; DIRETORIA DE SISTEMAS DE INFORMACAO 5.678,79 2.271,52 0,00 0,00 0,00 0,00 7.950,31 874,53 1.076,48 0,00 1.951,01 5.999,30 1.550,00 0,00 31/01/2020
82 413500 ALEX VILELA OLIVEIRA ANALISTA DO MP ATIVO GOVERNADOR VALADARES - COMARCA; COORD REG PJ DEF EDU DIR CRIANCA ADOL RIODOCE 11.685,57 2.337,11 0,00 0,00 0,00 0,00 14.022,68 1.542,49 2.562,69 0,00 4.105,18 9.917,50 7.318,22 907,62 31/01/2020
83 264300 ALEXANDRA FATIMA SARAIVA SOARES ANALISTA DO MP ATIVO BELO HORIZONTE - COMARCA; CENTRAL DE APOIO TECN-SETOR DE MEIO AMBIENTE 16.148,50 4.844,55 0,00 0,00 0,00 0,00 20.993,05 2.309,24 4.268,69 0,00 6.577,93 14.415,12 1.550,00 711,47 31/01/2020
84 488000 ALEXANDRA LARA PAIS DE CARVALHO ANALISTA DO MP ATIVO SABINÓPOLIS - COMARCA; SABINOPOLIS-PJ-UNPJ 8.758,36 875,84 0,00 0,00 0,00 0,00 9.634,20 1.059,76 1.332,20 0,00 2.391,96 7.242,24 2.319,39 270,34 31/01/2020
85 256300 ALEXANDRA SANTOS GOMES OFICIAL DO MP ATIVO BELO HORIZONTE - COMARCA; DIRETORIA GESTAO COMPRAS LICITACOES 8.482,22 2.544,67 0,00 0,00 0,00 0,00 11.026,89 1.212,96 1.829,47 0,00 3.042,43 7.984,46 1.550,00 309,52 31/01/2020
86 403300 ALEXANDRE AUGUSTO RODRIGUES ANALISTA DO MP ATIVO ÁGUAS FORMOSAS - COMARCA; AGUAS FORMOSAS-PJ-UNPJ 9.337,87 1.867,57 0,00 0,00 0,00 0,00 11.205,44 1.232,60 1.873,17 0,00 3.105,77 8.099,67 2.319,39 0,00 31/01/2020
87 640900 ALEXANDRE BARBOSA MASCARENHAS ANALISTA DO MP ATIVO BETIM - COMARCA; BETIM-PJ-02PJ 5.678,79 340,73 0,00 0,00 0,00 0,00 6.019,52 681,84 275,60 0,00 957,44 5.062,08 1.550,00 179,01 31/01/2020
88 311700 ALEXANDRE BARCELOS RESENDE OFICIAL DO MP ATIVO BELO HORIZONTE - COMARCA; BH-07PJ 03 TRIBUNAL DO JURI-GAB 109PJ 7.106,49 1.421,30 0,00 0,00 0,00 0,00 8.527,79 967,63 1.217,82 0,00 2.185,45 6.342,34 6.666,67 1.784,46 31/01/2020
89 285600 ALEXANDRE CAMPOS DE OLIVEIRA OFICIAL DO MP ATIVO UBERABA - COMARCA; COORD REG BACIAS PARANAIBA BAIXO RIO GRANDE 9.337,87 2.801,36 0,00 0,00 4.046,41 0,00 16.185,64 1.335,32 3.058,07 0,00 4.393,39 11.792,25 7.376,83 534,13 31/01/2020
90 509200 ALEXANDRE CAPUANO DE REZENDE ANALISTA DO MP ATIVO BELO HORIZONTE - COMARCA; GABINETE DE PROCURADOR DE JUSTIÇA - SALA 715 9.337,87 933,79 0,00 0,00 3.423,89 0,00 13.695,55 1.129,88 2.534,06 0,00 3.663,94 10.031,61 1.550,00 0,00 31/01/2020
91 229400 ALEXANDRE CARLOS BOTREL DIRETOR/OFICIAL ATIVO BELO HORIZONTE - COMARCA; SUPERINTENDENCIA DOS ORGAOS COLEGIADOS 0,00 4.844,55 16.148,50 0,00 0,00 0,00 20.993,05 1.723,72 4.429,71 0,00 6.153,43 14.839,62 7.428,05 538,82 31/01/2020
92 411900 ALEXANDRE CARVALHO SANTOS RIBEIRO ANALISTA DO MP ATIVO OLIVEIRA - COMARCA; OLIVEIRA-PJ-02PJ 11.685,57 2.337,11 0,00 0,00 0,00 0,00 14.022,68 1.591,12 2.562,69 0,00 4.153,81 9.868,87 8.697,85 2.677,45 31/01/2020
93 641600 ALEXANDRE DA SILVA ASSUNCAO OFICIAL DO MP ATIVO BELO HORIZONTE - COMARCA; SERVICO MEDICO-DEPTO PERIC MEDICA SAUDE OCUP 4.058,04 243,48 0,00 0,00 0,00 0,00 4.301,52 488,08 225,25 0,00 713,33 3.588,19 1.550,00 135,60 31/01/2020
94 201200 ALEXANDRE DE ALENCAR CORDEIRO OFICIAL DO MP ATIVO ÁGUAS FORMOSAS - COMARCA; AGUAS FORMOSAS-PJ-UNPJ 5.678,79 2.839,40 0,00 0,00 0,00 0,00 8.518,19 937,00 1.215,47 0,00 2.152,47 6.365,72 1.550,00 0,00 31/01/2020
95 288200 ALEXANDRE DE VASCONCELOS COSTA KER ANALISTA DO MP ATIVO BELO HORIZONTE - COMARCA; BH-03PJ EMPRESARIAL-SECRETARIA 14.162,21 4.248,66 0,00 0,00 0,00 0,00 18.410,87 2.129,34 3.816,29 0,00 5.945,63 12.465,24 7.603,96 2.003,31 31/01/2020
96 445000 ALEXANDRE DIOGENES OLIVEIRA ANALISTA DO MP ATIVO SALINAS - COMARCA; SALINAS-PJ-02PJ 9.337,87 1.867,57 0,00 0,00 0,00 0,00 11.205,44 1.232,60 1.873,17 0,00 3.105,77 8.099,67 8.146,22 534,13 31/01/2020
97 463400 ALEXANDRE LEAL WINKELSTROTER ANALISTA DO MP ATIVO TEÓFILO OTONI - COMARCA; TEOFILO OTONI-PJ-04PJ 9.337,87 933,79 0,00 0,00 0,00 0,00 10.271,66 1.200,00 1.592,49 0,00 2.792,49 7.479,17 1.550,00 3.119,31 31/01/2020
98 615700 ALEXANDRE LUIZ DE CASTRO MACIEL ANALISTA DO MP ATIVO IBIRITÉ - COMARCA; IBIRITE-PJ-02PJ 7.576,76 757,68 0,00 0,00 0,00 0,00 8.334,44 916,79 1.170,49 0,00 2.087,28 6.247,16 1.550,00 655,00 31/01/2020
99 356900 ALEXANDRE MOISES MENDONCA E ARAUJO OFICIAL DO MP ATIVO UBERABA - COMARCA; UBERABA-PJ-13PJ 6.251,74 1.250,35 0,00 0,00 0,00 0,00 7.502,09 851,25 966,78 0,00 1.818,03 5.684,06 1.550,00 1.078,49 31/01/2020
100 633300 ALEXANDRE NONATO MARTINS OFICIAL DO MP ATIVO IGARAPÉ - COMARCA; IGARAPE-PJ-02PJ 4.058,04 243,48 0,00 0,00 0,00 0,00 4.301,52 473,17 191,01 0,00 664,18 3.637,34 4.185,15 356,72 31/01/2020
101 469900 ALEXANDRE PEREIRA GUEDES ANALISTA DO MP ATIVO CATAGUASES - COMARCA; CATAGUASES-PJ-03PJ 9.337,87 933,79 0,00 0,00 0,00 0,00 10.271,66 1.129,88 1.644,63 0,00 2.774,51 7.497,15 7.302,13 527,28 31/01/2020
102 208700 ALEXANDRE RESENDE FRAGA ANALISTA DO MP ATIVO BELO HORIZONTE - COMARCA; BH-19PJ SAUDE 17.452,52 6.981,01 0,00 0,00 8.144,51 0,00 32.578,04 2.687,69 7.194,07 0,00 9.881,76 22.696,28 1.550,00 0,00 31/01/2020
103 216401 ALEXANDRE RIBEIRO DE LIMA MAIORINO ANALISTA DO MP ATIVO UBERABA - COMARCA; UBERABA-PJ-03PJ 14.162,21 5.664,88 0,00 0,00 0,00 0,00 19.827,09 2.492,54 4.277,80 0,00 6.770,34 13.056,75 7.264,07 3.857,80 31/01/2020
104 475100 ALEXANDRE TEOTONIO COSTA ANALISTA DO MP ATIVO ARAGUARI - COMARCA; ARAGUARI-PJ-01PJ 9.337,87 933,79 0,00 0,00 0,00 0,00 10.271,66 1.129,88 1.540,36 0,00 2.670,24 7.601,42 1.550,00 0,00 31/01/2020
105 339000 ALEXANDRE VITOR CARDOSO OFICIAL DO MP ATIVO BELO HORIZONTE - COMARCA; PROMOT ESTADUAL DE DEF PATRI CULT E TUR DE MG 5.678,79 1.135,76 0,00 0,00 0,00 0,00 6.814,55 749,60 642,09 0,00 1.391,69 5.422,86 7.546,80 873,71 31/01/2020
106 623100 ALEXSANDER BATISTA AGUIAR ANALISTA DO MP ATIVO BELO HORIZONTE - COMARCA; DIRETORIA DE SUPORTE E MANUTENCAO 7.576,76 757,68 0,00 0,00 0,00 0,00 8.334,44 916,79 1.014,08 0,00 1.930,87 6.403,57 8.487,26 1.419,83 31/01/2020
107 513300 ALFSON MIRANDA BRAGA ANALISTA DO MP ATIVO BELO HORIZONTE - COMARCA; BH-12PJ JUIZO CRIMINAL-GAB 092PJ 9.337,87 933,79 0,00 0,00 0,00 0,00 10.271,66 1.129,88 1.644,63 0,00 2.774,51 7.497,15 1.550,00 0,00 31/01/2020
108 618400 ALICE MAGALHAES MACEDO DE CARVALHO ANALISTA DO MP ATIVO AÇUCENA - COMARCA; ACUCENA-PJ-UNPJ 7.576,76 757,68 0,00 0,00 0,00 0,00 8.334,44 916,79 1.170,49 0,00 2.087,28 6.247,16 2.319,39 655,00 31/01/2020
109 471000 ALICE TITONELI MOREIRA ANALISTA DO MP ATIVO MIRADOURO - COMARCA; MIRADOURO-PJ-UNPJ 9.337,87 933,79 0,00 0,00 0,00 0,00 10.271,66 1.129,88 1.592,49 0,00 2.722,37 7.549,29 2.319,39 0,00 31/01/2020
110 622400 ALINE BALBINO PORTUGAL LOPES ANALISTA DO MP ATIVO TRÊS PONTAS - COMARCA; TRES PONTAS-PJ-03PJ 7.576,76 757,68 0,00 0,00 0,00 0,00 8.334,44 916,79 1.170,49 0,00 2.087,28 6.247,16 2.319,39 655,00 31/01/2020
111 373000 ALINE BOTELHO RESENDE OFICIAL DO MP ATIVO JUIZ DE FORA - COMARCA; JUIZ DE FORA-PJ-22PJ 7.823,48 1.564,70 0,00 0,00 0,00 0,00 9.388,18 1.032,70 1.428,40 0,00 2.461,10 6.927,08 1.550,00 263,49 31/01/2020
112 407700 ALINE CRISTINA RODRIGUES PEREIRA COORDENADOR/ANALISTA ATIVO BELO HORIZONTE - COMARCA; DIRETORIA DE PROJETOS DE EDIFICACOES 0,00 2.491,77 12.458,83 0,00 0,00 0,00 14.950,60 1.232,60 2.903,09 0,00 4.135,69 10.814,91 8.299,63 548,19 31/01/2020
113 193100 ALINE CRISTINA SENA OLIVEIRA OFICIAL DO MP ATIVO UBERLÂNDIA - COMARCA; UBERLANDIA-PJ-03PJ 13.283,29 5.313,32 0,00 0,00 6.198,87 0,00 24.795,48 2.511,94 5.659,82 0,00 8.171,76 16.623,72 8.776,71 10.945,86 31/01/2020
114 554200 ALINE CRISTINA SILVA SOUZA OFICIAL DO MP ATIVO TIROS - COMARCA; TIROS-PJ-UNPJ 4.995,72 499,57 0,00 0,00 0,00 0,00 5.495,29 604,48 475,61 0,00 1.080,09 4.415,20 1.550,00 154,19 31/01/2020
115 505500 ALINE DA CUNHA MARREIROS OLIVEIRA ANALISTA DO MP ATIVO CARANGOLA - COMARCA; CARANGOLA-PJ-03PJ 9.337,87 933,79 0,00 0,00 0,00 0,00 10.271,66 1.129,88 1.592,49 0,00 2.722,37 7.549,29 2.319,39 0,00 31/01/2020
116 433500 ALINE DE MELO QUEIROZ ASSESSOR/OFICIAL ATIVO BELO HORIZONTE - COMARCA; ASSESSORIA TECNICA DO PROCON-MG 0,00 1.928,39 9.641,94 0,00 0,00 0,00 11.570,33 1.080,56 2.003,66 0,00 3.084,22 8.486,11 2.248,98 0,00 31/01/2020
117 542700 ALINE DE SOUSA ALBINO ANALISTA DO MP ATIVO CARMO DO PARANAÍBA - COMARCA; CARMO DO PARANAIBA-PJ-01PJ 7.823,48 782,35 0,00 0,00 0,00 0,00 8.605,83 946,64 1.236,92 0,00 2.183,56 6.422,27 1.550,00 241,54 31/01/2020
118 330000 ALINE DIORIO MAYRINK OFICIAL DO MP ATIVO BELO HORIZONTE - COMARCA; BH-18PJ DIREITOS HUMANOS 6.455,21 1.291,04 0,00 0,00 2.582,08 0,00 10.328,33 876,71 1.736,61 0,00 2.613,32 7.715,01 7.598,30 1.634,89 31/01/2020
119 499000 ALINE FERREIRA LOPES ANALISTA DO MP ATIVO TEÓFILO OTONI - COMARCA; COORD. DE DEF. DO PAT. PUBLICO-JEQUIT./MUCURI 9.337,87 933,79 0,00 0,00 0,00 0,00 10.271,66 1.129,88 1.644,63 0,00 2.774,51 7.497,15 2.319,39 0,00 31/01/2020
120 405300 ALINE LAIA CARDOZO DIRETOR/ANALISTA ATIVO BELO HORIZONTE - COMARCA; SUPERINTENDENCIA LOGISTICA SERVICOS 0,00 3.229,70 16.148,50 0,00 0,00 0,00 19.378,20 1.693,13 4.007,84 0,00 5.700,97 13.677,23 6.975,90 2.186,23 31/01/2020
121 278200 ALINE MARCIA FARIA BARBOSA FERNANDES OFICIAL DO MP ATIVO BARBACENA - COMARCA; BARBACENA-PJ-SECRETARIA 6.251,74 1.875,52 0,00 0,00 0,00 0,00 8.127,26 922,18 963,37 0,00 1.885,55 6.241,71 6.580,09 1.615,36 31/01/2020
122 389000 ALINE NERI NOBRE ANALISTA DO MP ATIVO MONTES CLAROS - COMARCA; COORD REG PJ DEF EDUC DIR CRIANCA ADOL NORTE 12.065,98 3.619,79 0,00 0,00 5.228,59 0,00 20.914,36 1.725,43 4.407,60 0,00 6.133,03 14.781,33 1.550,00 440,13 31/01/2020
123 294600 ALINE PATRICIA SILVA VIEIRA OFICIAL DO MP ATIVO UBERLÂNDIA - COMARCA; UBERLANDIA-PJ-03PJ 9.337,87 2.801,36 0,00 0,00 4.493,16 0,00 16.632,39 1.335,32 3.601,63 0,00 4.936,95 11.695,44 7.480,97 1.883,92 31/01/2020
124 420000 ALINE RODRIGUES CAMOROPIN ANALISTA DO MP ATIVO SABARÁ - COMARCA; SABARA-PJ-02PJ 11.685,57 2.337,11 0,00 0,00 0,00 0,00 14.022,68 1.591,12 2.562,69 0,00 4.153,81 9.868,87 1.550,00 1.983,14 31/01/2020
125 408300 ALINE SILVA ARAUJO DE PAULA ANALISTA DO MP ATIVO SÃO SEBASTIÃO DO PARAÍSO - COMARCA; SAO SEBASTIAO DO PARAISO-PJ-02PJ 11.685,57 2.337,11 0,00 0,00 0,00 0,00 14.022,68 1.542,49 2.562,69 0,00 4.105,18 9.917,50 2.478,54 393,46 31/01/2020
126 425400 ALINE TRINDADE DE FREITAS CAMPOS OFICIAL DO MP ATIVO BELO HORIZONTE - COMARCA; BH-14PJ DEFESA CONSUMIDOR-SECRETARIA 7.337,85 1.467,57 0,00 0,00 0,00 0,00 8.805,42 968,60 1.285,77 0,00 2.254,37 6.551,05 7.715,38 775,37 31/01/2020
127 517200 ALISSOM PEREIRA DA SILVA ANALISTA DO MP ATIVO BORDA DA MATA - COMARCA; BORDA DA MATA-PJ-UNPJ 9.337,87 933,79 0,00 0,00 3.423,89 0,00 13.695,55 1.129,88 2.586,20 0,00 3.716,08 9.979,47 7.302,13 527,28 31/01/2020
128 442400 ALISSON LABRE ANALISTA DO MP ATIVO VARGINHA - COMARCA; VARGINHA-PJ-02PJ 9.337,87 1.867,57 0,00 0,00 3.735,15 0,00 14.940,59 1.232,60 2.900,34 0,00 4.132,94 10.807,65 8.146,22 534,13 31/01/2020
129 643800 ALLAN PAUL FONSECA DE CASTRO OFICIAL DO MP ATIVO CONTAGEM - COMARCA; CONTAGEM-PJ-06PJ 4.326,60 259,60 0,00 0,00 0,00 0,00 4.586,20 548,09 282,26 0,00 830,35 3.755,85 5.840,50 648,72 31/01/2020
130 612900 ALLAN VINICIUS VIEIRA ARAUJO OFICIAL DO MP ATIVO BELO HORIZONTE - COMARCA; BH-09PJ AUDITORIA MILITAR-SECRETARIA 4.838,22 483,82 0,00 0,00 0,00 0,00 5.322,04 585,42 433,21 0,00 1.018,63 4.303,41 1.550,00 349,74 31/01/2020
131 349000 ALLEC RODRIGUES VIEIRA OFICIAL DO MP ATIVO BELO HORIZONTE - COMARCA; COORD EST DEF DIR FAMILIA PESSOA DEFICI IDOSO 8.482,22 1.696,44 0,00 0,00 0,00 0,00 10.178,66 1.260,89 1.583,03 0,00 2.843,92 7.334,74 7.250,05 487,19 31/01/2020
132 297300 ALLYSON SALIBA MONTEIRO LAIZO ANALISTA DO MP ATIVO CONSELHEIRO LAFAIETE - COMARCA; CONSELHEIRO LAFAIETE-PJ-03PJ 15.533,57 4.660,07 0,00 0,00 0,00 0,00 20.193,64 2.299,40 4.073,03 0,00 6.372,43 13.821,21 8.188,96 3.808,37 31/01/2020
133 303700 ALMIR LOPES LOURES ANALISTA DO MP ATIVO BELO HORIZONTE - COMARCA; CENTRAL DE APOIO TECN-SETOR DE MEIO AMBIENTE 15.533,57 4.660,07 0,00 0,00 6.731,21 0,00 26.924,85 2.221,30 5.924,12 0,00 8.145,42 18.779,43 7.403,01 1.386,81 31/01/2020
134 515900 ALTAIR NEVES JUNIOR OFICIAL DO MP ATIVO BELO HORIZONTE - COMARCA; BH-01PJ FAZENDA PUBLICA-SECRETARIA 6.251,74 625,17 0,00 0,00 0,00 0,00 6.876,91 780,31 813,76 0,00 1.594,07 5.282,84 7.491,37 1.590,40 31/01/2020
135 233300 ALVARINDO BATISTA ANALISTA DO MP ATIVO BELO HORIZONTE - COMARCA; DIVISAO DE MULTIMIDIA 17.452,52 5.235,76 0,00 0,00 0,00 0,00 22.688,28 2.495,71 4.631,46 0,00 7.127,17 15.561,11 2.319,39 0,00 31/01/2020
136 274100 ALYSSON CARVALHO VIDAL DE LACERDA OFICIAL DO MP ATIVO MANHUAÇU - COMARCA; MANHUACU-PJ-01PJ 9.337,87 2.801,36 0,00 0,00 0,00 0,00 12.139,23 1.335,32 2.101,72 0,00 3.437,04 8.702,19 1.550,00 0,00 31/01/2020
137 621000 AMANDA BASTOS ALVES ANALISTA DO MP ATIVO BELO HORIZONTE - COMARCA; ASSESS TECNICO-JUR JUNTO AS PROC. DE JUST 7.576,76 757,68 0,00 0,00 0,00 0,00 8.334,44 916,79 1.170,49 0,00 2.087,28 6.247,16 1.550,00 655,00 31/01/2020
138 521700 AMANDA CRISTINA AGUIAR MACHADO OFICIAL DO MP ATIVO CONGONHAS - COMARCA; CONGONHAS-PJ-01PJ 4.995,72 499,57 0,00 0,00 1.831,76 0,00 7.327,05 604,48 927,21 0,00 1.531,69 5.795,36 1.550,00 374,74 31/01/2020
139 613400 AMANDA DE ASSIS IUNES SANTOS ANALISTA DO MP ATIVO CONGONHAS - COMARCA; CONGONHAS-PJ-01PJ 7.576,76 757,68 0,00 0,00 0,00 0,00 8.334,44 916,79 1.170,49 0,00 2.087,28 6.247,16 2.319,39 655,00 31/01/2020
140 520800 AMANDA DE SOUZA MACHADO ANALISTA DO MP ATIVO BAEPENDI - COMARCA; BAEPENDI-PJ-UNPJ 9.337,87 933,79 0,00 0,00 0,00 0,00 10.271,66 1.129,88 1.540,36 0,00 2.670,24 7.601,42 7.791,56 1.364,97 31/01/2020
141 663900 AMANDA DENISE GONCALVES DA SILVA ASSESSOR ATIVO BELO HORIZONTE - COMARCA; DIRET DE FORMACAO, APERFEIC. E POS-GRADUACAO 0,00 0,00 2.852,73 0,00 0,00 0,00 2.852,73 434,80 172,89 0,00 607,69 2.245,04 1.550,00 648,00 31/01/2020
142 543100 AMANDA VIEIRA FREITAS BRESSANE ANALISTA DO MP ATIVO PARAGUAÇU - COMARCA; PARAGUACU-PJ-UNPJ 7.823,48 782,35 0,00 0,00 0,00 0,00 8.605,83 946,64 1.236,92 0,00 2.183,56 6.422,27 1.550,00 241,54 31/01/2020
143 434400 AMARILIS ASSIS SIMAO CURCIO ANALISTA DO MP ATIVO MANHUAÇU - COMARCA; MANHUACU-PJ-SECRETARIA 9.337,87 1.867,57 0,00 0,00 0,00 0,00 11.205,44 1.232,60 1.873,17 0,00 3.105,77 8.099,67 1.550,00 0,00 31/01/2020
144 652000 AMAURI SILVA ALVES OFICIAL DO MP ATIVO BELO HORIZONTE - COMARCA; BH-23PJ INFRACIONAL-SEC EXP 3.930,12 235,81 0,00 0,00 0,00 0,00 4.165,93 589,37 227,02 0,00 816,39 3.349,54 1.550,00 1.590,98 31/01/2020
145 273700 AMBROLINA CARNEIRO DE VASCONCELOS OFICIAL DO MP ATIVO FRUTAL - COMARCA; FRUTAL-PJ-01PJ 9.955,90 6.969,13 0,00 0,00 0,00 0,00 16.925,03 1.861,75 3.220,90 0,00 5.082,65 11.842,38 7.115,46 1.027,39 31/01/2020
146 58000 AMELIA GUARIZE DE CASTRO OFICIAL DO MP ATIVO JUIZ DE FORA - COMARCA; JUIZ DE FORA-PJ-SECRETARIA 6.251,74 6.251,74 0,00 0,00 4.167,83 1.375,38 18.046,69 1.375,38 3.715,25 0,00 5.090,63 12.956,06 1.550,00 0,00 31/01/2020
147 324301 AMERICA SUELI FERREIRA DA SILVA ANALISTA DO MP ATIVO MONTE CARMELO - COMARCA; MONTE CARMELO-PJ-02PJ 9.337,87 933,79 0,00 0,00 0,00 0,00 10.271,66 1.129,88 1.592,49 0,00 2.722,37 7.549,29 8.071,52 527,28 31/01/2020
148 273300 AMUJACY DE BRITO ASSIZ OFICIAL DO MP ATIVO BELO HORIZONTE - COMARCA; BH-12PJ JUIZO CRIMINAL-SECRETARIA 9.337,87 2.801,36 0,00 0,00 4.046,41 0,00 16.185,64 1.335,32 3.005,93 0,00 4.341,25 11.844,39 2.035,57 715,00 31/01/2020
149 482200 ANA ALICE LOPES ACHTSCHIN ANALISTA DO MP ATIVO BELO HORIZONTE - COMARCA; PROC JUST RECURSOS ESP E EXTRAORD CRIMINAIS 9.641,94 964,19 0,00 0,00 0,00 0,00 10.606,13 1.166,67 1.726,49 0,00 2.893,16 7.712,97 7.489,43 544,45 31/01/2020
150 490400 ANA AMELIA PAULINO GARCIA OFICIAL DO MP ATIVO CONTAGEM - COMARCA; CONTAGEM-PJ-13PJ 6.882,47 688,25 0,00 0,00 0,00 0,00 7.570,72 909,10 983,57 0,00 1.892,67 5.678,05 1.550,00 3.163,73 31/01/2020
151 279100 ANA CAROLINA ARAUJO PEREIRA ANALISTA DO MP ATIVO BELO HORIZONTE - COMARCA; DIRETORIA DE PROJETOS DE EDIFICACOES 15.533,57 4.660,07 0,00 0,00 0,00 0,00 20.193,64 2.305,90 4.020,90 0,00 6.326,80 13.866,84 2.319,39 3.606,44 31/01/2020
152 653300 ANA CAROLINA CYRNE DINIZ ASSESSOR ATIVO BELO HORIZONTE - COMARCA; CENTRAL DE APOIO TECNICO-SETOR CONTABIL 0,00 0,00 7.576,76 0,00 0,00 0,00 7.576,76 671,12 1.332,19 0,00 2.003,31 5.573,45 1.550,00 0,00 31/01/2020
153 359400 ANA CAROLINA DE ABREU FARIA ASSESSOR ATIVO BELO HORIZONTE - COMARCA; SUPERINTENDÊNCIA DE ENGENHARIA E ARQUITETURA 0,00 0,00 9.641,94 0,00 0,00 0,00 9.641,94 671,12 1.900,12 0,00 2.571,24 7.070,70 1.550,00 0,00 31/01/2020
154 408500 ANA CAROLINA DE CASTRO CARVALHO ANALISTA DO MP ATIVO BARBACENA - COMARCA; BARBACENA - SECRETARIA DAS PJS CRIMINAIS 11.685,57 2.337,11 0,00 0,00 0,00 0,00 14.022,68 1.542,49 2.562,69 0,00 4.105,18 9.917,50 7.318,22 907,62 31/01/2020
155 420200 ANA CAROLINA FERNANDES SILVA ANALISTA DO MP ATIVO BELO HORIZONTE - COMARCA; GABINETE DE PROCURADOR DE JUSTIÇA - SALA 704 11.317,16 2.263,43 0,00 0,00 0,00 0,00 13.580,59 1.630,77 2.454,49 0,00 4.085,26 9.495,33 1.550,00 5.583,16 31/01/2020
156 522100 ANA CAROLINA FERNANDINO VIDAL PEREIRA SANTOS OFICIAL DO MP ATIVO BELO HORIZONTE - COMARCA; SECRETARIA DO PROCON-MG 6.251,74 625,17 0,00 0,00 0,00 0,00 6.876,91 780,31 813,76 0,00 1.594,07 5.282,84 1.550,00 1.060,88 31/01/2020
157 502400 ANA CAROLINA GONCALVES FERNANDES ANALISTA DO MP ATIVO GRAO MOGOL - COMARCA; GRAO MOGOL-PJ-UNPJ 9.337,87 933,79 0,00 0,00 0,00 0,00 10.271,66 1.129,88 1.644,63 0,00 2.774,51 7.497,15 8.071,52 527,28 31/01/2020
158 529900 ANA CAROLINA GONCALVES PECANHA CHEQUER ANALISTA DO MP ATIVO MANHUAÇU - COMARCA; MANHUACU-PJ-04PJ 7.823,48 782,35 0,00 0,00 0,00 0,00 8.605,83 946,64 1.236,92 0,00 2.183,56 6.422,27 2.319,39 332,00 31/01/2020
159 431900 ANA CAROLINA MOTTA GUATIMOSIM ANALISTA DO MP ATIVO BELO HORIZONTE - COMARCA; GABINETE DE PROCURADOR DE JUSTIÇA - SALA 404 11.317,16 2.263,43 0,00 0,00 0,00 0,00 13.580,59 1.619,36 2.454,49 0,00 4.073,85 9.506,74 2.319,39 5.582,80 31/01/2020
160 490600 ANA CAROLINA XAVIER GODOY ANALISTA DO MP ATIVO BELO HORIZONTE - COMARCA; ASSESS TECNICO-JUR JUNTO AS PROC. DE JUST 9.337,87 933,79 0,00 0,00 0,00 0,00 10.271,66 1.129,88 1.540,36 0,00 2.670,24 7.601,42 8.840,91 527,28 31/01/2020
161 600300 ANA CAROLINE PEREIRA DINIZ ANALISTA DO MP ATIVO BELO HORIZONTE - COMARCA; COMB CRIMES PRAT POR AG POL MUN-SECRETARIA 7.823,48 782,35 0,00 0,00 0,00 0,00 8.605,83 946,64 1.236,92 0,00 2.183,56 6.422,27 9.103,57 777,97 31/01/2020
162 615800 ANA CAROLINE PEREIRA OLIVEIRA OFICIAL DO MP ATIVO ALFENAS - COMARCA; ALFENAS-PJ-06PJ 4.838,22 483,82 0,00 0,00 0,00 0,00 5.322,04 585,42 433,21 0,00 1.018,63 4.303,41 6.872,04 837,59 31/01/2020
163 324800 ANA CECILIA MENDES DA SILVA OFICIAL DO MP ATIVO OURO FINO - COMARCA; OURO FINO-PJ-01PJ 9.337,87 2.801,36 0,00 0,00 0,00 0,00 12.139,23 1.335,32 2.049,58 0,00 3.384,90 8.754,33 1.550,00 989,99 31/01/2020
164 441300 ANA CLAUDIA ALKIMIM MIRANDA BOMTEMPO ANALISTA DO MP ATIVO MONTES CLAROS - COMARCA; MONTES CLAROS-PJ-11PJ 11.317,16 2.263,43 0,00 0,00 0,00 0,00 13.580,59 1.619,36 2.350,22 0,00 3.969,58 9.611,01 1.550,00 5.202,50 31/01/2020
165 642500 ANA CLAUDIA DA COSTA NAVES OFICIAL DO MP ATIVO MONTE CARMELO - COMARCA; MONTE CARMELO-PJ-02PJ 3.930,12 235,81 0,00 0,00 0,00 0,00 4.165,93 497,87 201,35 0,00 699,22 3.466,71 2.319,39 480,28 31/01/2020
166 604900 ANA CLAUDIA OLIVEIRA DE MIRANDA OFICIAL DO MP ATIVO PONTE NOVA - COMARCA; PONTE NOVA-PJ-04PJ 4.612,94 461,29 0,00 0,00 0,00 0,00 5.074,23 575,13 337,33 0,00 912,46 4.161,77 3.579,69 803,28 31/01/2020
167 379300 ANA CRISTINA ALVES FLAVIO ANALISTA DO MP ATIVO SÃO GOTARDO - COMARCA; SAO GOTARDO-PJ-01PJ 12.065,98 2.413,20 0,00 0,00 0,00 0,00 14.479,18 1.642,92 2.622,28 0,00 4.265,20 10.213,98 3.088,78 2.081,59 31/01/2020
168 461200 ANA CRISTINA ALVES PASCHOAL ANALISTA DO MP ATIVO SANTA LUZIA - COMARCA; SANTA LUZIA-PJ-03PJ 9.337,87 933,79 0,00 0,00 0,00 0,00 10.271,66 1.129,88 1.592,49 0,00 2.722,37 7.549,29 1.550,00 0,00 31/01/2020
169 514100 ANA CRISTINA ARAUJO ASSUNCAO ANALISTA DO MP ATIVO BELO HORIZONTE - COMARCA; ASSESS JUR DO CONS SUPERIOR DO MINISTERIO PUB 9.337,87 933,79 0,00 0,00 0,00 0,00 10.271,66 1.129,88 1.592,49 0,00 2.722,37 7.549,29 8.097,17 527,28 31/01/2020
170 113400 ANA CRISTINA BRAGA ALBUQUERQUE ASSESSOR/ANALISTA ATIVO BELO HORIZONTE - COMARCA; ASSESS ESP ADM E FINANCEIRA DO PGJ ADJ ADM 27.903,47 19.532,44 0,00 0,00 0,00 0,00 47.435,91 3.900,84 7.810,02 11.973,69 23.684,55 23.751,36 7.223,96 520,12 31/01/2020
171 233800 ANA CRISTINA BRAGA SOARES RIOS OFICIAL DO MP ATIVO CONTAGEM - COMARCA; CONTAGEM-PJ-SECRETARIA 9.641,94 2.892,58 0,00 0,00 4.178,17 0,00 16.712,69 1.378,80 3.347,46 0,00 4.726,26 11.986,43 1.550,00 351,81 31/01/2020
172 186400 ANA CRISTINA DE AZEVEDO LOPES OFICIAL DO MP ATIVO UBÁ - COMARCA; UBA-PJ-01PJ 13.283,29 5.313,32 0,00 0,00 0,00 0,00 18.596,61 2.045,63 3.682,16 0,00 5.727,79 12.868,82 8.007,32 1.953,92 31/01/2020
173 465100 ANA CRISTINA DE OLIVEIRA GUIMARAES ANALISTA DO MP ATIVO BRASÓPOLIS - COMARCA; BRASOPOLIS-PJ-UNPJ 9.337,87 933,79 0,00 0,00 3.423,89 0,00 13.695,55 1.129,88 2.481,92 0,00 3.611,80 10.083,75 8.840,91 527,28 31/01/2020
174 500600 ANA CRISTINA LATADO SUDARIO ANALISTA DO MP ATIVO UBERLÂNDIA - COMARCA; UBERLANDIA-PJ-09PJ 9.337,87 933,79 0,00 0,00 0,00 0,00 10.271,66 1.129,88 1.644,63 0,00 2.774,51 7.497,15 6.069,53 414,29 31/01/2020
175 331400 ANA CRISTINA RIBEIRO ALVES OFICIAL DO MP ATIVO BAMBUÍ - COMARCA; BAMBUI-PJ-UNPJ 8.214,70 1.642,94 0,00 0,00 3.285,88 0,00 13.143,52 1.084,34 2.394,78 0,00 3.479,12 9.664,40 7.626,22 818,83 31/01/2020
176 249300 ANA ELOINA MARTINS OFICIAL DO MP ATIVO BETIM - COMARCA; BETIM-PJ-02PJ 11.317,16 4.526,86 0,00 0,00 0,00 0,00 15.844,02 1.902,57 3.008,46 0,00 4.911,03 10.932,99 7.718,51 7.628,22 31/01/2020
177 257400 ANA FLAVIA CAMBRAIA ANALISTA DO MP ATIVO BELO HORIZONTE - COMARCA; BH-19PJ SAUDE-SECRETARIA 150PJ 16.148,50 4.844,55 0,00 0,00 0,00 0,00 20.993,05 2.309,24 4.216,55 0,00 6.525,79 14.467,26 1.741,86 977,94 31/01/2020
178 248201 ANA FLAVIA DE MORAIS SOUZA ANALISTA DO MP ATIVO DIVINÓPOLIS - COMARCA; DIVINOPOLIS-PJ-01PJ 9.337,87 2.801,36 0,00 0,00 4.046,41 0,00 16.185,64 1.335,32 3.110,20 0,00 4.445,52 11.740,12 8.915,61 534,13 31/01/2020
179 621100 ANA FLAVIA DINIZ TEODORO OFICIAL DO MP ATIVO SANTA LUZIA - COMARCA; SANTA LUZIA-PJ-06PJ 4.838,22 483,82 0,00 0,00 0,00 0,00 5.322,04 585,42 433,21 0,00 1.018,63 4.303,41 1.550,00 349,74 31/01/2020
180 238600 ANA FLAVIA FRANCO OFICIAL DO MP ATIVO BELO HORIZONTE - COMARCA; DIRETORIA DE PESSOAL ADMINISTRATIVO - DPAD 11.685,57 3.505,67 0,00 0,00 0,00 0,00 15.191,24 1.723,72 2.848,70 0,00 4.572,42 10.618,82 7.172,11 2.844,87 31/01/2020
181 402900 ANA FLAVIA PORTES DE CARVALHO ANALISTA DO MP ATIVO BELO HORIZONTE - COMARCA; DIRET DE PLANOS PROJETOS E PROGRAMAS INST 12.065,98 2.413,20 0,00 0,00 4.826,39 0,00 19.305,57 1.642,92 3.949,54 0,00 5.592,46 13.713,11 7.506,01 2.764,65 31/01/2020
182 382700 ANA KARENINA SALDANHA GONTIJO ANALISTA DO MP ATIVO BELO HORIZONTE - COMARCA; ASSESS TECNICO-JUR JUNTO AS PROC. DE JUST 12.458,83 2.491,77 0,00 0,00 4.983,53 0,00 19.934,13 1.795,27 4.160,27 0,00 5.955,54 13.978,59 2.319,39 6.247,20 31/01/2020
183 620500 ANA KARINE DE ANDRADE OLIVEIRA ANALISTA DO MP ATIVO RIBEIRÃO DAS NEVES - COMARCA; SEC PJ EXECUCAO PENAL RIBEIRAO NEVES 6.882,47 688,25 0,00 0,00 0,00 0,00 7.570,72 832,78 983,57 0,00 1.816,35 5.754,37 1.550,00 595,03 31/01/2020
184 462200 ANA LUCIA ANDRADE TOMICH OTTONI ANALISTA DO MP ATIVO TEÓFILO OTONI - COMARCA; TEOFILO OTONI-PJ-06PJ 9.337,87 933,79 0,00 0,00 0,00 0,00 10.271,66 1.129,88 1.592,49 0,00 2.722,37 7.549,29 1.550,00 0,00 31/01/2020
185 504100 ANA LUCIA CATAO DE CARVALHO OFICIAL DO MP ATIVO BELO HORIZONTE - COMARCA; BH-09PJ AUDITORIA MILITAR-SECRETARIA 6.882,47 688,25 0,00 0,00 0,00 0,00 7.570,72 909,10 931,44 0,00 1.840,54 5.730,18 8.073,14 3.922,43 31/01/2020
186 274700 ANA LUCIA DE ALENCAR BRAGATO OFICIAL DO MP ATIVO UBERABA - COMARCA; UBERABA-PJ-07PJ 9.337,87 2.801,36 0,00 0,00 0,00 0,00 12.139,23 1.335,32 2.101,72 0,00 3.437,04 8.702,19 7.376,83 1.002,34 31/01/2020
187 220000 ANA LUCIA DE AMORIM OFICIAL DO MP ATIVO MARTINHO CAMPOS - COMARCA; MARTINHO CAMPOS-PJ-SECRETARIA 11.317,16 7.922,01 0,00 0,00 0,00 0,00 19.239,17 2.116,31 3.839,43 0,00 5.955,74 13.283,43 1.550,00 1.569,26 31/01/2020
188 509400 ANA LUCIA DORNELAS MALLOSTO ANALISTA DO MP ATIVO JUIZ DE FORA - COMARCA; JUIZ DE FORA-PJ-18PJ 8.758,36 875,84 0,00 0,00 3.211,40 0,00 12.845,60 1.059,76 2.319,61 0,00 3.379,37 9.466,23 7.330,52 800,22 31/01/2020
189 302600 ANA LUCIA LOPES SANTOS OFICIAL DO MP ATIVO BELO HORIZONTE - COMARCA; DIVISÃO DE FISCALIZAÇÃO DAS RELAÇÕES DE CONSU 9.337,87 2.801,36 0,00 0,00 4.493,16 0,00 16.632,39 1.335,32 3.653,77 0,00 4.989,09 11.643,30 1.550,00 2.254,08 31/01/2020
190 493400 ANA LUISA NOGUEIRA MOREIRA ANALISTA DO MP ATIVO BELO HORIZONTE - COMARCA; BH-19PJ SAUDE 9.337,87 933,79 0,00 0,00 0,00 0,00 10.271,66 1.129,88 1.644,63 0,00 2.774,51 7.497,15 1.550,00 0,00 31/01/2020
191 389300 ANA LUISA REUTER LIMA ANALISTA DO MP ATIVO BELO HORIZONTE - COMARCA; DIRETORIA DE SISTEMAS DE INFORMACAO 9.955,90 1.991,18 0,00 0,00 0,00 0,00 11.947,08 1.355,62 2.054,69 0,00 3.410,31 8.536,77 1.550,00 1.843,56 31/01/2020
192 480600 ANA LUIZA FERNANDES FRAGA E GRECO OFICIAL DO MP ATIVO BELO HORIZONTE - COMARCA; BH-23PJ CIVEL-SEC EXP CIVEIS 6.251,74 625,17 0,00 0,00 0,00 0,00 6.876,91 780,31 1.319,17 0,00 2.099,48 4.777,43 1.550,00 2.826,46 31/01/2020
193 517800 ANA LUIZA MAGALHAES CIRINO PIOTO DE MELO OFICIAL DO MP ATIVO BELO HORIZONTE - COMARCA; DIVISAO DE MANUTENCAO PREDIAL 4.612,94 461,29 0,00 0,00 0,00 0,00 5.074,23 575,13 379,98 0,00 955,11 4.119,12 2.319,39 485,19 31/01/2020
194 481400 ANA MARCIA CANDIDA FERREIRA OFICIAL DO MP ATIVO BRUMADINHO - COMARCA; BRUMADINHO-PJ-02PJ 5.678,79 567,88 0,00 0,00 0,00 0,00 6.246,67 750,10 659,51 0,00 1.409,61 4.837,06 5.298,00 2.125,67 31/01/2020
195 643100 ANA MARIA LOPES MIRANDA ANALISTA DO MP ATIVO BELO HORIZONTE - COMARCA; CAO-TS-TERCEIRO SETOR 6.665,41 399,92 0,00 0,00 0,00 0,00 7.065,33 671,12 889,05 0,00 1.560,17 5.505,16 1.550,00 610,76 31/01/2020
196 556400 ANA MARIA OLIVEIRA SOUZA OFICIAL DO MP ATIVO ITAPECERICA - COMARCA; ITAPECERICA-PJ-UNPJ 4.995,72 499,57 0,00 0,00 0,00 0,00 5.495,29 604,48 475,61 0,00 1.080,09 4.415,20 1.550,00 154,19 31/01/2020
197 409600 ANA OLIVIA FARIA ROSENBURG ANALISTA DO MP ATIVO BELO HORIZONTE - COMARCA; DIRETORIA DO COLEGIO E DA CAMARA DE PJ 11.685,57 3.505,67 0,00 0,00 0,00 0,00 15.191,24 1.671,04 2.848,70 0,00 4.519,74 10.671,50 1.550,00 426,25 31/01/2020
198 461500 ANA PAULA ALVES CARVALHO ANALISTA DO MP ATIVO UBERLÂNDIA - COMARCA; UBERLANDIA-PJ-25PJ 9.337,87 933,79 0,00 0,00 3.423,89 0,00 13.695,55 1.129,88 2.586,20 0,00 3.716,08 9.979,47 2.319,39 0,00 31/01/2020
199 523200 ANA PAULA ALVES DA SILVA OFICIAL DO MP ATIVO GOVERNADOR VALADARES - COMARCA; GOVERNADOR VALADARES-PJ-10PJ 6.251,74 625,17 0,00 0,00 2.292,30 0,00 9.169,21 780,31 1.339,87 0,00 2.120,18 7.049,03 3.088,78 1.060,88 31/01/2020
200 381200 ANA PAULA BARROS PEREIRA RIGHI ANALISTA DO MP ATIVO BELO HORIZONTE - COMARCA; PROC JUST RECURSOS ESP E EXTRAORD CRIMINAIS 12.065,98 2.413,20 0,00 0,00 0,00 0,00 14.479,18 1.642,92 2.622,28 0,00 4.265,20 10.213,98 8.111,06 2.612,49 31/01/2020
201 227200 ANA PAULA DA SILVA CAMPOLINA ANALISTA DO MP ATIVO BELO HORIZONTE - COMARCA; DIRETORIA DE ORCAMENTO-DIOR/SPC 17.452,52 8.726,26 0,00 0,00 0,00 0,00 26.178,78 2.879,67 5.537,90 0,00 8.417,57 17.761,21 6.785,76 479,94 31/01/2020
202 84200 ANA PAULA DE SOUZA ROCHA OFICIAL DO MP ATIVO BELO HORIZONTE - COMARCA; DIRETORIA DE CONTABILIDADE 26.225,59 18.357,92 0,00 0,00 0,00 0,00 44.583,51 3.900,84 7.810,02 9.121,29 20.832,15 23.751,36 7.223,95 520,11 31/01/2020
203 278500 ANA PAULA DIAS CAPANEMA OFICIAL DO MP ATIVO BELO HORIZONTE - COMARCA; DIRETORIA DE SEGURANCA 9.337,87 2.801,36 0,00 0,00 0,00 0,00 12.139,23 1.335,32 2.101,72 0,00 3.437,04 8.702,19 7.483,99 822,36 31/01/2020
204 327300 ANA PAULA GARCIA MAXIMO OFICIAL DO MP ATIVO UNAÍ - COMARCA; UNAI-PJ-01PJ 9.955,90 3.982,36 0,00 0,00 0,00 0,00 13.938,26 1.581,56 2.385,62 0,00 3.967,18 9.971,08 7.950,56 4.106,89 31/01/2020
205 270000 ANA PAULA GOULART CRUZ DE MAGALHAES ANALISTA DO MP ATIVO BELO HORIZONTE - COMARCA; COMB CRIMES PRAT POR AG POL MUN-ASSESSORIA 12.458,83 3.737,65 0,00 0,00 0,00 0,00 16.196,48 1.837,79 3.094,73 0,00 4.932,52 11.263,96 1.550,00 2.328,84 31/01/2020
206 262100 ANA PAULA KOMATSUZAKI ABIJAUDI ANALISTA DO MP ATIVO BELO HORIZONTE - COMARCA; BH-17PJ PATRIMONIO PUBLICO-SECRETARIA 16.148,50 6.459,40 0,00 0,00 0,00 0,00 22.607,90 2.486,87 4.559,65 0,00 7.046,52 15.561,38 1.550,00 766,20 31/01/2020
207 278900 ANA PAULA MOREIRA GURGEL ANALISTA DO MP ATIVO BELO HORIZONTE - COMARCA; DIRETORIA-GERAL 15.533,57 6.213,43 0,00 0,00 0,00 0,00 21.747,00 2.392,17 4.453,22 0,00 6.845,39 14.901,61 6.968,07 1.215,60 31/01/2020
208 425701 ANA PAULA ROCHA ANALISTA DO MP ATIVO BELO HORIZONTE - COMARCA; SUPERINTENDENCIA DE COMUNICACAO INTEGRADA 7.576,76 454,61 0,00 0,00 0,00 0,00 8.031,37 883,45 1.096,32 0,00 1.979,77 6.051,60 2.319,39 225,38 31/01/2020
209 395601 ANA PAULA SALGE OLIVEIRA ANALISTA DO MP ATIVO UBERABA - COMARCA; COORD REG PP TRIANGULO MINEIRO UBERABA 9.337,87 2.801,36 0,00 0,00 0,00 0,00 12.139,23 1.335,32 2.101,72 0,00 3.437,04 8.702,19 7.376,83 534,13 31/01/2020
210 473200 ANA PAULA SCOTTON BRASIL ANALISTA DO MP ATIVO JUIZ DE FORA - COMARCA; JUIZ DE FORA-PJ-03PJ 9.337,87 933,79 0,00 0,00 0,00 0,00 10.271,66 1.129,88 1.644,63 0,00 2.774,51 7.497,15 8.071,52 527,28 31/01/2020
211 633600 ANA PAULA SILVA FERNANDES OFICIAL DO MP ATIVO CATAGUASES - COMARCA; CATAGUASES-PJ-04PJ 4.467,49 268,05 0,00 0,00 1.578,51 0,00 6.314,05 520,91 723,75 0,00 1.244,66 5.069,39 1.550,00 506,96 31/01/2020
212 470900 ANA PAULA VALADARES ANALISTA DO MP ATIVO PITANGUI - COMARCA; PITANGUI-PJ-01PJ 9.337,87 933,79 0,00 0,00 0,00 0,00 10.271,66 1.129,88 1.540,36 0,00 2.670,24 7.601,42 1.550,00 0,00 31/01/2020
213 447000 ANA PAULA VALENTIM DE ARAUJO ANALISTA DO MP ATIVO BELO HORIZONTE - COMARCA; COMB CRIMES PRAT POR AG POL MUN-ASSESSORIA 9.337,87 1.867,57 0,00 0,00 0,00 0,00 11.205,44 1.232,60 1.873,17 0,00 3.105,77 8.099,67 1.550,00 0,00 31/01/2020
214 604200 ANA PAULA VIANA E SILVA OFICIAL DO MP ATIVO BELO HORIZONTE - COMARCA; BH-17PJ PATRIMONIO PUBLICO-SECRETARIA 4.995,72 499,57 0,00 0,00 0,00 0,00 5.495,29 623,54 475,61 0,00 1.099,15 4.396,14 2.319,39 847,77 31/01/2020
215 505400 ANA PAULA VIEIRA SOUTO OFICIAL DO MP ATIVO ALMENARA - COMARCA; COORD. PAT. PUBLICO-MUCURI/JEQUIT - ALMENARA 5.158,42 1.547,53 0,00 0,00 0,00 0,00 6.705,95 737,65 719,79 0,00 1.457,44 5.248,51 5.723,57 557,07 31/01/2020
216 280200 ANA RACHEL BRANDAO LADEIRA ROLAND DIRETOR/ANALISTA ATIVO BELO HORIZONTE - COMARCA; SUPRIN DE FORMACAO E APERFEICOAMENTO-SFA/CEAF 15.533,57 7.889,77 0,00 0,00 0,00 0,00 23.423,34 2.221,30 4.961,20 0,00 7.182,50 16.240,84 1.550,00 1.586,67 31/01/2020
217 601200 ANA REGINA RIBEIRO COORDENADOR/ANALISTA ATIVO BELO HORIZONTE - COMARCA; DIV FISCAL ADM CONT TERCEIRIZACAO 0,00 1.096,03 10.960,26 0,00 0,00 0,00 12.056,29 1.058,44 2.155,05 0,00 3.213,49 8.842,80 1.550,00 0,00 31/01/2020
218 384700 ANA RODRIGUES PEREIRA MARRA ANALISTA DO MP ATIVO COROMANDEL - COMARCA; COROMANDEL-PJ-SECRETARIA 9.337,87 1.867,57 0,00 0,00 0,00 0,00 11.205,44 1.232,60 1.768,90 0,00 3.001,50 8.203,94 8.146,22 848,56 31/01/2020
219 232700 ANA SILVIA SEMBLANO NAKAMURA ASSESSOR/OFICIAL ATIVO BELO HORIZONTE - COMARCA; CENT DE APOIO TEC-SETOR DEF,IDOSO E INFANC 0,00 2.892,58 9.641,94 0,00 0,00 0,00 12.534,52 1.335,32 2.210,42 0,00 3.545,74 8.988,78 7.065,19 505,56 31/01/2020
220 602100 ANACLETO FRANCISCO MARCIER PIMENTA OFICIAL DO MP ATIVO SÃO JOÃO DEL REI - COMARCA; SAO JOAO DEL REI-PJ-03PJ 4.612,94 461,29 0,00 0,00 1.691,41 0,00 6.765,64 558,17 629,15 0,00 1.187,32 5.578,32 8.163,01 607,54 31/01/2020
221 310400 ANADEJE DO CARMO DINIZ ARAUJO OFICIAL DO MP ATIVO BELO HORIZONTE - COMARCA; DIRETORIA DE PESSOAL ADMINISTRATIVO - DPAD 8.482,22 2.544,67 0,00 0,00 3.675,63 0,00 14.702,52 1.212,96 2.840,27 0,00 4.053,23 10.649,29 1.550,00 285,71 31/01/2020
222 337000 ANAILDES MARIA MENDES OFICIAL DO MP ATIVO JANAÚBA - COMARCA; JANAUBA-PJ-02PJ 8.482,22 1.696,44 0,00 0,00 0,00 0,00 10.178,66 1.119,65 1.621,87 0,00 2.741,52 7.437,14 8.173,53 808,21 31/01/2020
223 192900 ANATALIA CERQUEIRA LIMA PERES OFICIAL DO MP ATIVO UBERABA - COMARCA; COORD REG SAUDE MACROR SANIT TRIANGULO SUL 9.955,90 3.982,36 0,00 0,00 0,00 0,00 13.938,26 1.533,21 2.542,03 0,00 4.075,24 9.863,02 7.125,30 1.010,37 31/01/2020
224 377400 ANDEIRSON DA MATTA BARBOSA ANALISTA DO MP ATIVO POUSO ALEGRE - COMARCA; POUSO ALEGRE-PJ-01PJ 9.337,87 1.867,57 0,00 0,00 0,00 0,00 11.205,44 1.232,60 1.873,17 0,00 3.105,77 8.099,67 7.376,83 534,13 31/01/2020
225 317400 ANDERSON DA SILVA BICALHO OFICIAL DO MP ATIVO CONTAGEM - COMARCA; COORD REG DEF ORDEM ECONOMICA TRIB CONTAGEM 7.823,48 1.564,70 0,00 0,00 0,00 0,00 9.388,18 1.032,70 1.271,99 0,00 2.304,69 7.083,49 1.550,00 263,49 31/01/2020
226 506900 ANDERSON DE SOUZA DAMIANI ANALISTA DO MP ATIVO BELO HORIZONTE - COMARCA; DIRETORIA DE PAGAMENTO DE PESSOAL-DPAG 9.337,87 2.801,36 0,00 0,00 0,00 0,00 12.139,23 1.335,32 1.997,44 0,00 3.332,76 8.806,47 8.146,22 534,13 31/01/2020
227 410000 ANDERSON DE SOUZA NETO ASSESSOR ATIVO BELO HORIZONTE - COMARCA; DIRETORIA DE ADMINISTRACAO FINANCEIRA 0,00 0,00 4.763,08 0,00 0,00 0,00 4.763,08 644,94 565,63 0,00 1.210,57 3.552,51 6.313,08 436,62 31/01/2020
228 181900 ANDERSON FLAVIO DE OLIVEIRA OFICIAL DO MP ATIVO ITAGUARA - COMARCA; ITAGUARA-PJ-SECRETARIA 11.685,57 4.674,23 0,00 0,00 0,00 0,00 16.359,80 1.799,58 3.134,70 0,00 4.934,28 11.425,52 1.550,00 426,25 31/01/2020
229 333200 ANDERSON JOSE DE FREITAS OFICIAL DO MP ATIVO IPATINGA - COMARCA; IPATINGA-PJ-07PJ 8.482,22 1.696,44 0,00 0,00 0,00 0,00 10.178,66 1.119,65 1.834,02 0,00 2.953,67 7.224,99 8.450,47 2.175,03 31/01/2020
230 462100 ANDERSON LUIZ GUIMARAES CARDOSO ANALISTA DO MP ATIVO BARBACENA - COMARCA; BARBACENA-PJ-02PJ 9.641,94 964,19 0,00 0,00 0,00 0,00 10.606,13 1.166,67 1.726,49 0,00 2.893,16 7.712,97 7.489,43 544,45 31/01/2020
231 429700 ANDERSON MELO DE SOUZA ASSESSOR/OFICIAL ATIVO BELO HORIZONTE - COMARCA; DIRET DE ESTAGIOS E CONVENIOS ACADEMICOS 0,00 1.928,39 9.641,94 0,00 0,00 0,00 11.570,33 749,60 2.106,34 0,00 2.855,94 8.714,39 7.103,76 509,09 31/01/2020
232 545600 ANDERSON MENDES PROCOPIO FERREIRA ANALISTA DO MP ATIVO BELO HORIZONTE - COMARCA; BH-12PJ JUIZO CRIMINAL-GAB 089PJ 7.823,48 782,35 0,00 0,00 0,00 0,00 8.605,83 946,64 1.236,92 0,00 2.183,56 6.422,27 7.564,79 777,97 31/01/2020
233 519900 ANDERSON MOREIRA DOEHLER ANALISTA DO MP ATIVO TEÓFILO OTONI - COMARCA; TEOFILO OTONI-PJ-07PJ 8.758,36 2.627,51 0,00 0,00 0,00 0,00 11.385,87 1.291,94 1.917,33 0,00 3.209,27 8.176,60 1.707,95 990,83 31/01/2020
234 103000 ANDERSON TADEU DE DEUS ASSESSOR ATIVO BELO HORIZONTE - COMARCA; BH-26 CRIME CONT CRIAN ADOL-SECRETARIA 0,00 3.334,16 4.763,08 0,00 0,00 0,00 8.097,24 671,12 1.475,32 0,00 2.146,44 5.950,80 7.380,01 858,42 31/01/2020
235 309200 ANDITYAS SOARES DE MOURA COSTA MATOS ANALISTA DO MP ATIVO BELO HORIZONTE - COMARCA; GABINETE DE PROCURADOR DE JUSTIÇA - SALA 304 13.283,29 3.984,99 0,00 0,00 0,00 0,00 17.268,28 2.073,59 3.357,05 0,00 5.430,64 11.837,64 1.550,00 7.743,70 31/01/2020
236 519200 ANDRE BORJA LANA COORDENADOR/ANALISTA ATIVO BELO HORIZONTE - COMARCA; DIRETORIA DE IMPRENSA 0,00 1.245,88 12.458,83 0,00 0,00 0,00 13.704,71 1.129,88 2.588,72 0,00 3.718,60 9.986,11 1.550,00 0,00 31/01/2020
237 637200 ANDRE FERNANDES DA CUNHA OFICIAL DO MP ATIVO MORADA NOVA DE MINAS - COMARCA; MORADA NOVA DE MINAS-PJ-UNPJ 4.467,49 268,05 0,00 0,00 0,00 0,00 4.735,54 537,34 312,16 0,00 849,50 3.886,04 1.550,00 149,34 31/01/2020
238 651500 ANDRE GONCALVES MARANHAO OFICIAL DO MP ATIVO JACINTO - COMARCA; JACINTO-PJ-SECRETARIA 3.930,12 235,81 0,00 0,00 0,00 0,00 4.165,93 549,75 245,32 0,00 795,07 3.370,86 1.550,00 1.593,07 31/01/2020
239 521900 ANDRE LUIS GOMES SILVA ANALISTA DO MP ATIVO FORMIGA - COMARCA; FORMIGA-PJ-02PJ 9.337,87 933,79 0,00 0,00 0,00 0,00 10.271,66 1.129,88 1.131,21 0,00 2.261,09 8.010,57 8.560,95 1.364,97 31/01/2020
240 304300 ANDRE LUIZ AVELAR ANALISTA DO MP ATIVO BELO HORIZONTE - COMARCA; DIRETORIA DE REDES E BANCOS DE DADOS 7.823,48 2.347,04 0,00 0,00 0,00 0,00 10.170,52 1.118,76 1.567,74 0,00 2.686,50 7.484,02 1.550,00 0,00 31/01/2020
241 397400 ANDRE PATARO MYRRHA DE PAULA E SILVA ANALISTA DO MP ATIVO BELO HORIZONTE - COMARCA; ASSESSORIA JURIDICO-ADMINISTRATIVA 12.065,98 2.413,20 0,00 0,00 0,00 0,00 14.479,18 1.642,92 2.674,42 0,00 4.317,34 10.161,84 8.275,40 2.764,65 31/01/2020
242 650100 ANDRE THOME VARGAS OFICIAL DO MP ATIVO LEOPOLDINA - COMARCA; LEOPOLDINA-PJ-04PJ 4.326,60 259,60 0,00 0,00 0,00 0,00 4.586,20 678,92 282,26 0,00 961,18 3.625,02 6.374,09 2.534,96 31/01/2020
243 548500 ANDRE VINICIUS CARVALHO MEIRA ANALISTA DO MP ATIVO JUIZ DE FORA - COMARCA; JUIZ DE FORA-PJ-25PJ 7.823,48 782,35 0,00 0,00 0,00 0,00 8.605,83 946,64 1.236,92 0,00 2.183,56 6.422,27 1.550,00 241,54 31/01/2020
244 297200 ANDRE WILLE ROSARIO ANALISTA DO MP ATIVO BELO HORIZONTE - COMARCA; ASSESSORIA ESPECIAL DO PGJ 15.533,57 4.660,07 0,00 0,00 0,00 0,00 20.193,64 2.221,30 3.968,76 0,00 6.190,06 14.003,58 7.741,80 2.180,29 31/01/2020
245 423600 ANDREA COSTA GUALBERTO ALVES ANALISTA DO MP ATIVO GOVERNADOR VALADARES - COMARCA; COORD REG PJ DEF EDU DIR CRIANCA ADOL RIODOCE 11.317,16 7.922,01 0,00 0,00 0,00 0,00 19.239,17 2.116,31 3.787,29 0,00 5.903,60 13.335,57 7.430,67 2.063,07 31/01/2020
246 198600 ANDREA CRISTINA ANDRADE COSTA E SOUZA OFICIAL DO MP ATIVO MONTES CLAROS - COMARCA; MONTES CLAROS-PJ-15PJ 13.715,83 5.486,33 0,00 0,00 0,00 0,00 19.202,16 2.174,09 3.778,23 0,00 5.952,32 13.249,84 7.084,04 3.244,38 31/01/2020
247 467300 ANDREA DE CASSIA PENNA ALVERNAZ ANALISTA DO MP ATIVO PONTE NOVA - COMARCA; PONTE NOVA-PJ-01PJ 9.337,87 933,79 0,00 0,00 0,00 0,00 10.271,66 1.129,88 1.592,49 0,00 2.722,37 7.549,29 5.658,66 376,63 31/01/2020
248 308000 ANDREA DE CASSIA SANTOS OLIVEIRA ANALISTA DO MP ATIVO BELO HORIZONTE - COMARCA; ASSESS TECNICO-JUR JUNTO AS PROC. DE JUST 14.162,21 4.248,66 0,00 0,00 0,00 0,00 18.410,87 2.025,20 3.584,56 0,00 5.609,76 12.801,11 2.469,37 476,74 31/01/2020
249 349500 ANDREA DE OLIVEIRA LOIOLA REGIS OFICIAL DO MP ATIVO IGUATAMA - COMARCA; IGUATAMA-PJ-UNPJ 8.758,36 1.751,67 0,00 0,00 0,00 0,00 10.510,03 1.262,06 1.650,83 0,00 2.912,89 7.597,14 1.550,00 4.392,37 31/01/2020
250 254700 ANDREA EMISE REIS DE AZEVEDO OFICIAL DO MP ATIVO BELO HORIZONTE - COMARCA; SUPERINTENDENCIA DE RECURSOS HUMANOS 9.955,90 2.986,77 0,00 0,00 0,00 0,00 12.942,67 1.423,69 2.298,36 0,00 3.722,05 9.220,62 1.550,00 363,25 31/01/2020
251 287900 ANDREA FERNANDES PENA MARTINS OFICIAL DO MP ATIVO MONTES CLAROS - COMARCA; MONTES CLAROS-PJ-09PJ 9.337,87 2.801,36 0,00 0,00 0,00 0,00 12.139,23 1.335,32 1.997,44 0,00 3.332,76 8.806,47 7.376,83 534,13 31/01/2020
252 300800 ANDREA FERREIRA ANALISTA DO MP ATIVO LAVRAS - COMARCA; LAVRAS-PJ-04PJ 13.715,83 4.114,75 0,00 0,00 0,00 0,00 17.830,58 1.961,36 3.494,68 0,00 5.456,04 12.374,54 1.550,00 634,97 31/01/2020
253 316700 ANDREA FRANCISCA DIAS DE SOUZA ASSESSOR ATIVO BELO HORIZONTE - COMARCA; ASSESSORIA JURIDICA DO PROCON-MG 0,00 0,00 2.852,73 0,00 950,91 0,00 3.803,64 434,80 369,36 0,00 804,16 2.999,48 2.319,39 0,00 31/01/2020
254 395100 ANDREA LANNA MENDES NOVAIS ANALISTA DO MP ATIVO BELO HORIZONTE - COMARCA; PROMOT ESTADUAL DE DEF PATRI CULT E TUR DE MG 12.065,98 2.413,20 0,00 0,00 0,00 0,00 14.479,18 1.592,71 2.622,28 0,00 4.214,99 10.264,19 1.550,00 558,44 31/01/2020
255 67300 ANDREA LEAO MAGALHAES ROQUE ASSESSOR ATIVO BELO HORIZONTE - COMARCA; PROCURADOR-GERAL ADJ INSTITUCIONAL- GABINETE 0,00 6.749,36 9.641,94 0,00 0,00 0,00 16.391,30 671,12 3.704,05 0,00 4.375,17 12.016,13 7.450,87 540,91 31/01/2020
256 335700 ANDREA LOPES PEREIRA ANALISTA DO MP ATIVO GOVERNADOR VALADARES - COMARCA; COORD REG DO MA DA BACIA DO RIO DOCE 14.162,21 2.832,44 0,00 0,00 0,00 0,00 16.994,65 1.928,33 3.290,08 0,00 5.218,41 11.776,24 7.138,27 3.119,67 31/01/2020
257 389200 ANDREA TUPINI DOS SANTOS TRISTAO DA ROCHA COORDENADOR/OFICIAL ATIVO BELO HORIZONTE - COMARCA; BH-13ª PJ JUÍZO DE TÓXICOS-SECRETARIA 0,00 2.192,05 10.960,26 0,00 0,00 0,00 13.152,31 1.489,95 2.285,65 0,00 3.775,60 9.376,71 7.337,02 530,48 31/01/2020
258 419000 ANDREIA BARBOSA DE ALMEIDA ANALISTA DO MP ATIVO BELO HORIZONTE - COMARCA; GABINETE DE PROCURADOR DE JUSTIÇA - SALA 705 11.317,16 2.263,43 0,00 0,00 4.526,86 0,00 18.107,45 1.493,86 3.699,38 0,00 5.193,24 12.914,21 8.023,31 1.655,46 31/01/2020
259 281501 ANDREIA CARLA COSTA FILGUEIRAS ANALISTA DO MP ATIVO VISCONDE DO RIO BRANCO - COMARCA; VISCONDE DO RIO BRANCO-PJ-02PJ 11.685,57 2.337,11 0,00 0,00 0,00 0,00 14.022,68 1.542,49 2.562,69 0,00 4.105,18 9.917,50 7.318,22 907,62 31/01/2020
260 643600 ANDREIA CRISTINA SILVA OFICIAL DO MP ATIVO PARACATU - COMARCA; PARACATU-PJ-01PJ 4.326,60 259,60 0,00 0,00 1.528,73 0,00 6.114,93 587,71 673,51 0,00 1.261,22 4.853,71 1.550,00 756,69 31/01/2020
261 477100 ANDREIA DE ALMEIDA RIBEIRO MELO OFICIAL DO MP ATIVO CONTAGEM - COMARCA; CONTAGEM-PJ-07PJ 6.882,47 1.376,49 0,00 0,00 0,00 0,00 8.258,96 991,75 1.152,02 0,00 2.143,77 6.115,19 1.550,00 3.451,37 31/01/2020
262 619000 ANDREIA FERREIRA NORONHA COORDENADOR/OFICIAL ATIVO BELO HORIZONTE - COMARCA; DIRETORIA DE SERVICO CRIMINAL 0,00 1.245,88 12.458,83 0,00 4.568,24 0,00 18.272,95 628,65 3.982,82 0,00 4.611,47 13.661,48 7.031,88 502,51 31/01/2020
263 424000 ANDREIA LUCIA COUTO ANALISTA DO MP ATIVO BELO HORIZONTE - COMARCA; BH-18PJ DIREITOS HUMANOS 11.685,57 2.337,11 0,00 0,00 4.674,23 0,00 18.696,91 1.621,83 4.024,62 0,00 5.646,45 13.050,46 1.550,00 1.147,45 31/01/2020
264 370100 ANDREIA MARIA SILVA PINTO OFICIAL DO MP ATIVO CORONEL FABRICIANO - COMARCA; CORONEL FABRICIANO-PJ-01PJ 8.214,70 1.642,94 0,00 0,00 0,00 0,00 9.857,64 1.118,53 1.543,30 0,00 2.661,83 7.195,81 2.481,03 1.521,10 31/01/2020
265 382100 ANDREIA NATALI PEREIRA DE OLIVEIRA OFICIAL DO MP ATIVO PRADOS - COMARCA; PRADOS-PJ-UNPJ 7.955,66 1.591,13 0,00 0,00 0,00 0,00 9.546,79 1.050,15 1.467,22 0,00 2.517,37 7.029,42 1.550,00 659,82 31/01/2020
266 275200 ANDREIA RIBEIRO FREITAS OFICIAL DO MP ATIVO VIÇOSA - COMARCA; VICOSA-PJ-03PJ 9.337,87 2.801,36 0,00 0,00 0,00 0,00 12.139,23 1.335,32 2.049,58 0,00 3.384,90 8.754,33 1.550,00 468,21 31/01/2020
267 352200 ANDREIA XAVIER PEREIRA OFICIAL DO MP ATIVO CLÁUDIO - COMARCA; CLAUDIO-PJ-UNPJ 8.758,36 1.751,67 0,00 0,00 0,00 0,00 10.510,03 1.262,06 1.702,97 0,00 2.965,03 7.545,00 7.936,50 5.252,97 31/01/2020
268 638500 ANDRESA ALVES FEITOSA CASAGRANDE ANALISTA DO MP ATIVO PERDÕES - COMARCA; PERDOES-PJ-UNPJ 6.882,47 412,95 0,00 0,00 0,00 0,00 7.295,42 671,12 952,32 0,00 1.623,44 5.671,98 2.319,39 230,08 31/01/2020
269 383700 ANDRESSA EDUARDO SOUZA ANALISTA DO MP ATIVO OURO BRANCO - COMARCA; OURO BRANCO-PJ-SECRETARIA 12.065,98 2.413,20 0,00 0,00 0,00 0,00 14.479,18 1.642,92 2.674,42 0,00 4.317,34 10.161,84 3.088,78 2.233,75 31/01/2020
270 426200 ANDRESSA MENDES CASAL OFICIAL DO MP ATIVO BELO HORIZONTE - COMARCA; DIR ESTRUTURA E PROCESSOS ORGANIZACIONAIS 6.251,74 1.250,35 0,00 0,00 0,00 0,00 7.502,09 825,23 966,78 0,00 1.792,01 5.710,08 1.550,00 192,95 31/01/2020
271 390100 ANDRESSA RIBEIRO PUCCI OFICIAL DO MP ATIVO UBERABA - COMARCA; UBERABA-PJ-14PJ 6.054,65 605,47 0,00 0,00 0,00 0,00 6.660,12 732,61 760,71 0,00 1.493,32 5.166,80 1.676,02 186,93 31/01/2020
272 462500 ANDREZA APARECIDA COSTA E SILVA ANALISTA DO MP ATIVO CONSELHEIRO LAFAIETE - COMARCA; CONSELHEIRO LAFAIETE-PJ-02PJ 9.337,87 933,79 0,00 0,00 0,00 0,00 10.271,66 1.129,88 1.644,63 0,00 2.774,51 7.497,15 5.658,66 376,63 31/01/2020
273 537800 ANDREZZA LUZIA DE OLIVEIRA ALVES ANALISTA DO MP ATIVO PATOS DE MINAS - COMARCA; COORD REG PJ DEF EDU DIR CRI ADO AL PAR NOROE 7.823,48 782,35 0,00 0,00 0,00 0,00 8.605,83 946,64 1.184,78 0,00 2.131,42 6.474,41 7.401,96 777,97 31/01/2020
274 491600 ANE PATRICIA RIBEIRO ANALISTA DO MP ATIVO SETE LAGOAS - COMARCA; SETE LAGOAS-PJ-11PJ 9.337,87 933,79 0,00 0,00 0,00 0,00 10.271,66 1.129,88 1.592,49 0,00 2.722,37 7.549,29 1.550,00 0,00 31/01/2020
275 465800 ANELISE GAMA ASSESSOR ATIVO BELO HORIZONTE - COMARCA; BH-18PJ VIOLENCIA DOMESTICA-SECRETARIA 0,00 0,00 7.576,76 0,00 0,00 0,00 7.576,76 671,12 1.332,19 0,00 2.003,31 5.573,45 1.550,00 0,00 31/01/2020
276 535200 ANELIZE FERNANDA ALVES VILARINHO OFICIAL DO MP ATIVO CAPINÓPOLIS - COMARCA; CAPINOPOLIS-PJ-UNPJ 4.612,94 461,29 0,00 0,00 1.691,41 0,00 6.765,64 558,17 837,69 0,00 1.395,86 5.369,78 7.393,62 607,54 31/01/2020
277 197200 ANGELA COELHO SALDANHA OFICIAL DO MP ATIVO PARÁ DE MINAS - COMARCA; PARA DE MINAS-PJ-03PJ 13.715,83 5.486,33 0,00 0,00 6.400,72 0,00 25.602,88 2.112,24 5.590,57 0,00 7.702,81 17.900,07 7.071,93 1.031,81 31/01/2020
278 307400 ANGELA CRISTINA GONCALVES MUNIZ ANALISTA DO MP ATIVO UBERLÂNDIA - COMARCA; UBERLANDIA-PJ-SEC FAMILIA 15.533,57 4.660,07 0,00 0,00 0,00 0,00 20.193,64 2.221,30 4.020,90 0,00 6.242,20 13.951,44 2.747,25 1.586,67 31/01/2020
279 191800 ANGELA MARIA DE OLIVEIRA OFICIAL DO MP ATIVO GUARANÉSIA - COMARCA; GUARANESIA-PJ-SECRETARIA 13.715,83 9.601,08 0,00 0,00 0,00 0,00 23.316,91 2.564,86 4.785,32 0,00 7.350,18 15.966,73 1.550,00 577,44 31/01/2020
280 69900 ANGELA MARIA DE PAULA CUNHA OFICIAL DO MP ATIVO JUIZ DE FORA - COMARCA; JUIZ DE FORA-PJ-03PJ 14.162,21 11.329,77 0,00 0,00 0,00 2.804,12 28.296,10 2.804,12 6.140,93 0,00 8.945,05 19.351,05 6.800,17 1.226,20 31/01/2020
281 497400 ANGELA MARIA HENRIQUES ANALISTA DO MP ATIVO BELO HORIZONTE - COMARCA; COORD REG BACIAS RIO VELHAS E PARAOPEBA 9.337,87 933,79 0,00 0,00 0,00 0,00 10.271,66 1.129,88 1.644,63 0,00 2.774,51 7.497,15 7.302,13 527,28 31/01/2020
282 260700 ANGELICA CRISTINA AZEVEDO MOREIRA MOUCO OFICIAL DO MP ATIVO UBÁ - COMARCA; UBA-PJ-05PJ 11.317,16 3.395,15 0,00 0,00 0,00 0,00 14.712,31 1.766,67 2.731,48 0,00 4.498,15 10.214,16 2.035,40 6.148,38 31/01/2020
283 334600 ANGELICA PANISSA DE FREITAS GALLATI OFICIAL DO MP ATIVO GUAXUPÉ - COMARCA; GUAXUPE-PJ-02PJ 8.758,36 2.627,51 0,00 0,00 0,00 0,00 11.385,87 1.291,94 1.917,33 0,00 3.209,27 8.176,60 8.397,99 2.299,34 31/01/2020
284 521100 ANGELICA SALES MOREIRA OFICIAL DO MP ATIVO BELO HORIZONTE - COMARCA; BH-02PJ FAMILIA-SECRETARIA 6.251,74 625,17 0,00 0,00 0,00 0,00 6.876,91 780,31 813,76 0,00 1.594,07 5.282,84 1.550,00 1.060,88 31/01/2020
285 466500 ANGELLO MARQUES AGRELLI ANALISTA DO MP ATIVO MAR DE ESPANHA - COMARCA; MAR DE ESPANHA-PJ-UNPJ 9.337,87 933,79 0,00 0,00 0,00 0,00 10.271,66 1.129,88 1.644,63 0,00 2.774,51 7.497,15 1.550,00 0,00 31/01/2020
286 363300 ANGELO VERDOLIN HENRIQUES ANALISTA DO MP ATIVO SETE LAGOAS - COMARCA; SETE LAGOAS-PJ-04PJ 13.715,83 5.486,33 0,00 0,00 6.400,72 0,00 25.602,88 2.174,09 5.590,57 0,00 7.764,66 17.838,22 7.877,65 3.297,29 31/01/2020
287 250900 ANISIO APARECIDO SANTOS OFICIAL DO MP ATIVO MARIANA - COMARCA; MARIANA-PJ-02PJ 3.558,71 2.271,52 0,00 0,00 0,00 0,00 5.830,23 999,47 184,98 0,00 1.184,45 4.645,78 7.274,22 1.849,77 31/01/2020
288 651200 ANITA MARIA SANT ANA DE MATTOS FONTES OFICIAL DO MP ATIVO ERVÁLIA - COMARCA; ERVALIA-PJ-UNPJ 4.326,60 3.028,62 0,00 0,00 2.451,74 0,00 9.806,96 883,21 1.552,92 0,00 2.436,13 7.370,83 1.550,00 2.473,65 31/01/2020
289 253400 ANNA FLAVIA LEHMAN BATTAGLIA ANALISTA DO MP ATIVO BELO HORIZONTE - COMARCA; CAO-PATRIMONIO PUBLICO 16.148,50 4.844,55 0,00 0,00 0,00 0,00 20.993,05 2.309,24 4.112,28 0,00 6.421,52 14.571,53 7.619,91 1.250,29 31/01/2020
290 447600 ANNGELUCE ALCANTARA DE CAMPOS OFICIAL DO MP ATIVO DIVINÓPOLIS - COMARCA; DIVINOPOLIS-PJ-SECRETARIA 6.054,65 1.210,93 0,00 0,00 0,00 0,00 7.265,58 824,41 908,89 0,00 1.733,30 5.532,28 7.687,20 1.851,51 31/01/2020
291 119600 ANSELMO BORGES PARREIRAS OFICIAL DO MP ATIVO BONFIM - COMARCA; BONFIM-PJ-UNPJ 7.106,49 5.685,20 0,00 0,00 0,00 1.407,09 14.198,78 1.407,09 2.596,22 0,00 4.003,31 10.195,47 1.550,00 1.172,30 31/01/2020
292 630300 ANTONIA GOMES RAMALHO OFICIAL DO MP ATIVO NOVO CRUZEIRO - COMARCA; NOVO CRUZEIRO-PJ-UNPJ 4.838,22 483,82 0,00 0,00 0,00 0,00 5.322,04 628,65 433,21 0,00 1.061,86 4.260,18 1.550,00 1.922,93 31/01/2020
293 332400 ANTONIA MARIA MAMEDE OFICIAL DO MP ATIVO UBERLÂNDIA - COMARCA; COORD REG PP TRIANGULO MINEIRO UBERLANDIA 8.758,36 1.751,67 0,00 0,00 0,00 1.156,10 11.666,13 1.156,10 2.020,90 0,00 3.177,00 8.489,13 7.936,50 1.502,76 31/01/2020
294 401600 ANTONIO CARLOS GUEDES AROUCA ANALISTA DO MP ATIVO BELO HORIZONTE - COMARCA; COORD EST DEF DIR FAMILIA PESSOA DEFICI IDOSO 10.614,65 2.122,93 0,00 0,00 0,00 0,00 12.737,58 1.401,13 2.248,16 0,00 3.649,29 9.088,29 1.550,00 327,64 31/01/2020
295 333900 ANTONIO GONCALVES DE SOUZA FILHO OFICIAL DO MP ATIVO BELO HORIZONTE - COMARCA; DIRETORIA DE CONTABILIDADE 8.758,36 1.751,67 0,00 0,00 0,00 0,00 10.510,03 1.262,06 1.702,97 0,00 2.965,03 7.545,00 1.550,00 4.392,37 31/01/2020
296 176100 ANTONIO MARCELO CAMPOS CAMPANELLA OFICIAL DO MP ATIVO BELO HORIZONTE - COMARCA; COORD DE GABINETE DO PGJ 13.715,83 5.486,33 0,00 0,00 0,00 0,00 19.202,16 2.112,24 3.830,37 0,00 5.942,61 13.259,55 7.071,93 1.233,66 31/01/2020
297 321001 ANTONIO OLINTO VIEIRA MACHADO ANALISTA DO MP ATIVO BELO HORIZONTE - COMARCA; CENTRAL DE APOIO TECN-SETOR DE MEIO AMBIENTE 12.065,98 2.413,20 0,00 0,00 4.826,39 0,00 19.305,57 1.592,71 3.897,40 0,00 5.490,11 13.815,46 7.506,01 1.089,34 31/01/2020
298 356200 ANTONIO PAULA DA SILVA OFICIAL DO MP ATIVO JUIZ DE FORA - COMARCA; JUIZ DE FORA-PJ-20PJ 7.823,48 2.347,04 0,00 0,00 0,00 0,00 10.170,52 1.118,76 1.619,87 0,00 2.738,63 7.431,89 1.550,00 285,46 31/01/2020
299 119900 ANTONIO RODRIGUES DE PINHO OFICIAL DO MP ATIVO GUANHÃES - COMARCA; GUANHAES-PJ-01PJ 13.283,29 9.298,31 0,00 0,00 0,00 0,00 22.581,60 2.483,98 4.553,21 0,00 7.037,19 15.544,41 7.738,97 2.338,57 31/01/2020
300 373300 ANTONIO SERGIO ANANIAS OFICIAL DO MP ATIVO AIURUOCA - COMARCA; AIURUOCA-PJ-UNPJ 7.337,85 1.467,57 0,00 0,00 0,00 0,00 8.805,42 999,14 1.181,49 0,00 2.180,63 6.624,79 1.550,00 1.358,53 31/01/2020
301 608100 ANTONIO SIDINEY VIEIRA LEMOS ANALISTA DO MP ATIVO PIRAPORA - COMARCA; PIRAPORA-PJ-01PJ 7.576,76 3.030,70 0,00 0,00 0,00 0,00 10.607,46 1.166,82 1.726,82 0,00 2.893,64 7.713,82 7.995,63 1.733,61 31/01/2020
302 374700 ANTONIO SILVA NETO OFICIAL DO MP ATIVO BELO HORIZONTE - COMARCA; GAECO - SECRETARIA 7.955,66 1.591,13 0,00 0,00 0,00 0,00 9.546,79 1.131,70 1.467,22 0,00 2.598,92 6.947,87 1.550,00 3.380,65 31/01/2020
303 636700 ANTONIUS VITORIANO FERNANDES OFICIAL DO MP ATIVO BELO HORIZONTE - COMARCA; ASSESSORIA JURIDICA DO PROCON-MG 4.058,04 243,48 0,00 0,00 0,00 0,00 4.301,52 488,08 225,25 0,00 713,33 3.588,19 1.550,00 135,60 31/01/2020
304 413200 ANY PEREIRA SILVA ANALISTA DO MP ATIVO TRÊS PONTAS - COMARCA; TRES PONTAS-PJ-01PJ 11.317,16 2.263,43 0,00 0,00 0,00 0,00 13.580,59 1.630,77 2.402,35 0,00 4.033,12 9.547,47 8.023,31 6.638,09 31/01/2020
305 151401 APARECIDA DE FATIMA MENDES DE ALMEIDA ASSESSOR ATIVO JUIZ DE FORA - COMARCA; JUIZ DE FORA-PJ-SECRETARIA 0,00 0,00 4.763,08 0,00 0,00 0,00 4.763,08 671,12 558,43 0,00 1.229,55 3.533,53 1.550,00 0,00 31/01/2020
306 329300 APARECIDA MARIA MELO DE ASSIS OFICIAL DO MP ATIVO BELO HORIZONTE - COMARCA; BH-18PJ DIREITOS HUMANOS-SECRETARIA 9.337,87 1.867,57 0,00 0,00 0,00 0,00 11.205,44 1.232,60 1.873,17 0,00 3.105,77 8.099,67 1.550,00 913,83 31/01/2020
307 475300 APARECIDA MARLENE FREIRE ROSA ANALISTA DO MP ATIVO BELO HORIZONTE - COMARCA; BH-02PJ FAMILIA 10.279,98 9.251,98 0,00 0,00 0,00 2.148,52 21.680,48 2.148,52 4.501,93 0,00 6.650,45 15.030,03 1.550,00 615,75 31/01/2020
308 240300 APARECIDA PEREIRA DO NASCIMENTO OFICIAL DO MP ATIVO ITURAMA - COMARCA; ITURAMA-PJ-01PJ 11.685,57 8.179,90 0,00 0,00 0,00 2.185,20 22.050,67 2.254,09 4.593,64 0,00 6.847,73 15.202,94 1.550,00 3.409,10 31/01/2020
309 653000 APARECIDA ROSA DE LIMA ASSESSOR ATIVO BELO HORIZONTE - COMARCA; SECRETARIA PROCESSOS DISCIPES ADMINISTRATIVOS 0,00 0,00 7.576,76 0,00 0,00 0,00 7.576,76 671,12 1.332,19 0,00 2.003,31 5.573,45 1.550,00 0,00 31/01/2020
310 354500 APARECIDA VIEIRA DE CARVALHO OFICIAL DO MP ATIVO BELO HORIZONTE - COMARCA; DIVISÃO DE EDUCAÇÃO PARA O CONSUMO 6.882,47 1.376,49 0,00 0,00 0,00 0,00 8.258,96 908,49 1.152,02 0,00 2.060,51 6.198,45 7.980,85 1.218,71 31/01/2020
311 551000 ARACELES BICALHO FELIX ANALISTA DO MP ATIVO MANHUAÇU - COMARCA; MANHUACU-PJ-02PJ 7.823,48 782,35 0,00 0,00 0,00 0,00 8.605,83 946,64 1.236,92 0,00 2.183,56 6.422,27 2.319,39 241,54 31/01/2020
312 286200 ARACELI MEDRADO DOS SANTOS LIMA OFICIAL DO MP ATIVO PARACATU - COMARCA; PARACATU-PJ-03PJ 5.678,79 1.703,64 0,00 0,00 0,00 0,00 7.382,43 812,07 937,49 0,00 1.749,56 5.632,87 1.550,00 0,00 31/01/2020
313 189000 ARAHY MARQUES SILVA OFICIAL DO MP ATIVO BELO HORIZONTE - COMARCA; BH-13ª PJ JUÍZO DE TÓXICOS-SECRETARIA 5.678,79 2.271,52 0,00 0,00 0,00 0,00 7.950,31 874,53 1.076,48 0,00 1.951,01 5.999,30 1.550,00 0,00 31/01/2020
314 112200 ARAQUEM AUGUSTO DE MATOS AGENTE DO MP ATIVO BELO HORIZONTE - COMARCA; BH-23PJ CIVEL-SEC EXP CIVEIS 6.251,74 5.001,39 0,00 0,00 3.751,04 1.237,84 16.242,01 1.276,86 3.100,38 0,00 4.377,24 11.864,77 7.401,63 2.349,27 31/01/2020
315 280600 ARDUINO FRATTEZI ANALISTA DO MP ATIVO BELO HORIZONTE - COMARCA; CENTRAL DE APOIO TECNICO-SETOR CONTABIL 15.533,57 4.660,07 0,00 0,00 0,00 0,00 20.193,64 2.221,30 4.073,03 0,00 6.294,33 13.899,31 7.632,08 2.104,97 31/01/2020
316 520201 ARIANE DE FATIMA CARVALHO ALMEIDA RODRIGUES ANALISTA DO MP ATIVO VESPASIANO - COMARCA; VESPASIANO-PJ-04PJ 7.576,76 757,68 0,00 0,00 0,00 0,00 8.334,44 916,79 1.118,36 0,00 2.035,15 6.299,29 2.319,39 655,00 31/01/2020
317 537600 ARIELA FREIRE MONTIJO ANALISTA DO MP ATIVO ARCOS - COMARCA; ARCOS-PJ-01PJ 7.823,48 782,35 0,00 0,00 0,00 0,00 8.605,83 946,64 1.132,64 0,00 2.079,28 6.526,55 2.319,39 241,54 31/01/2020
318 182000 ARILSON ALEXANDRE MARTINS MAGALHAES OFICIAL DO MP ATIVO JOÃO MONLEVADE - COMARCA; JOAO MONLEVADE-PJ-01PJ 13.283,29 6.641,65 0,00 0,00 0,00 0,00 19.924,94 2.671,45 4.245,59 0,00 6.917,04 13.007,90 9.421,99 11.950,22 31/01/2020
319 511000 ARISLANE CAROLINA DA SILVA ANALISTA DO MP ATIVO CAMPINA VERDE - COMARCA; CAMPINA VERDE-PJ-UNPJ 9.337,87 933,79 0,00 0,00 0,00 0,00 10.271,66 1.129,88 1.644,63 0,00 2.774,51 7.497,15 3.088,78 0,00 31/01/2020
320 170000 ARLEY BRITES DA SILVA ASSESSOR ATIVO BELO HORIZONTE - COMARCA; BH-14PJ DEFESA CONSUMIDOR-SECRETARIA 0,00 1.905,23 4.763,08 0,00 0,00 0,00 6.668,31 671,12 482,62 0,00 1.153,74 5.514,57 1.550,00 0,00 31/01/2020
321 120400 ARLINDO CASSIO DA CRUZ OFICIAL DO MP ATIVO SÃO GONÇALO DO SAPUCAÍ - COMARCA; SAO GONCALO DO SAPUCAI-PJ-01PJ 17.452,52 13.962,02 0,00 0,00 10.471,51 0,00 41.886,05 3.455,60 9.594,74 0,00 13.050,34 28.835,71 1.550,00 0,00 31/01/2020
322 243700 ARLINDO MARCIO LACERDA OFICIAL DO MP ATIVO CONTAGEM - COMARCA; CONTAGEM-PJ-03PJ 11.317,16 4.526,86 0,00 0,00 0,00 0,00 15.844,02 1.742,84 3.377,03 0,00 5.119,87 10.724,15 7.513,63 3.136,64 31/01/2020
323 392100 ARNALDO DE ANDRADE OFICIAL DO MP ATIVO DIVINÓPOLIS - COMARCA; DIVINOPOLIS-PJ-02PJ 7.955,66 1.591,13 0,00 0,00 3.629,01 0,00 13.175,80 1.050,15 2.781,63 0,00 3.831,78 9.344,02 2.319,39 2.000,07 31/01/2020
324 642400 ARTANE INARDE DE SIQUEIRA DAMASCENO ANALISTA DO MP ATIVO BELO HORIZONTE - COMARCA; PROC JUST RECURSOS ESP E EXTRAORD CRIMINAIS 6.882,47 412,95 0,00 0,00 0,00 0,00 7.295,42 671,12 952,32 0,00 1.623,44 5.671,98 2.319,39 230,08 31/01/2020
325 302100 AUGUSTO ROUSSEAU DE CASTRO ANALISTA DO MP ATIVO CATAGUASES - COMARCA; CATAGUASES-PJ-02PJ 15.533,57 4.660,07 0,00 0,00 6.731,21 0,00 26.924,85 2.221,30 5.924,12 0,00 8.145,42 18.779,43 7.403,01 1.150,16 31/01/2020
326 540200 AUREA AVELAR BITTENCOURT OFICIAL DO MP ATIVO BELO HORIZONTE - COMARCA; GRUPO ESP PROM PROC JUST DEF PROB ADM PAT PUB 4.612,94 461,29 0,00 0,00 0,00 0,00 5.074,23 558,17 294,67 0,00 852,84 4.221,39 1.550,00 142,40 31/01/2020
327 183200 AURELIANO MAGELA DE REZENDE COORDENADOR/OFICIAL ATIVO BELO HORIZONTE - COMARCA; COORD DE GABINETE DO PGJ 13.283,29 7.805,09 0,00 0,00 0,00 0,00 21.088,38 2.105,52 4.367,40 0,00 6.472,92 14.615,46 7.585,42 3.205,40 31/01/2020
328 629400 AYESKA DA COSTA VAL MOURA DABIEN OFICIAL DO MP ATIVO BELO HORIZONTE - COMARCA; BH-18PJ VIOLENCIA DOMESTICA-SECRETARIA 4.838,22 483,82 0,00 0,00 0,00 0,00 5.322,04 628,65 433,21 0,00 1.061,86 4.260,18 1.550,00 1.791,94 31/01/2020
329 652800 BARBARA JULIANNE MOREIRA CASTRO ASSESSOR ATIVO BELO HORIZONTE - COMARCA; ASSESS TECNICO-JUR JUNTO AS PROC. DE JUST 0,00 0,00 7.576,76 0,00 0,00 0,00 7.576,76 671,12 1.332,19 0,00 2.003,31 5.573,45 6.096,06 416,72 31/01/2020
330 663600 BARBARA REGINA PEREIRA DE PINHO MAGALHAES ASSESSOR ATIVO BELO HORIZONTE - COMARCA; CAO-DH APOIO COMUNITARIO-RECEPÇÃO 0,00 0,00 7.576,76 0,00 0,00 0,00 7.576,76 671,12 1.332,19 0,00 2.003,31 5.573,45 1.550,00 0,00 31/01/2020
331 546500 BARBARA ZACARONI GOULART OFICIAL DO MP ATIVO BETIM - COMARCA; BETIM-PJ-08PJ 4.612,94 461,29 0,00 0,00 0,00 0,00 5.074,23 558,17 379,98 0,00 938,15 4.136,08 4.594,54 421,48 31/01/2020
332 316500 BEATRIZ ABILVIA DA SILVA ANALISTA DO MP ATIVO GOVERNADOR VALADARES - COMARCA; GOVERNADOR VALADARES-PJ-07PJ 14.162,21 4.248,66 0,00 0,00 0,00 0,00 18.410,87 2.025,20 3.636,70 0,00 5.661,90 12.748,97 7.591,46 1.016,79 31/01/2020
333 311800 BEATRIZ APARECIDA SOARES GANEM OFICIAL DO MP ATIVO ITAMBACURI - COMARCA; ITAMBACURI-PJ-02PJ 9.337,87 2.801,36 0,00 0,00 4.046,41 0,00 16.185,64 1.377,42 3.058,07 0,00 4.435,49 11.750,15 7.529,92 2.279,38 31/01/2020
334 266800 BEATRIZ AUGUSTA VILACA GOMES DE HUBER OFICIAL DO MP ATIVO BELO HORIZONTE - COMARCA; BH-05PJ-JUÍZO SUCESSÕES-SEC 8.214,70 2.464,41 0,00 0,00 0,00 0,00 10.679,11 1.211,74 1.744,35 0,00 2.956,09 7.723,02 7.530,30 2.083,77 31/01/2020
335 235200 BEATRIZ BOTELHO BATISTA OFICIAL DO MP ATIVO BELO HORIZONTE - COMARCA; BH-21PJ TUTELA FUNDACOES-SECRETARIA 9.337,87 2.801,36 0,00 0,00 4.046,41 0,00 16.185,64 1.335,32 3.214,48 0,00 4.549,80 11.635,84 1.550,00 0,00 31/01/2020
336 182300 BEATRIZ PAULA SOUSA RAMOS OFICIAL DO MP ATIVO MARIANA - COMARCA; MARIANA-PJ-01PJ 13.283,29 6.641,65 0,00 0,00 0,00 0,00 19.924,94 2.671,45 4.280,24 0,00 6.951,69 12.973,25 1.550,00 10.996,03 31/01/2020
337 507000 BELCHIOR FRANKLIN AMARAL LEITE ANALISTA DO MP ATIVO BELO HORIZONTE - COMARCA; CENTRAL DE APOIO TECNICO 9.337,87 933,79 0,00 0,00 0,00 0,00 10.271,66 1.129,88 1.488,22 0,00 2.618,10 7.653,56 8.071,52 527,28 31/01/2020
338 345100 BENITO ELIAS RODRIGUES ANALISTA DO MP ATIVO BARBACENA - COMARCA; BARBACENA - SECRETARIA DAS PJS CRIMINAIS 13.715,83 2.743,17 0,00 0,00 0,00 0,00 16.459,00 1.810,49 3.158,98 0,00 4.969,47 11.489,53 7.620,57 1.178,12 31/01/2020
339 207300 BENITO VIEIRA DOS SANTOS ANALISTA DO MP ATIVO BELO HORIZONTE - COMARCA; COMB CRIMES PRAT POR AG POL MUN-ASSESSORIA 17.452,52 6.981,01 0,00 0,00 0,00 2.687,69 27.121,22 2.687,69 4.203,83 0,00 6.891,52 20.229,70 7.414,05 537,54 31/01/2020
340 480200 BERNADETE NUNES DOS SANTOS ANALISTA DO MP ATIVO GUANHÃES - COMARCA; GUANHAES-PJ-02PJ 9.337,87 2.801,36 0,00 0,00 0,00 0,00 12.139,23 1.335,32 2.101,72 0,00 3.437,04 8.702,19 1.550,00 0,00 31/01/2020
341 378400 BETANIA FARNESI DE SOUZA E SILVA OFICIAL DO MP ATIVO SETE LAGOAS - COMARCA; SETE LAGOAS-PJ-SEC CRIMINAIS 7.955,66 3.182,26 0,00 0,00 3.712,64 0,00 14.850,56 1.313,52 2.825,49 0,00 4.139,01 10.711,55 2.353,15 3.930,08 31/01/2020
342 387400 BETANIA MENDONCA DE ASSIS CARVALHO ANALISTA DO MP ATIVO BELO HORIZONTE - COMARCA; BH-08PJ JUIZADO ESPECIAL-SECRETARIA 12.065,98 2.413,20 0,00 0,00 0,00 0,00 14.479,18 1.642,92 2.622,28 0,00 4.265,20 10.213,98 2.483,73 2.275,55 31/01/2020
343 450300 BIANCA OLIVEIRA DE ALBUQUERQUE ANALISTA DO MP ATIVO BELO HORIZONTE - COMARCA; BH-10PJ EXECUÇÃO PENAL 9.337,87 933,79 0,00 0,00 0,00 0,00 10.271,66 1.129,88 1.644,63 0,00 2.774,51 7.497,15 2.319,39 0,00 31/01/2020
344 535400 BIANCA SALOTO ROSSI ANALISTA DO MP ATIVO SANTOS DUMONT - COMARCA; SANTOS DUMONT-PJ-01PJ 7.823,48 782,35 0,00 0,00 0,00 0,00 8.605,83 946,64 1.236,92 0,00 2.183,56 6.422,27 1.550,00 241,54 31/01/2020
345 120800 BRAS MARQUES DE SOUZA ANALISTA DO MP ATIVO BELO HORIZONTE - COMARCA; SUPERINTENDENCIA DE GESTAO ADMINISTRATIVA 22.030,87 17.624,70 0,00 0,00 0,00 3.900,84 43.556,41 3.900,84 8.778,48 4.193,35 16.872,67 26.683,74 7.223,95 520,11 31/01/2020
346 460900 BRENO CRISTIANO DE SOUZA REZENDE ANALISTA DO MP ATIVO ITAÚNA - COMARCA; ITAUNA-PJ-02PJ 8.758,36 875,84 0,00 0,00 0,00 0,00 9.634,20 1.156,89 1.488,61 0,00 2.645,50 6.988,70 1.550,00 4.320,66 31/01/2020
347 239000 BRENO VENANCIO ROMANINI OFICIAL DO MP ATIVO BELO HORIZONTE - COMARCA; BH-20PJ ORD ECON TRIBUTARIA-SECRETARIA 9.337,87 2.801,36 0,00 0,00 0,00 0,00 12.139,23 1.335,32 2.101,72 0,00 3.437,04 8.702,19 5.434,55 696,71 31/01/2020
348 202201 BRIGITTE AMARALINA DE CALDAS LIMA OFICIAL DO MP ATIVO NANUQUE - COMARCA; NANUQUE-PJ-03PJ 9.337,87 3.735,15 0,00 0,00 0,00 0,00 13.073,02 1.438,03 2.069,58 0,00 3.507,61 9.565,41 7.302,13 527,28 31/01/2020
349 642300 BRUNA IZABELITA DE FATIMA OLIVEIRA COSTA OFICIAL DO MP ATIVO BELO HORIZONTE - COMARCA; BH-02PJ FAMILIA-SECRETARIA 4.467,49 268,05 0,00 0,00 0,00 0,00 4.735,54 520,91 312,16 0,00 833,07 3.902,47 1.550,00 132,91 31/01/2020
350 513600 BRUNA KARLA MARTINS CARVALHO ANALISTA DO MP ATIVO GOVERNADOR VALADARES - COMARCA; GOVERNADOR VALADARES-PJ-01PJ 9.337,87 933,79 0,00 0,00 0,00 0,00 10.271,66 1.129,88 1.644,63 0,00 2.774,51 7.497,15 7.302,13 527,28 31/01/2020
351 415100 BRUNA MARIA SOARES OLIVEIRA COSTA RAMOS ANALISTA DO MP ATIVO UBÁ - COMARCA; COORD REG BACIA DO RIO PARAIBA DO SUL 11.685,57 2.337,11 0,00 0,00 0,00 0,00 14.022,68 1.542,49 2.562,69 0,00 4.105,18 9.917,50 1.550,00 393,46 31/01/2020
352 470000 BRUNA MORAES ANALISTA DO MP ATIVO TOMBOS - COMARCA; TOMBOS-PJ-UNPJ 10.279,98 1.028,00 0,00 0,00 0,00 0,00 11.307,98 1.243,88 1.741,86 0,00 2.985,74 8.322,24 8.199,54 856,29 31/01/2020
353 614700 BRUNA NATTANY DE LIMA OFICIAL DO MP ATIVO MANTENA - COMARCA; MANTENA-PJ-01PJ 4.838,22 483,82 0,00 0,00 0,00 0,00 5.322,04 585,42 433,21 0,00 1.018,63 4.303,41 7.265,01 837,59 31/01/2020
354 631800 BRUNA RAPOSO JORGE OFICIAL DO MP ATIVO JUIZ DE FORA - COMARCA; JUIZ DE FORA-PJ-06PJ 4.838,22 483,82 0,00 0,00 0,00 0,00 5.322,04 671,23 480,58 0,00 1.151,81 4.170,23 1.785,78 1.610,51 31/01/2020
355 463800 BRUNO ALVES TEIXEIRA ANALISTA DO MP ATIVO UBERLÂNDIA - COMARCA; UBERLANDIA-PJ-04PJ 9.337,87 933,79 0,00 0,00 0,00 0,00 10.271,66 1.129,88 1.644,63 0,00 2.774,51 7.497,15 7.302,13 527,28 31/01/2020
356 538500 BRUNO AUGUSTO DA SILVA OFICIAL DO MP ATIVO SANTA LUZIA - COMARCA; SANTA LUZIA-PJ-03PJ 4.995,72 499,57 0,00 0,00 0,00 0,00 5.495,29 604,48 475,61 0,00 1.080,09 4.415,20 2.319,39 154,19 31/01/2020
357 318200 BRUNO BARROS DE SOUZA OFICIAL DO MP ATIVO UBÁ - COMARCA; UBA-PJ-04PJ 9.337,87 2.801,36 0,00 0,00 4.046,41 0,00 16.185,64 1.335,32 2.846,74 0,00 4.182,06 12.003,58 7.869,68 1.447,96 31/01/2020
358 459600 BRUNO CASTELAR LUGAO MENDES OFICIAL DO MP ATIVO GOVERNADOR VALADARES - COMARCA; GOVERNADOR VALADARES-PJ-05PJ 7.106,49 710,65 0,00 0,00 0,00 0,00 7.817,14 887,00 1.043,88 0,00 1.930,88 5.886,26 7.648,74 1.750,41 31/01/2020
359 427400 BRUNO CESAR RIBEIRO DE PAIVA ANALISTA DO MP ATIVO BELO HORIZONTE - COMARCA; ASSESS JUR DO CONS SUPERIOR DO MINISTERIO PUB 11.685,57 2.337,11 0,00 0,00 0,00 0,00 14.022,68 1.542,49 2.562,69 0,00 4.105,18 9.917,50 1.550,00 360,67 31/01/2020
360 380900 BRUNO CIRILO ANTUNES OFICIAL DO MP ATIVO VARGINHA - COMARCA; VARGINHA-PJ-05PJ 7.823,48 1.564,70 0,00 0,00 0,00 0,00 9.388,18 1.065,27 1.428,40 0,00 2.493,67 6.894,51 7.348,70 1.965,07 31/01/2020
361 329000 BRUNO DE MELO REIS ANALISTA DO MP ATIVO PATROCÍNIO - COMARCA; PATROCINIO-PJ-02PJ 14.162,21 4.248,66 0,00 0,00 0,00 0,00 18.410,87 2.089,03 3.532,42 0,00 5.621,45 12.789,42 8.373,35 3.379,60 31/01/2020
362 601700 BRUNO DIAS JUNQUEIRA PEREIRA ANALISTA DO MP ATIVO BELO HORIZONTE - COMARCA; ASSESS TECNICO-JUR JUNTO AS PROC. DE JUST 7.823,48 782,35 0,00 0,00 0,00 0,00 8.605,83 946,64 1.236,92 0,00 2.183,56 6.422,27 1.550,00 241,54 31/01/2020
363 378300 BRUNO HERDY LOPES DE OLIVEIRA ANALISTA DO MP ATIVO MANTENA - COMARCA; MANTENA-PJ-02PJ 12.065,98 2.413,20 0,00 0,00 4.826,39 0,00 19.305,57 1.642,92 4.001,68 0,00 5.644,60 13.660,97 7.506,01 2.612,49 31/01/2020
364 529700 BRUNO JOSE BUENO DIAS OFICIAL DO MP ATIVO SÃO SEBASTIÃO DO PARAÍSO - COMARCA; SAO SEBASTIAO DO PARAISO-PJ-02PJ 4.995,72 499,57 0,00 0,00 0,00 0,00 5.495,29 604,48 423,48 0,00 1.027,96 4.467,33 7.204,68 657,92 31/01/2020
365 350100 BRUNO LAUD SERRANO DOS REIS OFICIAL DO MP ATIVO UBÁ - COMARCA; UBA-PJ-02PJ 7.955,66 2.386,70 0,00 0,00 0,00 0,00 10.342,36 1.137,66 1.609,80 0,00 2.747,46 7.594,90 7.424,20 683,84 31/01/2020
366 373800 BRUNO MARTINO DE ALBUQUERQUE ANALISTA DO MP ATIVO PONTE NOVA - COMARCA; PONTE NOVA-PJ-03PJ 12.065,98 2.413,20 0,00 0,00 0,00 0,00 14.479,18 1.642,92 2.570,14 0,00 4.213,06 10.266,12 7.506,01 2.764,65 31/01/2020
367 470400 BRUNO NOVAIS CABRAL ANALISTA DO MP ATIVO MUTUM - COMARCA; MUTUM-PJ-UNPJ 9.337,87 933,79 0,00 0,00 0,00 0,00 10.271,66 1.129,88 1.644,63 0,00 2.774,51 7.497,15 7.302,13 527,28 31/01/2020
368 648600 BRUNO RIBEIRO E MELO ASSESSOR ATIVO BELO HORIZONTE - COMARCA; DIRETORIA DE RELACOES PUBLICAS E CERIMONIAL 0,00 0,00 7.576,76 0,00 0,00 0,00 7.576,76 671,12 1.332,19 0,00 2.003,31 5.573,45 1.550,00 0,00 31/01/2020
369 369200 BRUNO ROBERTO DIAS DE OLIVEIRA OFICIAL DO MP ATIVO BELO HORIZONTE - COMARCA; BH-22PJ PES COM DEF E IDOSOS 8.214,70 1.642,94 0,00 0,00 0,00 0,00 9.857,64 1.084,34 1.543,30 0,00 2.627,64 7.230,00 7.626,22 818,83 31/01/2020
370 547700 BRUNO ROBERTO SOUZA GONCALVES ANALISTA DO MP ATIVO PARACATU - COMARCA; PARACATU-PJ-03PJ 7.823,48 782,35 0,00 0,00 0,00 0,00 8.605,83 946,64 1.236,92 0,00 2.183,56 6.422,27 3.251,61 241,54 31/01/2020
371 546100 BRUNO SA VIEIRA ANALISTA DO MP ATIVO ERVÁLIA - COMARCA; ERVALIA-PJ-UNPJ 7.823,48 782,35 0,00 0,00 0,00 0,00 8.605,83 946,64 1.184,78 0,00 2.131,42 6.474,41 6.713,50 714,86 31/01/2020
372 438200 BRUNO SALES PEREIRA ANALISTA DO MP ATIVO BELO HORIZONTE - COMARCA; CENTRAL DE APOIO TECNICO-SETOR CONTABIL 10.279,98 2.056,00 0,00 0,00 4.111,99 0,00 16.447,97 1.396,17 3.228,53 0,00 4.624,70 11.823,27 9.166,91 2.287,20 31/01/2020
373 537400 BRUNO SANT'ANA CESAR ANALISTA DO MP ATIVO CONTAGEM - COMARCA; CONTAGEM-PJ-19PJ 7.823,48 782,35 0,00 0,00 0,00 0,00 8.605,83 946,64 1.236,92 0,00 2.183,56 6.422,27 7.564,79 777,97 31/01/2020
374 405800 CAIO FERNANDO RODRIGUES DE OLIVEIRA ANALISTA DO MP ATIVO BELO HORIZONTE - COMARCA; ASSESS TECNICO-JUR JUNTO AS PROC. DE JUST 11.685,57 2.337,11 0,00 0,00 4.674,23 0,00 18.696,91 1.542,49 3.848,11 0,00 5.390,60 13.306,31 7.318,22 907,62 31/01/2020
375 530000 CAIO GUEDES DE OLIVEIRA ANALISTA DO MP ATIVO DIAMANTINA - COMARCA; DIAMANTINA-PJ-02PJ 7.823,48 782,35 0,00 0,00 0,00 0,00 8.605,83 946,64 1.184,78 0,00 2.131,42 6.474,41 2.319,39 241,54 31/01/2020
376 491400 CAIO MIRANDA JUNQUEIRA ANALISTA DO MP ATIVO BUENO BRANDAO - COMARCA; BUENO BRANDAO-PJ-UNPJ 8.758,36 875,84 0,00 0,00 0,00 0,00 9.634,20 1.059,76 1.384,34 0,00 2.444,10 7.190,10 8.257,86 800,22 31/01/2020
377 415800 CAMILA ALVES DA SILVA ANALISTA DO MP ATIVO CAETÉ - COMARCA; CAETE-PJ-01PJ 11.685,57 2.337,11 0,00 0,00 4.674,23 0,00 18.696,91 1.591,12 3.848,11 0,00 5.439,23 13.257,68 7.159,07 2.644,66 31/01/2020
378 555800 CAMILA CAROLINE ROCHA CHAVES OFICIAL DO MP ATIVO SALINAS - COMARCA; SALINAS-PJ-01PJ 4.995,72 499,57 0,00 0,00 0,00 0,00 5.495,29 604,48 475,61 0,00 1.080,09 4.415,20 1.619,30 154,19 31/01/2020
379 445200 CAMILA CONDE ROCHA ANALISTA DO MP ATIVO CONTAGEM - COMARCA; CONTAGEM-PJ-08PJ 9.337,87 1.867,57 0,00 0,00 0,00 0,00 11.205,44 1.232,60 1.873,17 0,00 3.105,77 8.099,67 8.146,22 534,13 31/01/2020
380 419900 CAMILA CUNNINGHAM PIMENTA DE PADUA ANALISTA DO MP ATIVO BELO HORIZONTE - COMARCA; ASSESSORIA PSICOSSOCIAL 11.685,57 2.337,11 0,00 0,00 0,00 0,00 14.022,68 1.542,49 2.562,69 0,00 4.105,18 9.917,50 1.550,00 393,46 31/01/2020
381 507700 CAMILA ELIZABETH RODRIGUES ANALISTA DO MP ATIVO BELO HORIZONTE - COMARCA; BH-02PJ FAMILIA 9.641,94 964,19 0,00 0,00 0,00 0,00 10.606,13 1.166,67 1.726,49 0,00 2.893,16 7.712,97 7.489,43 544,45 31/01/2020
382 372700 CAMILA FONSECA LIMONGE ANALISTA DO MP ATIVO BETIM - COMARCA; BETIM-PJ-01PJ 12.065,98 2.413,20 0,00 0,00 4.826,39 0,00 19.305,57 1.642,92 4.001,68 0,00 5.644,60 13.660,97 8.275,40 2.764,65 31/01/2020
383 621300 CAMILA GOLFETO DE SOUSA VALENTE OFICIAL DO MP ATIVO ESPERA FELIZ - COMARCA; ESPERA FELIZ-PJ-UNPJ 4.838,22 483,82 0,00 0,00 0,00 0,00 5.322,04 585,42 301,64 0,00 887,06 4.434,98 5.669,80 642,45 31/01/2020
384 409800 CAMILA GONCALVES COSTA RIBEIRO ANALISTA DO MP ATIVO INHAPIM - COMARCA; INHAPIM-PJ-02PJ 9.337,87 1.867,57 0,00 0,00 3.735,15 0,00 14.940,59 1.232,60 2.848,20 0,00 4.080,80 10.859,79 8.146,22 534,13 31/01/2020
385 335000 CAMILA GONTIJO DE PAIVA ANALISTA DO MP ATIVO BELO HORIZONTE - COMARCA; COORD DE CONTROLE DA CONSTITUCIONALIDADE 14.372,91 2.874,58 0,00 0,00 5.749,16 0,00 22.996,65 2.041,05 4.880,85 0,00 6.921,90 16.074,75 2.319,39 6.398,23 31/01/2020
386 547800 CAMILA MATTARELLI DE ABREU E SILVA ANALISTA DO MP ATIVO BELO HORIZONTE - COMARCA; CAO-VIOLENCIA DOMESTICA E FAMILIAR 7.823,48 782,35 0,00 0,00 0,00 0,00 8.605,83 946,64 1.236,92 0,00 2.183,56 6.422,27 1.550,00 332,00 31/01/2020
387 430000 CANDIDA MARINA COSTA ANALISTA DO MP ATIVO BELO HORIZONTE - COMARCA; DIVISAO DE DOCUMENTACAO JURIDICA 11.685,57 2.337,11 0,00 0,00 0,00 0,00 14.022,68 1.587,07 2.562,69 0,00 4.149,76 9.872,92 1.550,00 1.847,94 31/01/2020
388 614300 CARINA CORTIELHA OFICIAL DO MP ATIVO BELO HORIZONTE - COMARCA; BH-23PJ CIVEL-SEC EXP CIVEIS 4.467,49 446,75 0,00 0,00 0,00 0,00 4.914,24 540,57 347,95 0,00 888,52 4.025,72 1.810,41 386,28 31/01/2020
389 380400 CARINA DIAS FACANHA DE SOUZA ANALISTA DO MP ATIVO SANTA RITA DO SAPUCAÍ - COMARCA; SANTA RITA DO SAPUCAI-PJ-SECRETARIA 12.065,98 2.413,20 0,00 0,00 0,00 0,00 14.479,18 1.642,92 2.674,42 0,00 4.317,34 10.161,84 1.550,00 2.081,59 31/01/2020
390 255000 CARLA ADRIANA DE MENEZES OFICIAL DO MP ATIVO BELO HORIZONTE - COMARCA; CENT DE APOIO TEC-SETOR DEF,IDOSO E INFANC 9.337,87 2.801,36 0,00 0,00 0,00 0,00 12.139,23 1.335,32 2.101,72 0,00 3.437,04 8.702,19 7.376,83 874,76 31/01/2020
391 425100 CARLA ADRIANA DINIZ AMARAL OFICIAL DO MP ATIVO CONTAGEM - COMARCA; CONTAGEM-PJ-08PJ 7.337,85 1.467,57 0,00 0,00 0,00 0,00 8.805,42 968,60 1.285,77 0,00 2.254,37 6.551,05 7.693,16 816,56 31/01/2020
392 508100 CARLA ALESSANDRA FONSECA ANALISTA DO MP ATIVO BELO HORIZONTE - COMARCA; CAO-ORDEM ECONOMICA E TRIBUTARIA-SECRETARIA 9.337,87 933,79 0,00 0,00 0,00 0,00 10.271,66 1.129,88 1.644,63 0,00 2.774,51 7.497,15 7.302,13 527,28 31/01/2020
393 607100 CARLA ANGELICA DIAS MIRANDA OFICIAL DO MP ATIVO JABOTICATUBAS - COMARCA; JABOTICATUBAS-PJ-UNPJ 4.995,72 499,57 0,00 0,00 0,00 0,00 5.495,29 623,54 336,33 0,00 959,87 4.535,42 1.550,00 539,38 31/01/2020
394 351500 CARLA APARECIDA MENDES RAMIRIO OFICIAL DO MP ATIVO PASSOS - COMARCA; PASSOS-PJ-01PJ 8.214,70 1.642,94 0,00 0,00 3.285,88 0,00 13.143,52 1.118,53 2.394,78 0,00 3.513,31 9.630,21 7.464,58 2.063,27 31/01/2020
395 442800 CARLA GONCALVES COSTA SOALHEIRO ANALISTA DO MP ATIVO GOVERNADOR VALADARES - COMARCA; GOVERNADOR VALADARES-PJ-11PJ 9.123,54 1.867,57 0,00 0,00 3.735,15 0,00 14.726,26 1.232,60 2.789,26 0,00 4.021,86 10.704,40 8.146,22 534,13 31/01/2020
396 321500 CARLA GONCALVES MASSOTE OFICIAL DO MP ATIVO CAMPO BELO - COMARCA; CAMPO BELO-PJ-01PJ 9.337,87 1.867,57 0,00 0,00 0,00 0,00 11.205,44 1.232,60 1.873,17 0,00 3.105,77 8.099,67 1.550,00 913,83 31/01/2020
397 429200 CARLA HAUTEQUESTT BECHARA COORDENADOR/ANALISTA ATIVO BELO HORIZONTE - COMARCA; DIRET DE INFORMACAO E CONHECIMENTO-DINC/CEAF 11.685,57 4.828,88 0,00 0,00 0,00 0,00 16.514,45 1.587,07 3.247,93 0,00 4.835,00 11.679,45 1.550,00 1.847,94 31/01/2020
398 247500 CARLA MATILDE GUIMARAES DE OLIVEIRA OFICIAL DO MP ATIVO ITAJUBA - COMARCA; ITAJUBA-PJ-SECRETARIA 9.337,87 3.735,15 0,00 0,00 0,00 0,00 13.073,02 1.438,03 2.278,13 0,00 3.716,16 9.356,86 1.550,00 0,00 31/01/2020
399 226100 CARLA MERLI DA CONCEICAO ANALISTA DO MP ATIVO BELO HORIZONTE - COMARCA; CENTRAL DE APOIO TECNICO-SETOR CONTABIL 17.452,52 5.235,76 0,00 0,00 0,00 0,00 22.688,28 2.495,71 4.631,46 0,00 7.127,17 15.561,11 6.995,19 499,14 31/01/2020
400 181401 CARLO MICHEL GAUDENSI COELHO ANALISTA DO MP ATIVO BELO HORIZONTE - COMARCA; BH-08PJ JUIZADO ESPECIAL-SECRETARIA 11.317,16 4.526,86 0,00 0,00 0,00 0,00 15.844,02 1.742,84 3.008,46 0,00 4.751,30 11.092,72 2.035,40 1.200,01 31/01/2020
401 634000 CARLOS ALBERTO AMORMINO TRIGUEIRO ANALISTA DO MP ATIVO BELO HORIZONTE - COMARCA; DIRET DE APOIO AS PROCURADORIAS DE JUSTICA 6.882,47 412,95 0,00 0,00 2.431,81 0,00 9.727,23 802,50 1.532,80 0,00 2.335,30 7.391,93 2.319,39 204,77 31/01/2020
402 637900 CARLOS ALBERTO DE MOURA OFICIAL DO MP ATIVO SETE LAGOAS - COMARCA; SETE LAGOAS-PJ-07PJ 4.467,49 268,05 0,00 0,00 0,00 0,00 4.735,54 537,34 269,50 0,00 806,84 3.928,70 2.319,39 149,34 31/01/2020
403 638700 CARLOS ALBERTO FERREIRA BRAGA ANALISTA DO MP ATIVO RIBEIRÃO DAS NEVES - COMARCA; SEC PJ EXECUCAO PENAL RIBEIRAO NEVES 6.251,74 375,10 0,00 0,00 0,00 0,00 6.626,84 671,12 664,19 0,00 1.335,31 5.291,53 8.151,01 743,49 31/01/2020
404 375801 CARLOS ALBERTO ROCHA ANALISTA DO MP ATIVO ELOI MENDES - COMARCA; ELOI MENDES-PJ-SECRETARIA 8.482,22 848,22 0,00 0,00 0,00 0,00 9.330,44 1.026,35 1.414,26 0,00 2.440,61 6.889,83 1.550,00 261,90 31/01/2020
405 462800 CARLOS ANDREI SOARES FAGUNDES ANALISTA DO MP ATIVO MONTES CLAROS - COMARCA; MONTES CLAROS-PJ-09PJ 9.337,87 933,79 0,00 0,00 0,00 0,00 10.271,66 1.129,88 1.592,49 0,00 2.722,37 7.549,29 8.071,52 527,28 31/01/2020
406 370300 CARLOS AUGUSTO BUENO DIAS ASSESSOR ATIVO BELO HORIZONTE - COMARCA; SUPERINTENDÊNCIA DE ENGENHARIA E ARQUITETURA 0,00 0,00 9.641,94 0,00 3.213,98 0,00 12.855,92 671,12 1.983,44 0,00 2.654,56 10.201,36 5.406,78 353,54 31/01/2020
407 505100 CARLOS CEZAR CARVALHO ANALISTA DO MP ATIVO RIBEIRÃO DAS NEVES - COMARCA; RIBEIRAO DAS NEVES-PJ-04PJ 8.758,36 3.503,34 0,00 0,00 0,00 0,00 12.261,70 1.348,79 2.027,42 0,00 3.376,21 8.885,49 7.590,26 883,59 31/01/2020
408 195900 CARLOS DE SOUZA FERREIRA OFICIAL DO MP ATIVO COROMANDEL - COMARCA; COROMANDEL-PJ-UNPJ 9.337,87 7.470,30 0,00 0,00 0,00 0,00 16.808,17 1.848,90 3.244,44 0,00 5.093,34 11.714,83 1.550,00 0,00 31/01/2020
409 196800 CARLOS EDUARDO DE OLIVEIRA MARINHO OFICIAL DO MP ATIVO ALPINÓPOLIS - COMARCA; ALPINOPOLIS-PJ-UNPJ 13.715,83 6.857,91 0,00 0,00 0,00 0,00 20.573,74 2.334,48 4.113,93 0,00 6.448,41 14.125,33 7.466,36 3.702,90 31/01/2020
410 650800 CARLOS EDUARDO NIZA DA SILVA OFICIAL DO MP ATIVO IGARAPÉ - COMARCA; IGARAPE-PJ-01PJ 3.930,12 235,81 0,00 0,00 0,00 0,00 4.165,93 577,11 172,91 0,00 750,02 3.415,91 6.076,14 1.942,79 31/01/2020
411 491800 CARLOS EDUARDO ROMAN OFICIAL DO MP ATIVO BARBACENA - COMARCA; BARBACENA-PJ-09PJ 6.882,47 1.376,49 0,00 0,00 0,00 0,00 8.258,96 991,75 1.152,02 0,00 2.143,77 6.115,19 6.598,87 4.127,62 31/01/2020
412 299300 CARLOS HENRIQUE BICALHO ANALISTA DO MP ATIVO BELO HORIZONTE - COMARCA; BH-17PJ PATRIMONIO PUBLICO-SECRETARIA 15.533,57 6.213,43 0,00 0,00 0,00 0,00 21.747,00 2.392,17 4.453,22 0,00 6.845,39 14.901,61 2.319,39 1.708,71 31/01/2020
413 205100 CARLOS HENRIQUE ESTEVES OFICIAL DO MP ATIVO ITAMBACURI - COMARCA; ITAMBACURI-PJ-01PJ 13.715,83 5.486,33 0,00 0,00 0,00 0,00 19.202,16 2.112,24 3.778,23 0,00 5.890,47 13.311,69 7.084,04 993,31 31/01/2020
414 351600 CARLOS HENRIQUE FELICIO DA FONSECA OFICIAL DO MP ATIVO JUIZ DE FORA - COMARCA; JUIZ DE FORA-PJ-21PJ 8.758,36 2.627,51 0,00 0,00 0,00 0,00 11.385,87 1.367,24 1.865,19 0,00 3.232,43 8.153,44 7.470,65 5.301,14 31/01/2020
415 85400 CARLOS JOSE VIEIRA OFICIAL DO MP ATIVO BELO HORIZONTE - COMARCA; DIRETORIA DO COLEGIO E DA CAMARA DE PJ 22.030,87 17.624,70 0,00 0,00 0,00 0,00 39.655,57 3.900,84 7.810,02 4.193,35 15.904,21 23.751,36 7.223,95 520,11 31/01/2020
416 229100 CARLOS MERCES DE OLIVEIRA ANALISTA DO MP ATIVO BELO HORIZONTE - COMARCA; CENTRAL DE APOIO TECN-SETOR DE MEIO AMBIENTE 17.452,52 5.235,76 0,00 0,00 0,00 0,00 22.688,28 2.590,76 3.436,54 0,00 6.027,30 16.660,98 2.068,45 3.171,17 31/01/2020
417 538300 CARLOS RANGEL SILVA DE MELO ANALISTA DO MP ATIVO BELO HORIZONTE - COMARCA; DIVISAO DE CONTROLE IMOBILIARIO 7.823,48 2.347,04 0,00 0,00 0,00 0,00 10.170,52 1.118,76 1.619,87 0,00 2.738,63 7.431,89 2.319,39 285,46 31/01/2020
418 265100 CARLOS REIFF MIRANDA ANALISTA DO MP ATIVO BELO HORIZONTE - COMARCA; BH-19PJ SAUDE-SECRETARIA 150PJ 14.162,21 4.248,66 0,00 0,00 6.136,96 0,00 24.547,83 2.025,20 5.324,36 0,00 7.349,56 17.198,27 1.550,00 516,46 31/01/2020
419 305400 CARLOS ROCHA DE SOUZA OFICIAL DO MP ATIVO MONTALVÂNIA - COMARCA; MONTALVANIA-PJ-SECRETARIA 5.678,79 1.703,64 0,00 0,00 0,00 0,00 7.382,43 812,07 728,94 0,00 1.541,01 5.841,42 2.279,90 0,00 31/01/2020
420 365100 CARLOS WAGNER SANDER MORAIS COORDENADOR/OFICIAL ATIVO BELO HORIZONTE - COMARCA; DIRETORIA DE ADMINISTRACAO FINANCEIRA 0,00 2.491,77 12.458,83 0,00 0,00 0,00 14.950,60 1.579,94 2.807,57 0,00 4.387,51 10.563,09 7.530,24 442,23 31/01/2020
421 399900 CARMELITA EVANGELISTA DE SOUZA OFICIAL DO MP ATIVO JOÃO PINHEIRO - COMARCA; JOAO PINHEIRO-PJ-01PJ 7.106,49 1.421,30 0,00 0,00 0,00 0,00 8.527,79 965,17 1.217,82 0,00 2.182,99 6.344,80 7.506,61 1.737,39 31/01/2020
422 202000 CARMEN LUCIA MARIZ DE MACEDO OFICIAL DO MP ATIVO BELO HORIZONTE - COMARCA; DIRETORIA GESTAO COMPRAS LICITACOES 13.283,29 9.298,31 0,00 0,00 0,00 0,00 22.581,60 2.483,98 4.553,21 0,00 7.037,19 15.544,41 2.046,66 1.841,79 31/01/2020
423 228500 CAROLINA CHIARELLA DOS SANTOS RIBEIRO OFICIAL DO MP ATIVO BELO HORIZONTE - COMARCA; GAECO - SECRETARIA 7.823,48 2.347,04 0,00 0,00 0,00 0,00 10.170,52 1.118,76 1.696,47 0,00 2.815,23 7.355,29 7.730,18 2.009,36 31/01/2020
424 446500 CAROLINA COSTA VAL RODRIGUES ANALISTA DO MP ATIVO CONTAGEM - COMARCA; CONTAGEM-PJ-05PJ 11.317,16 2.263,43 0,00 0,00 0,00 0,00 13.580,59 1.493,86 2.454,49 0,00 3.948,35 9.632,24 2.047,85 1.107,71 31/01/2020
425 603501 CAROLINA DOMINGOS BRANDAO RABELLO ANALISTA DO MP ATIVO CARATINGA - COMARCA; CARATINGA-PJ-01PJ 7.823,48 782,35 0,00 0,00 0,00 0,00 8.605,83 976,49 1.236,92 0,00 2.213,41 6.392,42 1.550,00 996,00 31/01/2020
426 404300 CAROLINA DOS SANTOS VIEIRA ANALISTA DO MP ATIVO BELO HORIZONTE - COMARCA; BH-08PJ JUIZADO ESPECIAL-SECRETARIA 12.065,98 2.413,20 0,00 0,00 0,00 0,00 14.479,18 1.642,92 2.570,14 0,00 4.213,06 10.266,12 1.714,34 2.233,75 31/01/2020
427 551200 CAROLINA LOPES ARANTES MASCARENHAS ANALISTA DO MP ATIVO BELO HORIZONTE - COMARCA; COORD EST DEF DIR FAMILIA PESSOA DEFICI IDOSO 7.823,48 782,35 0,00 0,00 0,00 0,00 8.605,83 946,64 1.132,64 0,00 2.079,28 6.526,55 3.088,78 241,54 31/01/2020
428 622600 CAROLINA LOREDO LOPES CATIZANI OFICIAL DO MP ATIVO RIBEIRÃO DAS NEVES - COMARCA; RIBEIRAO DAS NEVES-PJ-12PJ 4.467,49 446,75 0,00 0,00 0,00 0,00 4.914,24 540,57 347,95 0,00 888,52 4.025,72 1.550,00 386,28 31/01/2020
429 382200 CAROLINA MENDES CHAVES LIN ANALISTA DO MP ATIVO BELO HORIZONTE - COMARCA; BH-12PJ JUIZO CRIMINAL-GAB 088PJ 9.337,87 1.867,57 0,00 0,00 0,00 0,00 11.205,44 1.232,60 1.821,03 0,00 3.053,63 8.151,81 2.319,39 314,43 31/01/2020
430 461900 CAROLINA MURTA TEIXEIRA DIAS ASSESSOR/ANALISTA ATIVO BELO HORIZONTE - COMARCA; PROCURADOR-GERAL DE JUSTIÇA 0,00 1.168,56 11.685,57 0,00 0,00 0,00 12.854,13 1.129,88 2.354,81 0,00 3.484,69 9.369,44 1.550,00 648,00 31/01/2020
431 509600 CAROLINA PINTO DE OLIVEIRA SOUZA ANALISTA DO MP ATIVO MURIAÉ - COMARCA; MURIAE-PJ-01PJ 9.337,87 933,79 0,00 0,00 0,00 0,00 10.271,66 1.129,88 1.488,22 0,00 2.618,10 7.653,56 9.225,06 527,28 31/01/2020
432 629100 CAROLINA RODRIGUES AMARAL ANALISTA DO MP ATIVO BELO HORIZONTE - COMARCA; PROC. JUSTICA DIR. DIFUSOS E COLETIVOS-SEC 7.576,76 757,68 0,00 0,00 0,00 0,00 8.334,44 916,79 1.170,49 0,00 2.087,28 6.247,16 1.550,00 655,00 31/01/2020
433 502600 CAROLINA RODRIGUES RUBEN ANALISTA DO MP ATIVO BELO HORIZONTE - COMARCA; EXTINTA-DEF DIREIT HUM-COMB A VIOL DOMEST-18 9.337,87 933,79 0,00 0,00 0,00 0,00 10.271,66 1.129,88 1.592,49 0,00 2.722,37 7.549,29 2.319,39 0,00 31/01/2020
434 529600 CAROLINA VAZ DE MELO MAMBRINI ANALISTA DO MP ATIVO MINAS NOVAS - COMARCA; MINAS NOVAS-PJ-UNPJ 7.823,48 782,35 0,00 0,00 2.868,61 0,00 11.474,44 946,64 2.025,79 0,00 2.972,43 8.502,01 1.550,00 241,54 31/01/2020
435 619100 CAROLINA ZAKHIA NARDELLI RODRIGUES ANALISTA DO MP ATIVO NEPOMUCENO - COMARCA; NEPOMUCENO-PJ-UNPJ 7.576,76 757,68 0,00 0,00 0,00 0,00 8.334,44 916,79 1.170,49 0,00 2.087,28 6.247,16 2.319,39 655,00 31/01/2020
436 517600 CAROLINE ALVES DE OLIVEIRA MULLER ANALISTA DO MP ATIVO VISCONDE DO RIO BRANCO - COMARCA; VISCONDE DO RIO BRANCO-PJ-01PJ 9.337,87 933,79 0,00 0,00 3.423,89 0,00 13.695,55 1.129,88 2.534,06 0,00 3.663,94 10.031,61 8.071,52 527,28 31/01/2020
437 373200 CAROLINE ANTUNES RIBEIRO OFICIAL DO MP ATIVO JACUI - COMARCA; JACUI-PJ-UNPJ 7.955,66 1.591,13 0,00 0,00 0,00 0,00 9.546,79 1.050,15 1.310,80 0,00 2.360,95 7.185,84 7.693,24 1.184,89 31/01/2020
438 556800 CAROLINE DE SOUZA CARDOSO DOMINGUES OFICIAL DO MP ATIVO BRASÍLIA DE MINAS - COMARCA; BRASILIA DE MINAS-PJ-02PJ 4.995,72 499,57 0,00 0,00 0,00 0,00 5.495,29 604,48 475,61 0,00 1.080,09 4.415,20 1.550,00 517,13 31/01/2020
439 499400 CAROLINE MARQUES DE LOURDES MARZULLO OFICIAL DO MP ATIVO JUIZ DE FORA - COMARCA; JUIZ DE FORA-PJ-08PJ 6.882,47 688,25 0,00 0,00 0,00 0,00 7.570,72 909,10 983,57 0,00 1.892,67 5.678,05 2.703,54 3.395,00 31/01/2020
440 616800 CAROLINE MONTEIRO DE BARROS ANALISTA DO MP ATIVO CONTAGEM - COMARCA; CONTAGEM-PJ-11PJ 7.576,76 757,68 0,00 0,00 0,00 0,00 8.334,44 916,79 1.170,49 0,00 2.087,28 6.247,16 1.550,00 655,00 31/01/2020
441 618100 CAROLINE VASCONCELOS COSTA LANZA ANALISTA DO MP ATIVO PARAOPEBA - COMARCA; PARAOPEBA-PJ-UNPJ 7.576,76 757,68 0,00 0,00 0,00 0,00 8.334,44 916,79 1.170,49 0,00 2.087,28 6.247,16 4.627,56 655,00 31/01/2020
442 604000 CASSIA APARECIDA DA SILVA OFICIAL DO MP ATIVO PARACATU - COMARCA; PARACATU-PJ-01PJ 4.995,72 499,57 0,00 0,00 0,00 0,00 5.495,29 623,54 475,61 0,00 1.099,15 4.396,14 1.550,00 998,77 31/01/2020
443 268800 CASSIA BEATRIZ TEIXEIRA OFICIAL DO MP ATIVO BELO HORIZONTE - COMARCA; COMB CRIMES PRAT POR AG POL MUN-SECRETARIA 11.317,16 3.395,15 0,00 0,00 0,00 0,00 14.712,31 1.766,67 2.731,48 0,00 4.498,15 10.214,16 7.920,32 7.137,27 31/01/2020
444 500000 CASSIA DE OLIVEIRA COSTA VIANA ANALISTA DO MP ATIVO SETE LAGOAS - COMARCA; SETE LAGOAS-PJ-09PJ 9.337,87 4.668,94 0,00 0,00 0,00 0,00 14.006,81 1.540,75 2.558,81 0,00 4.099,56 9.907,25 1.550,00 0,00 31/01/2020
445 368800 CASSIA LUISA BATISTA MENDONCA WEBER OFICIAL DO MP ATIVO BELO HORIZONTE - COMARCA; DIVISÃO DE EDUCAÇÃO PARA O CONSUMO 6.882,47 1.376,49 0,00 0,00 0,00 0,00 8.258,96 908,49 1.152,02 0,00 2.060,51 6.198,45 1.550,00 231,82 31/01/2020
446 622200 CASSIA VAZ DE AZEVEDO LISBOA MARZANO ASSESSOR ATIVO BELO HORIZONTE - COMARCA; CGMP-SECRETARIA DA CORREGEDORIA-GERAL DO MP 0,00 0,00 2.852,73 0,00 0,00 0,00 2.852,73 476,64 81,30 0,00 557,94 2.294,79 4.031,03 776,37 31/01/2020
447 121000 CASSIO HENRIQUE AFONSO DA SILVA OFICIAL DO MP ATIVO BELO HORIZONTE - COMARCA; ASSESS TECNICA DA CORREGEDORIA-GERAL DO MP 15.533,57 10.873,50 0,00 0,00 0,00 0,00 26.407,07 2.904,78 5.489,50 0,00 8.394,28 18.012,79 7.032,56 1.379,27 31/01/2020
448 121100 CASSIO MOREIRA DE MIRANDA AGENTE DO MP ATIVO BELO HORIZONTE - COMARCA; DIVISÃO DE FISCALIZAÇÃO DAS RELAÇÕES DE CONSU 4.058,04 3.246,43 0,00 0,00 0,00 803,49 8.107,96 803,49 672,21 0,00 1.475,70 6.632,26 1.550,00 1.340,25 31/01/2020
449 512001 CATARINA NATALINO CALIXTO COORDENADOR/ANALISTA ATIVO BELO HORIZONTE - COMARCA; DIRETORIA GESTAO TRANSPORTES 0,00 1.245,88 12.458,83 0,00 4.568,24 0,00 18.272,95 1.178,30 3.831,67 0,00 5.009,97 13.262,98 7.031,88 420,04 31/01/2020
450 606200 CATARINE DE SIQUEIRA DE QUADROS ANALISTA DO MP ATIVO RIBEIRÃO DAS NEVES - COMARCA; RIBEIRAO DAS NEVES-PJ-09PJ 7.106,49 710,65 0,00 0,00 0,00 0,00 7.817,14 887,00 991,75 0,00 1.878,75 5.938,39 2.319,39 904,39 31/01/2020
451 622300 CECILIA APARECIDA PEREIRA ASSUNCAO OFICIAL DO MP ATIVO TRÊS PONTAS - COMARCA; TRES PONTAS-PJ-SECRETARIA 4.838,22 483,82 0,00 0,00 1.774,01 0,00 7.096,05 585,42 868,93 0,00 1.454,35 5.641,70 7.641,43 837,59 31/01/2020
452 538000 CECILIA FONTES DE MATOS PIMENTEL ANALISTA DO MP ATIVO PALMA - COMARCA; PALMA-PJ-UNPJ 7.823,48 782,35 0,00 0,00 2.868,61 0,00 11.474,44 946,64 2.025,79 0,00 2.972,43 8.502,01 8.334,18 777,97 31/01/2020
453 261300 CECILIO ANTONIO CAMPOS DOS REIS ANALISTA DO MP ATIVO BELO HORIZONTE - COMARCA; AUDITORIA INTERNA 16.148,50 4.844,55 0,00 0,00 0,00 0,00 20.993,05 2.309,24 4.583,84 0,00 6.893,08 14.099,97 7.428,05 2.396,31 31/01/2020
454 386400 CEFAS AMORELI DE FIGUEIREDO OFICIAL DO MP ATIVO CABO VERDE - COMARCA; CABO VERDE-PJ-SECRETARIA 5.678,79 1.135,76 0,00 0,00 2.271,52 0,00 9.086,07 749,60 1.423,17 0,00 2.172,77 6.913,30 1.550,00 0,00 31/01/2020
455 149000 CELIA MAGALHAES CLAROS SOSSI OFICIAL DO MP ATIVO GOVERNADOR VALADARES - COMARCA; GAECO REGIONAL DE GOVERNADOR VALADARES 14.162,21 7.081,10 0,00 0,00 7.081,10 0,00 28.324,41 2.336,76 6.277,24 0,00 8.614,00 19.710,41 7.658,83 1.141,17 31/01/2020
456 421000 CELINA BENEDITA DE SOUZA ALMEIDA OFICIAL DO MP ATIVO CAMBUÍ - COMARCA; CAMBUI-PJ-01PJ 7.337,85 3.668,93 0,00 0,00 0,00 0,00 11.006,78 1.210,75 1.772,41 0,00 2.983,16 8.023,62 1.702,70 308,87 31/01/2020
457 252900 CELIO DE MELO CASTOR ANALISTA DO MP ATIVO BELO HORIZONTE - COMARCA; BH-20PJ ORD ECON TRIBUTARIA-SECRETARIA 16.148,50 4.844,55 0,00 0,00 0,00 0,00 20.993,05 2.309,24 4.268,69 0,00 6.577,93 14.415,12 1.550,00 711,47 31/01/2020
458 395700 CELIO FERREIRA LIMA OFICIAL DO MP ATIVO CONTAGEM - COMARCA; CONTAGEM-PJ-07PJ 7.823,48 1.564,70 0,00 0,00 0,00 0,00 9.388,18 1.065,27 1.376,26 0,00 2.441,53 6.946,65 7.952,30 1.866,38 31/01/2020
459 281300 CELMA REGINA PEREIRA SANTOS ANALISTA DO MP ATIVO BELO HORIZONTE - COMARCA; DIVISAO DE DOCUMENTACAO JURIDICA 15.533,57 4.660,07 0,00 0,00 0,00 0,00 20.193,64 2.221,30 4.073,03 0,00 6.294,33 13.899,31 1.550,00 684,52 31/01/2020
460 535600 CELSO MEDEIROS DE PAIVA OFICIAL DO MP ATIVO RIO PRETO - COMARCA; RIO PRETO-PJ-SECRETARIA 4.612,94 461,29 0,00 0,00 0,00 0,00 5.074,23 558,17 337,33 0,00 895,50 4.178,73 6.624,23 607,54 31/01/2020
461 367000 CESAR NARVAES DE AVELAR COORDENADOR/OFICIAL ATIVO BELO HORIZONTE - COMARCA; DIVISAO DE MEMORIA INSTITUCIONAL 0,00 2.192,05 10.960,26 0,00 0,00 0,00 13.152,31 1.118,53 2.439,93 0,00 3.558,46 9.593,85 1.550,00 0,00 31/01/2020
462 226500 CESAR SILVEIRA BARROUIN OFICIAL DO MP ATIVO BELO HORIZONTE - COMARCA; DIRETORIA DE ADMINISTRACAO FINANCEIRA 11.317,16 4.526,86 0,00 0,00 0,00 0,00 15.844,02 1.742,84 3.008,46 0,00 4.751,30 11.092,72 7.718,51 1.815,17 31/01/2020
463 121400 CEZAR MORENO CONCEICAO TAVARES OFICIAL DO MP ATIVO BELO HORIZONTE - COMARCA; COORD EST DEF DIR FAMILIA PESSOA DEFICI IDOSO 14.162,21 9.913,54 0,00 0,00 0,00 0,00 24.075,75 2.731,80 4.918,91 0,00 7.650,71 16.425,04 7.479,95 4.242,98 31/01/2020
464 243800 CHARLES MARTINS MUNIZ OFICIAL DO MP ATIVO BELO HORIZONTE - COMARCA; LAB TECNOLOGIA CONTRA LAVAGEM DINHEIRO 11.317,16 4.526,86 0,00 0,00 0,00 0,00 15.844,02 1.742,84 3.008,46 0,00 4.751,30 11.092,72 7.289,25 2.172,30 31/01/2020
465 193500 CHARLIN CESAR KOURLY OFICIAL DO MP ATIVO ARAGUARI - COMARCA; ARAGUARI-PJ-07PJ 13.715,83 4.114,75 0,00 0,00 0,00 0,00 17.830,58 2.023,21 3.494,68 0,00 5.517,89 12.312,69 7.413,23 3.274,55 31/01/2020
466 385500 CHILLEN PEIXOTO DE MOURA OFICIAL DO MP ATIVO BELO HORIZONTE - COMARCA; DIVISÃO DE FISCALIZAÇÃO DAS RELAÇÕES DE CONSU 7.823,48 1.564,70 0,00 0,00 0,00 0,00 9.388,18 1.065,27 1.796,97 0,00 2.862,24 6.525,94 7.128,78 3.300,36 31/01/2020
467 534500 CHRISTIAN DOUGLAS BRITO RUAS OFICIAL DO MP ATIVO SÃO JOÃO DA PONTE - COMARCA; SAO JOAO DA PONTE-PJ-SECRETARIA 4.995,72 499,57 0,00 0,00 0,00 0,00 5.495,29 604,48 475,61 0,00 1.080,09 4.415,20 4.706,35 416,13 31/01/2020
468 370600 CHRISTIAN KARINE FELIX PRATES ASSESSOR ATIVO BELO HORIZONTE - COMARCA; SUPRIN DE PLANEJAMENTO E COORDENACAO 0,00 0,00 9.641,94 0,00 0,00 0,00 9.641,94 671,12 1.900,12 0,00 2.571,24 7.070,70 1.550,00 0,00 31/01/2020
469 435800 CHRISTIANA BAHIA ANDRADE PINA ANALISTA DO MP ATIVO BELO HORIZONTE - COMARCA; LABORATORIO TECNOLOGIA INTELIGENCIA 11.685,57 2.337,11 0,00 0,00 0,00 0,00 14.022,68 1.587,07 2.562,69 0,00 4.149,76 9.872,92 2.481,49 1.847,94 31/01/2020
470 516800 CHRISTIANE FERREIRA DO NASCIMENTO ANALISTA DO MP ATIVO ESTRELA DO SUL - COMARCA; ESTRELA DO SUL-PJ-UNPJ 9.337,87 933,79 0,00 0,00 0,00 0,00 10.271,66 1.129,88 1.644,63 0,00 2.774,51 7.497,15 1.550,00 0,00 31/01/2020
471 176000 CHRISTIANE JUNQUEIRA PULITI ANDRADE DE BARROS ASSESSOR ATIVO BELO HORIZONTE - COMARCA; CAO-VIOLENCIA DOMESTICA E FAMILIAR 0,00 8.491,73 10.614,65 0,00 0,00 2.101,70 21.208,08 2.101,70 4.384,89 0,00 6.486,59 14.721,49 6.899,79 490,40 31/01/2020
472 319200 CHRISTIANE MARIA DE ASSIS RUSSO OFICIAL DO MP ATIVO BELO HORIZONTE - COMARCA; CAO-ORDEM ECONOMICA E TRIBUTARIA-SECRETARIA 9.955,90 2.986,77 0,00 0,00 0,00 0,00 12.942,67 1.465,13 2.246,22 0,00 3.711,35 9.231,32 2.319,39 3.082,14 31/01/2020
473 510300 CHRISTIANE MARY DE CARVALHO FERREIRA ANALISTA DO MP ATIVO BELO HORIZONTE - COMARCA; DIRETORIA DE SISTEMAS DE INFORMACAO 9.337,87 933,79 0,00 0,00 0,00 0,00 10.271,66 1.129,88 1.592,49 0,00 2.722,37 7.549,29 6.891,26 489,62 31/01/2020
474 424900 CHRISTIANE PEREIRA TURNER DE ARAUJO OFICIAL DO MP ATIVO BELO HORIZONTE - COMARCA; CAO-PATRIMONIO PUBLICO 7.337,85 1.467,57 0,00 0,00 0,00 0,00 8.805,42 999,14 1.181,49 0,00 2.180,63 6.624,79 2.857,96 1.317,13 31/01/2020
475 513700 CHRISTIANE VIEIRA SOARES PEDERSOLI ASSESSOR/ANALISTA ATIVO BELO HORIZONTE - COMARCA; ASSESSORIA JURIDICA DO PROCON-MG 0,00 1.061,47 10.614,65 0,00 0,00 0,00 11.676,12 1.129,88 2.030,86 0,00 3.160,74 8.515,38 2.319,39 0,00 31/01/2020
476 412300 CHRYSTIAN MACHADO RIBEIRO ANALISTA DO MP ATIVO VARGINHA - COMARCA; VARGINHA-PJ-04PJ 11.685,57 2.337,11 0,00 0,00 0,00 0,00 14.022,68 1.542,49 2.562,69 0,00 4.105,18 9.917,50 7.318,22 907,62 31/01/2020
477 513800 CHRYSTIANE DO NASCIMENTO DE MAGALHAES OFICIAL DO MP ATIVO UBERLÂNDIA - COMARCA; UBERLANDIA-PJ-10PJ 6.251,74 625,17 0,00 0,00 2.292,30 0,00 9.169,21 756,46 1.339,87 0,00 2.096,33 7.072,88 8.260,76 794,74 31/01/2020
478 497900 CIBELE DE FREITAS SANCHES DIAS ANALISTA DO MP ATIVO SABARÁ - COMARCA; SABARA-PJ-03PJ 8.758,36 875,84 0,00 0,00 0,00 0,00 9.634,20 1.059,76 1.488,61 0,00 2.548,37 7.085,83 7.488,47 800,22 31/01/2020
479 500900 CIBELLE SILVA PRADO ALVARENGA ANALISTA DO MP ATIVO ITANHANDU - COMARCA; ITANHANDU-PJ-UNPJ 9.337,87 933,79 0,00 0,00 0,00 0,00 10.271,66 1.129,88 1.644,63 0,00 2.774,51 7.497,15 3.088,78 0,00 31/01/2020
480 296400 CINTIA APARECIDA MOREIRA NAVES E RODRIGUES ANALISTA DO MP ATIVO CAMPO BELO - COMARCA; CAMPO BELO-PJ-02PJ 15.533,57 4.660,07 0,00 0,00 0,00 0,00 20.193,64 2.221,30 4.073,03 0,00 6.294,33 13.899,31 7.204,22 2.699,22 31/01/2020
481 407900 CINTIA NETO COMELLI ANALISTA DO MP ATIVO BELO HORIZONTE - COMARCA; CENTRAL DE APOIO TECNICO-SETOR CONTABIL 11.685,57 2.337,11 0,00 0,00 0,00 0,00 14.022,68 1.542,49 2.510,56 0,00 4.053,05 9.969,63 2.319,39 393,46 31/01/2020
482 304700 CINTIA QUEIROZ OFICIAL DO MP ATIVO BELO HORIZONTE - COMARCA; OUVIDORIA DO MPMG 9.337,87 2.801,36 0,00 0,00 4.046,41 0,00 16.185,64 1.374,18 3.214,48 0,00 4.588,66 11.596,98 1.705,45 1.728,76 31/01/2020
483 286100 CIRO CANGUSSU CORDEIRO OFICIAL DO MP ATIVO IPATINGA - COMARCA; IPATINGA-PJ-09PJ 6.882,47 2.064,74 0,00 0,00 0,00 0,00 8.947,21 1.074,38 1.268,33 0,00 2.342,71 6.604,50 2.041,97 3.682,84 31/01/2020
484 412500 CLARICE GOMES MAROTTA ANALISTA DO MP ATIVO BELO HORIZONTE - COMARCA; PROMOT ESTADUAL DE DEF PATRI CULT E TUR DE MG 11.685,57 3.505,67 0,00 0,00 0,00 0,00 15.191,24 1.723,72 2.848,70 0,00 4.572,42 10.618,82 7.172,11 2.685,23 31/01/2020
485 605300 CLARISSA AZEVEDO ROCHA OFICIAL DO MP ATIVO BELO HORIZONTE - COMARCA; ASSESSORIA PSICOSSOCIAL 4.995,72 499,57 0,00 0,00 0,00 0,00 5.495,29 623,54 475,61 0,00 1.099,15 4.396,14 1.550,00 693,58 31/01/2020
486 308100 CLARISSA DUARTE BELLONI DIRETOR/ANALISTA ATIVO BELO HORIZONTE - COMARCA; DIRETORIA-GERAL 0,00 6.870,93 22.903,10 0,00 0,00 0,00 29.774,03 2.323,43 6.627,42 0,00 8.950,85 20.823,18 3.857,08 0,00 31/01/2020
487 497100 CLARISSA ROCHA GUIDI ANALISTA DO MP ATIVO BELO HORIZONTE - COMARCA; BH-02PJ FAMILIA 9.641,94 964,19 0,00 0,00 0,00 0,00 10.606,13 1.166,67 1.674,35 0,00 2.841,02 7.765,11 8.258,82 544,45 31/01/2020
488 641800 CLARISSE TAVARES GONCALVES OFICIAL DO MP ATIVO BELO HORIZONTE - COMARCA; BH-07PJ 01 TRIBUNAL DO JURI 4.467,49 268,05 0,00 0,00 0,00 0,00 4.735,54 583,57 312,16 0,00 895,73 3.839,81 1.891,76 569,61 31/01/2020
489 463700 CLAUDIA ADRIANA FERRAO DIAS ANALISTA DO MP ATIVO SETE LAGOAS - COMARCA; SETE LAGOAS-PJ-06PJ 9.337,87 933,79 0,00 0,00 3.423,89 0,00 13.695,55 1.129,88 2.586,20 0,00 3.716,08 9.979,47 1.550,00 0,00 31/01/2020
490 415400 CLAUDIA ALMEIDA DE VASCONCELLOS BARROS ASSESSOR/OFICIAL ATIVO BELO HORIZONTE - COMARCA; DIVISAO DE SERVICOS 0,00 1.928,39 9.641,94 0,00 0,00 0,00 11.570,33 1.306,93 1.953,08 0,00 3.260,01 8.310,32 7.103,76 509,09 31/01/2020
491 207000 CLAUDIA APARECIDA VILELA MACHADO ANALISTA DO MP ATIVO BELO HORIZONTE - COMARCA; CENTRAL DE APOIO TECNICO-SETOR CONTABIL 17.452,52 6.981,01 0,00 0,00 0,00 0,00 24.433,53 2.687,69 4.954,33 0,00 7.642,02 16.791,51 1.550,00 0,00 31/01/2020
492 365700 CLAUDIA BREGUEZ CUNHA ANALISTA DO MP ATIVO VARGINHA - COMARCA; VARGINHA-PJ-07PJ 13.283,29 2.656,66 0,00 0,00 0,00 0,00 15.939,95 1.753,39 3.031,94 0,00 4.785,33 11.154,62 1.550,00 1.300,09 31/01/2020
493 430500 CLAUDIA CECILIA SANTANA VENCESLAU OFICIAL DO MP ATIVO BELO HORIZONTE - COMARCA; DIR ANALISES TECNOLOGIA INTELIGENCIA 7.337,85 1.467,57 0,00 0,00 0,00 0,00 8.805,42 1.026,46 1.217,72 0,00 2.244,18 6.561,24 2.319,39 437,92 31/01/2020
494 112400 CLAUDIA CRISTINA FIUZA DE AVELAR AGENTE DO MP ATIVO BELO HORIZONTE - COMARCA; SERVICO MEDICO-DEPTO PERIC MEDICA SAUDE OCUP 9.043,46 6.330,42 0,00 0,00 0,00 0,00 15.373,88 1.691,13 2.893,40 0,00 4.584,53 10.789,35 1.550,00 431,36 31/01/2020
495 480400 CLAUDIA GOULART DE SOUZA OFICIAL DO MP ATIVO PASSOS - COMARCA; PASSOS-PJ-06PJ 6.882,47 1.376,49 0,00 0,00 0,00 0,00 8.258,96 908,49 1.152,02 0,00 2.060,51 6.198,45 7.980,85 1.218,71 31/01/2020
496 519800 CLAUDIA HELENA CORREA DE ALMEIDA ANALISTA DO MP ATIVO BELO HORIZONTE - COMARCA; BH-12PJ JUIZO CRIMINAL-GAB 102PJ 9.337,87 933,79 0,00 0,00 0,00 0,00 10.271,66 1.129,88 1.644,63 0,00 2.774,51 7.497,15 1.550,00 837,69 31/01/2020
497 422100 CLAUDIA IACOMINI CABRAL ANALISTA DO MP ATIVO BELO HORIZONTE - COMARCA; CENT DE APOIO TEC-SETOR DEF,IDOSO E INFANC 11.685,57 8.179,91 0,00 0,00 0,00 0,00 19.865,48 2.245,99 3.992,72 0,00 6.238,71 13.626,77 1.704,73 2.704,10 31/01/2020
498 258200 CLAUDIA LAGE MICHALAROS ANALISTA DO MP ATIVO BELO HORIZONTE - COMARCA; CENTRAL DE APOIO TECN-SETOR DE MEIO AMBIENTE 16.148,50 11.303,95 0,00 0,00 9.150,82 3.019,77 39.623,04 3.019,77 9.144,40 0,00 12.164,17 27.458,87 7.207,75 1.548,67 31/01/2020
499 284600 CLAUDIA LENI DE FREITAS OFICIAL DO MP ATIVO CONTAGEM - COMARCA; CONTAGEM-PJ-22PJ 5.678,79 2.271,52 0,00 0,00 0,00 0,00 7.950,31 874,53 1.076,48 0,00 1.951,01 5.999,30 1.550,00 0,00 31/01/2020
500 433600 CLAUDIA LUIZA SANTIAGO FELICIO ANALISTA DO MP ATIVO BELO HORIZONTE - COMARCA; CENT DE APOIO TEC-SETOR DEF,IDOSO E INFANC 11.685,57 2.337,11 0,00 0,00 0,00 0,00 14.022,68 1.587,07 2.458,42 0,00 4.045,49 9.977,19 1.550,00 1.847,94 31/01/2020
501 317000 CLAUDIA MACHADO ALVES ASSESSOR/OFICIAL ATIVO BELO HORIZONTE - COMARCA; DIRETORIA DE SISTEMAS DE INFORMACAO 0,00 2.892,58 9.641,94 0,00 0,00 0,00 12.534,52 1.171,47 2.255,48 0,00 3.426,95 9.107,57 1.519,46 0,00 31/01/2020
502 155300 CLAUDIA MACIEL MIRANDA E BELO OFICIAL DO MP ATIVO CONGONHAS - COMARCA; CONGONHAS-PJ-02PJ 14.162,21 7.081,11 0,00 0,00 0,00 0,00 21.243,32 2.410,42 4.225,67 0,00 6.636,09 14.607,23 1.550,00 3.276,43 31/01/2020
503 242200 CLAUDIA MICHELLE DIAS MUNIZ BALEEIRO OFICIAL DO MP ATIVO MONTE AZUL - COMARCA; MONTE AZUL-PJ-SECRETARIA 11.317,16 4.526,86 0,00 0,00 0,00 0,00 15.844,02 1.902,57 2.956,33 0,00 4.858,90 10.985,12 2.014,66 6.621,35 31/01/2020
504 623000 CLAUDIA PATRICIA SILVA RODRIGUES RAPOSEIRAS OFICIAL DO MP ATIVO BELO HORIZONTE - COMARCA; DIVISÃO DE EDUCAÇÃO PARA O CONSUMO 4.467,49 446,75 0,00 0,00 0,00 0,00 4.914,24 540,57 305,29 0,00 845,86 4.068,38 2.319,39 386,28 31/01/2020
505 418400 CLAUDIA REGINA MARTINS BONIFACIO OFICIAL DO MP ATIVO ITUIUTABA - COMARCA; ITUIUTABA-PJ-06PJ 7.337,85 1.467,57 0,00 0,00 0,00 0,00 8.805,42 968,60 1.181,49 0,00 2.150,09 6.655,33 7.693,16 888,50 31/01/2020
506 498300 CLAUDIA SOUTO FARIAS BRAUN OFICIAL DO MP ATIVO TEÓFILO OTONI - COMARCA; TEOFILO OTONI-PJ-SECRETARIA 5.678,79 567,88 0,00 0,00 0,00 0,00 6.246,67 687,13 555,24 0,00 1.242,37 5.004,30 7.712,20 724,96 31/01/2020
507 206500 CLAUDIA VALERIA FONSECA ANDRADE ANALISTA DO MP ATIVO BELO HORIZONTE - COMARCA; BH-23PJ INF-FISC MED SOC FEC 17.452,52 8.726,26 0,00 0,00 8.726,26 0,00 34.905,04 2.879,67 7.937,62 0,00 10.817,29 24.087,75 1.550,00 0,00 31/01/2020
508 277500 CLAUDIO ANTONIO BORGES BRUNSWICK ALVARES OFICIAL DO MP ATIVO BELO HORIZONTE - COMARCA; DIRETORIA DE PESSOAL ADMINISTRATIVO - DPAD 9.337,87 2.801,36 0,00 0,00 0,00 0,00 12.139,23 1.335,32 2.101,72 0,00 3.437,04 8.702,19 1.550,00 0,00 31/01/2020
509 444800 CLAUDIO ARESIO DO CARMO ANALISTA DO MP ATIVO SETE LAGOAS - COMARCA; SETE LAGOAS-PJ-01PJ 9.337,87 3.735,15 0,00 0,00 0,00 0,00 13.073,02 1.438,03 2.278,13 0,00 3.716,16 9.356,86 7.302,13 527,28 31/01/2020
510 541600 CLAUDIO DE OLIVEIRA MELO OFICIAL DO MP ATIVO CANÁPOLIS - COMARCA; CANAPOLIS-PJ-UNPJ 4.058,04 243,48 0,00 0,00 0,00 0,00 4.301,52 473,17 162,58 0,00 635,75 3.665,77 2.319,39 0,00 31/01/2020
511 545100 CLAUDIO HENRIQUE MACEDO DE SOUZA FRANSOZO ANALISTA DO MP ATIVO OURO PRETO - COMARCA; OURO PRETO-PJ-01PJ 7.823,48 782,35 0,00 0,00 0,00 0,00 8.605,83 946,64 1.236,92 0,00 2.183,56 6.422,27 1.550,00 241,54 31/01/2020
512 353500 CLAUDIO HENRIQUE PEDRO DA ROCHA OFICIAL DO MP ATIVO BELO HORIZONTE - COMARCA; DIVISAO TRANSPORTES 8.758,36 1.751,67 0,00 0,00 0,00 0,00 10.510,03 1.262,06 1.598,70 0,00 2.860,76 7.649,27 7.936,50 5.252,97 31/01/2020
513 265800 CLAUDIO KUPIDLOWSKY FERNANDES OFICIAL DO MP ATIVO BELO HORIZONTE - COMARCA; SECRETARIA DO PROCON-MG 9.337,87 2.801,36 0,00 0,00 0,00 0,00 12.139,23 1.335,32 846,63 0,00 2.181,95 9.957,28 7.376,83 534,13 31/01/2020
514 193600 CLAUDIO LEITE FONTES OFICIAL DO MP ATIVO ITUIUTABA - COMARCA; ITUIUTABA-PJ-02PJ 8.214,70 3.285,88 0,00 0,00 3.833,53 0,00 15.334,11 1.304,95 2.713,90 0,00 4.018,85 11.315,26 7.689,87 2.322,81 31/01/2020
515 329400 CLAUDIO MARCIO BERNARDES OFICIAL DO MP ATIVO ITAÚNA - COMARCA; ITAUNA-PJ-03PJ 9.337,87 6.536,52 0,00 0,00 0,00 0,00 15.874,39 1.746,18 2.963,76 0,00 4.709,94 11.164,45 2.784,87 1.779,48 31/01/2020
516 270200 CLAUDIO RABELO ALVES OFICIAL DO MP ATIVO FORMIGA - COMARCA; FORMIGA-PJ-03PJ 9.641,94 2.892,58 0,00 0,00 4.178,17 0,00 16.712,69 1.378,80 3.138,91 0,00 4.517,71 12.194,98 7.065,19 505,56 31/01/2020
517 264700 CLAUDIO ROBERTO KFURI DE ARAUJO ANALISTA DO MP ATIVO BELO HORIZONTE - COMARCA; CENTRAL DE APOIO TECNICO-SETOR DE INFORMATICA 16.148,50 4.844,55 0,00 0,00 6.997,68 0,00 27.990,73 2.309,24 6.088,78 0,00 8.398,02 19.592,71 1.550,00 977,94 31/01/2020
518 188600 CLAUDIO SALES OFICIAL DO MP ATIVO NEPOMUCENO - COMARCA; NEPOMUCENO-PJ-SECRETARIA 13.283,29 10.626,64 0,00 0,00 0,00 0,00 23.909,93 2.857,73 4.982,60 0,00 7.840,33 16.069,60 1.550,00 10.126,37 31/01/2020
519 543300 CLAUDIO SILVA DE CARVALHO ANALISTA DO MP ATIVO CAMPO BELO - COMARCA; CAMPO BELO-PJ-04PJ 7.106,49 710,65 0,00 0,00 2.605,71 0,00 10.422,85 859,89 1.708,32 0,00 2.568,21 7.854,64 7.491,03 755,93 31/01/2020
520 160700 CLAUDIO VICENTE HESS ASSESSOR ATIVO BELO HORIZONTE - COMARCA; CENTRAL DE APOIO TECNICO-SETOR DE INFORMATICA 0,00 4.983,53 12.458,83 0,00 0,00 0,00 17.442,36 671,12 3.940,96 0,00 4.612,08 12.830,28 7.131,56 511,64 31/01/2020
521 312900 CLAUDIO VIEIRA FIRPE OFICIAL DO MP ATIVO BELO HORIZONTE - COMARCA; DIRETORIA DE RELACOES PUBLICAS E CERIMONIAL 9.043,46 2.713,04 0,00 0,00 0,00 0,00 11.756,50 1.293,22 2.008,04 0,00 3.301,26 8.455,24 7.962,51 821,78 31/01/2020
522 634100 CLEA CRISTINA GUERRA DE FREITAS COSTA OFICIAL DO MP ATIVO BELO HORIZONTE - COMARCA; BH-18PJ VIOLENCIA DOMESTICA-SECRETARIA 4.467,49 268,05 0,00 0,00 1.578,51 0,00 6.314,05 520,91 671,62 0,00 1.192,53 5.121,52 7.054,93 616,78 31/01/2020
523 653100 CLEBER SOUZA SCALIONI ASSESSOR ATIVO BELO HORIZONTE - COMARCA; CENTRAL DE APOIO TECNICO-SETOR CONTABIL 0,00 0,00 7.576,76 0,00 0,00 0,00 7.576,76 671,12 1.332,19 0,00 2.003,31 5.573,45 1.550,00 0,00 31/01/2020
524 459200 CLEIA ZILLE PEREIRA ANALISTA DO MP ATIVO BELO HORIZONTE - COMARCA; ASSESS TECNICO-JUR JUNTO AS PROC. DE JUST 9.337,87 933,79 0,00 0,00 3.423,89 0,00 13.695,55 1.129,88 2.586,20 0,00 3.716,08 9.979,47 7.302,13 527,28 31/01/2020
525 481800 CLEIDE CARDOSO DA SILVA ANALISTA DO MP ATIVO MANHUAÇU - COMARCA; MANHUACU-PJ-04PJ 9.337,87 933,79 0,00 0,00 0,00 0,00 10.271,66 1.129,88 1.540,36 0,00 2.670,24 7.601,42 1.550,00 0,00 31/01/2020
526 347600 CLEIDIMAR DE OLIVEIRA SILVA OFICIAL DO MP ATIVO PATOS DE MINAS - COMARCA; PATOS DE MINAS-PJ-07PJ 7.955,66 2.386,70 0,00 0,00 0,00 0,00 10.342,36 1.156,56 1.453,38 0,00 2.609,94 7.732,42 1.550,00 840,82 31/01/2020
527 396500 CLEIDISON BATISTA DE ANDRADE OFICIAL DO MP ATIVO RESPLENDOR - COMARCA; RESPLENDOR-PJ-UNPJ 6.054,65 1.210,93 0,00 0,00 0,00 0,00 7.265,58 824,41 804,62 0,00 1.629,03 5.636,55 8.456,59 1.775,13 31/01/2020
528 535100 CLEISON ALVES DA SILVA ANALISTA DO MP ATIVO BOA ESPERANÇA - COMARCA; BOA ESPERANCA-PJ-01PJ 7.823,48 782,35 0,00 0,00 0,00 0,00 8.605,83 946,64 1.132,64 0,00 2.079,28 6.526,55 8.334,18 777,97 31/01/2020
529 298100 CLEONICE AUGUSTA BARROS DE OLIVEIRA ANALISTA DO MP ATIVO JUIZ DE FORA - COMARCA; JUIZ DE FORA-PJ-08PJ 15.533,57 4.660,07 0,00 0,00 0,00 0,00 20.193,64 2.299,40 4.073,03 0,00 6.372,43 13.821,21 1.550,00 3.237,42 31/01/2020
530 114300 CLERES PEREIRA DA SILVA JUNIOR ASSESSOR ATIVO BELO HORIZONTE - COMARCA; GAECO - SECRETARIA 0,00 2.381,54 4.763,08 0,00 0,00 0,00 7.144,62 671,12 1.056,94 0,00 1.728,06 5.416,56 1.550,00 0,00 31/01/2020
531 264100 CLETO HENRIQUE ANDRADE SILVA ANALISTA DO MP ATIVO BELO HORIZONTE - COMARCA; DIRETORIA DE SISTEMAS DE INFORMACAO 16.148,50 4.844,55 0,00 0,00 6.997,68 0,00 27.990,73 2.309,24 6.088,78 0,00 8.398,02 19.592,71 1.741,86 711,47 31/01/2020
532 334400 CLEUBA DE OLIVEIRA BARCELOS GONCALVES OFICIAL DO MP ATIVO DIVINÓPOLIS - COMARCA; COORD REG SAUDE MACRORREGIAO SANITARIA OESTE 9.337,87 1.867,57 0,00 0,00 0,00 0,00 11.205,44 1.232,60 2.543,37 0,00 3.775,97 7.429,47 7.869,68 4.264,24 31/01/2020
533 347500 CLEUSA CORDEIRO DA MATA PIMENTA OFICIAL DO MP ATIVO CAMPO BELO - COMARCA; CAMPO BELO-PJ-02PJ 8.482,22 6.785,77 0,00 0,00 0,00 1.679,48 16.947,47 1.732,45 3.225,06 0,00 4.957,51 11.989,96 1.550,00 2.621,13 31/01/2020
534 510200 CLEZIO SALES SILVA OFICIAL DO MP ATIVO BRASÓPOLIS - COMARCA; BRASOPOLIS-PJ-UNPJ 5.158,42 515,84 0,00 0,00 0,00 0,00 5.674,26 624,17 519,41 0,00 1.143,58 4.530,68 8.158,30 679,42 31/01/2020
535 323000 CLOTILDE DE PADUA VIEIRA OFICIAL DO MP ATIVO BELO HORIZONTE - COMARCA; CGMP-DIVISAO DE APOIO ADMINISTRATIVO 6.665,41 1.333,08 0,00 0,00 0,00 0,00 7.998,49 960,45 1.088,27 0,00 2.048,72 5.949,77 1.550,00 3.342,07 31/01/2020
536 285200 CLOVIS ANDRE LUDTKE OFICIAL DO MP ATIVO BELO HORIZONTE - COMARCA; DIVISAO DE MANUTENCAO PREDIAL 9.337,87 2.801,36 0,00 0,00 0,00 0,00 12.139,23 1.335,32 2.101,72 0,00 3.437,04 8.702,19 7.529,92 874,76 31/01/2020
537 381100 CONCEICAO APARECIDA TEIXEIRA ARANTES ANALISTA DO MP ATIVO BELO HORIZONTE - COMARCA; BH-23PJ INFRACIONAL-ASS JURIDICA 12.458,83 2.491,77 0,00 0,00 4.983,53 0,00 19.934,13 1.729,15 4.296,32 0,00 6.025,47 13.908,66 2.812,59 2.113,61 31/01/2020
538 249900 CONSTANTINO CEZAR GOMES MOTA OFICIAL DO MP ATIVO MONTES CLAROS - COMARCA; COORD REG BACIA RIOS VERDE GRANDE E PARDO 8.482,22 2.544,67 0,00 0,00 0,00 0,00 11.026,89 1.251,22 1.725,20 0,00 2.976,42 8.050,47 8.053,37 2.227,42 31/01/2020
539 481000 CRISHMA ANALIA LOMBELLO ANALISTA DO MP ATIVO JUIZ DE FORA - COMARCA; JUIZ DE FORA-PJ-13PJ 9.337,87 933,79 0,00 0,00 0,00 0,00 10.271,66 1.129,88 1.592,49 0,00 2.722,37 7.549,29 7.302,13 527,28 31/01/2020
540 523900 CRISTHYANE BAZOLI COSTA GUEDES COUTO OFICIAL DO MP ATIVO BELO HORIZONTE - COMARCA; EXTINTA-04ª PJ JUÍZO REG PÚBLICOS-SECRETARIA 6.251,74 625,17 0,00 0,00 0,00 0,00 6.876,91 780,31 813,76 0,00 1.594,07 5.282,84 7.491,37 1.518,13 31/01/2020
541 187000 CRISTIAN DAYVSON EVANGELISTA OFICIAL DO MP ATIVO JUIZ DE FORA - COMARCA; JUIZ DE FORA-PJ-13PJ 13.283,29 5.313,32 0,00 0,00 0,00 0,00 18.596,61 2.219,71 3.630,02 0,00 5.849,73 12.746,88 1.550,00 7.743,70 31/01/2020
542 319800 CRISTIANA GONCALVES DOS SANTOS GUSMAO OFICIAL DO MP ATIVO SETE LAGOAS - COMARCA; SETE LAGOAS-PJ-10PJ 8.482,22 1.696,44 0,00 0,00 0,00 0,00 10.178,66 1.154,96 1.621,87 0,00 2.776,83 7.401,83 1.550,00 1.463,85 31/01/2020
543 520600 CRISTIANA JANAINA BARBOZA JUVENCIO DOS SANTOS ANALISTA DO MP ATIVO BELO HORIZONTE - COMARCA; BH-02PJ FAMILIA 9.337,87 933,79 0,00 0,00 0,00 0,00 10.271,66 1.129,88 1.644,63 0,00 2.774,51 7.497,15 7.791,56 1.364,97 31/01/2020
544 195600 CRISTIANA SOARES HALABI OFICIAL DO MP ATIVO UBERABA - COMARCA; UBERABA-PJ-01PJ 13.283,29 5.313,32 0,00 0,00 0,00 0,00 18.596,61 2.105,52 3.682,16 0,00 5.787,68 12.808,93 7.653,36 3.028,15 31/01/2020
545 218900 CRISTIANE ALVES BELLES OFICIAL DO MP ATIVO JUIZ DE FORA - COMARCA; JUIZ DE FORA-PJ-10PJ 5.678,79 1.703,64 0,00 0,00 0,00 0,00 7.382,43 812,07 833,21 0,00 1.645,28 5.737,15 8.609,48 541,38 31/01/2020
546 263600 CRISTIANE CARVALHO COUTINHO OFICIAL DO MP ATIVO BELO HORIZONTE - COMARCA; BH-23PJ INFRACIONAL-SEC EXP 9.337,87 2.801,36 0,00 0,00 0,00 0,00 12.139,23 1.335,32 2.049,58 0,00 3.384,90 8.754,33 1.550,00 340,63 31/01/2020
547 541000 CRISTIANE COELHO ALVES OFICIAL DO MP ATIVO ITABIRA - COMARCA; ITABIRA-PJ-03PJ 4.612,94 461,29 0,00 0,00 1.691,41 0,00 6.765,64 558,17 785,56 0,00 1.343,73 5.421,91 1.550,00 142,40 31/01/2020
548 441700 CRISTIANE CORRADO DE ANDRADE ANALISTA DO MP ATIVO BELO HORIZONTE - COMARCA; DIRETORIA DE SISTEMAS DE INFORMACAO 11.685,57 2.337,11 0,00 0,00 0,00 0,00 14.022,68 1.587,07 2.562,69 0,00 4.149,76 9.872,92 7.159,07 2.362,10 31/01/2020
549 375100 CRISTIANE DAS DORES ERCIO DE LIMA OFICIAL DO MP ATIVO GOVERNADOR VALADARES - COMARCA; COOR REG INCLUSAO MOBILIZ VALE DO RIO DOCE 7.576,76 1.515,35 0,00 0,00 0,00 0,00 9.092,11 1.000,13 1.355,93 0,00 2.356,06 6.736,05 1.550,00 741,50 31/01/2020
550 178800 CRISTIANE DE LIMA HOSKEN OFICIAL DO MP ATIVO BELO HORIZONTE - COMARCA; BH-14PJ DEFESA CONSUMIDOR-GAB 110PJ 13.715,83 5.486,33 0,00 0,00 0,00 0,00 19.202,16 2.174,09 3.673,96 0,00 5.848,05 13.354,11 7.084,04 3.244,38 31/01/2020
551 494000 CRISTIANE DE MELO MARQUEZ OLIVEIRA ANALISTA DO MP ATIVO UBERLÂNDIA - COMARCA; UBERLANDIA-PJ-06PJ 9.955,90 995,59 0,00 0,00 0,00 0,00 10.951,49 1.242,65 1.811,02 0,00 3.053,67 7.897,82 9.109,87 2.509,67 31/01/2020
552 266100 CRISTIANE DE OLIVEIRA CASTRO OFICIAL DO MP ATIVO BELO HORIZONTE - COMARCA; BH-14PJ DEFESA CONSUMIDOR-SECRETARIA 11.317,16 3.395,15 0,00 0,00 0,00 0,00 14.712,31 1.766,67 2.995,77 0,00 4.762,44 9.949,87 1.550,00 7.488,63 31/01/2020
553 329500 CRISTIANE DOS REIS SILVA OFICIAL DO MP ATIVO ARAXÁ - COMARCA; ARAXA-PJ-04PJ 8.482,22 1.696,44 0,00 0,00 3.392,89 0,00 13.571,55 1.154,96 2.450,64 0,00 3.605,60 9.965,95 5.775,55 1.944,08 31/01/2020
554 301600 CRISTIANE GODINHO PIRES ANALISTA DO MP ATIVO BETIM - COMARCA; BETIM-PJ-07PJ 14.941,94 4.482,58 0,00 0,00 6.474,84 0,00 25.899,36 2.211,81 5.665,37 0,00 7.877,18 18.022,18 7.180,07 3.839,92 31/01/2020
555 406100 CRISTIANE GONCALVES CHAVES ANALISTA DO MP ATIVO BELO HORIZONTE - COMARCA; BH-14PJ DEFESA CONSUMIDOR-GAB 112PJ 12.065,98 3.619,79 0,00 0,00 5.228,59 0,00 20.914,36 1.779,83 4.407,60 0,00 6.187,43 14.726,93 1.708,25 2.419,90 31/01/2020
556 487600 CRISTIANE LOPES DE OLIVEIRA OFICIAL DO MP ATIVO DIVINÓPOLIS - COMARCA; DIVINOPOLIS-PJ-03PJ 5.678,79 567,88 0,00 0,00 0,00 0,00 6.246,67 687,13 659,51 0,00 1.346,64 4.900,03 7.712,20 724,96 31/01/2020
557 502500 CRISTIANE MACIEL DE OLIVEIRA GOMES ANALISTA DO MP ATIVO JUIZ DE FORA - COMARCA; JUIZ DE FORA-PJ-05PJ 9.337,87 933,79 0,00 0,00 0,00 0,00 10.271,66 1.129,88 1.644,63 0,00 2.774,51 7.497,15 8.071,52 527,28 31/01/2020
558 285500 CRISTIANE MAGALHAES LOURENCO ANALISTA DO MP ATIVO BELO HORIZONTE - COMARCA; CENTRAL DE APOIO TECNICO-SETOR CONTABIL 15.533,57 4.660,07 0,00 0,00 0,00 0,00 20.193,64 2.221,30 4.020,90 0,00 6.242,20 13.951,44 7.632,08 2.104,97 31/01/2020
559 536500 CRISTIANE MICHELE DE SOUZA ANALISTA DO MP ATIVO BARÃO DE COCAIS - COMARCA; BARAO DE COCAIS-PJ-UNPJ 7.823,48 782,35 0,00 0,00 0,00 0,00 8.605,83 946,64 1.132,64 0,00 2.079,28 6.526,55 2.319,39 241,54 31/01/2020
560 346600 CRISTIANE NOGUEIRA ANDRADE ANALISTA DO MP ATIVO BELO HORIZONTE - COMARCA; CENTRAL DE APOIO TECNICO-SETOR CONTABIL 13.715,83 2.743,17 0,00 0,00 0,00 0,00 16.459,00 1.810,49 3.158,98 0,00 4.969,47 11.489,53 1.550,00 461,95 31/01/2020
561 234000 CRISTIANE OLIVEIRA TOSTES OFICIAL DO MP ATIVO JUIZ DE FORA - COMARCA; JUIZ DE FORA-PJ-08PJ 12.065,98 3.619,79 0,00 0,00 5.228,59 0,00 20.914,36 1.779,83 4.407,60 0,00 6.187,43 14.726,93 2.319,39 2.419,90 31/01/2020
562 445800 CRISTIANE ORZIL COSTA OFICIAL DO MP ATIVO SANTA LUZIA - COMARCA; SANTA LUZIA-PJ-05PJ 5.678,79 1.135,76 0,00 0,00 0,00 0,00 6.814,55 749,60 798,50 0,00 1.548,10 5.266,45 2.319,39 0,00 31/01/2020
563 616100 CRISTIANE PAES RODRIGUES MARCICANO ANALISTA DO MP ATIVO CATAGUASES - COMARCA; CATAGUASES-PJ-05PJ 6.882,47 412,95 0,00 0,00 2.431,81 0,00 9.727,23 802,50 1.584,94 0,00 2.387,44 7.339,79 8.925,12 1.130,03 31/01/2020
564 612300 CRISTIANE RIBEIRO DOS REIS ARCANJO OFICIAL DO MP ATIVO BELO HORIZONTE - COMARCA; DIRETORIA DE PAGAMENTO DE PESSOAL-DPAG 4.838,22 483,82 0,00 0,00 0,00 0,00 5.322,04 628,65 334,57 0,00 963,22 4.358,82 0,00 0,00 31/01/2020
565 257700 CRISTIANE RODRIGUES PAES NUNES ANALISTA DO MP ATIVO BELO HORIZONTE - COMARCA; BH-22PJ PES COM DEF E IDOSOS-ORIENTACAO PSIC 15.533,57 4.660,07 0,00 0,00 6.731,21 0,00 26.924,85 2.221,30 5.871,98 0,00 8.093,28 18.831,57 5.550,37 980,69 31/01/2020
566 510800 CRISTIANE SANTOS FERNANDES ORNELES ANALISTA DO MP ATIVO BELO HORIZONTE - COMARCA; COORD ESTADUAL DAS PJS DE HAB. E URBANISMO 9.337,87 933,79 0,00 0,00 0,00 0,00 10.271,66 1.129,88 1.644,63 0,00 2.774,51 7.497,15 1.550,00 0,00 31/01/2020
567 535701 CRISTIANE SANTOS MIRANDA ANALISTA DO MP ATIVO BETIM - COMARCA; BETIM-PJ-12PJ 6.665,41 399,92 0,00 0,00 0,00 0,00 7.065,33 844,37 807,74 0,00 1.652,11 5.413,22 2.136,33 2.241,49 31/01/2020
568 536200 CRISTIANO DE OLIVEIRA ANALISTA DO MP ATIVO CONCEIÇÃO DO MATO DENTRO - COMARCA; CONCEICAO DO MATO DENTRO-PJ-UNPJ 8.482,22 848,22 0,00 0,00 0,00 0,00 9.330,44 1.026,35 1.362,13 0,00 2.388,48 6.941,96 5.282,18 604,02 31/01/2020
569 477400 CRISTIANO SOARES ELEUTERIO ANALISTA DO MP ATIVO BELO HORIZONTE - COMARCA; BH-17PJ PATRIMONIO PUBLICO 9.955,90 995,59 0,00 0,00 0,00 0,00 10.951,49 1.204,66 1.811,02 0,00 3.015,68 7.935,81 7.410,54 829,39 31/01/2020
570 449400 CRISTIANO TEIXEIRA RODRIGUES LANA ANALISTA DO MP ATIVO BELO HORIZONTE - COMARCA; ASSESS TECNICO-JUR JUNTO AS PROC. DE JUST 9.337,87 933,79 0,00 0,00 3.423,89 0,00 13.695,55 1.129,88 2.586,20 0,00 3.716,08 9.979,47 7.302,13 527,28 31/01/2020
571 239400 CRISTINA DE FATIMA CRUZ E SILVA OFICIAL DO MP ATIVO MONTE SANTO DE MINAS - COMARCA; MONTE SANTO DE MINAS-PJ-SECRETARIA 11.317,16 3.395,15 0,00 0,00 0,00 0,00 14.712,31 1.766,67 2.731,48 0,00 4.498,15 10.214,16 1.550,00 6.148,38 31/01/2020
572 544000 CRISTINA DE OLIVEIRA TERRA ANALISTA DO MP ATIVO MATOZINHOS - COMARCA; MATOZINHOS-PJ-01PJ 7.823,48 782,35 0,00 0,00 0,00 0,00 8.605,83 946,64 1.236,92 0,00 2.183,56 6.422,27 7.564,79 777,97 31/01/2020
573 356800 CRISTINA DE PINHO BARROSO OFICIAL DO MP ATIVO SABINÓPOLIS - COMARCA; SABINOPOLIS-PJ-UNPJ 6.882,47 2.064,74 0,00 0,00 2.982,40 0,00 11.929,61 1.015,23 2.036,36 0,00 3.051,59 8.878,02 2.319,39 1.380,80 31/01/2020
574 649500 CRISTINA DO DIVINO ESPIRITO SANTOS OFICIAL DO MP ATIVO DIVINÓPOLIS - COMARCA; DIVINOPOLIS-PJ-12PJ 4.326,60 259,60 0,00 0,00 1.528,73 0,00 6.114,93 504,48 621,38 0,00 1.125,86 4.989,07 6.532,68 773,27 31/01/2020
575 348201 CRISTINA MARIA DA SILVA ANALISTA DO MP ATIVO PATOS DE MINAS - COMARCA; PATOS DE MINAS-PJ-07PJ 9.337,87 933,79 0,00 0,00 0,00 0,00 10.271,66 1.129,88 1.644,63 0,00 2.774,51 7.497,15 1.550,00 0,00 31/01/2020
576 434900 CRISTINA MELO DE MADUREIRA ANALISTA DO MP ATIVO BELO HORIZONTE - COMARCA; BH-07PJ 01 TRIBUNAL DO JURI 11.685,57 2.337,11 0,00 0,00 4.674,23 0,00 18.696,91 1.587,07 3.848,11 0,00 5.435,18 13.261,73 1.550,00 1.983,02 31/01/2020
577 307700 CRISTINA TEIXEIRA MARQUES OFICIAL DO MP ATIVO BELO HORIZONTE - COMARCA; CENTRAL DE APOIO TECNICO-SETOR CONTABIL 7.955,66 2.386,70 0,00 0,00 0,00 0,00 10.342,36 1.137,66 1.661,93 0,00 2.799,59 7.542,77 7.756,89 1.190,73 31/01/2020
578 265300 CRISTOVAO SANCHES DE MEDEIROS ANALISTA DO MP ATIVO BELO HORIZONTE - COMARCA; DIRETORIA DE CONTABILIDADE 14.162,21 4.248,66 0,00 0,00 0,00 0,00 18.410,87 2.025,20 3.636,70 0,00 5.661,90 12.748,97 7.603,96 1.056,51 31/01/2020
579 349800 CROZEIR LUIZ DA SILVA OFICIAL DO MP ATIVO UNAÍ - COMARCA; UNAI-PJ-SECRETARIA 7.955,66 1.591,13 0,00 0,00 0,00 0,00 9.546,79 1.067,60 1.415,08 0,00 2.482,68 7.064,11 10.177,57 1.301,25 31/01/2020
580 490500 CYNTHIA CRISTINA DE SOUZA OLIVEIRA VALENTE ANALISTA DO MP ATIVO BELO HORIZONTE - COMARCA; BH-09PJ AUDITORIA MILITAR 9.337,87 933,79 0,00 0,00 0,00 0,00 10.271,66 1.129,88 1.644,63 0,00 2.774,51 7.497,15 7.302,13 527,28 31/01/2020
581 389800 CYNTHIA GARIGLIO DOS SANTOS OFICIAL DO MP ATIVO PERDIZES - COMARCA; PERDIZES-PJ-SECRETARIA 5.863,71 1.172,74 0,00 0,00 0,00 0,00 7.036,45 774,01 696,40 0,00 1.470,41 5.566,04 6.541,26 387,00 31/01/2020
582 335101 CYNTHIA GONTIJO D ASSUNCAO ANALISTA DO MP ATIVO BELO HORIZONTE - COMARCA; PROC. JUSTICA DIR. DIFUSOS E COLETIVOS-SEC 9.337,87 933,79 0,00 0,00 0,00 0,00 10.271,66 1.129,88 1.644,63 0,00 2.774,51 7.497,15 2.319,39 0,00 31/01/2020
583 154000 CYNTHIA LOPES DOS SANTOS LAGES ASSESSOR ATIVO BELO HORIZONTE - COMARCA; PROCURADOR-GERAL DE JUSTICA- GABINETE 0,00 8.721,18 12.458,83 0,00 0,00 2.329,80 23.509,81 2.329,80 4.955,14 0,00 7.284,94 16.224,87 1.550,00 0,00 31/01/2020
584 269700 CYNTIA ROCHA CAVALCANTI OFICIAL DO MP ATIVO UBERLÂNDIA - COMARCA; UBERLANDIA-PJ-06PJ 11.317,16 3.395,15 0,00 0,00 0,00 0,00 14.712,31 1.766,67 2.731,48 0,00 4.498,15 10.214,16 8.204,31 7.137,27 31/01/2020
585 278000 DAIRTON LOPES MARTINS FILHO COORDENADOR/ANALISTA ATIVO BELO HORIZONTE - COMARCA; DIRETORIA DE SISTEMAS DE INFORMACAO 0,00 3.737,65 12.458,83 0,00 0,00 0,00 16.196,48 1.335,32 3.217,46 0,00 4.552,78 11.643,70 7.380,73 534,48 31/01/2020
586 392700 DALIANA CHAVES IBRAIM MARINHO OFICIAL DO MP ATIVO ITAÚNA - COMARCA; ITAUNA-PJ-04PJ 6.455,21 645,52 0,00 0,00 0,00 0,00 7.100,73 805,70 868,54 0,00 1.674,24 5.426,49 1.711,15 1.095,23 31/01/2020
587 558101 DALLEY TASSIA SILVA ANALISTA DO MP ATIVO MORADA NOVA DE MINAS - COMARCA; MORADA NOVA DE MINAS-PJ-UNPJ 7.576,76 757,68 0,00 0,00 0,00 0,00 8.334,44 916,79 1.066,22 0,00 1.983,01 6.351,43 2.319,39 655,00 31/01/2020
588 476700 DALTON DAUD ANALISTA DO MP ATIVO ARAGUARI - COMARCA; ARAGUARI-PJ-05PJ 9.337,87 933,79 0,00 0,00 0,00 0,00 10.271,66 1.129,88 1.540,36 0,00 2.670,24 7.601,42 7.302,13 527,28 31/01/2020
589 426900 DANIEL ALVES DA SILVA OFICIAL DO MP ATIVO BELO HORIZONTE - COMARCA; DIVISAO TRANSPORTES 5.678,79 1.135,76 0,00 0,00 0,00 0,00 6.814,55 749,60 694,23 0,00 1.443,83 5.370,72 7.546,80 549,71 31/01/2020
590 122000 DANIEL ANTONIO VIEIRA OFICIAL DO MP ATIVO ENTRE-RIOS DE MINAS - COMARCA; ENTRE RIOS DE MINAS-PJ-SECRETARIA 9.337,87 6.536,51 0,00 0,00 0,00 0,00 15.874,38 1.746,18 2.807,35 0,00 4.553,53 11.320,85 1.550,00 0,00 31/01/2020
591 411000 DANIEL FERREIRA DA SILVA ANALISTA DO MP ATIVO GOVERNADOR VALADARES - COMARCA; GOVERNADOR VALADARES-PJ-15PJ 11.317,16 3.395,15 0,00 0,00 0,00 0,00 14.712,31 1.618,35 2.575,07 0,00 4.193,42 10.518,89 2.319,39 1.200,01 31/01/2020
592 309000 DANIEL GOMES DOS SANTOS ANALISTA DO MP ATIVO POÇOS DE CALDAS - COMARCA; POCOS DE CALDAS-PJ-03PJ 14.372,91 4.311,87 0,00 0,00 0,00 0,00 18.684,78 2.083,14 3.703,74 0,00 5.786,88 12.897,90 7.599,93 1.785,32 31/01/2020
593 554500 DANIEL GOMES PEREIRA OFICIAL DO MP ATIVO NANUQUE - COMARCA; NANUQUE-PJ-02PJ 4.995,72 499,57 0,00 0,00 0,00 0,00 5.495,29 604,48 475,61 0,00 1.080,09 4.415,20 7.204,68 657,92 31/01/2020
594 453000 DANIEL GONCALVES PEREIRA ANALISTA DO MP ATIVO UNAÍ - COMARCA; UNAI-PJ-02PJ 9.337,87 933,79 0,00 0,00 0,00 0,00 10.271,66 1.129,88 1.644,63 0,00 2.774,51 7.497,15 8.455,67 527,28 31/01/2020
595 495500 DANIEL GUIMARAES CABRAL OFICIAL DO MP ATIVO BELO HORIZONTE - COMARCA; BH-17PJ PATRIMONIO PUBLICO-SECRETARIA 5.678,79 567,88 0,00 0,00 0,00 0,00 6.246,67 687,13 659,51 0,00 1.346,64 4.900,03 7.712,20 724,96 31/01/2020
596 442900 DANIEL GUIMARAES GONCALVES ANALISTA DO MP ATIVO UBERLÂNDIA - COMARCA; UBERLANDIA-PJ-03PJ 11.317,16 2.263,43 0,00 0,00 0,00 0,00 13.580,59 1.493,86 2.454,49 0,00 3.948,35 9.632,24 8.027,46 1.563,15 31/01/2020
597 655900 DANIEL LUIZ DA SILVA ASSESSOR ATIVO BELO HORIZONTE - COMARCA; DIV FISCAL ADM CONT TERCEIRIZACAO 0,00 0,00 2.852,73 0,00 0,00 0,00 2.852,73 434,80 172,89 0,00 607,69 2.245,04 1.550,00 0,00 31/01/2020
598 464600 DANIEL PIACENTINI STIVANIN ANALISTA DO MP ATIVO ANDRADAS - COMARCA; ANDRADAS-PJ-02PJ 9.337,87 933,79 0,00 0,00 0,00 0,00 10.271,66 1.129,88 1.644,63 0,00 2.774,51 7.497,15 1.550,00 0,00 31/01/2020
599 417000 DANIEL QUEIROZ FERREIRA ANALISTA DO MP ATIVO SÃO SEBASTIÃO DO PARAÍSO - COMARCA; SAO SEBASTIAO DO PARAISO-PJ-05PJ 11.317,16 2.263,43 0,00 0,00 0,00 0,00 13.580,59 1.630,77 2.454,49 0,00 4.085,26 9.495,33 1.550,00 6.090,28 31/01/2020
600 396700 DANIEL SILVA CARNEVALLI DIRETOR/ANALISTA ATIVO BELO HORIZONTE - COMARCA; SUPERINTENDENCIA DE TECNOLOGIA DA INFORMACAO 0,00 3.229,70 16.148,50 0,00 0,00 0,00 19.378,20 1.642,92 4.021,65 0,00 5.664,57 13.713,63 2.447,21 2.081,59 31/01/2020
601 489300 DANIEL TABOZA ROCHA ANALISTA DO MP ATIVO IPATINGA - COMARCA; IPATINGA-PJ-08PJ 9.337,87 933,79 0,00 0,00 0,00 0,00 10.271,66 1.129,88 1.644,63 0,00 2.774,51 7.497,15 2.319,39 0,00 31/01/2020
602 414100 DANIEL TARDELI VALADAO ANALISTA DO MP ATIVO TRÊS CORACOES - COMARCA; TRES CORACOES-PJ-02PJ 11.317,16 2.263,43 0,00 0,00 0,00 0,00 13.580,59 1.493,86 2.245,94 0,00 3.739,80 9.840,79 3.858,17 1.522,58 31/01/2020
603 446601 DANIEL VIEIRA BUENO ANALISTA DO MP ATIVO SÃO DOMINGOS DO PRATA - COMARCA; SAO DOMINGOS DO PRATA-PJ-UNPJ 7.576,76 454,61 0,00 0,00 0,00 0,00 8.031,37 883,45 1.096,32 0,00 1.979,77 6.051,60 1.550,00 225,38 31/01/2020
604 253200 DANIELA BATISTA LIMA BARBOSA ASSESSOR ATIVO BELO HORIZONTE - COMARCA; CENTRAL DE APOIO TECN-SETOR DE MEIO AMBIENTE 0,00 1.428,92 4.763,08 0,00 0,00 0,00 6.192,00 671,12 951,38 0,00 1.622,50 4.569,50 1.550,00 0,00 31/01/2020
605 505800 DANIELA BORGES DE MATTOS RESENDE ANALISTA DO MP ATIVO JUIZ DE FORA - COMARCA; JUIZ DE FORA-PJ-20PJ 9.337,87 933,79 0,00 0,00 0,00 0,00 10.271,66 1.129,88 1.644,63 0,00 2.774,51 7.497,15 2.319,39 0,00 31/01/2020
606 478000 DANIELA CARVALHO SOARES ANALISTA DO MP ATIVO SÃO JOÃO DEL REI - COMARCA; SAO JOAO DEL REI-PJ-01PJ 9.301,19 933,79 0,00 0,00 3.423,89 0,00 13.658,87 1.129,88 2.576,11 0,00 3.705,99 9.952,88 1.550,00 0,00 31/01/2020
607 275900 DANIELA CHAGAS SODRE ANALISTA DO MP ATIVO BELO HORIZONTE - COMARCA; CENTRAL DE APOIO TECNICO-SETOR CONTABIL 15.533,57 4.660,07 0,00 0,00 0,00 0,00 20.193,64 2.221,30 4.020,90 0,00 6.242,20 13.951,44 1.550,00 1.586,67 31/01/2020
608 234301 DANIELA CRUZ SOARES ANALISTA DO MP ATIVO BELO HORIZONTE - COMARCA; LABORATORIO TECNOLOGIA INTELIGENCIA 16.148,50 4.844,55 0,00 0,00 6.997,68 0,00 27.990,73 2.309,24 6.193,05 0,00 8.502,29 19.488,44 7.619,91 1.250,29 31/01/2020
609 638000 DANIELA DE ALMEIDA BATISTA ANALISTA DO MP ATIVO ANDRELÂNDIA - COMARCA; ANDRELANDIA-PJ-UNPJ 6.882,47 412,95 0,00 0,00 0,00 0,00 7.295,42 671,12 952,32 0,00 1.623,44 5.671,98 5.329,59 497,58 31/01/2020
610 301000 DANIELA DE ALMEIDA E OLIVEIRA ANALISTA DO MP ATIVO BELO HORIZONTE - COMARCA; DIRETORIA DE SISTEMAS DE INFORMACAO 15.533,57 4.660,07 0,00 0,00 0,00 0,00 20.193,64 2.221,30 4.073,03 0,00 6.294,33 13.899,31 1.550,00 2.013,15 31/01/2020
611 296000 DANIELA DE AZEVEDO SILVA ANALISTA DO MP ATIVO ITAJUBA - COMARCA; ITAJUBA-PJ-05PJ 14.941,94 4.482,58 0,00 0,00 0,00 0,00 19.424,52 2.218,07 3.884,79 0,00 6.102,86 13.321,66 1.550,00 3.373,21 31/01/2020
612 453500 DANIELA DE CASTRO SOUSA BARBOSA ANALISTA DO MP ATIVO BELO HORIZONTE - COMARCA; BH-08PJ JUIZADO ESPECIAL-SECRETARIA 9.337,87 933,79 0,00 0,00 0,00 0,00 10.271,66 1.188,00 1.773,93 0,00 2.961,93 7.309,73 7.302,13 1.055,58 31/01/2020
613 506000 DANIELA DE OLIVEIRA CAVALIERI ANALISTA DO MP ATIVO BELO HORIZONTE - COMARCA; BH-14PJ DEFESA CONSUMIDOR-GAB 005PJ 8.758,36 875,84 0,00 0,00 0,00 0,00 9.634,20 1.059,76 1.488,61 0,00 2.548,37 7.085,83 7.906,40 1.445,13 31/01/2020
614 546200 DANIELA DE VILHENA LEMES GONCALVES OFICIAL DO MP ATIVO TRÊS CORACOES - COMARCA; TRES CORACOES-PJ-05PJ 4.838,22 483,82 0,00 0,00 0,00 0,00 5.322,04 585,42 344,29 0,00 929,71 4.392,33 1.550,00 0,00 31/01/2020
615 356400 DANIELA LEAL FERRAZ ANALISTA DO MP ATIVO MONTES CLAROS - COMARCA; COORD REG PJ DEF EDUC DIR CRIANCA ADOL NORTE 13.283,29 2.656,66 0,00 0,00 5.313,32 0,00 21.253,27 1.914,07 4.493,11 0,00 6.407,18 14.846,09 1.550,00 7.148,03 31/01/2020
616 501000 DANIELA LOURENCO SANTOS DA SILVA GUIMARAES ANALISTA DO MP ATIVO BELO HORIZONTE - COMARCA; BH-12PJ JUIZO CRIMINAL-GAB 095PJ 9.337,87 933,79 0,00 0,00 0,00 0,00 10.271,66 1.129,88 1.592,49 0,00 2.722,37 7.549,29 8.071,52 527,28 31/01/2020
617 195801 DANIELA MARIA DE OLIVEIRA QUEIROZ ANALISTA DO MP ATIVO ARAGUARI - COMARCA; ARAGUARI-PJ-06PJ 11.685,57 4.674,23 0,00 0,00 0,00 0,00 16.359,80 1.852,26 3.134,70 0,00 4.986,96 11.372,84 1.550,00 2.349,70 31/01/2020
618 511400 DANIELA MARIA LARA DE OLIVEIRA ANALISTA DO MP ATIVO BOA ESPERANÇA - COMARCA; BOA ESPERANCA-PJ-02PJ 9.337,87 933,79 0,00 0,00 0,00 0,00 10.271,66 1.129,88 1.592,49 0,00 2.722,37 7.549,29 8.071,52 527,28 31/01/2020
619 252101 DANIELA PAULA ALVES PENA ANALISTA DO MP ATIVO CONTAGEM - COMARCA; CONTAGEM-PJ-APO TECNICO 12.065,98 4.826,39 0,00 0,00 0,00 0,00 16.892,37 1.858,16 3.265,05 0,00 5.123,21 11.769,16 7.138,16 1.113,16 31/01/2020
620 604700 DANIELA PEIXOTO NOGUEIRA COORDENADOR/OFICIAL ATIVO BELO HORIZONTE - COMARCA; DIRET DE FORMACAO, APERFEIC. E POS-GRADUACAO 0,00 1.096,03 10.960,26 0,00 0,00 0,00 12.056,29 680,72 2.566,01 0,00 3.246,73 8.809,56 7.337,02 1.628,09 31/01/2020
621 429600 DANIELA PIMENTA NUNES MACHADO ANALISTA DO MP ATIVO BELO HORIZONTE - COMARCA; BH-05PJ JUÍZO DE SUCESSÕES 11.685,57 2.337,11 0,00 0,00 0,00 0,00 14.022,68 1.587,07 2.510,56 0,00 4.097,63 9.925,05 8.090,56 2.497,18 31/01/2020
622 662000 DANIELA RIBAS DE AVILA ASSESSOR I ATIVO BELO HORIZONTE - COMARCA; DIRETORIA DE SEGURANCA 0,00 0,00 7.576,76 0,00 2.525,59 0,00 10.102,35 671,12 2.026,73 0,00 2.697,85 7.404,50 1.550,00 0,00 31/01/2020
623 462000 DANIELA SOUSA GOMES DO AMARAL ANALISTA DO MP ATIVO BETIM - COMARCA; BETIM-PJ-04PJ 9.337,87 933,79 0,00 0,00 0,00 0,00 10.271,66 1.129,88 1.644,63 0,00 2.774,51 7.497,15 1.550,00 0,00 31/01/2020
624 427000 DANIELA TEIXEIRA DINIZ ANDRADE ANALISTA DO MP ATIVO BELO HORIZONTE - COMARCA; DIRETORIA DE PROJETOS DE EDIFICACOES 9.337,87 1.867,57 0,00 0,00 0,00 0,00 11.205,44 1.232,60 2.651,61 0,00 3.884,21 7.321,23 7.376,83 3.554,41 31/01/2020
625 337200 DANIELA TOLEDO SENIUK ANALISTA DO MP ATIVO BELO HORIZONTE - COMARCA; GABINETE DE PROCURADOR DE JUSTIÇA - SALA 412 12.065,98 2.413,20 0,00 0,00 4.826,39 0,00 19.305,57 1.592,71 4.001,68 0,00 5.594,39 13.711,18 1.550,00 1.623,20 31/01/2020
626 605600 DANIELE ALZIRA SILVA CABRAL MOREIRA OFICIAL DO MP ATIVO BELO HORIZONTE - COMARCA; BH-10PJ EXECUÇÃO PENAL 4.995,72 499,57 0,00 0,00 0,00 0,00 5.495,29 623,54 475,61 0,00 1.099,15 4.396,14 2.319,39 706,78 31/01/2020
627 195500 DANIELE CHAVES FONSECA OFICIAL DO MP ATIVO BELO HORIZONTE - COMARCA; ASSESSORIA ESPECIAL DO PGJ 13.283,29 5.313,32 0,00 0,00 0,00 0,00 18.596,61 2.045,63 3.682,16 0,00 5.727,79 12.868,82 7.653,36 1.030,05 31/01/2020
628 323400 DANIELE MEGALE SANTINI OFICIAL DO MP ATIVO BELO HORIZONTE - COMARCA; ASSESS TECNICO-JUR JUNTO AS PROC. DE JUST 9.043,46 1.808,69 0,00 0,00 0,00 0,00 10.852,15 1.231,37 1.734,57 0,00 2.965,94 7.886,21 7.357,34 2.191,40 31/01/2020
629 357900 DANIELE REJANE PINTO VERSIEUX OFICIAL DO MP ATIVO PEDRO LEOPOLDO - COMARCA; PEDRO LEOPOLDO-PJ-03PJ 8.214,70 1.642,94 0,00 0,00 0,00 0,00 9.857,64 1.118,53 1.543,30 0,00 2.661,83 7.195,81 7.626,22 2.063,27 31/01/2020
630 389500 DANIELE VASCONCELOS AMORIM PRADO OFICIAL DO MP ATIVO SÃO SEBASTIÃO DO PARAÍSO - COMARCA; SAO SEBASTIAO DO PARAISO-PJ-04PJ 7.955,66 1.591,13 0,00 0,00 0,00 0,00 9.546,79 1.131,70 1.467,22 0,00 2.598,92 6.947,87 1.550,00 3.627,77 31/01/2020
631 629700 DANIELLA BASTOS MARTINS BICALHO OFICIAL DO MP ATIVO GOVERNADOR VALADARES - COMARCA; GOVERNADOR VALADARES-PJ-16PJ 4.838,22 483,82 0,00 0,00 0,00 0,00 5.322,04 628,65 433,21 0,00 1.061,86 4.260,18 1.832,94 1.922,93 31/01/2020
632 265000 DANIELLE CASTANHEIRA SCALABRINI OFICIAL DO MP ATIVO BELO HORIZONTE - COMARCA; JUNTA RECURSAL DO PROCON ESTADUAL 9.337,87 2.801,36 0,00 0,00 0,00 0,00 12.139,23 1.335,32 1.997,44 0,00 3.332,76 8.806,47 7.529,92 874,76 31/01/2020
633 490100 DANIELLE DE AVILA SILVA LOPES ANALISTA DO MP ATIVO BELO HORIZONTE - COMARCA; PROC. JUSTICA DIR. DIFUSOS E COLETIVOS-SEC 9.337,87 2.801,36 0,00 0,00 0,00 0,00 12.139,23 1.335,32 2.101,72 0,00 3.437,04 8.702,19 3.088,78 0,00 31/01/2020
634 549600 DANIELLE GOMES LOPES RODRIGUES OFICIAL DO MP ATIVO VESPASIANO - COMARCA; VESPASIANO-PJ-02PJ 4.995,72 499,57 0,00 0,00 0,00 0,00 5.495,29 604,48 475,61 0,00 1.080,09 4.415,20 1.550,00 154,19 31/01/2020
635 613000 DANIELLE SILVA OLIVEIRA FRANKLIN ASSESSOR/OFICIAL ATIVO BELO HORIZONTE - COMARCA; DIRETORIA DE ORCAMENTO-DIOR/SPC 0,00 757,68 7.576,76 0,00 0,00 0,00 8.334,44 628,65 1.249,73 0,00 1.878,38 6.456,06 3.088,78 0,00 31/01/2020
636 380800 DANILLO RIBEIRO ANTUNES ANALISTA DO MP ATIVO MONTES CLAROS - COMARCA; MONTES CLAROS-PJ-SECRETARIA 12.065,98 2.413,20 0,00 0,00 4.826,39 0,00 19.305,57 1.642,92 3.949,54 0,00 5.592,46 13.713,11 7.341,67 2.612,49 31/01/2020
637 453700 DANILO BOTELHO DE CARVALHO ASSESSOR/ANALISTA ATIVO BELO HORIZONTE - COMARCA; SUPERINTENDENCIA DE FINANCAS 0,00 2.290,31 22.903,10 0,00 0,00 0,00 25.193,41 1.871,38 6.189,60 0,00 8.060,98 17.132,43 8.127,46 2.683,28 31/01/2020
638 391200 DANILO D'AVILA MENDES ANALISTA DO MP ATIVO SÃO ROMÃO - COMARCA; SAO ROMAO-PJ-UNPJ 12.065,98 2.413,20 0,00 0,00 0,00 0,00 14.479,18 1.642,92 2.674,42 0,00 4.317,34 10.161,84 8.275,40 2.764,65 31/01/2020
639 494900 DANILO GAVIAO AVELINO DE MELLO ANALISTA DO MP ATIVO POUSO ALEGRE - COMARCA; GAECO REGIONAL DE POUSO ALEGRE 9.337,87 933,79 0,00 0,00 0,00 0,00 10.271,66 1.129,88 1.644,63 0,00 2.774,51 7.497,15 6.428,05 376,63 31/01/2020
640 604300 DANILO NASCIMENTO SALGADO ANALISTA DO MP ATIVO JANAÚBA - COMARCA; JANAUBA-PJ-01PJ 7.823,48 782,35 0,00 0,00 2.868,61 0,00 11.474,44 976,49 2.025,79 0,00 3.002,28 8.472,16 6.822,06 1.801,35 31/01/2020
641 550800 DANTE MENDES BIANCHETTI FILHO ANALISTA DO MP ATIVO BARBACENA - COMARCA; BARBACENA-PJ-SECRETARIA 7.823,48 782,35 0,00 0,00 0,00 0,00 8.605,83 946,64 1.236,92 0,00 2.183,56 6.422,27 1.550,00 241,54 31/01/2020
642 298300 DANUZA MONICA DE SOUZA DINIZ ANALISTA DO MP ATIVO BELO HORIZONTE - COMARCA; ASSESSORIA ESPECIAL DO PGJ 11.685,57 3.505,67 0,00 0,00 5.063,75 0,00 20.254,99 1.671,04 4.189,09 0,00 5.860,13 14.394,86 7.200,10 894,77 31/01/2020
643 398700 DARCY LUIZ MILEO GREGATTI OFICIAL DO MP ATIVO LAMBARI - COMARCA; LAMBARI-PJ-SECRETARIA 7.823,48 1.564,70 0,00 0,00 0,00 0,00 9.388,18 1.065,27 1.428,40 0,00 2.493,67 6.894,51 7.182,91 1.866,38 31/01/2020
644 406200 DARIANA AUGUSTA DE TOLEDO PATROCINIO RUIZ COORDENADOR/OFICIAL ATIVO BELO HORIZONTE - COMARCA; DIRETORIA GESTAO COMPRAS LICITACOES 0,00 2.491,77 12.458,83 0,00 0,00 0,00 14.950,60 1.376,35 2.863,56 0,00 4.239,91 10.710,69 7.530,24 466,64 31/01/2020
645 586901 DARIO VITORINO DE CARVALHO SILVA ASSESSOR ATIVO BELO HORIZONTE - COMARCA; DIRETORIA DE SEGURANCA 0,00 0,00 16.148,50 0,00 0,00 0,00 16.148,50 671,12 3.637,28 0,00 4.308,40 11.840,10 1.550,00 648,00 31/01/2020
646 305000 DARLI LEITE DE OLIVEIRA OFICIAL DO MP ATIVO ARAÇUAÍ - COMARCA; ARACUAI-PJ-01PJ 5.678,79 1.135,76 0,00 0,00 0,00 0,00 6.814,55 749,60 642,09 0,00 1.391,69 5.422,86 1.550,00 0,00 31/01/2020
647 122200 DAVID RIBEIRO DOS SANTOS ANALISTA DO MP ATIVO BORDA DA MATA - COMARCA; BORDA DA MATA-PJ-UNPJ 17.452,52 13.962,02 0,00 0,00 0,00 3.455,60 34.870,14 3.455,60 7.769,64 0,00 11.225,24 23.644,90 6.576,33 460,75 31/01/2020
648 389400 DAWSON CANEDO MARQUES OFICIAL DO MP ATIVO TRÊS CORACOES - COMARCA; TRES CORACOES-PJ-02PJ 7.955,66 1.591,13 0,00 0,00 0,00 0,00 9.546,79 1.050,15 781,48 0,00 1.831,63 7.715,16 7.278,07 1.432,01 31/01/2020
649 537200 DAYANE TEIXEIRA DE OLIVEIRA CASELLI ANALISTA DO MP ATIVO BELO HORIZONTE - COMARCA; ASSESS TECNICO-JUR JUNTO AS PROC. DE JUST 6.882,47 412,95 0,00 0,00 2.431,81 0,00 9.727,23 802,50 1.584,94 0,00 2.387,44 7.339,79 1.550,00 0,00 31/01/2020
650 256100 DAYSE ROSALY PEREIRA BATISTA OFICIAL DO MP ATIVO BELO HORIZONTE - COMARCA; BH-08PJ JUIZADO ESPECIAL-SECRETARIA 9.337,87 2.801,36 0,00 0,00 0,00 0,00 12.139,23 1.418,19 2.101,72 0,00 3.519,91 8.619,32 1.851,34 3.686,44 31/01/2020
651 311901 DEBORA APARECIDA DA SILVA ASSESSOR ATIVO BELO HORIZONTE - COMARCA; BH-23PJ CIVEL-SETOR ATEND PUB 0,00 0,00 2.852,73 0,00 0,00 0,00 2.852,73 434,80 172,89 0,00 607,69 2.245,04 1.550,00 0,00 31/01/2020
652 194301 DEBORA APARECIDA DOS SANTOS ANALISTA DO MP ATIVO UBERLÂNDIA - COMARCA; UBERLANDIA-PJ-SEC FAMILIA 15.533,57 6.213,43 0,00 0,00 0,00 0,00 21.747,00 2.818,51 4.781,27 0,00 7.599,78 14.147,22 6.769,28 7.348,71 31/01/2020
653 518800 DEBORA CARVALHO FIORATTO COORDENADOR/OFICIAL ATIVO BELO HORIZONTE - COMARCA; DIRETORIA MATERIAIS E SERVICOS 0,00 1.245,88 12.458,83 0,00 4.568,24 0,00 18.272,95 780,31 3.941,12 0,00 4.721,43 13.551,52 2.319,39 0,00 31/01/2020
654 444900 DEBORA CLAUDIA PEREIRA ALVES ANALISTA DO MP ATIVO BELO HORIZONTE - COMARCA; BH-08PJ JUIZADO ESPECIAL-SECRETARIA 9.337,87 1.867,57 0,00 0,00 0,00 0,00 11.205,44 1.295,99 2.014,22 0,00 3.310,21 7.895,23 7.376,83 1.110,43 31/01/2020
655 617700 DEBORA COMANDUCI SCHREIDER ANALISTA DO MP ATIVO BICAS - COMARCA; BICAS-PJ-UNPJ 7.576,76 757,68 0,00 0,00 2.778,15 0,00 11.112,59 916,79 1.882,35 0,00 2.799,14 8.313,45 1.550,00 655,00 31/01/2020
656 555700 DEBORA CRISTINA BUITRAGO PEREIRA ANALISTA DO MP ATIVO BELO HORIZONTE - COMARCA; DIRETORIA GESTAO CONTRATOS CONVENIOS 7.823,48 782,35 0,00 0,00 0,00 0,00 8.605,83 946,64 1.236,92 0,00 2.183,56 6.422,27 3.088,78 241,54 31/01/2020
657 513100 DEBORA CRISTINA PEREIRA DE OLIVEIRA ANALISTA DO MP ATIVO BELO HORIZONTE - COMARCA; BH-23PJ CIVEL-SETOR JURIDICO 9.337,87 933,79 0,00 0,00 0,00 0,00 10.271,66 1.129,88 1.644,63 0,00 2.774,51 7.497,15 2.319,39 0,00 31/01/2020
658 612100 DEBORA DUARTE SILVA DE SOUZA OFICIAL DO MP ATIVO RIBEIRÃO DAS NEVES - COMARCA; RIBEIRAO DAS NEVES-PJ-06PJ 4.838,22 1.451,47 0,00 0,00 0,00 0,00 6.289,69 691,87 565,77 0,00 1.257,64 5.032,05 7.741,35 1.120,02 31/01/2020
659 539700 DEBORA SALES CARVALHO ANALISTA DO MP ATIVO PATOS DE MINAS - COMARCA; COORD REG PJ DEF EDU DIR CRI ADO AL PAR NOROE 7.823,48 782,35 0,00 0,00 0,00 0,00 8.605,83 946,64 1.236,92 0,00 2.183,56 6.422,27 1.550,00 241,54 31/01/2020
660 424100 DEBORA SANTOS E ALVES ANALISTA DO MP ATIVO JANUÁRIA - COMARCA; JANUARIA-PJ-01PJ 11.685,57 2.337,11 0,00 0,00 0,00 0,00 14.022,68 1.542,49 2.562,69 0,00 4.105,18 9.917,50 8.087,61 907,62 31/01/2020
661 426301 DEBORA SCUCATO MACHADO SOARES OFICIAL DO MP ATIVO ITABIRITO - COMARCA; ITABIRITO-PJ-01PJ 4.995,72 999,14 0,00 0,00 0,00 0,00 5.994,86 659,43 597,88 0,00 1.257,31 4.737,55 8.314,25 703,72 31/01/2020
662 550200 DEBORA TRINDADE LEITE ANALISTA DO MP ATIVO MANHUAÇU - COMARCA; MANHUACU-PJ-05PJ 7.823,48 782,35 0,00 0,00 2.868,61 0,00 11.474,44 946,64 1.921,51 0,00 2.868,15 8.606,29 1.550,00 241,54 31/01/2020
663 438000 DEBORAH COSTA LAGE ANALISTA DO MP ATIVO BELO HORIZONTE - COMARCA; ASSESS TECNICO-JUR JUNTO AS PROC. DE JUST 11.685,57 2.337,11 0,00 0,00 0,00 0,00 14.022,68 1.587,07 2.562,69 0,00 4.149,76 9.872,92 1.712,10 1.983,02 31/01/2020
664 475700 DEBORAH LOBAO LACERDA ASSESSOR/OFICIAL ATIVO BELO HORIZONTE - COMARCA; BH-17PJ PATRIMONIO PUBLICO-SECRETARIA 0,00 757,68 7.576,76 0,00 0,00 0,00 8.334,44 687,13 1.233,65 0,00 1.920,78 6.413,66 1.550,00 0,00 31/01/2020
665 613700 DEISER MARIA FERREIRA ROSCOE OFICIAL DO MP ATIVO BELO HORIZONTE - COMARCA; DIVISAO FROTA 4.838,22 483,82 0,00 0,00 0,00 0,00 5.322,04 585,42 433,21 0,00 1.018,63 4.303,41 6.122,01 740,02 31/01/2020
666 551900 DEISY ROCHA DA SILVA ANALISTA DO MP ATIVO JOÃO PINHEIRO - COMARCA; JOAO PINHEIRO-PJ-01PJ 7.823,48 782,35 0,00 0,00 0,00 0,00 8.605,83 946,64 1.236,92 0,00 2.183,56 6.422,27 7.401,96 777,97 31/01/2020
667 501900 DELI RAQUEL RODRIGUES ANALISTA DO MP ATIVO ITUIUTABA - COMARCA; ITUIUTABA-PJ-04PJ 9.337,87 933,79 0,00 0,00 0,00 0,00 10.271,66 1.129,88 1.644,63 0,00 2.774,51 7.497,15 1.550,00 0,00 31/01/2020
668 378600 DELIANE LOPES VIEIRA BREIJAO ANALISTA DO MP ATIVO JUIZ DE FORA - COMARCA; JUIZ DE FORA-PJ-12PJ 12.065,98 2.413,20 0,00 0,00 0,00 0,00 14.479,18 1.642,92 2.622,28 0,00 4.265,20 10.213,98 2.319,39 2.233,75 31/01/2020
669 487700 DENIA FERREIRA MAIA SILVA OFICIAL DO MP ATIVO TRÊS CORACOES - COMARCA; TRES CORACOES-PJ-01PJ 5.678,79 567,88 0,00 0,00 2.082,22 0,00 8.328,89 687,13 1.127,85 0,00 1.814,98 6.513,91 2.437,54 175,25 31/01/2020
670 424800 DENIS APARECIDO CAMPOS DELFINO ANALISTA DO MP ATIVO LUZ - COMARCA; LUZ-PJ-UNPJ 11.317,16 2.263,43 0,00 0,00 0,00 0,00 13.580,59 1.630,77 2.245,94 0,00 3.876,71 9.703,88 8.792,70 6.453,47 31/01/2020
671 381400 DENISE ANGELICA MELLO DE PAULA OFICIAL DO MP ATIVO BELO HORIZONTE - COMARCA; BH-18PJ DIREITOS HUMANOS-SECRETARIA 7.955,66 1.591,13 0,00 0,00 0,00 0,00 9.546,79 1.050,15 1.467,22 0,00 2.517,37 7.029,42 2.319,39 659,82 31/01/2020
672 196300 DENISE DE ALMEIDA VILELA FURTADO OFICIAL DO MP ATIVO BELO HORIZONTE - COMARCA; CENTRAL DE APOIO TECNICO-SECRETARIA 10.960,26 4.384,10 0,00 0,00 0,00 0,00 15.344,36 1.831,50 2.886,17 0,00 4.717,67 10.626,69 8.697,55 6.895,44 31/01/2020
673 336900 DENISE DE SOUSA MORAES SILVA OFICIAL DO MP ATIVO MATEUS LEME - COMARCA; MATEUS LEME-PJ-02PJ 5.678,79 1.135,76 0,00 0,00 0,00 0,00 6.814,55 749,60 798,50 0,00 1.548,10 5.266,45 7.546,80 549,71 31/01/2020
674 271100 DENISE ELOY PEIXOTO OFICIAL DO MP ATIVO BELO HORIZONTE - COMARCA; DIRETORIA DE INTELIGENCIA 11.317,16 3.395,15 0,00 0,00 0,00 0,00 14.712,31 1.766,67 2.731,48 0,00 4.498,15 10.214,16 7.920,32 7.137,27 31/01/2020
675 385400 DENISE FREITAS DE ASSIS OFICIAL DO MP ATIVO CARATINGA - COMARCA; CARATINGA-PJ-SECRETARIA 7.337,85 1.467,57 0,00 0,00 2.935,14 0,00 11.740,56 999,14 2.092,93 0,00 3.092,07 8.648,49 1.550,00 1.358,53 31/01/2020
676 437100 DENISE NOGUEIRA MAGRI MENDES ANALISTA DO MP ATIVO BELO HORIZONTE - COMARCA; LAB TECNOLOGIA CONTRA LAVAGEM DINHEIRO 11.685,57 3.505,67 0,00 0,00 0,00 0,00 15.191,24 1.723,72 2.692,28 0,00 4.416,00 10.775,24 1.550,00 2.343,56 31/01/2020
677 524700 DENISE RAMOS GUIMARAES OFICIAL DO MP ATIVO BELO HORIZONTE - COMARCA; BH-07PJ 01 TRIBUNAL JURI-SECRETARIA 5.499,78 549,98 0,00 0,00 0,00 0,00 6.049,76 665,47 611,32 0,00 1.276,79 4.772,97 1.882,68 493,48 31/01/2020
678 239100 DENISE RIBEIRO DOS SANTOS CAETANO OFICIAL DO MP ATIVO ITANHANDU - COMARCA; ITANHANDU-PJ-SECRETARIA 11.317,16 3.395,15 0,00 0,00 0,00 0,00 14.712,31 1.766,67 2.679,34 0,00 4.446,01 10.266,30 7.920,32 7.137,27 31/01/2020
679 325500 DENISE ROSA TORRES ASSESSOR/OFICIAL ATIVO BELO HORIZONTE - COMARCA; DIRETORIA DE PESSOAL ADMINISTRATIVO - DPAD 0,00 2.122,93 10.614,65 0,00 0,00 0,00 12.737,58 1.345,54 2.263,45 0,00 3.608,99 9.128,59 7.154,54 513,75 31/01/2020
680 437200 DENISE VIVIANE DOS SANTOS ANALISTA DO MP ATIVO BELO HORIZONTE - COMARCA; ASSESS TECNICA DA CORREGEDORIA-GERAL DO MP 9.955,90 1.991,18 0,00 0,00 0,00 0,00 11.947,08 1.352,17 1.950,41 0,00 3.302,58 8.644,50 7.482,37 2.310,59 31/01/2020
681 267900 DENISIA DE ALMEIDA SALES OFICIAL DO MP ATIVO BELO HORIZONTE - COMARCA; BH-18PJ DIREITOS HUMANOS-SECRETARIA 8.482,22 2.544,67 0,00 0,00 3.675,63 0,00 14.702,52 1.251,22 2.788,13 0,00 4.039,35 10.663,17 1.550,00 1.585,88 31/01/2020
682 480300 DESIREE ARANTES FERREIRA GOUVEA OFICIAL DO MP ATIVO PRATÁPOLIS - COMARCA; PRATAPOLIS-PJ-UNPJ 5.678,79 567,88 0,00 0,00 2.082,22 0,00 8.328,89 750,10 1.232,12 0,00 1.982,22 6.346,67 5.298,00 2.125,67 31/01/2020
683 355300 DEYSE CRISTINA MORAIS OFICIAL DO MP ATIVO PASSOS - COMARCA; PASSOS-PJ-02PJ 7.955,66 1.591,13 0,00 0,00 3.182,26 0,00 12.729,05 1.050,15 2.342,34 0,00 3.392,49 9.336,56 7.360,55 666,24 31/01/2020
684 523700 DIANA CAMPOS RESENDE OFICIAL DO MP ATIVO SÃO JOÃO DEL REI - COMARCA; SAO JOAO DEL REI-PJ-04PJ 6.251,74 3.125,87 0,00 0,00 0,00 0,00 9.377,61 1.064,06 1.373,67 0,00 2.437,73 6.939,88 5.419,30 1.790,52 31/01/2020
685 241900 DIANA CARDOSO MARTINS OFICIAL DO MP ATIVO BELO HORIZONTE - COMARCA; CAO-CRIM EXEC PENAL TRIB JURI AUD MILITAR 8.214,70 2.464,41 0,00 0,00 3.559,70 0,00 14.238,81 1.174,70 2.723,27 0,00 3.897,97 10.340,84 1.550,00 299,44 31/01/2020
686 410100 DIANA GORDILHO SILVEIRA SENA ANALISTA DO MP ATIVO BELO HORIZONTE - COMARCA; ASSESS TECNICO-JUR JUNTO AS PROC. DE JUST 11.685,57 2.337,11 0,00 0,00 0,00 0,00 14.022,68 1.542,49 2.562,69 0,00 4.105,18 9.917,50 7.318,22 907,62 31/01/2020
687 553000 DIANA MARIA MARQUES ANALISTA DO MP ATIVO BETIM - COMARCA; BETIM-PJ-13PJ 7.823,48 782,35 0,00 0,00 0,00 0,00 8.605,83 1.033,40 1.184,78 0,00 2.218,18 6.387,65 1.550,00 3.113,80 31/01/2020
688 520000 DIARLE TOSTE DOS SANTOS ANALISTA DO MP ATIVO RIO POMBA - COMARCA; RIO POMBA-PJ-UNPJ 9.337,87 933,79 0,00 0,00 0,00 0,00 10.271,66 1.129,88 1.021,04 0,00 2.150,92 8.120,74 7.302,13 527,28 31/01/2020
689 539800 DIEGO CAMARGOS RODRIGUES OFICIAL DO MP ATIVO CONTAGEM - COMARCA; CONTAGEM-PJ-19PJ 4.995,72 499,57 0,00 0,00 0,00 0,00 5.495,29 604,48 475,61 0,00 1.080,09 4.415,20 1.550,00 154,19 31/01/2020
690 607300 DIEGO CERVEIRA DE SOUZA ANALISTA DO MP ATIVO PATOS DE MINAS - COMARCA; COORD REG BACIAS PARACATU,URUCUIA E ABAETE 7.823,48 782,35 0,00 0,00 0,00 0,00 8.605,83 976,49 1.236,92 0,00 2.213,41 6.392,42 1.550,00 754,46 31/01/2020
691 669300 DIEGO DA CUNHA SOARES ASSESSOR ADMINISTRATIVO I ATIVO BELO HORIZONTE - COMARCA; DIRET DE INFORMACAO E EXPEDICAO DE PROCESSOS 0,00 0,00 2.852,73 0,00 0,00 0,00 2.852,73 434,80 172,89 0,00 607,69 2.245,04 1.550,00 0,00 31/01/2020
692 446900 DIEGO DE FREITAS OFICIAL DO MP ATIVO UBERABA - COMARCA; UBERABA-PJ-06PJ 6.882,47 1.376,49 0,00 0,00 2.752,99 0,00 11.011,95 934,75 1.909,09 0,00 2.843,84 8.168,11 7.658,81 1.713,47 31/01/2020
693 288800 DILENE NEPOMUCENO ALVES OFICIAL DO MP ATIVO BELO HORIZONTE - COMARCA; DIRETORIA DE PESSOAL ADMINISTRATIVO - DPAD 9.337,87 2.801,36 0,00 0,00 0,00 0,00 12.139,23 1.335,32 2.101,72 0,00 3.437,04 8.702,19 7.376,83 534,13 31/01/2020
694 270101 DILSON DO AMARAL ANALISTA DO MP ATIVO RIO CASCA - COMARCA; RIO CASCA-PJ-UNPJ 7.823,48 782,35 0,00 0,00 0,00 0,00 8.605,83 946,64 1.236,92 0,00 2.183,56 6.422,27 1.550,00 241,54 31/01/2020
695 466000 DIMITRI GUDE MARCIAL ANALISTA DO MP ATIVO NANUQUE - COMARCA; NANUQUE-PJ-02PJ 9.337,87 933,79 0,00 0,00 3.423,89 0,00 13.695,55 1.200,00 2.481,92 0,00 3.681,92 10.013,63 8.403,00 3.434,10 31/01/2020
696 516300 DINORA APARECIDA MACEDO BRANDAO ANALISTA DO MP ATIVO BELO HORIZONTE - COMARCA; SUPERINTENDENCIA DE RECURSOS HUMANOS 7.955,66 795,57 0,00 0,00 0,00 0,00 8.751,23 978,63 1.272,50 0,00 2.251,13 6.500,10 1.550,00 533,62 31/01/2020
697 511700 DIOGENES HENRIQUES PEREIRA LOURENCO ANALISTA DO MP ATIVO CONTAGEM - COMARCA; CONTAGEM-PJ-13PJ 9.337,87 933,79 0,00 0,00 0,00 0,00 10.271,66 1.129,88 1.644,63 0,00 2.774,51 7.497,15 7.302,13 527,28 31/01/2020
698 604100 DIOGO CESAR DE OLIVEIRA HONORIO ASSESSOR ATIVO PIUMHI - COMARCA; PIUMHI-PJ-02PJ 0,00 0,00 4.763,08 0,00 0,00 0,00 4.763,08 644,94 565,63 0,00 1.210,57 3.552,51 1.550,00 0,00 31/01/2020
699 387800 DIOGO FELIX DA SILVA OFICIAL DO MP ATIVO CONSELHEIRO PENA - COMARCA; CONSELHEIRO PENA-PJ-01PJ 6.882,47 1.376,49 0,00 0,00 0,00 0,00 8.258,96 937,14 1.152,02 0,00 2.089,16 6.169,80 8.235,15 1.819,65 31/01/2020
700 259600 DIOGO MESQUITA MAIA ANALISTA DO MP ATIVO BELO HORIZONTE - COMARCA; DIRET DE APOIO AS PROCURADORIAS DE JUSTICA 14.162,21 11.329,76 0,00 0,00 0,00 2.804,12 28.296,09 2.804,12 6.088,79 0,00 8.892,91 19.403,18 6.809,09 14.150,83 31/01/2020
701 386700 DIRCIMAR FERNANDES CARNEIRO OFICIAL DO MP ATIVO VISCONDE DO RIO BRANCO - COMARCA; VISCONDE DO RIO BRANCO-PJ-03PJ 7.955,66 5.568,97 0,00 0,00 0,00 0,00 13.524,63 1.603,24 2.440,79 0,00 4.044,03 9.480,60 7.920,95 5.684,86 31/01/2020
702 113800 DIRSON APARECIDO GUIMARAES ASSESSOR ATIVO BELO HORIZONTE - COMARCA; DIVISAO DE MANUTENCAO PREDIAL 0,00 4.286,77 4.763,08 0,00 0,00 0,00 9.049,85 671,12 1.737,29 0,00 2.408,41 6.641,44 1.550,00 0,00 31/01/2020
703 216700 DOMICIO VALDETE PEREIRA OFICIAL DO MP ATIVO TEÓFILO OTONI - COMARCA; COORD REG PJ DEF EDU DIR CRIAN ADOL JEQUI MUC 13.283,29 3.984,99 0,00 0,00 0,00 0,00 17.268,28 2.073,59 3.252,78 0,00 5.326,37 11.941,91 7.582,25 8.250,24 31/01/2020
704 192701 DONIZETTI APARECIDO AMORIM ANALISTA DO MP ATIVO PRATÁPOLIS - COMARCA; PRATAPOLIS-PJ-UNPJ 8.758,36 3.503,34 0,00 0,00 0,00 0,00 12.261,70 1.656,26 2.293,92 0,00 3.950,18 8.311,52 1.550,00 5.581,36 31/01/2020
705 558700 DORCILIA FATIMA DE OLIVEIRA OFICIAL DO MP ATIVO DIVINÓPOLIS - COMARCA; DIVINOPOLIS-PJ-02PJ 4.995,72 499,57 0,00 0,00 1.831,76 0,00 7.327,05 604,48 927,21 0,00 1.531,69 5.795,36 7.114,59 657,92 31/01/2020
706 555300 DOUGLAS CUNHA DE SOUZA ANALISTA DO MP ATIVO VARZEA DA PALMA - COMARCA; VARZEA DA PALMA-PJ-01PJ 7.823,48 782,35 0,00 0,00 0,00 0,00 8.605,83 946,64 1.236,92 0,00 2.183,56 6.422,27 1.550,00 241,54 31/01/2020
707 265900 DOUGLAS GOMES MOREIRA ANALISTA DO MP ATIVO BELO HORIZONTE - COMARCA; CENTRAL DE APOIO TECNICO-SETOR DE ENGENHARIA 15.533,57 4.660,07 0,00 0,00 0,00 0,00 20.193,64 2.221,30 4.073,03 0,00 6.294,33 13.899,31 1.550,00 684,52 31/01/2020
708 241000 DOUGLAS MEIRELLES DE CASTRO OFICIAL DO MP ATIVO CONCEIÇÃO DO RIO VERDE - COMARCA; CONCEICAO DO RIO VERDE-PJ-UNPJ 11.317,16 4.526,86 0,00 0,00 0,00 0,00 15.844,02 1.742,84 2.904,19 0,00 4.647,03 11.196,99 7.253,85 1.815,17 31/01/2020
709 534900 DOUGLAS SILVA E SOUZA ANALISTA DO MP ATIVO CAMPOS GERAIS - COMARCA; CAMPOS GERAIS-PJ-UNPJ 7.823,48 782,35 0,00 0,00 0,00 0,00 8.605,83 946,64 1.184,78 0,00 2.131,42 6.474,41 7.564,79 777,97 31/01/2020
710 638900 DOUGLAS WALLAS CONCEICAO NEVES OFICIAL DO MP ATIVO RIBEIRÃO DAS NEVES - COMARCA; RIBEIRAO DAS NEVES-PJ-SEC CIVEL 4.058,04 243,48 0,00 0,00 0,00 0,00 4.301,52 488,08 225,25 0,00 713,33 3.588,19 1.550,00 135,60 31/01/2020
711 146800 DUCINALVA AMARAL LOPES REIS OFICIAL DO MP ATIVO PARAISÓPOLIS - COMARCA; PARAISOPOLIS-PJ-UNPJ 15.533,57 10.873,50 0,00 0,00 0,00 0,00 26.407,07 3.015,41 5.489,50 0,00 8.504,91 17.902,16 1.550,00 4.921,57 31/01/2020
712 122500 DUILIO CARLOS FERREIRA UTSCH OFICIAL DO MP ATIVO CONCEIÇÃO DO MATO DENTRO - COMARCA; CONCEICAO DO MATO DENTRO-PJ-UNPJ 13.283,29 10.626,64 0,00 0,00 7.969,98 2.630,09 34.510,00 2.871,12 7.897,62 0,00 10.768,74 23.741,26 1.550,00 11.819,47 31/01/2020
713 201800 DULCINEIA ANDRE DE SOUZA OFICIAL DO MP ATIVO JEQUITINHONHA - COMARCA; JEQUITINHONHA-PJ-SECRETARIA 13.283,29 5.313,32 0,00 0,00 0,00 0,00 18.596,61 2.511,94 3.920,49 0,00 6.432,43 12.164,18 8.007,32 10.861,14 31/01/2020
714 395800 DUVIDIER MEDIRCIO JUNIOR ANALISTA DO MP ATIVO BELO HORIZONTE - COMARCA; CENTRAL DE APOIO TECNICO-SETOR DE ENGENHARIA 12.864,49 2.572,90 0,00 0,00 5.145,80 0,00 20.583,19 1.698,11 4.324,04 0,00 6.022,15 14.561,04 1.705,77 631,61 31/01/2020
715 604800 ECIA RAMILIS ISSA DE ABREU ANALISTA DO MP ATIVO MONTALVÂNIA - COMARCA; MONTALVANIA-PJ-UNPJ 7.823,48 782,35 0,00 0,00 0,00 0,00 8.605,83 976,49 1.236,92 0,00 2.213,41 6.392,42 6.369,26 1.437,80 31/01/2020
716 273000 EDELFINA APARECIDA GUIMARAES OFICIAL DO MP ATIVO CACHOEIRA DE MINAS - COMARCA; CACHOEIRA DE MINAS-PJ-UNPJ 9.337,87 6.536,52 0,00 0,00 0,00 0,00 15.874,39 1.746,18 2.963,76 0,00 4.709,94 11.164,45 1.550,00 445,44 31/01/2020
717 523300 EDER DOS SANTOS PATRICIO ANALISTA DO MP ATIVO NOVA SERRANA - COMARCA; NOVA SERRANA-PJ-03PJ 9.337,87 933,79 0,00 0,00 0,00 0,00 10.271,66 1.129,88 1.644,63 0,00 2.774,51 7.497,15 7.791,56 1.364,97 31/01/2020
718 356700 EDER JOSE PACHECO OFICIAL DO MP ATIVO CAMPO BELO - COMARCA; CAMPO BELO-PJ-SECRETARIA 8.214,70 1.642,94 0,00 0,00 0,00 0,00 9.857,64 1.084,34 1.439,02 0,00 2.523,36 7.334,28 8.549,33 818,83 31/01/2020
719 507900 EDERSON SILVA LOPES OFICIAL DO MP ATIVO BELO HORIZONTE - COMARCA; LABORATORIO TECNOLOGIA INTELIGENCIA 5.678,79 567,88 0,00 0,00 0,00 0,00 6.246,67 687,13 555,24 0,00 1.242,37 5.004,30 7.712,20 724,96 31/01/2020
720 296200 EDGARD GOULART MATOSINHO DE LAET JR ANALISTA DO MP ATIVO GOVERNADOR VALADARES - COMARCA; GAECO REGIONAL DE GOVERNADOR VALADARES 14.162,21 4.248,66 0,00 0,00 0,00 0,00 18.410,87 2.025,20 3.532,42 0,00 5.557,62 12.853,25 1.550,00 476,74 31/01/2020
721 295000 EDILA MARIA DA SILVEIRA OFICIAL DO MP ATIVO FORMIGA - COMARCA; FORMIGA-PJ-01PJ 7.955,66 2.386,70 0,00 0,00 0,00 0,00 10.342,36 1.219,21 1.661,93 0,00 2.881,14 7.461,22 1.871,26 3.456,22 31/01/2020
722 332300 EDILA MARILAC MIRANDA PRADO OFICIAL DO MP ATIVO DIAMANTINA - COMARCA; COORD REG BACIAS RIOS JEQUITINHONHA E MUCURI 9.043,46 4.521,73 0,00 0,00 0,00 0,00 13.565,19 1.539,21 2.346,45 0,00 3.885,66 9.679,53 3.242,73 1.950,08 31/01/2020
723 376600 EDILANE CONSOLACAO ROSA NAZARETH ANALISTA DO MP ATIVO BETIM - COMARCA; BETIM-PJ-10PJ 12.065,98 2.413,20 0,00 0,00 0,00 0,00 14.479,18 1.642,92 2.674,42 0,00 4.317,34 10.161,84 1.550,00 2.081,59 31/01/2020
724 301500 EDILENE APARECIDA DE CARVALHO ANALISTA DO MP ATIVO BELO HORIZONTE - COMARCA; BH-02PJ FAMILIA-SECRETARIA 14.162,21 4.248,66 0,00 0,00 0,00 0,00 18.410,87 2.025,20 3.584,56 0,00 5.609,76 12.801,11 1.699,98 476,74 31/01/2020
725 309800 EDILZA DOS REIS OFICIAL DO MP ATIVO UBERLÂNDIA - COMARCA; UBERLANDIA-PJ-03PJ 9.337,87 2.801,36 0,00 0,00 0,00 0,00 12.139,23 1.374,18 2.101,72 0,00 3.475,90 8.663,33 7.532,28 2.262,89 31/01/2020
726 200500 EDINEIA MARIA DE OLIVEIRA ANTUNES OFICIAL DO MP ATIVO MONTES CLAROS - COMARCA; MONTES CLAROS-PJ-10PJ 13.283,29 5.313,32 0,00 0,00 0,00 0,00 18.596,61 2.045,63 3.682,16 0,00 5.727,79 12.868,82 7.500,92 2.062,26 31/01/2020
727 427700 EDISANGELA SOARES LOPES OFICIAL DO MP ATIVO PIRAPORA - COMARCA; PIRAPORA-PJ-02PJ 5.678,79 1.135,76 0,00 0,00 0,00 0,00 6.814,55 749,60 798,50 0,00 1.548,10 5.266,45 1.550,00 0,00 31/01/2020
728 555400 EDISON MONTEIRO SAMPAIO NETO ANALISTA DO MP ATIVO BELO HORIZONTE - COMARCA; BH-12PJ JUIZO CRIMINAL-GAB 094PJ 7.823,48 782,35 0,00 0,00 2.868,61 0,00 11.474,44 946,64 2.025,79 0,00 2.972,43 8.502,01 1.550,00 241,54 31/01/2020
729 517700 EDMILSON TADEU FERNANDES OFICIAL DO MP ATIVO POUSO ALEGRE - COMARCA; GAECO REGIONAL DE POUSO ALEGRE 6.054,65 605,47 0,00 0,00 2.220,04 0,00 8.880,16 732,61 1.371,22 0,00 2.103,83 6.776,33 7.570,53 724,18 31/01/2020
730 358400 EDNA APARECIDA SILVA FERREIRA OFICIAL DO MP ATIVO CORONEL FABRICIANO - COMARCA; CORONEL FABRICIANO-PJ-02PJ 8.214,70 1.642,94 0,00 0,00 0,00 0,00 9.857,64 1.118,53 1.439,02 0,00 2.557,55 7.300,09 7.626,22 2.063,27 31/01/2020
731 331800 EDNA MARCIA CAMILO DA SILVA OFICIAL DO MP ATIVO SETE LAGOAS - COMARCA; SETE LAGOAS-PJ-SEC CRIMINAIS 9.337,87 1.867,57 0,00 0,00 0,00 0,00 11.205,44 1.232,60 1.821,03 0,00 3.053,63 8.151,81 2.042,85 913,83 31/01/2020
732 327900 EDRIEL SANTANA PEREIRA OFICIAL DO MP ATIVO TUPACIGUARA - COMARCA; TUPACIGUARA-PJ-UNPJ 9.337,87 1.867,57 0,00 0,00 0,00 0,00 11.205,44 1.232,60 1.873,17 0,00 3.105,77 8.099,67 3.130,78 1.256,09 31/01/2020
733 482400 EDSON GARCIA OFICIAL DO MP ATIVO MACHADO - COMARCA; MACHADO-PJ-02PJ 5.158,42 515,84 0,00 0,00 0,00 0,00 5.674,26 624,17 415,14 0,00 1.039,31 4.634,95 2.319,39 159,28 31/01/2020
734 225601 EDSON LABRE FILHO ANALISTA DO MP ATIVO VARGINHA - COMARCA; VARGINHA-PJ-01PJ 14.162,21 4.248,66 0,00 0,00 0,00 0,00 18.410,87 2.025,20 3.584,56 0,00 5.609,76 12.801,11 7.603,96 1.056,51 31/01/2020
735 602700 EDSON NOGUEIRA BUENO OFICIAL DO MP ATIVO PITANGUI - COMARCA; PITANGUI-PJ-01PJ 4.612,94 461,29 0,00 0,00 1.691,41 0,00 6.765,64 575,77 837,69 0,00 1.413,46 5.352,18 1.550,00 729,54 31/01/2020
736 414400 EDUARDO ABRANTES CAMPOS ANALISTA DO MP ATIVO SÃO JOÃO DEL REI - COMARCA; SAO JOAO DEL REI-PJ-02PJ 11.685,57 2.337,11 0,00 0,00 0,00 0,00 14.022,68 1.542,49 2.562,69 0,00 4.105,18 9.917,50 1.709,15 393,46 31/01/2020
737 476800 EDUARDO ALVES DE MOURA ANALISTA DO MP ATIVO UBERLÂNDIA - COMARCA; UBERLANDIA-PJ-05PJ 9.337,87 933,79 0,00 0,00 3.423,89 0,00 13.695,55 1.129,88 2.429,79 0,00 3.559,67 10.135,88 8.071,52 527,28 31/01/2020
738 390800 EDUARDO AMORIM PETTERSEN OFICIAL DO MP ATIVO CARANGOLA - COMARCA; CARANGOLA-PJ-03PJ 7.337,85 1.467,57 0,00 0,00 2.935,14 0,00 11.740,56 999,14 2.092,93 0,00 3.092,07 8.648,49 2.474,86 1.265,99 31/01/2020
739 461600 EDUARDO ANTONIO DE ASSIS FARIA ASSESSOR ATIVO BELO HORIZONTE - COMARCA; ASSESS EXECUTIVA DO CONSELHO SUPERIOR DO MP 0,00 0,00 7.576,76 0,00 0,00 0,00 7.576,76 671,12 1.227,92 0,00 1.899,04 5.677,72 8.077,73 1.175,85 31/01/2020
740 248800 EDUARDO DE CASTRO AMORIM ANALISTA DO MP ATIVO BELO HORIZONTE - COMARCA; SUPERINTENDENCIA DE RECURSOS HUMANOS 16.787,84 5.036,35 0,00 0,00 0,00 0,00 21.824,19 2.400,66 4.472,11 0,00 6.872,77 14.951,42 1.550,00 739,71 31/01/2020
741 209100 EDUARDO DE SOUZA MAIA ANALISTA DO MP ATIVO BELO HORIZONTE - COMARCA; ASSESS TECNICO-JUR JUNTO AS PROC. DE JUST 17.452,52 6.981,01 0,00 0,00 0,00 0,00 24.433,53 3.071,65 5.541,46 0,00 8.613,11 15.820,42 1.550,00 4.072,25 31/01/2020
742 633900 EDUARDO GONCALVES PIRES OFICIAL DO MP ATIVO BELO HORIZONTE - COMARCA; BH-19PJ SAUDE-SECRETARIA 150PJ 4.838,22 1.451,47 0,00 0,00 0,00 0,00 6.289,69 691,87 670,04 0,00 1.361,91 4.927,78 5.401,95 432,87 31/01/2020
743 350500 EDUARDO GONCALVES RIBEIRO OFICIAL DO MP ATIVO VESPASIANO - COMARCA; VESPASIANO-PJ-04PJ 7.576,76 1.515,35 0,00 0,00 0,00 0,00 9.092,11 1.000,13 1.355,93 0,00 2.356,06 6.736,05 1.710,55 255,15 31/01/2020
744 115800 EDUARDO HENRIQUE DE CAMPOS MAIA OFICIAL DO MP ATIVO BELO HORIZONTE - COMARCA; DIV FISCAL ADM CONT TERCEIRIZACAO 14.162,21 7.081,10 0,00 0,00 7.081,10 0,00 28.324,41 2.410,41 6.120,83 0,00 8.531,24 19.793,17 1.710,70 3.053,24 31/01/2020
745 392600 EDUARDO HENRIQUE DOS SANTOS COSTA ELIAZAR OFICIAL DO MP ATIVO MATOZINHOS - COMARCA; MATOZINHOS-PJ-01PJ 7.106,49 1.421,30 0,00 0,00 0,00 0,00 8.527,79 938,06 1.061,40 0,00 1.999,46 6.528,33 8.279,58 770,82 31/01/2020
746 407500 EDUARDO MASCARENHAS CURI AZEVEDO ANALISTA DO MP ATIVO BELO HORIZONTE - COMARCA; DIRETORIA DE IMPRENSA 9.337,87 1.867,57 0,00 0,00 0,00 0,00 11.205,44 1.232,60 1.873,17 0,00 3.105,77 8.099,67 2.319,39 0,00 31/01/2020
747 601300 EDUARDO TRAD VIEIRA OFICIAL DO MP ATIVO IBIRITÉ - COMARCA; IBIRITE-PJ-03PJ 4.612,94 461,29 0,00 0,00 0,00 0,00 5.074,23 558,17 379,98 0,00 938,15 4.136,08 1.550,00 137,22 31/01/2020
748 257600 EDUARDO VALADARES CABRAL ANALISTA DO MP ATIVO BELO HORIZONTE - COMARCA; COORD DE INCLUSAO E MOBILIZACAO SOCIAIS 13.283,29 3.984,99 0,00 0,00 0,00 0,00 17.268,28 1.899,51 3.357,05 0,00 5.256,56 12.011,72 1.550,00 484,55 31/01/2020
749 545700 EDVAIR FERREIRA DE CARVALHO OFICIAL DO MP ATIVO ARAGUARI - COMARCA; ARAGUARI-PJ-06PJ 4.612,94 461,29 0,00 0,00 1.691,41 0,00 6.765,64 558,17 733,42 0,00 1.291,59 5.474,05 1.550,00 142,40 31/01/2020
750 401700 EDWANIA AMORIM DO CARMO OFICIAL DO MP ATIVO RIBEIRÃO DAS NEVES - COMARCA; RIBEIRAO DAS NEVES-PJ-03PJ 7.955,66 1.591,13 0,00 0,00 0,00 0,00 9.546,79 1.131,70 1.467,22 0,00 2.598,92 6.947,87 1.965,17 3.627,77 31/01/2020
751 303600 EFIGENIO SARAIVA LOPES ANALISTA DO MP ATIVO BELO HORIZONTE - COMARCA; DIRETORIA DE PAGAMENTO DE PESSOAL-DPAG 15.533,57 4.660,07 0,00 0,00 0,00 0,00 20.193,64 2.221,30 3.968,76 0,00 6.190,06 14.003,58 7.204,22 1.150,16 31/01/2020
752 286000 ELAINE APARECIDA SILVA BERZOINI OFICIAL DO MP ATIVO JUIZ DE FORA - COMARCA; JUIZ DE FORA-PJ-07PJ 9.337,87 2.801,36 0,00 0,00 4.046,41 0,00 16.185,64 1.335,32 3.214,48 0,00 4.549,80 11.635,84 1.550,00 0,00 31/01/2020
753 509000 ELAINE CANDIDA PONTES OFICIAL DO MP ATIVO BELO HORIZONTE - COMARCA; BH-02PJ FAMILIA-SECRETARIA 6.665,41 666,54 0,00 0,00 0,00 0,00 7.331,95 975,08 503,79 0,00 1.478,87 5.853,08 2.319,31 10.955,86 31/01/2020
754 283601 ELAINE CRISTINA MEQUELINO DUARTE ANALISTA DO MP ATIVO ALFENAS - COMARCA; ALFENAS-PJ-02PJ 12.065,98 2.413,20 0,00 0,00 0,00 0,00 14.479,18 1.642,92 2.570,14 0,00 4.213,06 10.266,12 7.506,01 2.764,65 31/01/2020
755 535500 ELAINE DE OLIVEIRA CAMPOS REIS OFICIAL DO MP ATIVO RIBEIRÃO DAS NEVES - COMARCA; SEC PJ EXECUCAO PENAL RIBEIRAO NEVES 4.995,72 499,57 0,00 0,00 0,00 0,00 5.495,29 604,48 475,61 0,00 1.080,09 4.415,20 7.045,29 715,67 31/01/2020
756 455700 ELAINE DE OLIVEIRA CASTRO ANALISTA DO MP ATIVO POMPÉU - COMARCA; POMPEU-PJ-UNPJ 9.337,87 933,79 0,00 0,00 0,00 0,00 10.271,66 1.129,88 1.592,49 0,00 2.722,37 7.549,29 2.319,39 567,34 31/01/2020
757 367200 ELAINE MUNIZ BARBOSA ANALISTA DO MP ATIVO BELO HORIZONTE - COMARCA; DIRETORIA DE SISTEMAS DE INFORMACAO 13.283,29 2.656,66 0,00 0,00 0,00 0,00 15.939,95 1.753,39 3.031,94 0,00 4.785,33 11.154,62 2.319,39 1.300,09 31/01/2020
758 176900 ELAINE RIBEIRO TAVEIRA OFICIAL DO MP ATIVO BELO HORIZONTE - COMARCA; DIRETORIA DE PESSOAL ADMINISTRATIVO - DPAD 10.960,26 4.384,10 0,00 0,00 0,00 0,00 15.344,36 1.687,88 2.886,17 0,00 4.574,05 10.770,31 7.248,15 917,75 31/01/2020
759 496200 ELAINE SABRINA MOREIRA SCHUWARTEN ANALISTA DO MP ATIVO CORONEL FABRICIANO - COMARCA; CORONEL FABRICIANO-PJ-03PJ 9.337,87 933,79 0,00 0,00 0,00 0,00 10.271,66 1.129,88 1.644,63 0,00 2.774,51 7.497,15 1.550,00 0,00 31/01/2020
760 489200 ELAINE VICENTINO GARCIA ANALISTA DO MP ATIVO BELO HORIZONTE - COMARCA; CENTRAL DE APOIO TECNICO-SETOR CONTABIL 9.337,87 2.801,36 0,00 0,00 0,00 0,00 12.139,23 1.335,32 1.997,44 0,00 3.332,76 8.806,47 7.376,83 534,13 31/01/2020
761 244500 ELCI ALVES DE SOUZA ASSESSOR ATIVO BELO HORIZONTE - COMARCA; CAO-CONFLITOS AGRARIOS-SECRETARIA 0,00 1.428,92 4.763,08 0,00 2.064,00 0,00 8.256,00 584,16 1.490,76 0,00 2.074,92 6.181,08 7.494,32 544,90 31/01/2020
762 472500 ELCI VAZ DE OLIVEIRA FILHO ANALISTA DO MP ATIVO PIUMHI - COMARCA; PIUMHI-PJ-02PJ 9.337,87 4.668,94 0,00 0,00 0,00 0,00 14.006,81 1.540,75 2.558,81 0,00 4.099,56 9.907,25 1.550,00 0,00 31/01/2020
763 385200 ELCI VIANA REIS OFICIAL DO MP ATIVO RIO PARDO DE MINAS - COMARCA; RIO PARDO DE MINAS-PJ-SECRETARIA 7.955,66 3.182,26 0,00 0,00 0,00 0,00 11.137,92 1.225,17 1.856,65 0,00 3.081,82 8.056,10 7.756,89 1.300,70 31/01/2020
764 289801 ELCIO JOSE DOS SANTOS ASSESSOR/ANALISTA ATIVO BELO HORIZONTE - COMARCA; DIVISAO DE SERVICOS 0,00 1.168,56 11.685,57 0,00 0,00 0,00 12.854,13 1.129,88 2.354,81 0,00 3.484,69 9.369,44 1.550,00 0,00 31/01/2020
765 319600 ELEN TULER DE ALBERGARIA ANALISTA DO MP ATIVO BELO HORIZONTE - COMARCA; BH-19PJ SAUDE 12.458,83 4.983,53 0,00 0,00 0,00 0,00 17.442,36 1.979,16 3.399,66 0,00 5.378,82 12.063,54 1.550,00 2.621,37 31/01/2020
766 151000 ELI LOURENCO RIBEIRO AGENTE DO MP ATIVO BELO HORIZONTE - COMARCA; BH-19PJ SAUDE 9.955,90 4.977,95 0,00 0,00 0,00 0,00 14.933,85 1.694,52 2.064,75 0,00 3.759,27 11.174,58 7.857,28 3.202,08 31/01/2020
767 205500 ELIANA ALVES DE SOUSA OFICIAL DO MP ATIVO GOVERNADOR VALADARES - COMARCA; GOVERNADOR VALADARES-PJ-07PJ 8.482,22 3.392,89 0,00 0,00 0,00 0,00 11.875,11 1.306,26 2.037,07 0,00 3.343,33 8.531,78 1.550,00 309,52 31/01/2020
768 628800 ELIANA APARECIDA PEREIRA ANALISTA DO MP ATIVO CAMBUÍ - COMARCA; CAMBUI-PJ-02PJ 6.882,47 688,25 0,00 0,00 0,00 0,00 7.570,72 906,32 931,44 0,00 1.837,76 5.732,96 1.550,00 3.048,68 31/01/2020
769 301700 ELIANA DA SILVEIRA ANALISTA DO MP ATIVO BELO HORIZONTE - COMARCA; ASSESS TECNICO-JUR JUNTO AS PROC. DE JUST 13.715,83 4.114,75 0,00 0,00 0,00 0,00 17.830,58 2.018,46 3.494,68 0,00 5.513,14 12.317,44 1.695,33 2.366,87 31/01/2020
770 103400 ELIANA DE FARIA MORAIS JOTTA OFICIAL DO MP ATIVO BELO HORIZONTE - COMARCA; DIRET DE PESSOAL DO MINISTERIO PUBLICO - DPMP 22.903,10 16.032,17 0,00 0,00 0,00 4.022,68 42.957,95 4.526,55 9.135,20 6.946,10 20.607,85 22.350,10 1.550,00 9.270,60 31/01/2020
771 251500 ELIANA DE LIMA MILAGRES FONSECA ANALISTA DO MP ATIVO CONTAGEM - COMARCA; CONTAGEM-PJ-21PJ 13.715,83 4.114,75 0,00 0,00 5.943,53 0,00 23.774,11 1.961,36 5.024,87 0,00 6.986,23 16.787,88 7.413,23 1.210,91 31/01/2020
772 503900 ELIANA DIAS DUTRA FERREIRA OFICIAL DO MP ATIVO GOVERNADOR VALADARES - COMARCA; GOVERNADOR VALADARES-PJ-10PJ 6.882,47 688,25 0,00 0,00 2.523,57 0,00 10.094,29 909,10 1.573,28 0,00 2.482,38 7.611,91 0,00 3.163,73 31/01/2020
773 413900 ELIANA PINTO DE OLIVEIRA NEVES ANALISTA DO MP ATIVO CAMPO BELO - COMARCA; CAMPO BELO-PJ-03PJ 11.317,16 2.263,43 0,00 0,00 0,00 0,00 13.580,59 1.630,77 2.454,49 0,00 4.085,26 9.495,33 8.792,70 6.638,09 31/01/2020
774 228200 ELIANA RODRIGUES DA CUNHA PINHEIRO OFICIAL DO MP ATIVO BELO HORIZONTE - COMARCA; DIRETORIA DE PROJETOS DE EDIFICACOES 11.317,16 3.395,15 0,00 0,00 0,00 1.618,35 16.330,66 1.766,67 3.176,53 0,00 4.943,20 11.387,46 7.920,32 7.429,42 31/01/2020
775 386600 ELIANA SABINO CHAVES PESSOA ANALISTA DO MP ATIVO CARATINGA - COMARCA; CARATINGA-PJ-06PJ 11.685,57 8.179,91 0,00 0,00 0,00 0,00 19.865,48 2.185,20 3.940,58 0,00 6.125,78 13.739,70 1.550,00 491,82 31/01/2020
776 297400 ELIANE AUGUSTA RIBEIRO COSTA ANALISTA DO MP ATIVO CONSELHEIRO LAFAIETE - COMARCA; CONSELHEIRO LAFAIETE-PJ-05PJ 15.533,57 4.660,07 0,00 0,00 6.731,21 0,00 26.924,85 2.221,30 5.767,70 0,00 7.989,00 18.935,85 7.741,80 2.531,45 31/01/2020
777 510600 ELIANE CAROLINA MAIA ANALISTA DO MP ATIVO IGARAPÉ - COMARCA; IGARAPE-PJ-01PJ 9.337,87 933,79 0,00 0,00 0,00 0,00 10.271,66 1.129,88 1.488,22 0,00 2.618,10 7.653,56 1.550,00 0,00 31/01/2020
778 269300 ELIANE EDLAMAR ROCHA OFICIAL DO MP ATIVO PEDRO LEOPOLDO - COMARCA; PEDRO LEOPOLDO-PJ-02PJ 8.758,36 2.627,51 0,00 0,00 3.795,29 0,00 15.181,16 1.252,45 2.908,90 0,00 4.161,35 11.019,81 7.470,65 948,11 31/01/2020
779 262600 ELIANE FERREIRA SOARES ASSESSOR ATIVO BELO HORIZONTE - COMARCA; BH-18PJ DIREITOS HUMANOS-SECRETARIA 0,00 1.905,23 4.763,08 0,00 0,00 0,00 6.668,31 671,12 1.030,23 0,00 1.701,35 4.966,96 1.550,00 0,00 31/01/2020
780 204400 ELIANE GLAUCE DE QUEIROS MAIA OFICIAL DO MP ATIVO GUANHÃES - COMARCA; GUANHAES-PJ-02PJ 13.283,29 5.313,32 0,00 0,00 6.198,87 0,00 24.795,48 2.219,71 5.386,85 0,00 7.606,56 17.188,92 2.319,39 7.743,70 31/01/2020
781 91800 ELIANE KAPLER ALVES OFICIAL DO MP ATIVO BELO HORIZONTE - COMARCA; DIVISAO DE CONTROLE IMOBILIARIO 17.452,52 8.726,26 0,00 0,00 0,00 0,00 26.178,78 2.879,67 5.433,62 0,00 8.313,29 17.865,49 6.985,16 1.367,29 31/01/2020
782 334200 ELIANE MARCIA DE OLIVEIRA BRITO OFICIAL DO MP ATIVO BELO HORIZONTE - COMARCA; BH-08PJ JUIZADO ESPECIAL-SECRETARIA 5.678,79 1.135,76 0,00 0,00 0,00 0,00 6.814,55 749,60 798,50 0,00 1.548,10 5.266,45 1.550,00 0,00 31/01/2020
783 365900 ELIANE MARIA DE OLIVEIRA FERREIRA OFICIAL DO MP ATIVO SETE LAGOAS - COMARCA; SETE LAGOAS-PJ-SEC CRIMINAIS 8.482,22 4.241,11 0,00 0,00 0,00 0,00 12.723,33 1.443,71 2.244,67 0,00 3.688,38 9.034,95 1.550,00 1.829,84 31/01/2020
784 320600 ELIANE STADLER DE SOUZA OFICIAL DO MP ATIVO FRANCISCO SÁ - COMARCA; FRANCISCO SA-PJ-SECRETARIA 8.214,70 1.642,94 0,00 0,00 0,00 0,00 9.857,64 1.084,34 1.491,16 0,00 2.575,50 7.282,14 1.550,00 276,66 31/01/2020
785 448900 ELIAS PEREIRA OTONI ASSESSOR ATIVO BELO HORIZONTE - COMARCA; BH-18PJ DIREITOS HUMANOS 0,00 0,00 4.763,08 0,00 0,00 0,00 4.763,08 671,12 454,15 0,00 1.125,27 3.637,81 3.455,23 174,65 31/01/2020
786 495400 ELICA SOUZA GASPARONI MATTOS OFICIAL DO MP ATIVO UBÁ - COMARCA; UBA-PJ-06PJ 6.882,47 688,25 0,00 0,00 2.523,57 0,00 10.094,29 909,10 1.677,56 0,00 2.586,66 7.507,63 2.049,54 3.163,73 31/01/2020
787 86600 ELIENE FERREIRA DA SILVA OFICIAL DO MP ATIVO BELO HORIZONTE - COMARCA; BH-22PJ PES COM DEF E IDOSOS 19.608,56 13.725,99 0,00 0,00 0,00 0,00 33.334,55 3.666,80 7.132,86 0,00 10.799,66 22.534,89 1.550,00 0,00 31/01/2020
788 183800 ELIENE MARIA CUNHA OFICIAL DO MP ATIVO BELO HORIZONTE - COMARCA; DIRETORIA DE PESSOAL ADMINISTRATIVO - DPAD 13.715,83 5.486,33 0,00 0,00 0,00 0,00 19.202,16 2.174,09 3.778,23 0,00 5.952,32 13.249,84 7.084,04 3.244,38 31/01/2020
789 172300 ELINA APARECIDA SILVA ASSESSOR ATIVO BELO HORIZONTE - COMARCA; BH-19PJ SAUDE-SECRETARIA 130PJ 0,00 1.141,09 2.852,73 0,00 0,00 0,00 3.993,82 671,12 273,66 0,00 944,78 3.049,04 1.550,00 0,00 31/01/2020
790 492501 ELINE CAMPOS DA FONSECA CUNHA ANALISTA DO MP ATIVO PONTE NOVA - COMARCA; PONTE NOVA-PJ-02PJ 8.214,70 821,47 0,00 0,00 0,00 0,00 9.036,17 993,98 1.342,24 0,00 2.336,22 6.699,95 7.754,19 1.388,57 31/01/2020
791 618900 ELISA MOURA VIEIRA MARCATTI OFICIAL DO MP ATIVO BELO HORIZONTE - COMARCA; BH-23PJ CIVEL-SEC EXP CIVEIS 4.838,22 483,82 0,00 0,00 0,00 0,00 5.322,04 585,42 433,21 0,00 1.018,63 4.303,41 1.550,00 349,74 31/01/2020
792 256500 ELISABETE NOGUEIRA ANALISTA DO MP ATIVO RIBEIRÃO DAS NEVES - COMARCA; SEC PJ EXECUCAO PENAL RIBEIRAO NEVES 13.283,29 6.641,65 0,00 0,00 0,00 0,00 19.924,94 2.191,74 3.850,86 0,00 6.042,60 13.882,34 1.550,00 559,10 31/01/2020
793 355000 ELISANGELA DARLANTONI RIBEIRO OFICIAL DO MP ATIVO ARAXÁ - COMARCA; ARAXA-PJ-05PJ 7.823,48 1.564,70 0,00 0,00 0,00 0,00 9.388,18 1.065,27 1.376,26 0,00 2.441,53 6.946,65 8.118,09 1.965,07 31/01/2020
794 604400 ELISANGELA DEMASI FERREIRA MOREIRA ANALISTA DO MP ATIVO POÇOS DE CALDAS - COMARCA; POCOS DE CALDAS-PJ-06PJ 7.823,48 782,35 0,00 0,00 0,00 0,00 8.605,83 975,41 1.236,92 0,00 2.212,33 6.393,50 2.037,28 744,59 31/01/2020
795 323800 ELISANGELA GONCALVES DE JESUS OFICIAL DO MP ATIVO BELO HORIZONTE - COMARCA; BH-09PJ AUDITORIA MILITAR-SECRETARIA 8.482,22 1.696,44 0,00 0,00 0,00 0,00 10.178,66 1.154,96 1.569,73 0,00 2.724,69 7.453,97 8.173,53 2.093,36 31/01/2020
796 507400 ELISANGELA MIGUEL DA ROCHA SILVA ASSESSOR ATIVO BELO HORIZONTE - COMARCA; CGMP-DIVIS DE APOIO FISC ORIENTACAO FUNCIONAL 0,00 0,00 2.852,73 0,00 0,00 0,00 2.852,73 434,80 144,45 0,00 579,25 2.273,48 5.172,12 861,95 31/01/2020
797 261400 ELISANGELA REZENDE MENDES OFICIAL DO MP ATIVO POUSO ALEGRE - COMARCA; POUSO ALEGRE-PJ-05PJ 9.043,46 2.713,04 0,00 0,00 0,00 0,00 11.756,50 1.333,99 2.008,04 0,00 3.342,03 8.414,47 1.698,25 1.813,61 31/01/2020
798 534100 ELISANGELA ROSINE SILVA OFICIAL DO MP ATIVO UBERABA - COMARCA; UBERABA-PJ-06PJ 4.612,94 461,29 0,00 0,00 0,00 0,00 5.074,23 558,17 379,98 0,00 938,15 4.136,08 6.784,23 607,54 31/01/2020
799 634300 ELIUDE GRACA DAMASIO ROSARIO FRANCELINO OFICIAL DO MP ATIVO BELO HORIZONTE - COMARCA; EXTINTA-DEF DIREIT HUM-COMB A VIOL DOMEST-18 4.058,04 243,48 0,00 0,00 0,00 0,00 4.301,52 473,17 225,25 0,00 698,42 3.603,10 2.319,39 120,68 31/01/2020
800 461700 ELIZABETH ALEIXO DA PAZ ANALISTA DO MP ATIVO JUIZ DE FORA - COMARCA; JUIZ DE FORA-PJ-24PJ 9.337,87 933,79 0,00 0,00 0,00 0,00 10.271,66 1.129,88 1.644,63 0,00 2.774,51 7.497,15 7.302,13 527,28 31/01/2020
801 227300 ELIZABETH COIMBRA FELIX ASSESSOR/OFICIAL ATIVO BELO HORIZONTE - COMARCA; DIRETORIA DE PAGAMENTO DE PESSOAL-DPAG 11.685,57 7.011,34 0,00 0,00 0,00 0,00 18.696,91 1.799,58 3.673,13 0,00 5.472,71 13.224,20 7.677,43 1.007,48 31/01/2020
802 354800 ELIZABETH DOS REIS OFICIAL DO MP ATIVO BELO HORIZONTE - COMARCA; DIVISAO DE MATERIAIS 8.482,22 1.696,44 0,00 0,00 0,00 0,00 10.178,66 1.154,96 1.569,73 0,00 2.724,69 7.453,97 1.550,00 1.463,85 31/01/2020
803 612000 ELIZABETH MARIA DE QUEIROZ TANIGUCHI OFICIAL DO MP ATIVO BELO HORIZONTE - COMARCA; SUPERINTENDENCIA DE RECURSOS HUMANOS 4.467,49 446,75 0,00 0,00 0,00 0,00 4.914,24 540,57 347,95 0,00 888,52 4.025,72 1.550,00 386,28 31/01/2020
804 452800 ELIZANGELA MARIA DAVI OFICIAL DO MP ATIVO ARCOS - COMARCA; ARCOS-PJ-01PJ 5.678,79 567,88 0,00 0,00 0,00 0,00 6.246,67 687,13 607,38 0,00 1.294,51 4.952,16 1.550,00 509,44 31/01/2020
805 496300 ELIZANGELA MARQUES PINTO COELHO OFICIAL DO MP ATIVO BELO HORIZONTE - COMARCA; DIRETORIA DE PESSOAL ADMINISTRATIVO - DPAD 6.882,47 688,25 0,00 0,00 0,00 0,00 7.570,72 909,10 983,57 0,00 1.892,67 5.678,05 7.803,29 3.922,43 31/01/2020
806 422500 ELIZETE FORTES DA CUNHA ANALISTA DO MP ATIVO RIBEIRÃO DAS NEVES - COMARCA; RIBEIRAO DAS NEVES-PJ-07PJ 11.685,57 2.337,11 0,00 0,00 0,00 0,00 14.022,68 1.591,12 2.510,56 0,00 4.101,68 9.921,00 7.318,22 2.644,66 31/01/2020
807 506100 ELLEM CRISTINA ROCHA FONSECA BOWEN ANALISTA DO MP ATIVO GOVERNADOR VALADARES - COMARCA; COORD REG PJ DEF EDU DIR CRIANCA ADOL RIODOCE 9.337,87 933,79 0,00 0,00 0,00 0,00 10.271,66 1.129,88 1.644,63 0,00 2.774,51 7.497,15 2.319,39 0,00 31/01/2020
808 468200 ELLEN CRISTINA BERNARDES DARE ANALISTA DO MP ATIVO TRÊS PONTAS - COMARCA; TRES PONTAS-PJ-02PJ 9.337,87 933,79 0,00 0,00 3.423,89 0,00 13.695,55 1.129,88 2.534,06 0,00 3.663,94 10.031,61 8.071,52 527,28 31/01/2020
809 418800 ELLEN CRISTINA DE QUEIROZ FERREIRA ANALISTA DO MP ATIVO BELO HORIZONTE - COMARCA; CENTRAL DE APOIO TECNICO-SETOR CONTABIL 11.317,16 2.263,43 0,00 0,00 0,00 0,00 13.580,59 1.493,86 2.454,49 0,00 3.948,35 9.632,24 8.792,70 1.655,46 31/01/2020
810 328401 ELLEN CRISTINA FERREIRA MORAIS MONTEIRO ANALISTA DO MP ATIVO CAMANDUCAIA - COMARCA; CAMANDUCAIA-PJ-UNPJ 11.317,16 2.263,43 0,00 0,00 4.526,86 0,00 18.107,45 1.493,86 3.595,10 0,00 5.088,96 13.018,49 1.550,00 1.522,58 31/01/2020
811 556100 ELLEN CRISTINE BIANCHIN DA SILVA OFICIAL DO MP ATIVO SÃO GONÇALO DO SAPUCAÍ - COMARCA; SAO GONCALO DO SAPUCAI-PJ-02PJ 4.612,94 461,29 0,00 0,00 0,00 0,00 5.074,23 558,17 337,33 0,00 895,50 4.178,73 1.550,00 142,40 31/01/2020
812 447100 ELLEN ROSANA DE MACEDO BORGES OFICIAL DO MP ATIVO UBERLÂNDIA - COMARCA; UBERLANDIA-PJ-17PJ 7.106,49 1.421,30 0,00 0,00 0,00 0,00 8.527,79 938,06 1.217,82 0,00 2.155,88 6.371,91 7.506,61 750,88 31/01/2020
813 477700 ELMA JACOB OFICIAL DO MP ATIVO BELO HORIZONTE - COMARCA; COORD DE GABINETE DO PGJ 6.882,47 4.817,73 0,00 0,00 0,00 1.287,02 12.987,22 1.287,02 2.348,20 0,00 3.635,22 9.352,00 7.637,89 1.587,05 31/01/2020
814 123300 ELMA PAULA DOS SANTOS COELHO OFICIAL DO MP ATIVO BELO HORIZONTE - COMARCA; BH-19PJ SAUDE-SECRETARIA 130PJ 15.533,57 13.980,22 0,00 0,00 0,00 3.246,52 32.760,31 3.246,52 7.246,93 0,00 10.493,45 22.266,86 1.550,00 1.124,09 31/01/2020
815 356500 ELOISA CARDOSO SILVA FRANCA OFICIAL DO MP ATIVO PEÇANHA - COMARCA; PECANHA-PJ-SECRETARIA 5.678,79 1.135,76 0,00 0,00 2.271,52 0,00 9.086,07 749,60 1.266,76 0,00 2.016,36 7.069,71 1.719,32 0,00 31/01/2020
816 251901 ELOISA COSTA E SILVA ANALISTA DO MP ATIVO SANTOS DUMONT - COMARCA; SANTOS DUMONT-PJ-02PJ 9.337,87 2.801,36 0,00 0,00 0,00 0,00 12.139,23 1.335,32 2.049,58 0,00 3.384,90 8.754,33 2.319,39 0,00 31/01/2020
817 400400 ELOIZA MARIA FERRI PIRES DA SILVA OFICIAL DO MP ATIVO BELO HORIZONTE - COMARCA; ASSESSORIA TECNICA DO PROCON-MG 7.106,49 1.421,30 0,00 0,00 0,00 0,00 8.527,79 967,63 1.165,68 0,00 2.133,31 6.394,48 1.550,00 1.225,82 31/01/2020
818 258000 ELSO CECIANO PALMEIRA COORDENADOR/OFICIAL ATIVO BELO HORIZONTE - COMARCA; DIRET DE PESSOAL DO MINISTERIO PUBLICO - DPMP 10.279,98 9.826,45 0,00 0,00 0,00 0,00 20.106,43 1.922,36 4.131,26 0,00 6.053,62 14.052,81 7.312,03 1.006,41 31/01/2020
819 206900 ELVIRA RITA DOS SANTOS ANALISTA DO MP ATIVO BELO HORIZONTE - COMARCA; CENTRAL DE APOIO TECNICO-SETOR CONTABIL 17.452,52 6.981,01 0,00 0,00 0,00 2.687,69 27.121,22 2.687,69 5.849,86 0,00 8.537,55 18.583,67 1.550,00 0,00 31/01/2020
820 506800 ELVIS FERREIRA DA SILVA ANALISTA DO MP ATIVO BELO HORIZONTE - COMARCA; DIRETORIA DE SISTEMAS DE INFORMACAO 9.337,87 933,79 0,00 0,00 0,00 0,00 10.271,66 1.129,88 1.540,36 0,00 2.670,24 7.601,42 8.071,52 527,28 31/01/2020
821 602400 ELZA MARIA MOREIRA MUNIZ ANALISTA DO MP ATIVO CARMO DO PARANAÍBA - COMARCA; CARMO DO PARANAIBA-PJ-02PJ 7.823,48 782,35 0,00 0,00 0,00 0,00 8.605,83 946,64 1.132,64 0,00 2.079,28 6.526,55 7.564,79 777,97 31/01/2020
822 368401 ELZIRA SIMOES DOS SANTOS ASSESSOR ATIVO BELO HORIZONTE - COMARCA; SUPERINTENDENCIA DE COMUNICACAO INTEGRADA 0,00 3.184,40 10.614,65 0,00 0,00 0,00 13.799,05 671,12 3.043,32 0,00 3.714,44 10.084,61 1.550,00 0,00 31/01/2020
823 437400 EMANOELLE DA SILVA RODRIGUES OFICIAL DO MP ATIVO UNAÍ - COMARCA; UNAI-PJ-03PJ 6.455,21 645,52 0,00 0,00 2.366,91 0,00 9.467,64 781,08 1.467,31 0,00 2.248,39 7.219,25 7.349,22 589,74 31/01/2020
824 458900 EMANUELLE CONRAD SILVA FREDERICO NAVES ANALISTA DO MP ATIVO ALFENAS - COMARCA; ALFENAS-PJ-05PJ 11.317,16 1.131,72 0,00 0,00 0,00 0,00 12.448,88 1.494,88 2.125,37 0,00 3.620,25 8.828,63 2.821,39 5.202,50 31/01/2020
825 284100 EMERSON MAGNO ALMEIDA PEDROSA DA FONSECA ANALISTA DO MP ATIVO BELO HORIZONTE - COMARCA; CENTRAL DE APOIO TECNICO-SETOR CONTABIL 15.533,57 4.660,07 0,00 0,00 6.731,21 0,00 26.924,85 2.221,30 4.646,52 0,00 6.867,82 20.057,03 1.550,00 2.180,93 31/01/2020
826 179900 EMERSON MORAIS DIAS OFICIAL DO MP ATIVO BELO HORIZONTE - COMARCA; SUPERINTENDÊNCIA DE ENGENHARIA E ARQUITETURA 13.715,83 5.486,33 0,00 0,00 0,00 0,00 19.202,16 2.112,24 3.830,37 0,00 5.942,61 13.259,55 1.695,33 538,95 31/01/2020
827 488700 EMERSON SIQUEIRA DE SOUSA TEIXEIRA ANALISTA DO MP ATIVO TARUMIRIM - COMARCA; TARUMIRIM-PJ-UNPJ 9.337,87 933,79 0,00 0,00 3.423,89 0,00 13.695,55 1.129,88 2.429,79 0,00 3.559,67 10.135,88 7.302,13 527,28 31/01/2020
828 194200 EMILIA ALVES FERREIRA RAMOS OFICIAL DO MP ATIVO UBERLÂNDIA - COMARCA; UBERLANDIA-PJ-SEC FAMILIA 8.482,22 3.392,89 0,00 0,00 0,00 0,00 11.875,11 1.344,52 2.037,07 0,00 3.381,59 8.493,52 1.550,00 1.585,88 31/01/2020
829 123400 EMILIO CARLOS MARTINS OFICIAL DO MP ATIVO AREADO - COMARCA; AREADO-PJ-UNPJ 16.148,50 12.918,80 0,00 0,00 0,00 3.197,40 32.264,70 3.197,40 7.072,01 0,00 10.269,41 21.995,29 1.550,00 1.106,87 31/01/2020
830 620700 EMILY FONTANA DE SIQUEIRA ANALISTA DO MP ATIVO BELO HORIZONTE - COMARCA; BH-18PJ VIOLENCIA DOMESTICA 7.576,76 757,68 0,00 0,00 0,00 0,00 8.334,44 916,79 1.118,36 0,00 2.035,15 6.299,29 2.319,39 655,00 31/01/2020
831 297000 ENEIDA SOARES COSTA MELO ANALISTA DO MP ATIVO PIUMHI - COMARCA; PIUMHI-PJ-01PJ 15.533,57 4.660,07 0,00 0,00 0,00 0,00 20.193,64 2.221,30 4.073,03 0,00 6.294,33 13.899,31 7.741,80 1.982,91 31/01/2020
832 276000 ENEZIO RODRIGUES DE SOUZA FILHO OFICIAL DO MP ATIVO UBERLÂNDIA - COMARCA; UBERLANDIA-PJ-01PJ 9.337,87 2.801,36 0,00 0,00 0,00 0,00 12.139,23 1.335,32 2.101,72 0,00 3.437,04 8.702,19 1.550,00 989,99 31/01/2020
833 387700 ENI MARIA DOS REIS OFICIAL DO MP ATIVO POUSO ALEGRE - COMARCA; POUSO ALEGRE-PJ-02PJ 7.955,66 1.591,13 0,00 0,00 0,00 0,00 9.546,79 1.131,70 1.467,22 0,00 2.598,92 6.947,87 1.550,00 3.380,65 31/01/2020
834 605100 ENIA MAIA ASSESSOR/OFICIAL ATIVO BELO HORIZONTE - COMARCA; DIRETORIA DE ORCAMENTO-DIOR/SPC 0,00 964,19 9.641,94 0,00 0,00 0,00 10.606,13 657,55 1.866,50 0,00 2.524,05 8.082,08 7.489,43 527,94 31/01/2020
835 612200 ENILDO GOMES MEIRA FILHO ANALISTA DO MP ATIVO BUENÓPOLIS - COMARCA; BUENOPOLIS-PJ-UNPJ 7.576,76 757,68 0,00 0,00 0,00 0,00 8.334,44 916,79 1.014,08 0,00 1.930,87 6.403,57 8.515,03 1.174,51 31/01/2020
836 553700 ENIVALDO NOVATO PUBLIO ANALISTA DO MP ATIVO DIVINÓPOLIS - COMARCA; DIVINOPOLIS-PJ-09PJ 7.823,48 782,35 0,00 0,00 0,00 0,00 8.605,83 946,64 1.184,78 0,00 2.131,42 6.474,41 1.712,83 241,54 31/01/2020
837 417300 ERIC BARATTI DA SILVA ANALISTA DO MP ATIVO PRATA - COMARCA; PRATA-PJ-UNPJ 9.337,87 1.867,57 0,00 0,00 0,00 0,00 11.205,44 1.232,60 1.873,17 0,00 3.105,77 8.099,67 1.550,00 0,00 31/01/2020
838 637600 ERIC DA ROCHA CHEHUEN ANALISTA DO MP ATIVO LIMA DUARTE - COMARCA; LIMA DUARTE-PJ-UNPJ 6.882,47 412,95 0,00 0,00 0,00 0,00 7.295,42 671,12 952,32 0,00 1.623,44 5.671,98 1.550,00 230,08 31/01/2020
839 398900 ERIC TEIXEIRA SILVA OFICIAL DO MP ATIVO UBERLÂNDIA - COMARCA; UBERLANDIA-PJ-SEC CIVEIS CRIMINAIS 7.823,48 1.564,70 0,00 0,00 0,00 0,00 9.388,18 1.065,27 1.428,40 0,00 2.493,67 6.894,51 1.550,00 1.350,03 31/01/2020
840 274200 ERICA DE SOUZA ANDRADE OFICIAL DO MP ATIVO CURVELO - COMARCA; CURVELO-PJ-03PJ 9.337,87 2.801,36 0,00 0,00 0,00 0,00 12.139,23 1.335,32 2.049,58 0,00 3.384,90 8.754,33 7.529,92 874,76 31/01/2020
841 225700 ERICA GOMES DO COUTO OFICIAL DO MP ATIVO BELO HORIZONTE - COMARCA; BH-21PJ TUTELA DAS FUNDACOES 12.065,98 3.619,79 0,00 0,00 0,00 0,00 15.685,77 1.779,83 2.969,73 0,00 4.749,56 10.936,21 2.319,39 2.419,90 31/01/2020
842 632600 ERICA LEONOR MARTINS OFICIAL DO MP ATIVO RESENDE COSTA - COMARCA; RESENDE COSTA-PJ-UNPJ 4.467,49 268,05 0,00 0,00 0,00 0,00 4.735,54 520,91 312,16 0,00 833,07 3.902,47 6.285,54 567,00 31/01/2020
843 524800 ERICA MACHADO DA COSTA E SOUZA ANALISTA DO MP ATIVO BELO HORIZONTE - COMARCA; PROC JUST RECURSOS ESP E EXTRAORD CRIMINAIS 9.337,87 933,79 0,00 0,00 0,00 0,00 10.271,66 1.188,00 1.773,93 0,00 2.961,93 7.309,73 7.791,56 2.250,09 31/01/2020
844 249500 ERICA RODRIGUES ANDRADE OFICIAL DO MP ATIVO SÃO FRANCISCO - COMARCA; SAO FRANCISCO-PJ-02PJ 8.214,70 2.464,41 0,00 0,00 0,00 0,00 10.679,11 1.174,70 1.692,22 0,00 2.866,92 7.812,19 7.928,37 1.286,28 31/01/2020
845 260800 ERICA VIANA GIARDINI DE OLIVEIRA OFICIAL DO MP ATIVO BELO HORIZONTE - COMARCA; DIRETORIA GESTAO COMPRAS LICITACOES 9.337,87 2.801,36 0,00 0,00 0,00 0,00 12.139,23 1.335,32 2.101,72 0,00 3.437,04 8.702,19 1.550,00 0,00 31/01/2020
846 299800 ERICH DOUGLAS RIBEIRO GARCIA ANALISTA DO MP ATIVO BELO HORIZONTE - COMARCA; CENTRAL DE APOIO TECNICO-SETOR CONTABIL 14.162,21 4.248,66 0,00 0,00 0,00 0,00 18.410,87 2.025,20 3.636,70 0,00 5.661,90 12.748,97 7.591,46 1.016,79 31/01/2020
847 365000 ERICK EDUARDO JOSE DA SILVA OFICIAL DO MP ATIVO SANTOS DUMONT - COMARCA; SANTOS DUMONT-PJ-02PJ 5.678,79 1.135,76 0,00 0,00 2.271,52 0,00 9.086,07 749,60 1.423,17 0,00 2.172,77 6.913,30 4.275,82 249,87 31/01/2020
848 227400 ERIKA DE LAET GOULART BOECHAT ASSESSOR/OFICIAL ATIVO BELO HORIZONTE - COMARCA; ASSESSORIA ESPECIAL DO PGJ 12.065,98 5.956,90 0,00 0,00 0,00 0,00 18.022,88 1.779,83 3.560,30 0,00 5.340,13 12.682,75 2.319,39 2.255,06 31/01/2020
849 285100 ERIKA FERREIRA DA SILVA OFICIAL DO MP ATIVO JUIZ DE FORA - COMARCA; JUIZ DE FORA-PJ-11PJ 9.337,87 2.801,36 0,00 0,00 0,00 0,00 12.139,23 1.335,32 2.101,72 0,00 3.437,04 8.702,19 7.529,92 874,76 31/01/2020
850 420100 ERIKA JEANINE VERSIANI DE CASTRO ANALISTA DO MP ATIVO BELO HORIZONTE - COMARCA; COORD ESTADUAL DE DEFESA DA EDUCACAO 11.685,57 2.337,11 0,00 0,00 0,00 0,00 14.022,68 1.542,49 2.562,69 0,00 4.105,18 9.917,50 7.318,22 907,62 31/01/2020
851 606900 ERIKA MARIA BARBOSA ANALISTA DO MP ATIVO BELO HORIZONTE - COMARCA; CAO-SAUDE 7.057,48 710,65 0,00 0,00 0,00 0,00 7.768,13 887,00 978,27 0,00 1.865,27 5.902,86 1.550,00 685,05 31/01/2020
852 491000 ERIKA ROCHA PEREIRA E SILVA COORDENADOR/ANALISTA ATIVO BELO HORIZONTE - COMARCA; DIR GOVERNANCA TECNOLOGIA INFORMACAO 0,00 1.245,88 12.458,83 0,00 0,00 0,00 13.704,71 1.129,88 2.588,72 0,00 3.718,60 9.986,11 7.031,88 502,51 31/01/2020
853 283201 ERIKA STEHLING COORDENADOR/ANALISTA ATIVO BELO HORIZONTE - COMARCA; CENTRAL DE APOIO TECNICO-SETOR DE ENGENHARIA 9.337,87 3.125,84 0,00 0,00 0,00 0,00 12.463,71 1.129,88 2.247,44 0,00 3.377,32 9.086,39 1.550,00 0,00 31/01/2020
854 254000 ERLANDIA DA SILVA MENDES OFICIAL DO MP ATIVO IPATINGA - COMARCA; IPATINGA-PJ-03PJ 11.317,16 4.526,86 0,00 0,00 0,00 0,00 15.844,02 1.902,57 2.852,05 0,00 4.754,62 11.089,40 7.718,51 7.628,22 31/01/2020
855 208600 ERNANE JOSE DA COSTA ANALISTA DO MP ATIVO BELO HORIZONTE - COMARCA; CENTRAL DE APOIO TECNICO-SETOR MEDICO 17.452,52 12.216,76 0,00 0,00 0,00 0,00 29.669,28 3.263,62 6.392,20 0,00 9.655,82 20.013,46 1.550,00 0,00 31/01/2020
856 260600 ERNANI CALDEIRA DE ANDRADE ANALISTA DO MP ATIVO BELO HORIZONTE - COMARCA; CENTRAL DE APOIO TECNICO-SETOR CONTABIL 17.452,52 5.235,76 0,00 0,00 0,00 0,00 22.688,28 2.495,71 5.091,96 0,00 7.587,67 15.100,61 1.550,00 3.681,45 31/01/2020
857 348500 ERNILANDIA DE OLIVEIRA DIAS OFICIAL DO MP ATIVO MONTES CLAROS - COMARCA; MONTES CLAROS-PJ-16PJ 7.955,66 1.591,13 0,00 0,00 3.182,26 0,00 12.729,05 1.131,70 2.342,34 0,00 3.474,04 9.255,01 7.693,24 4.152,84 31/01/2020
858 199300 ERTON PORTINARI DE ANDRADE OFICIAL DO MP ATIVO SETE LAGOAS - COMARCA; SETE LAGOAS-PJ-05PJ 13.283,29 5.313,32 0,00 0,00 0,00 0,00 18.596,61 2.233,10 3.577,89 0,00 5.810,99 12.785,62 7.978,10 8.884,87 31/01/2020
859 618800 ESLY DE CARLA AYALLA BARBOSA MENDES OFICIAL DO MP ATIVO NOVA LIMA - COMARCA; NOVA LIMA-PJ-SECRETARIA 4.467,49 446,75 0,00 0,00 0,00 0,00 4.914,24 540,57 347,95 0,00 888,52 4.025,72 1.550,00 386,28 31/01/2020
860 537000 ESTANISLAU CORREIA ALMEIDA JUNIOR OFICIAL DO MP ATIVO UBERLÂNDIA - COMARCA; UBERLANDIA-PJ-25PJ 4.995,72 499,57 0,00 0,00 0,00 0,00 5.495,29 604,48 475,61 0,00 1.080,09 4.415,20 1.550,00 154,19 31/01/2020
861 326900 ESTER ALICE PIMENTA OFICIAL DO MP ATIVO BELO HORIZONTE - COMARCA; COORD DE INCLUSAO E MOBILIZACAO SOCIAIS 8.758,36 1.751,67 0,00 0,00 0,00 0,00 10.510,03 1.192,55 1.650,83 0,00 2.843,38 7.666,65 1.709,06 1.621,51 31/01/2020
862 503700 ESTHER GONCALVES FONSECA ANALISTA DO MP ATIVO BELO HORIZONTE - COMARCA; DIRETORIA DE PUBLICIDADE INSTITUCIONAL 7.955,66 795,57 0,00 0,00 0,00 0,00 8.751,23 962,64 1.272,50 0,00 2.235,14 6.516,09 1.550,00 129,41 31/01/2020
863 475600 ETIENE DE FATIMA OLIVEIRA PEREIRA ANALISTA DO MP ATIVO PATROCÍNIO - COMARCA; PATROCINIO-PJ-04PJ 9.337,87 933,79 0,00 0,00 0,00 0,00 10.271,66 1.129,88 1.540,36 0,00 2.670,24 7.601,42 8.071,52 527,28 31/01/2020
864 428800 EUGENIA RODRIGUES TRAJANO BORGES ANALISTA DO MP ATIVO UBERABA - COMARCA; UBERABA-PJ-08PJ 11.317,16 2.263,43 0,00 0,00 0,00 0,00 13.580,59 1.493,86 2.454,49 0,00 3.948,35 9.632,24 8.027,46 1.943,45 31/01/2020
865 272700 EUGENIO DE BARCELOS FILHO OFICIAL DO MP ATIVO FRUTAL - COMARCA; FRUTAL-PJ-03PJ 7.955,66 2.386,70 0,00 0,00 0,00 0,00 10.342,36 1.226,01 1.609,80 0,00 2.835,81 7.506,55 1.550,00 3.662,36 31/01/2020
866 254100 EULALIA ALVES MIRANDA LUCAS OFICIAL DO MP ATIVO ALMENARA - COMARCA; ALMENARA-PJ-02PJ 10.279,98 3.083,99 0,00 0,00 0,00 0,00 13.363,97 1.470,04 2.297,20 0,00 3.767,24 9.596,73 7.581,82 1.054,40 31/01/2020
867 615500 EUNICE BARBOSA PINTO OFICIAL DO MP ATIVO OURO PRETO - COMARCA; OURO PRETO-PJ-04PJ 4.838,22 967,64 0,00 0,00 0,00 0,00 5.805,86 638,64 551,63 0,00 1.190,27 4.615,59 1.550,00 395,94 31/01/2020
868 641200 EUNICE ELVIRA DA SILVA MATOS OFICIAL DO MP ATIVO BELO HORIZONTE - COMARCA; BH-14PJ DEFESA CONSUMIDOR-SECRETARIA 4.058,04 243,48 0,00 0,00 0,00 0,00 4.301,52 473,17 225,25 0,00 698,42 3.603,10 1.550,00 120,68 31/01/2020
869 557900 EURIPEDES JOSUE PERES OFICIAL DO MP ATIVO IBIÁ - COMARCA; IBIA-PJ-UNPJ 4.612,94 461,29 0,00 0,00 0,00 0,00 5.074,23 558,17 379,98 0,00 938,15 4.136,08 6.784,23 607,54 31/01/2020
870 225800 EURO CESAR VIEIRA BARBOSA ANALISTA DO MP ATIVO BELO HORIZONTE - COMARCA; BH-17PJ PATRIMONIO PUBLICO 17.452,52 6.981,01 0,00 0,00 8.144,51 0,00 32.578,04 2.687,69 7.246,21 0,00 9.933,90 22.644,14 7.414,05 537,54 31/01/2020
871 199400 EUSTAQUIO ADAILTON LIMA E SILVA OFICIAL DO MP ATIVO MANGA - COMARCA; MANGA-PJ-01PJ 13.283,29 9.298,31 0,00 0,00 0,00 0,00 22.581,60 2.483,98 4.448,94 0,00 6.932,92 15.648,68 1.550,00 1.625,10 31/01/2020
872 548000 EVA VILMA LEAO REIS JULIO OFICIAL DO MP ATIVO BELO HORIZONTE - COMARCA; BH-07PJ 01 TRIBUNAL JURI-SECRETARIA 4.995,72 1.498,72 0,00 0,00 0,00 0,00 6.494,44 714,39 720,15 0,00 1.434,54 5.059,90 5.446,66 539,42 31/01/2020
873 517000 EVALDO SENA COSTA FILHO ANALISTA DO MP ATIVO CONTAGEM - COMARCA; CONTAGEM-PJ-15PJ 9.337,87 2.801,36 0,00 0,00 0,00 0,00 12.139,23 1.335,32 1.945,30 0,00 3.280,62 8.858,61 7.376,83 534,13 31/01/2020
874 217500 EVELANGE LEAO RABELO ASSESSOR ATIVO BELO HORIZONTE - COMARCA; COORD EST DEF DIR FAMILIA PESSOA DEFICI IDOSO 0,00 855,82 2.852,73 0,00 0,00 0,00 3.708,55 556,14 320,66 0,00 876,80 2.831,75 4.516,84 271,96 31/01/2020
875 540400 EVIE SARAMELLA DE RESENDE OFICIAL DO MP ATIVO BARBACENA - COMARCA; BARBACENA-PJ-05PJ 4.995,72 499,57 0,00 0,00 0,00 0,00 5.495,29 604,48 475,61 0,00 1.080,09 4.415,20 4.407,55 416,13 31/01/2020
876 469000 EWERTON CARDOSO DE SA RODRIGUES ANALISTA DO MP ATIVO CAMPO BELO - COMARCA; CAMPO BELO-PJ-01PJ 9.337,87 933,79 0,00 0,00 0,00 0,00 10.271,66 1.129,88 1.540,36 0,00 2.670,24 7.601,42 8.071,52 527,28 31/01/2020
877 368900 FABIANA BARBOSA SIQUEIRA OFICIAL DO MP ATIVO BELO HORIZONTE - COMARCA; CAO-ORDEM ECONOMICA E TRIBUTARIA-SECRETARIA 8.214,70 1.642,94 0,00 0,00 0,00 0,00 9.857,64 1.084,34 1.491,16 0,00 2.575,50 7.282,14 7.626,22 818,83 31/01/2020
878 273800 FABIANA CARNEIRO AMORIM COORDENADOR/OFICIAL ATIVO BELO HORIZONTE - COMARCA; BH-23PJ CIVEL-COORD ADM CIVEL 9.955,90 5.178,82 0,00 0,00 0,00 0,00 15.134,72 1.468,59 2.796,90 0,00 4.265,49 10.869,23 7.129,11 2.848,47 31/01/2020
879 519300 FABIANA DE OLIVEIRA LOUREIRO ANALISTA DO MP ATIVO BELO HORIZONTE - COMARCA; BH-09PJ AUDITORIA MILITAR 9.337,87 933,79 0,00 0,00 0,00 0,00 10.271,66 1.129,88 1.644,63 0,00 2.774,51 7.497,15 7.302,13 527,28 31/01/2020
880 363400 FABIANA DOURADO DUPIN VIEGAS ANALISTA DO MP ATIVO BELO HORIZONTE - COMARCA; GABINETE DE PROCURADOR DE JUSTIÇA - SALA 705 13.715,83 2.743,17 0,00 0,00 0,00 0,00 16.459,00 1.867,59 3.106,84 0,00 4.974,43 11.484,57 2.319,39 2.366,87 31/01/2020
881 410800 FABIANA DUARTE QUITITE ANALISTA DO MP ATIVO BELO HORIZONTE - COMARCA; EXTINTA-MEIO AMB PATRIM HIST CULTURAL-15PJGAB 11.685,57 2.337,11 0,00 0,00 4.674,23 0,00 18.696,91 1.701,16 4.201,13 0,00 5.902,29 12.794,62 1.709,15 1.856,10 31/01/2020
882 419500 FABIANA EULALIA DOS SANTOS ANALISTA DO MP ATIVO SÃO JOÃO DEL REI - COMARCA; SAO JOAO DEL REI-PJ-01PJ 11.685,57 2.337,11 0,00 0,00 0,00 0,00 14.022,68 1.591,12 2.562,69 0,00 4.153,81 9.868,87 7.318,22 2.632,38 31/01/2020
883 376300 FABIANA MATTOSO LEMOS ANALISTA DO MP ATIVO BELO HORIZONTE - COMARCA; BH-21PJ TUTELA FUNDACOES-SECRETARIA 12.065,98 2.413,20 0,00 0,00 0,00 0,00 14.479,18 1.592,71 2.674,42 0,00 4.267,13 10.212,05 1.550,00 406,28 31/01/2020
884 331500 FABIANA PACHECO OFICIAL DO MP ATIVO GUAXUPÉ - COMARCA; GUAXUPE-PJ-01PJ 8.482,22 1.696,44 0,00 0,00 0,00 0,00 10.178,66 1.154,96 1.517,59 0,00 2.672,55 7.506,11 8.173,53 2.093,36 31/01/2020
885 510700 FABIANA PEREIRA SANTOS BORGES ANALISTA DO MP ATIVO BELO HORIZONTE - COMARCA; DIRETORIA DE SISTEMAS DE INFORMACAO 9.337,87 933,79 0,00 0,00 0,00 0,00 10.271,66 1.129,88 1.592,49 0,00 2.722,37 7.549,29 2.319,39 0,00 31/01/2020
886 181700 FABIANA SOUZA FERREIRA OFICIAL DO MP ATIVO BELO HORIZONTE - COMARCA; BH-19PJ SAUDE-SECRETARIA 150PJ 5.678,79 2.271,52 0,00 0,00 0,00 0,00 7.950,31 999,47 1.163,25 0,00 2.162,72 5.787,59 1.550,00 1.325,05 31/01/2020
887 272900 FABIANA STOCKLER LEITE OFICIAL DO MP ATIVO LAJINHA - COMARCA; LAJINHA-PJ-SECRETARIA 9.337,87 4.668,94 0,00 0,00 0,00 0,00 14.006,81 1.586,09 2.454,53 0,00 4.040,62 9.966,19 8.148,40 2.530,47 31/01/2020
888 225500 FABIANE DE FATIMA PORTELLA ANALISTA DO MP ATIVO BELO HORIZONTE - COMARCA; BH-18PJ DIREITOS HUMANOS 17.452,52 5.235,76 0,00 0,00 0,00 0,00 22.688,28 2.495,71 4.683,60 0,00 7.179,31 15.508,97 1.550,00 0,00 31/01/2020
889 433800 FABIANE DINIZ MATTOS ANALISTA DO MP ATIVO BELO HORIZONTE - COMARCA; BH-23PJ INFRACIONAL-ASS JURIDICA 11.685,57 2.337,11 0,00 0,00 0,00 0,00 14.022,68 1.745,74 2.915,72 0,00 4.661,46 9.361,22 3.088,78 3.462,52 31/01/2020
890 455000 FABIANO CARVALHO DA SILVA ANALISTA DO MP ATIVO LAVRAS - COMARCA; COORD REG DO MA DA BACIA DO RIO GRANDE 9.337,87 933,79 0,00 0,00 0,00 0,00 10.271,66 1.129,88 1.644,63 0,00 2.774,51 7.497,15 7.302,13 527,28 31/01/2020
891 498800 FABIANO FURTADO PESSOA COELHO ANALISTA DO MP ATIVO BELO HORIZONTE - COMARCA; DIRETORIA DE REDES E BANCOS DE DADOS 9.337,87 933,79 0,00 0,00 0,00 0,00 10.271,66 1.129,88 1.592,49 0,00 2.722,37 7.549,29 1.550,00 0,00 31/01/2020
892 663000 FABIANO MARQUES CORREA ASSESSOR ATIVO BELO HORIZONTE - COMARCA; DIRETORIA DE SUPORTE E MANUTENCAO 0,00 0,00 4.763,08 0,00 0,00 0,00 4.763,08 644,94 565,63 0,00 1.210,57 3.552,51 1.550,00 0,00 31/01/2020
893 394600 FABIANO PALHARES SILVA ANALISTA DO MP ATIVO BELO HORIZONTE - COMARCA; CENTRAL DE APOIO TECN-SETOR DE MEIO AMBIENTE 12.065,98 2.413,20 0,00 0,00 0,00 0,00 14.479,18 1.642,92 2.622,28 0,00 4.265,20 10.213,98 1.550,00 2.081,59 31/01/2020
894 444400 FABIANO SARAIVA MEDEIROS ANALISTA DO MP ATIVO BETIM - COMARCA; BETIM-PJ-11PJ 11.317,16 2.263,43 0,00 0,00 4.526,86 0,00 18.107,45 1.619,36 3.595,10 0,00 5.214,46 12.892,99 8.294,85 6.130,55 31/01/2020
895 408700 FABIANO SOARES PORTILHO ANALISTA DO MP ATIVO VIÇOSA - COMARCA; VICOSA-PJ-02PJ 11.535,33 2.337,11 0,00 0,00 0,00 0,00 13.872,44 1.591,12 2.521,38 0,00 4.112,50 9.759,94 1.709,15 2.163,29 31/01/2020
896 442600 FABIO CARVALHO VIEIRA ANALISTA DO MP ATIVO MONTES CLAROS - COMARCA; MONTES CLAROS-PJ-06PJ 8.758,36 1.751,67 0,00 0,00 3.503,34 0,00 14.013,37 1.156,10 2.666,39 0,00 3.822,49 10.190,88 7.930,08 1.325,36 31/01/2020
897 240101 FABIO JUNQUEIRA DE ASSIS FONSECA OFICIAL DO MP ATIVO BELO HORIZONTE - COMARCA; BH-17PJ PATRIMONIO PUBLICO-SECRETARIA 7.337,85 1.467,57 0,00 0,00 2.935,14 0,00 11.740,56 1.057,36 2.092,93 0,00 3.150,29 8.590,27 8.021,85 4.497,45 31/01/2020
898 271500 FABIO LUIZ VIEIRA OFICIAL DO MP ATIVO SANTA VITÓRIA - COMARCA; SANTA VITORIA-PJ-UNPJ 9.337,87 2.801,36 0,00 0,00 0,00 0,00 12.139,23 1.335,32 1.997,44 0,00 3.332,76 8.806,47 7.708,31 1.204,62 31/01/2020
899 213100 FABIO PRATES GONCALVES ASSESSOR ATIVO BELO HORIZONTE - COMARCA; DIRETORIA DE RELACOES PUBLICAS E CERIMONIAL 0,00 3.856,78 9.641,94 0,00 0,00 0,00 13.498,72 671,12 2.804,32 0,00 3.475,44 10.023,28 2.319,39 0,00 31/01/2020
900 436700 FABIO SANTIAGO DE CARVALHO OFICIAL DO MP ATIVO POÇO FUNDO - COMARCA; POCO FUNDO-PJ-UNPJ 7.337,85 1.467,57 0,00 0,00 2.935,14 0,00 11.740,56 996,60 2.092,93 0,00 3.089,53 8.651,03 7.700,57 1.794,22 31/01/2020
901 208400 FABIOLA DE SOUSA CARDOSO ASSESSOR/ANALISTA ATIVO BELO HORIZONTE - COMARCA; ASSESS TECNICA DA CORREGEDORIA-GERAL DO MP 17.452,52 9.318,12 0,00 0,00 0,00 0,00 26.770,64 2.687,69 5.753,45 0,00 8.441,14 18.329,50 6.904,13 490,80 31/01/2020
902 392200 FABIOLA LEROY COSTA ANALISTA DO MP ATIVO ESMERALDAS - COMARCA; ESMERALDAS-PJ-01PJ 9.337,87 1.867,57 0,00 0,00 0,00 0,00 11.205,44 1.232,60 1.873,17 0,00 3.105,77 8.099,67 2.319,39 0,00 31/01/2020
903 409000 FABIOLA MONTEIRO DE CARVALHO CASTRO ANALISTA DO MP ATIVO BOM SUCESSO - COMARCA; BOM SUCESSO-PJ-UNPJ 9.955,90 1.991,18 0,00 0,00 0,00 0,00 11.947,08 1.314,18 2.054,69 0,00 3.368,87 8.578,21 1.550,00 460,89 31/01/2020
904 227900 FABIOLA PIMENTA DE CARVALHO OFICIAL DO MP ATIVO MONTES CLAROS - COMARCA; COORD REG BACIA RIOS VERDE GRANDE E PARDO 9.337,87 2.801,36 0,00 0,00 0,00 0,00 12.139,23 1.377,42 2.101,72 0,00 3.479,14 8.660,09 1.550,00 1.745,25 31/01/2020
905 525800 FABRICIA ALVES DANTAS OFICIAL DO MP ATIVO MONTES CLAROS - COMARCA; MONTES CLAROS-PJ-01PJ 6.251,74 625,17 0,00 0,00 2.292,30 0,00 9.169,21 780,31 1.339,87 0,00 2.120,18 7.049,03 7.491,37 1.590,40 31/01/2020
906 263400 FABRICIA PINTO TEIXEIRA SANTIAGO OFICIAL DO MP ATIVO BELO HORIZONTE - COMARCA; CAO-TS-TERCEIRO SETOR-SECRETARIA 11.317,16 3.395,15 0,00 0,00 0,00 0,00 14.712,31 1.766,67 2.627,20 0,00 4.393,87 10.318,44 1.550,00 6.148,38 31/01/2020
907 420800 FABRICIO BERNARDES DE OLIVEIRA OFICIAL DO MP ATIVO ITURAMA - COMARCA; ITURAMA-PJ-02PJ 7.337,85 1.467,57 0,00 0,00 2.935,14 0,00 11.740,56 999,14 2.040,79 0,00 3.039,93 8.700,63 7.729,63 1.886,83 31/01/2020
908 474000 FABRICIO DE FREITAS SALES ANALISTA DO MP ATIVO MONTES CLAROS - COMARCA; COORD REG PATRI PUB ORD TRIB-NORTE MINAS 9.337,87 933,79 0,00 0,00 0,00 0,00 10.271,66 1.129,88 1.644,63 0,00 2.774,51 7.497,15 7.302,13 527,28 31/01/2020
909 510100 FABRICIO FURTADO ASSIS DO CARMO ANALISTA DO MP ATIVO BELO HORIZONTE - COMARCA; SERVICO MEDICO-DEPTO PERIC MEDICA SAUDE OCUP 9.337,87 933,79 0,00 0,00 0,00 0,00 10.271,66 1.129,88 1.890,34 0,00 3.020,22 7.251,44 2.319,39 893,50 31/01/2020
910 519600 FABRICIO GONTIJO SALVATI ANALISTA DO MP ATIVO JUIZ DE FORA - COMARCA; JUIZ DE FORA-CAO ESPECIALIZADO-SECRETARIA 9.337,87 933,79 0,00 0,00 0,00 0,00 10.271,66 1.129,88 1.644,63 0,00 2.774,51 7.497,15 1.550,00 0,00 31/01/2020
911 637400 FABRICIO HENRIQUE DA SILVA PASSOS ASSESSOR/ANALISTA ATIVO BELO HORIZONTE - COMARCA; DIRETORIA DE PUBLICIDADE INSTITUCIONAL 0,00 578,52 9.641,94 0,00 0,00 0,00 10.220,46 912,98 1.690,20 0,00 2.603,18 7.617,28 1.550,00 0,00 31/01/2020
912 428200 FABRICIO ORZIL VIANA ANALISTA DO MP ATIVO SANTA LUZIA - COMARCA; SANTA LUZIA-PJ-04PJ 9.337,87 1.867,57 0,00 0,00 0,00 0,00 11.205,44 1.232,60 1.873,17 0,00 3.105,77 8.099,67 7.376,83 534,13 31/01/2020
913 455600 FABRICIO PAIVA DA ROCHA ANALISTA DO MP ATIVO SÃO JOÃO DEL REI - COMARCA; SAO JOAO DEL REI-PJ-06PJ 9.337,87 933,79 0,00 0,00 0,00 0,00 10.271,66 1.129,88 1.592,49 0,00 2.722,37 7.549,29 6.428,05 376,63 31/01/2020
914 511500 FABRICIO RENE CARDOSO DE PADUA ANALISTA DO MP ATIVO SÃO SEBASTIÃO DO PARAÍSO - COMARCA; SAO SEBASTIAO DO PARAISO-PJ-03PJ 9.337,87 933,79 0,00 0,00 0,00 0,00 10.271,66 1.129,88 1.644,63 0,00 2.774,51 7.497,15 1.550,00 0,00 31/01/2020
915 496100 FABRICIO RESENDE GONCALVES OFICIAL DO MP ATIVO ENTRE-RIOS DE MINAS - COMARCA; ENTRE RIOS DE MINAS-PJ-UNPJ 6.251,74 625,17 0,00 0,00 0,00 0,00 6.876,91 780,31 813,76 0,00 1.594,07 5.282,84 6.575,62 1.366,84 31/01/2020
916 650300 FABRICIO ROBERTO AZEVEDO OFICIAL DO MP ATIVO NOVA SERRANA - COMARCA; NOVA SERRANA-PJ-04PJ 3.930,12 235,81 0,00 0,00 0,00 0,00 4.165,93 497,87 201,35 0,00 699,22 3.466,71 1.550,00 1.762,63 31/01/2020
917 514900 FADUA MARIA DRUMOND CHEQUER ANALISTA DO MP ATIVO CONTAGEM - COMARCA; CONTAGEM-PJ-01PJ 9.337,87 933,79 0,00 0,00 0,00 0,00 10.271,66 1.129,88 1.540,36 0,00 2.670,24 7.601,42 8.840,91 527,28 31/01/2020
918 282500 FANNY FERREIRA MELO FAVERO DE FRAVET OFICIAL DO MP ATIVO ARAXÁ - COMARCA; ARAXA-PJ-03PJ 7.823,48 2.347,04 0,00 0,00 0,00 0,00 10.170,52 1.118,76 2.005,23 0,00 3.123,99 7.046,53 5.618,21 1.774,20 31/01/2020
919 540100 FATIMA CRISTINA POVOA DA COSTA ASSESSOR/OFICIAL ATIVO BELO HORIZONTE - COMARCA; BH-18PJ VIOLENCIA DOMESTICA-SECRETARIA 0,00 2.892,58 9.641,94 0,00 0,00 736,91 13.271,43 736,91 2.577,63 0,00 3.314,54 9.956,89 7.065,19 505,56 31/01/2020
920 382800 FATIMA DE OLIVEIRA COELHO E SILVA OFICIAL DO MP ATIVO BELO HORIZONTE - COMARCA; DIRETORIA DE ADMINISTRACAO FINANCEIRA 6.054,65 1.816,40 0,00 0,00 0,00 0,00 7.871,05 865,82 1.004,94 0,00 1.870,76 6.000,29 7.690,86 769,27 31/01/2020
921 398601 FELIPE ANTONIO HORTA DE PAULA ANALISTA DO MP ATIVO BELO HORIZONTE - COMARCA; PROC. JUSTICA DIR. DIFUSOS E COLETIVOS-SEC 7.823,48 782,35 0,00 0,00 0,00 0,00 8.605,83 946,64 1.236,92 0,00 2.183,56 6.422,27 1.550,00 241,54 31/01/2020
922 430900 FELIPE BOY VIEIRA ANALISTA DO MP ATIVO BELO HORIZONTE - COMARCA; DIRETORIA DE SEGURANCA 10.279,98 2.056,00 0,00 0,00 0,00 0,00 12.335,98 1.356,96 2.149,87 0,00 3.506,83 8.829,15 7.599,61 860,06 31/01/2020
923 631700 FELIPE DE MORAIS SIMOES COELHO ANALISTA DO MP ATIVO BELO HORIZONTE - COMARCA; BH-18PJ VIOLENCIA DOMESTICA 6.882,47 688,25 0,00 0,00 0,00 0,00 7.570,72 906,32 983,57 0,00 1.889,89 5.680,83 1.550,00 2.453,65 31/01/2020
924 549100 FELIPE FERNANDES ALVIM ANALISTA DO MP ATIVO LAJINHA - COMARCA; LAJINHA-PJ-UNPJ 7.823,48 782,35 0,00 0,00 0,00 0,00 8.605,83 946,64 1.236,92 0,00 2.183,56 6.422,27 7.564,79 777,97 31/01/2020
925 487300 FELIPE FERNANDES SILVEIRA ASSESSOR ATIVO BELO HORIZONTE - COMARCA; DIVISAO DE MANUTENCAO PREDIAL 0,00 0,00 2.852,73 0,00 0,00 0,00 2.852,73 434,80 172,89 0,00 607,69 2.245,04 1.550,00 0,00 31/01/2020
926 620100 FELIPE GOMES DE AZEVEDO ASSESSOR/OFICIAL ATIVO BELO HORIZONTE - COMARCA; DIVISAO DE SERVICOS 0,00 757,68 7.576,76 0,00 0,00 0,00 8.334,44 540,57 1.273,95 0,00 1.814,52 6.519,92 1.550,00 386,28 31/01/2020
927 601600 FELIPE RODRIGUES DE SIQUEIRA ANALISTA DO MP ATIVO BELO HORIZONTE - COMARCA; BH-02PJ FAMILIA 7.823,48 782,35 0,00 0,00 0,00 0,00 8.605,83 995,33 1.345,25 0,00 2.340,58 6.265,25 7.564,79 1.233,01 31/01/2020
928 628900 FELIX FERNANDO JUNIO VIEIRA ANALISTA DO MP ATIVO CAETÉ - COMARCA; CAETE-PJ-02PJ 7.576,76 757,68 0,00 0,00 0,00 0,00 8.334,44 916,79 1.118,36 0,00 2.035,15 6.299,29 4.883,78 960,60 31/01/2020
929 544500 FELLIPE LEMOS MARCONDES BUENO ANALISTA DO MP ATIVO SÃO SEBASTIÃO DO PARAÍSO - COMARCA; SAO SEBASTIAO DO PARAISO-PJ-04PJ 7.823,48 782,35 0,00 0,00 0,00 0,00 8.605,83 946,64 1.236,92 0,00 2.183,56 6.422,27 5.155,16 557,09 31/01/2020
930 612600 FERNANDA ADRIANA DE PAULA GUIDO ANALISTA DO MP ATIVO PARACATU - COMARCA; PARACATU-PJ-02PJ 7.576,76 757,68 0,00 0,00 0,00 0,00 8.334,44 916,79 1.170,49 0,00 2.087,28 6.247,16 7.986,81 1.183,77 31/01/2020
931 508400 FERNANDA AGANETTI MATTOS DE OLIVEIRA ANALISTA DO MP ATIVO BELO HORIZONTE - COMARCA; BH-07PJ 02 TRIBUNAL DO JURI 9.337,87 933,79 0,00 0,00 0,00 0,00 10.271,66 1.129,88 1.644,63 0,00 2.774,51 7.497,15 2.319,39 0,00 31/01/2020
932 453600 FERNANDA ALBERNAZ RABELO ANALISTA DO MP ATIVO BELO HORIZONTE - COMARCA; GABINETE DE PROCURADOR DE JUSTIÇA - SALA 616 9.337,87 933,79 0,00 0,00 0,00 0,00 10.271,66 1.129,88 1.644,63 0,00 2.774,51 7.497,15 1.550,00 0,00 31/01/2020
933 255600 FERNANDA ALINA DE ALMEIDA ANDRADE OFICIAL DO MP ATIVO BELO HORIZONTE - COMARCA; LABORATORIO TECNOLOGIA INTELIGENCIA 8.482,22 2.544,67 0,00 0,00 0,00 0,00 11.026,89 1.212,96 1.829,47 0,00 3.042,43 7.984,46 1.550,00 425,45 31/01/2020
934 443200 FERNANDA ALMEIDA LOPES ANALISTA DO MP ATIVO CONTAGEM - COMARCA; CONTAGEM-PJ-23PJ 11.317,16 2.263,43 0,00 0,00 4.526,86 0,00 18.107,45 1.493,86 3.595,10 0,00 5.088,96 13.018,49 3.590,78 1.015,40 31/01/2020
935 281100 FERNANDA ANANIAS MEIRA ANALISTA DO MP ATIVO BELO HORIZONTE - COMARCA; BH-23PJ INFRACIONAL-ASS JURIDICA 13.894,81 4.248,66 0,00 0,00 0,00 0,00 18.143,47 2.025,20 3.563,16 0,00 5.588,36 12.555,11 1.550,00 508,13 31/01/2020
936 539000 FERNANDA BARBOSA ALVES ANALISTA DO MP ATIVO UBERABA - COMARCA; UBERABA-PJ-04PJ 7.823,48 782,35 0,00 0,00 0,00 0,00 8.605,83 946,64 1.236,92 0,00 2.183,56 6.422,27 2.319,39 241,54 31/01/2020
937 451200 FERNANDA BLOISE PRADO OFICIAL DO MP ATIVO BELO HORIZONTE - COMARCA; DIVISAO DE MATERIAIS 6.882,47 688,25 0,00 0,00 0,00 0,00 7.570,72 859,04 983,57 0,00 1.842,61 5.728,11 1.550,00 1.168,38 31/01/2020
938 427900 FERNANDA BRAGA CARNEIRO BICALHO ANALISTA DO MP ATIVO PEÇANHA - COMARCA; PECANHA-PJ-SECRETARIA 9.337,87 1.867,57 0,00 0,00 0,00 0,00 11.205,44 1.232,60 1.821,03 0,00 3.053,63 8.151,81 2.319,39 0,00 31/01/2020
939 507100 FERNANDA CABRINI VAZ MOTA ANALISTA DO MP ATIVO BELO HORIZONTE - COMARCA; BH-14PJ DEFESA CONSUMIDOR-GAB 005PJ 9.337,87 933,79 0,00 0,00 0,00 0,00 10.271,66 1.129,88 1.644,63 0,00 2.774,51 7.497,15 8.071,52 527,28 31/01/2020
940 259800 FERNANDA CALZAVARA DE SOUSA COORDENADOR/OFICIAL ATIVO BELO HORIZONTE - COMARCA; DIRET DE FORMACAO, APERFEIC. E POS-GRADUACAO 0,00 3.737,65 12.458,83 0,00 0,00 0,00 16.196,48 2.211,63 2.924,34 0,00 5.135,97 11.060,51 2.171,07 0,00 31/01/2020
941 494400 FERNANDA CAMPOS BARATA OFICIAL DO MP ATIVO JUIZ DE FORA - COMARCA; JUIZ DE FORA-PJ-08PJ 5.158,42 515,84 0,00 0,00 0,00 0,00 5.674,26 624,17 519,41 0,00 1.143,58 4.530,68 1.550,00 218,94 31/01/2020
942 555600 FERNANDA CAROLINE RIBEIRO ASSESSOR/ANALISTA ATIVO BELO HORIZONTE - COMARCA; DIRETORIA GESTAO CONTRATOS CONVENIOS 0,00 964,19 9.641,94 0,00 0,00 0,00 10.606,13 976,49 1.778,79 0,00 2.755,28 7.850,85 7.489,43 544,45 31/01/2020
943 294500 FERNANDA COSTA FLORES OFICIAL DO MP ATIVO PARÁ DE MINAS - COMARCA; PARA DE MINAS-PJ-04PJ 9.337,87 2.801,36 0,00 0,00 0,00 0,00 12.139,23 1.335,32 2.101,72 0,00 3.437,04 8.702,19 7.545,23 848,56 31/01/2020
944 344500 FERNANDA CRISTINA DE SOUZA PAZ ASSESSOR ATIVO BELO HORIZONTE - COMARCA; CENTRAL DE APOIO TECN-SETOR DE MEIO AMBIENTE 0,00 0,00 4.763,08 0,00 0,00 0,00 4.763,08 644,94 461,35 0,00 1.106,29 3.656,79 1.550,00 0,00 31/01/2020
945 538100 FERNANDA CRISTINA DOS SANTOS ROSA MOREIRA OFICIAL DO MP ATIVO RIBEIRÃO DAS NEVES - COMARCA; RIBEIRAO DAS NEVES-PJ-09PJ 4.995,72 1.498,72 0,00 0,00 0,00 0,00 6.494,44 714,39 720,15 0,00 1.434,54 5.059,90 1.550,00 182,23 31/01/2020
946 337800 FERNANDA CRISTINA ROLAND CLIMACO MENDES COORDENADOR/OFICIAL ATIVO BELO HORIZONTE - COMARCA; DIRETORIA DE PAGAMENTO DE PESSOAL-DPAG 0,00 2.491,77 12.458,83 0,00 0,00 0,00 14.950,60 1.596,58 2.803,00 0,00 4.399,58 10.551,02 7.530,24 506,75 31/01/2020
947 545400 FERNANDA CUNHA GUIMARAES ANALISTA DO MP ATIVO BELO HORIZONTE - COMARCA; COORD EST DEF DIR FAMILIA PESSOA DEFICI IDOSO 7.823,48 782,35 0,00 0,00 0,00 0,00 8.605,83 946,64 1.236,92 0,00 2.183,56 6.422,27 7.401,96 777,97 31/01/2020
948 429801 FERNANDA CUNHA PINHEIRO DA SILVA ANALISTA DO MP ATIVO BELO HORIZONTE - COMARCA; SUPERINTENDENCIA DE COMUNICACAO INTEGRADA 9.337,87 933,79 0,00 0,00 0,00 0,00 10.271,66 1.129,88 1.592,49 0,00 2.722,37 7.549,29 1.550,00 0,00 31/01/2020
949 408000 FERNANDA DAS NEVES RAMOS ANALISTA DO MP ATIVO BELO HORIZONTE - COMARCA; CENTRAL DE APOIO TECNICO-SETOR CONTABIL 11.685,57 2.337,11 0,00 0,00 0,00 0,00 14.022,68 1.591,12 2.562,69 0,00 4.153,81 9.868,87 8.087,61 2.677,45 31/01/2020
950 496000 FERNANDA DE ALMEIDA VIANA ANALISTA DO MP ATIVO BELO HORIZONTE - COMARCA; PROC JUST RECURSOS ESP E EXTRAORD CRIMINAIS 9.337,87 933,79 0,00 0,00 0,00 0,00 10.271,66 1.129,88 1.592,49 0,00 2.722,37 7.549,29 8.071,52 527,28 31/01/2020
951 266700 FERNANDA DE CASTRO LUCAS COORDENADOR/OFICIAL ATIVO BELO HORIZONTE - COMARCA; DIRET DE DESENV DE RECURSOS HUMANOS-DDRH 11.317,16 5.886,92 0,00 0,00 0,00 0,00 17.204,08 2.025,83 3.283,00 0,00 5.308,83 11.895,25 8.832,30 6.725,62 31/01/2020
952 433200 FERNANDA DE FIGUEIREDO NORTE ANALISTA DO MP ATIVO BELO HORIZONTE - COMARCA; ASSESS JUR DO CONS SUPERIOR DO MINISTERIO PUB 11.685,57 2.337,11 0,00 0,00 0,00 0,00 14.022,68 1.587,07 2.458,42 0,00 4.045,49 9.977,19 2.481,49 1.847,94 31/01/2020
953 419200 FERNANDA DE MIRANDA MARTINS SIMOES ANALISTA DO MP ATIVO UBERLÂNDIA - COMARCA; UBERLANDIA-PJ-11PJ 11.685,57 2.337,11 0,00 0,00 0,00 0,00 14.022,68 1.542,49 2.562,69 0,00 4.105,18 9.917,50 8.087,61 1.054,98 31/01/2020
954 441400 FERNANDA DE MORAIS PINTO ANALISTA DO MP ATIVO BELO HORIZONTE - COMARCA; PROC. JUSTICA DIR. DIFUSOS E COLETIVOS-SEC 11.317,16 2.263,43 0,00 0,00 0,00 0,00 13.580,59 1.619,36 2.454,49 0,00 4.073,85 9.506,74 1.550,00 5.202,50 31/01/2020
955 432200 FERNANDA DE MOURA GUIMARAES ANALISTA DO MP ATIVO BELO HORIZONTE - COMARCA; ASSESS TECNICO-JUR JUNTO AS PROC. DE JUST 11.317,16 2.263,43 0,00 0,00 0,00 0,00 13.580,59 1.493,86 2.454,49 0,00 3.948,35 9.632,24 8.796,85 1.563,15 31/01/2020
956 461800 FERNANDA DE OLIVEIRA SANTOS ANALISTA DO MP ATIVO JUIZ DE FORA - COMARCA; JUIZ DE FORA-PJ-21PJ 9.337,87 933,79 0,00 0,00 3.423,89 0,00 13.695,55 1.129,88 2.586,20 0,00 3.716,08 9.979,47 8.840,91 527,28 31/01/2020
957 432500 FERNANDA DE PAULA PINTO ANALISTA DO MP ATIVO BELO HORIZONTE - COMARCA; PROC JUST RECURSOS ESP E EXTRAORD CRIMINAIS 11.317,16 2.263,43 0,00 0,00 0,00 0,00 13.580,59 1.619,36 2.454,49 0,00 4.073,85 9.506,74 8.027,46 6.130,55 31/01/2020
958 431600 FERNANDA DIAS BARBOSA PEREIRA ANALISTA DO MP ATIVO OURO BRANCO - COMARCA; OURO BRANCO-PJ-UNPJ 11.317,16 2.263,43 0,00 0,00 0,00 0,00 13.580,59 1.493,86 2.350,22 0,00 3.844,08 9.736,51 2.319,39 1.015,40 31/01/2020
959 162200 FERNANDA FERNANDES MONTEIRO ASSESSOR ATIVO BELO HORIZONTE - COMARCA; BH-12PJ JUIZO CRIMINAL-SECRETARIA 0,00 1.905,23 4.763,08 0,00 0,00 0,00 6.668,31 671,12 1.030,23 0,00 1.701,35 4.966,96 7.418,11 537,91 31/01/2020
960 512800 FERNANDA FERREIRA BARBOSA MOREIRA ANALISTA DO MP ATIVO IPATINGA - COMARCA; IPATINGA-PJ-01PJ 9.337,87 933,79 0,00 0,00 0,00 0,00 10.271,66 1.129,88 1.644,63 0,00 2.774,51 7.497,15 2.319,39 0,00 31/01/2020
961 329200 FERNANDA GABRIEL GUZELLA OFICIAL DO MP ATIVO BELO HORIZONTE - COMARCA; DIRET DE PLANOS PROJETOS E PROGRAMAS INST 8.758,36 1.751,67 0,00 0,00 3.503,34 0,00 14.013,37 1.156,10 2.666,39 0,00 3.822,49 10.190,88 1.550,00 857,28 31/01/2020
962 324200 FERNANDA GEORGIA NEVES ZAHAN OFICIAL DO MP ATIVO IPANEMA - COMARCA; IPANEMA-PJ-SECRETARIA 7.823,48 5.476,44 0,00 0,00 0,00 0,00 13.299,92 1.462,99 2.385,80 0,00 3.848,79 9.451,13 1.550,00 1.084,81 31/01/2020
963 548200 FERNANDA GONCALVES DE CARVALHO ZUZA OFICIAL DO MP ATIVO TUPACIGUARA - COMARCA; TUPACIGUARA-PJ-UNPJ 4.612,94 461,29 0,00 0,00 0,00 0,00 5.074,23 558,17 379,98 0,00 938,15 4.136,08 6.784,23 607,54 31/01/2020
964 355400 FERNANDA HELENA BASQUES OFICIAL DO MP ATIVO SABARÁ - COMARCA; SABARA-PJ-01PJ 8.214,70 1.642,94 0,00 0,00 0,00 0,00 9.857,64 1.084,34 1.543,30 0,00 2.627,64 7.230,00 7.626,22 922,45 31/01/2020
965 454800 FERNANDA IATAROLA BARBOSA DIAS ANALISTA DO MP ATIVO BARBACENA - COMARCA; BARBACENA-PJ-05PJ 9.641,94 964,19 0,00 0,00 0,00 0,00 10.606,13 1.166,67 1.674,35 0,00 2.841,02 7.765,11 7.489,43 544,45 31/01/2020
966 515500 FERNANDA LILIANE MARUGEIRO ANALISTA DO MP ATIVO BELO HORIZONTE - COMARCA; BH-18PJ VIOLENCIA DOMESTICA-SECRETARIA 9.337,87 933,79 0,00 0,00 0,00 0,00 10.271,66 1.129,88 1.592,49 0,00 2.722,37 7.549,29 2.319,39 0,00 31/01/2020
967 392900 FERNANDA MAGALHAES SILVA ANALISTA DO MP ATIVO BELO HORIZONTE - COMARCA; DIRETORIA DE IMPRENSA 12.065,98 2.413,20 0,00 0,00 0,00 0,00 14.479,18 1.592,71 2.661,41 0,00 4.254,12 10.225,06 1.550,00 358,99 31/01/2020
968 409200 FERNANDA MAIA SANTIAGO CARDOSO ANALISTA DO MP ATIVO PIRAPORA - COMARCA; PIRAPORA-PJ-02PJ 9.337,87 1.867,57 0,00 0,00 0,00 0,00 11.205,44 1.271,46 1.873,17 0,00 3.144,63 8.060,81 3.088,78 1.611,00 31/01/2020
969 556500 FERNANDA OTERO COSTA ANALISTA DO MP ATIVO BELO HORIZONTE - COMARCA; ASSESS TECNICO-JUR JUNTO AS PROC. DE JUST 8.482,22 848,22 0,00 0,00 0,00 0,00 9.330,44 1.026,35 1.414,26 0,00 2.440,61 6.889,83 7.686,27 809,29 31/01/2020
970 615300 FERNANDA PATRICIA RIBEIRO MOTA OFICIAL DO MP ATIVO UBERABA - COMARCA; UBERABA-PJ-05PJ 4.467,49 446,75 0,00 0,00 0,00 0,00 4.914,24 540,57 347,95 0,00 888,52 4.025,72 1.550,00 386,28 31/01/2020
971 619800 FERNANDA PINTO PEREIRA ANALISTA DO MP ATIVO UBERLÂNDIA - COMARCA; UBERLANDIA-PJ-20PJ 7.576,76 757,68 0,00 0,00 2.778,15 0,00 11.112,59 916,79 1.882,35 0,00 2.799,14 8.313,45 2.319,39 900,32 31/01/2020
972 412900 FERNANDA PORTELA ROSA ANALISTA DO MP ATIVO BELO HORIZONTE - COMARCA; BH-08PJ JUIZADO ESPECIAL-SECRETARIA 11.685,57 2.337,11 0,00 0,00 0,00 0,00 14.022,68 1.621,83 2.739,20 0,00 4.361,03 9.661,65 8.087,61 1.649,06 31/01/2020
973 274301 FERNANDA QUEIROZ PARREIRA ANALISTA DO MP ATIVO PATOS DE MINAS - COMARCA; COORD REG PJ DEF EDU DIR CRI ADO AL PAR NOROE 6.256,37 933,79 0,00 0,00 0,00 0,00 7.190,16 1.129,88 797,22 0,00 1.927,10 5.263,06 1.550,00 0,00 31/01/2020
974 467900 FERNANDA QUEIROZ SIMOES GANNAM ANALISTA DO MP ATIVO SÃO LOURENÇO - COMARCA; SAO LOURENCO-PJ-02PJ 9.337,87 933,79 0,00 0,00 0,00 0,00 10.271,66 1.129,88 1.592,49 0,00 2.722,37 7.549,29 2.319,39 0,00 31/01/2020
975 255500 FERNANDA SIMOES LOPES MENDES ANALISTA DO MP ATIVO BELO HORIZONTE - COMARCA; BH-17PJ PATRIMONIO PUBLICO-SECRETARIA 16.148,50 4.844,55 0,00 0,00 0,00 0,00 20.993,05 2.309,24 4.164,41 0,00 6.473,65 14.519,40 1.550,00 711,47 31/01/2020
976 481700 FERNANDA VIANA FROES DA SILVA OFICIAL DO MP ATIVO GOVERNADOR VALADARES - COMARCA; GOVERNADOR VALADARES-PJ-09PJ 6.882,47 688,25 0,00 0,00 0,00 0,00 7.570,72 832,78 983,57 0,00 1.816,35 5.754,37 1.550,00 617,48 31/01/2020
977 123900 FERNANDO ANTONIO FARIA DE ABREU DIRETOR/ANALISTA ATIVO BELO HORIZONTE - COMARCA; SUPERINTENDÊNCIA DE ENGENHARIA E ARQUITETURA 24.547,70 26.614,51 0,00 0,00 11.820,74 3.900,84 66.883,79 3.900,84 12.133,45 15.699,99 31.734,28 35.149,51 7.223,95 520,11 31/01/2020
978 416900 FERNANDO APARECIDO DA SILVA ANALISTA DO MP ATIVO BOM DESPACHO - COMARCA; BOM DESPACHO-PJ-02PJ 11.317,16 7.922,02 0,00 0,00 0,00 0,00 19.239,18 2.116,31 3.735,15 0,00 5.851,46 13.387,72 7.434,82 1.878,45 31/01/2020
979 380500 FERNANDO BONES COSTA OFICIAL DO MP ATIVO BELO HORIZONTE - COMARCA; DIVISAO DE MATERIAIS 5.678,79 1.135,76 0,00 0,00 0,00 0,00 6.814,55 749,60 798,50 0,00 1.548,10 5.266,45 1.550,00 0,00 31/01/2020
980 500100 FERNANDO CEZAR PINTO OFICIAL DO MP ATIVO SANTA LUZIA - COMARCA; SANTA LUZIA-PJ-04PJ 6.882,47 688,25 0,00 0,00 0,00 0,00 7.570,72 1.138,06 847,48 0,00 1.985,54 5.585,18 7.303,75 451,11 31/01/2020
981 346100 FERNANDO EUSTAQUIO CAMPOS UTSCH MOREIRA ANALISTA DO MP ATIVO BELO HORIZONTE - COMARCA; DIRETORIA DE SISTEMAS DE INFORMACAO 13.715,83 2.743,17 0,00 0,00 0,00 0,00 16.459,00 1.810,49 3.054,71 0,00 4.865,20 11.593,80 7.620,57 1.005,10 31/01/2020
982 103500 FERNANDO LUIZ DA SILVA JUNIOR OFICIAL DO MP ATIVO BELO HORIZONTE - COMARCA; DIVISAO DE ATENDIMENTO E CONSULTA JURIDICA 17.452,52 8.726,26 0,00 0,00 0,00 0,00 26.178,78 2.879,67 5.537,90 0,00 8.417,57 17.761,21 1.550,00 0,00 31/01/2020
983 287300 FERNANDO MARCIO ALVES MARTINS OFICIAL DO MP ATIVO LEOPOLDINA - COMARCA; LEOPOLDINA-PJ-01PJ 7.337,85 2.201,36 0,00 0,00 0,00 0,00 9.539,21 1.082,39 1.308,95 0,00 2.391,34 7.147,87 7.429,93 1.996,42 31/01/2020
984 262200 FERNANDO MARCIO RESENDE PEREIRA OFICIAL DO MP ATIVO BELO HORIZONTE - COMARCA; DIR ESTRUTURA E PROCESSOS ORGANIZACIONAIS 9.337,87 2.801,36 0,00 0,00 0,00 1.335,32 13.474,55 1.335,32 2.468,93 0,00 3.804,25 9.670,30 1.550,00 753,36 31/01/2020
985 472900 FERNANDO RODRIGUES DE FREITAS ANALISTA DO MP ATIVO BELO HORIZONTE - COMARCA; BH-15PJ M AMB PAT HIST CULT-ASS TECNICA 9.337,87 933,79 0,00 0,00 0,00 0,00 10.271,66 1.129,88 1.644,63 0,00 2.774,51 7.497,15 1.550,00 0,00 31/01/2020
986 421400 FERNANDO TEODORO MACIEL ANALISTA DO MP ATIVO SANTA VITÓRIA - COMARCA; SANTA VITORIA-PJ-UNPJ 9.955,90 1.991,18 0,00 0,00 0,00 0,00 11.947,08 1.314,18 1.950,41 0,00 3.264,59 8.682,49 8.219,76 860,98 31/01/2020
987 446300 FERNANDO VITOR DE OLIVEIRA ANALISTA DO MP ATIVO MONTES CLAROS - COMARCA; COORD REG BACIA RIOS VERDE GRANDE E PARDO 11.317,16 2.263,43 0,00 0,00 4.526,86 0,00 18.107,45 1.493,86 3.699,38 0,00 5.193,24 12.914,21 8.027,46 1.943,45 31/01/2020
988 639300 FILIPE ALMEIDA RODRIGUES ANALISTA DO MP ATIVO TIMÓTEO - COMARCA; TIMOTEO-PJ-04PJ 6.882,47 412,95 0,00 0,00 0,00 0,00 7.295,42 802,50 916,19 0,00 1.718,69 5.576,73 4.633,83 472,27 31/01/2020
989 398400 FLAVIA ALVARES GUIMARAES COORDENADOR/OFICIAL ATIVO BELO HORIZONTE - COMARCA; CGMP-DIVIS DE APOIO FISC ORIENTACAO FUNCIONAL 0,00 2.192,05 10.960,26 0,00 0,00 0,00 13.152,31 1.162,98 2.375,57 0,00 3.538,55 9.613,76 7.337,02 497,91 31/01/2020
990 398200 FLAVIA ALVES DE ASSUNCAO RODRIGUES ANALISTA DO MP ATIVO DIVINÓPOLIS - COMARCA; COORD REG DO MA DA BACIA DO ALTO SAO FRANC 11.317,16 2.263,43 0,00 0,00 0,00 0,00 13.580,59 1.493,86 2.402,35 0,00 3.896,21 9.684,38 8.792,70 1.655,46 31/01/2020
991 318500 FLAVIA BEATRIZ NUNES CRUZ VIEIRA ANALISTA DO MP ATIVO BARBACENA - COMARCA; BARBACENA-PJ-SECRETARIA 14.162,21 4.248,66 0,00 0,00 0,00 0,00 18.410,87 2.084,12 3.532,42 0,00 5.616,54 12.794,33 2.319,39 2.442,61 31/01/2020
992 496500 FLAVIA CARAM BORLIDO ANALISTA DO MP ATIVO BELO HORIZONTE - COMARCA; DIRETORIA GESTAO CONTRATOS CONVENIOS 10.279,98 1.028,00 0,00 0,00 0,00 0,00 11.307,98 1.283,09 1.898,27 0,00 3.181,36 8.126,62 1.550,00 1.625,59 31/01/2020
993 534800 FLAVIA CONDE SOARES ANALISTA DO MP ATIVO BELO HORIZONTE - COMARCA; BH-13PJ JUÍZO DE TÓXICOS-ASSESSORIA JURIDICA 7.823,48 782,35 0,00 0,00 0,00 0,00 8.605,83 946,64 1.236,92 0,00 2.183,56 6.422,27 1.550,00 241,54 31/01/2020
994 219500 FLAVIA CRISTINA ANCELMO OFICIAL DO MP ATIVO BELO HORIZONTE - COMARCA; CAO-DIREITOS HUMANOS E APOIO COMUNITARIO 9.337,87 2.801,36 0,00 0,00 0,00 0,00 12.139,23 1.418,19 2.101,72 0,00 3.519,91 8.619,32 1.550,00 3.686,44 31/01/2020
995 329600 FLAVIA CRISTINA DE MATOS XAVIER ANALISTA DO MP ATIVO UBERABA - COMARCA; UBERABA-PJ-15PJ 14.162,21 4.248,66 0,00 0,00 0,00 0,00 18.410,87 2.089,03 3.532,42 0,00 5.621,45 12.789,42 7.603,96 3.379,60 31/01/2020
996 207600 FLAVIA DE ANDRADE MANCINI ANALISTA DO MP ATIVO BELO HORIZONTE - COMARCA; ASSESSORIA JURIDICO-ADMINISTRATIVA 17.452,52 6.981,01 0,00 0,00 0,00 0,00 24.433,53 2.687,69 4.954,33 0,00 7.642,02 16.791,51 7.414,05 537,54 31/01/2020
997 402801 FLAVIA MARIA DE RESENDE NASCIMENTO ANALISTA DO MP ATIVO SÃO JOÃO DEL REI - COMARCA; SAO JOAO DEL REI-PJ-04PJ 9.337,87 933,79 0,00 0,00 0,00 0,00 10.271,66 1.129,88 1.644,63 0,00 2.774,51 7.497,15 8.071,52 527,28 31/01/2020
998 437500 FLAVIA MARIA TORRES MARCHETTI ANALISTA DO MP ATIVO BELO HORIZONTE - COMARCA; BH-18PJ VIOLENCIA DOMESTICA 9.955,90 1.991,18 0,00 0,00 0,00 0,00 11.947,08 1.352,17 1.950,41 0,00 3.302,58 8.644,50 8.823,38 2.513,32 31/01/2020
999 386000 FLAVIA NEVES BRIGIDO ASSESSOR/OFICIAL ATIVO BELO HORIZONTE - COMARCA; PROMOT ESTADUAL DE DEF PATRI CULT E TUR DE MG 0,00 1.928,39 9.641,94 0,00 0,00 0,00 11.570,33 1.162,98 1.992,66 0,00 3.155,64 8.414,69 7.103,76 476,52 31/01/2020
1000 488600 FLAVIA PEREIRA COSTA ANALISTA DO MP ATIVO BELO HORIZONTE - COMARCA; CENTRAL DE APOIO TECNICO 9.337,87 933,79 0,00 0,00 0,00 0,00 10.271,66 1.129,88 1.644,63 0,00 2.774,51 7.497,15 2.319,39 0,00 31/01/2020
1001 365400 FLAVIA PEREIRA DA SILVA AMARAL OFICIAL DO MP ATIVO BELO HORIZONTE - COMARCA; BH-15PJ M AMB PAT HIST CULT-GAB 115PJ 8.758,36 1.751,67 0,00 0,00 0,00 0,00 10.510,03 1.262,06 1.702,97 0,00 2.965,03 7.545,00 7.936,50 5.252,97 31/01/2020
1002 515400 FLAVIA RODRIGUES DE OLIVEIRA E SILVA PAIVA ANALISTA DO MP ATIVO CARATINGA - COMARCA; CARATINGA-PJ-05PJ 9.337,87 933,79 0,00 0,00 3.423,89 0,00 13.695,55 1.129,88 2.429,79 0,00 3.559,67 10.135,88 1.550,00 0,00 31/01/2020
1003 621600 FLAVIA SARMENTO RODRIGUES ANALISTA DO MP ATIVO BELO HORIZONTE - COMARCA; DIV FISCAL ADM CONT TERCEIRIZACAO 7.576,76 757,68 0,00 0,00 2.778,15 0,00 11.112,59 916,79 1.934,49 0,00 2.851,28 8.261,31 5.325,35 1.205,92 31/01/2020
1004 535800 FLAVIA SILVA VALADAO OFICIAL DO MP ATIVO TRÊS CORACOES - COMARCA; TRES CORACOES-PJ-04PJ 4.612,94 461,29 0,00 0,00 0,00 0,00 5.074,23 558,17 337,33 0,00 895,50 4.178,73 6.624,23 606,39 31/01/2020
1005 515300 FLAVIA VIEIRA OLIVEIRA GOMES ANALISTA DO MP ATIVO BELO HORIZONTE - COMARCA; ASSESS TECNICO-JUR JUNTO AS PROC. DE JUST 9.337,87 933,79 0,00 0,00 0,00 0,00 10.271,66 1.129,88 1.644,63 0,00 2.774,51 7.497,15 1.550,00 0,00 31/01/2020
1006 377500 FLAVIANA GONCALVES DE OLIVEIRA ANALISTA DO MP ATIVO IPATINGA - COMARCA; IPATINGA-PJ-02PJ 12.065,98 2.413,20 0,00 0,00 0,00 0,00 14.479,18 1.642,92 2.674,42 0,00 4.317,34 10.161,84 1.550,00 2.081,59 31/01/2020
1007 273100 FLAVIANE DOS SANTOS CASTRO OFICIAL DO MP ATIVO CAXAMBU - COMARCA; CAXAMBU-PJ-SECRETARIA 9.337,87 2.801,36 0,00 0,00 0,00 0,00 12.139,23 1.335,32 1.997,44 0,00 3.332,76 8.806,47 1.550,00 670,49 31/01/2020
1008 310600 FLAVIANE NAVES ALCANTARA OFICIAL DO MP ATIVO BELO HORIZONTE - COMARCA; COMB CRIMES PRAT POR AG POL MUN-SECRETARIA 9.955,90 2.986,77 0,00 0,00 0,00 0,00 12.942,67 1.423,69 2.298,36 0,00 3.722,05 9.220,62 8.014,16 857,33 31/01/2020
1009 378201 FLAVIANE RIBEIRO BORGES FERNANDES OFICIAL DO MP ATIVO SÃO GONÇALO DO SAPUCAÍ - COMARCA; SAO GONCALO DO SAPUCAI-PJ-02PJ 5.158,42 515,84 0,00 0,00 0,00 0,00 5.674,26 624,17 519,41 0,00 1.143,58 4.530,68 1.550,00 387,03 31/01/2020
1010 455800 FLAVIO ANTONIO RIBEIRO OFICIAL DO MP ATIVO BELO HORIZONTE - COMARCA; GRUPO ESP PROM PROC JUST DEF PROB ADM PAT PUB 5.678,79 567,88 0,00 0,00 0,00 0,00 6.246,67 687,13 659,51 0,00 1.346,64 4.900,03 4.048,67 738,48 31/01/2020
1011 458200 FLAVIO AUGUSTO BRAGA SOARES ANALISTA DO MP ATIVO BELO HORIZONTE - COMARCA; DIVISAO DE CONTROLE IMOBILIARIO 11.317,16 1.131,72 0,00 0,00 0,00 0,00 12.448,88 1.494,88 2.177,50 0,00 3.672,38 8.776,50 7.525,46 5.750,25 31/01/2020
1012 516500 FLAVIO AUGUSTO RODRIGUES CORREA ANALISTA DO MP ATIVO BELO HORIZONTE - COMARCA; COORD REG BACIAS RIO VELHAS E PARAOPEBA 9.337,87 933,79 0,00 0,00 0,00 0,00 10.271,66 1.129,88 1.644,63 0,00 2.774,51 7.497,15 8.071,52 527,28 31/01/2020
1013 84300 FLAVIO DE FARIA BELTRAO OFICIAL DO MP ATIVO BELO HORIZONTE - COMARCA; DIRETORIA DE ADMINISTRACAO FINANCEIRA 22.030,87 17.624,70 0,00 0,00 11.820,75 0,00 51.476,32 3.900,84 11.060,73 4.193,35 19.154,92 32.321,40 1.550,00 0,00 31/01/2020
1014 266600 FLAVIO GUIMARAES LANA ANALISTA DO MP ATIVO BELO HORIZONTE - COMARCA; CENTRAL DE APOIO TECN-SETOR DE MEIO AMBIENTE 11.685,57 3.505,67 0,00 0,00 0,00 0,00 15.191,24 1.671,04 2.848,70 0,00 4.519,74 10.671,50 1.550,00 0,00 31/01/2020
1015 552600 FLAVIO HENRIQUE EVARISTO GOMES ASSESSOR/ANALISTA ATIVO BELO HORIZONTE - COMARCA; DIRETORIA DE SUPORTE E MANUTENCAO 0,00 964,19 9.641,94 0,00 3.535,38 0,00 14.141,51 976,49 2.751,02 0,00 3.727,51 10.414,00 8.258,82 544,45 31/01/2020
1016 640000 FLAVIO HENRIQUE PEREIRA VELOSO OFICIAL DO MP ATIVO BELO HORIZONTE - COMARCA; DIVISÃO DE FISCALIZAÇÃO DAS RELAÇÕES DE CONSU 4.058,04 243,48 0,00 0,00 0,00 0,00 4.301,52 488,08 552,01 0,00 1.040,09 3.261,43 7.316,52 1.993,01 31/01/2020
1017 241500 FLAVIO HENRIQUE SILVA MARTINS LAGE OFICIAL DO MP ATIVO BELO HORIZONTE - COMARCA; CAO-CRIANCAS E ADOLESCENTES-SECRETARIA 9.337,87 3.735,15 0,00 0,00 4.357,67 0,00 17.430,69 1.438,03 3.528,52 0,00 4.966,55 12.464,14 1.550,00 503,86 31/01/2020
1018 86700 FLAVIO LUCAS TOMAZ AGENTE DO MP ATIVO BELO HORIZONTE - COMARCA; DIVISÃO DE FISCALIZAÇÃO DAS RELAÇÕES DE CONSU 7.576,76 5.303,73 0,00 0,00 0,00 0,00 12.880,49 1.416,85 1.745,53 0,00 3.162,38 9.718,11 1.550,00 0,00 31/01/2020
1019 407200 FLAVIO LUCIO MONTEIRO PENA ANALISTA DO MP ATIVO BELO HORIZONTE - COMARCA; DIRETORIA DE IMPRENSA 9.337,87 1.867,57 0,00 0,00 3.735,15 0,00 14.940,59 1.232,60 2.900,34 0,00 4.132,94 10.807,65 2.319,39 0,00 31/01/2020
1020 451700 FLAVIO MAGALHAES PEREIRA ANALISTA DO MP ATIVO BELO HORIZONTE - COMARCA; BH-12PJ JUIZO CRIMINAL-GAB 098PJ 9.337,87 933,79 0,00 0,00 0,00 0,00 10.271,66 1.188,00 1.773,93 0,00 2.961,93 7.309,73 8.071,52 1.055,58 31/01/2020
1021 481500 FLAVIO NEVES GUELBER DE MACEDO OFICIAL DO MP ATIVO SÃO JOÃO NEPOMUCENO - COMARCA; SAO JOAO NEPOMUCENO-PJ-02PJ 5.678,79 567,88 0,00 0,00 0,00 0,00 6.246,67 687,13 659,51 0,00 1.346,64 4.900,03 1.550,00 0,00 31/01/2020
1022 547500 FRANCELINO MOREIRA DA SILVA ANALISTA DO MP ATIVO BELO HORIZONTE - COMARCA; BH-10PJ EXECUÇÃO PENAL 7.823,48 782,35 0,00 0,00 0,00 0,00 8.605,83 946,64 1.236,92 0,00 2.183,56 6.422,27 3.472,93 241,54 31/01/2020
1023 278100 FRANCIANE MARY DE SOUZA ANALISTA DO MP ATIVO BELO HORIZONTE - COMARCA; BH-12PJ JUIZO CRIMINAL-GAB 083PJ 15.533,57 4.660,07 0,00 0,00 6.731,21 0,00 26.924,85 2.305,90 5.924,12 0,00 8.230,02 18.694,83 1.550,00 3.507,19 31/01/2020
1024 646500 FRANCIELLE CAROLINE PEREIRA DOS SANTOS ASSESSOR ATIVO BELO HORIZONTE - COMARCA; CENT DE ATENDIMENTO E ORIENTACAO DE PESSOAL 0,00 0,00 2.852,73 0,00 0,00 0,00 2.852,73 485,01 136,92 0,00 621,93 2.230,80 3.033,42 435,26 31/01/2020
1025 192501 FRANCIELLE REIS DE OLIVEIRA ANALISTA DO MP ATIVO PASSOS - COMARCA; PASSOS-PJ-04PJ 15.533,57 4.660,07 0,00 0,00 0,00 0,00 20.193,64 2.221,30 3.968,76 0,00 6.190,06 14.003,58 1.550,00 2.013,15 31/01/2020
1026 645100 FRANCIELY CRISTINA COSTA TARQUINIO ASSESSOR ATIVO BELO HORIZONTE - COMARCA; CHEFIA DE GABINETE 0,00 0,00 4.763,08 0,00 1.587,69 0,00 6.350,77 644,94 1.002,24 0,00 1.647,18 4.703,59 1.550,00 648,00 31/01/2020
1027 523600 FRANCINE MOURA LIMIRIO OFICIAL DO MP ATIVO UBERABA - COMARCA; UBERABA-PJ-02PJ 6.251,74 625,17 0,00 0,00 0,00 0,00 6.876,91 780,31 813,76 0,00 1.594,07 5.282,84 7.326,60 1.590,40 31/01/2020
1028 467200 FRANCINI RENNO ANALISTA DO MP ATIVO CASSIA - COMARCA; CASSIA-PJ-01PJ 9.337,87 933,79 0,00 0,00 0,00 0,00 10.271,66 1.129,88 1.644,63 0,00 2.774,51 7.497,15 1.550,00 0,00 31/01/2020
1029 189300 FRANCIS BERNARDO DO NASCIMENTO OFICIAL DO MP ATIVO VARGINHA - COMARCA; VARGINHA-PJ-05PJ 13.715,83 5.486,33 0,00 0,00 0,00 0,00 19.202,16 2.178,85 3.726,09 0,00 5.904,94 13.297,22 7.841,32 3.456,05 31/01/2020
1030 207800 FRANCISCO CAMPOS PIRES DE MORAIS ANALISTA DO MP ATIVO BELO HORIZONTE - COMARCA; CENTRAL DE APOIO TECN-SETOR DE MEIO AMBIENTE 17.452,52 6.981,01 0,00 0,00 0,00 0,00 24.433,53 2.687,69 5.058,61 0,00 7.746,30 16.687,23 7.414,05 537,54 31/01/2020
1031 204600 FRANCISCO FERREIRA NOVAIS OFICIAL DO MP ATIVO IPATINGA - COMARCA; IPATINGA-PJ-08PJ 11.317,16 4.526,86 0,00 0,00 0,00 0,00 15.844,02 1.742,84 2.904,19 0,00 4.647,03 11.196,99 7.718,51 1.815,17 31/01/2020
1032 411600 FRANCISCO PAIVA BRITO ANALISTA DO MP ATIVO BELO HORIZONTE - COMARCA; BH-07PJ 01 TRIBUNAL DO JURI 9.337,87 1.867,57 0,00 0,00 0,00 0,00 11.205,44 1.232,60 1.873,17 0,00 3.105,77 8.099,67 1.550,00 0,00 31/01/2020
1033 515800 FRANCISCO RAFAEL DA SILVA NETO ANALISTA DO MP ATIVO SACRAMENTO - COMARCA; SACRAMENTO-PJ-01PJ 7.955,66 795,57 0,00 0,00 0,00 0,00 8.751,23 978,63 1.168,23 0,00 2.146,86 6.604,37 7.582,26 1.127,58 31/01/2020
1034 515200 FRANCISLEI ELIAS GONCALVES OFICIAL DO MP ATIVO PASSOS - COMARCA; PASSOS-PJ-07PJ 5.678,79 1.703,64 0,00 0,00 0,00 0,00 7.382,43 837,67 781,08 0,00 1.618,75 5.763,68 7.688,65 1.395,43 31/01/2020
1035 443600 FRANCISLEI MARTINS DE SOUSA ANALISTA DO MP ATIVO TIMÓTEO - COMARCA; TIMOTEO-PJ-01PJ 9.337,87 1.867,57 0,00 0,00 0,00 0,00 11.205,44 1.232,60 1.873,17 0,00 3.105,77 8.099,67 8.915,61 534,13 31/01/2020
1036 424500 FREDERICO AUGUSTO COBRA MULLER ANALISTA DO MP ATIVO POUSO ALEGRE - COMARCA; POUSO ALEGRE-PJ-06PJ 9.641,94 1.928,39 0,00 0,00 0,00 0,00 11.570,33 1.272,74 1.962,48 0,00 3.235,22 8.335,11 1.550,00 0,00 31/01/2020
1037 473100 FREDERICO AUGUSTO LIMA FELICIO ANALISTA DO MP ATIVO CONCEIÇÃO DO MATO DENTRO - COMARCA; CONCEICAO DO MATO DENTRO-PJ-UNPJ 9.337,87 933,79 0,00 0,00 0,00 0,00 10.271,66 1.129,88 1.644,63 0,00 2.774,51 7.497,15 1.550,00 0,00 31/01/2020
1038 124200 FREDERICO DE SOUZA ROCHA OFICIAL DO MP ATIVO ESPINOSA - COMARCA; ESPINOSA-PJ-SECRETARIA 14.941,94 11.953,55 0,00 0,00 0,00 2.958,50 29.853,99 3.071,17 6.422,63 0,00 9.493,80 20.360,19 7.381,82 6.068,42 31/01/2020
1039 177100 FREDERICO FERNANDES DE ANDRADE OFICIAL DO MP ATIVO BELO HORIZONTE - COMARCA; SUPERINTENDENCIA DE TECNOLOGIA DA INFORMACAO 11.685,57 4.674,23 0,00 0,00 0,00 0,00 16.359,80 1.799,58 3.134,70 0,00 4.934,28 11.425,52 7.592,79 966,12 31/01/2020
1040 456200 FREDERICO FERNANDES PASSOS ANALISTA DO MP ATIVO BELO HORIZONTE - COMARCA; DIRETORIA DE REDES E BANCOS DE DADOS 11.317,16 1.131,72 0,00 0,00 0,00 0,00 12.448,88 1.494,88 2.177,50 0,00 3.672,38 8.776,50 2.319,39 5.202,50 31/01/2020
1041 400900 FREDERICO LUCIANO BORGES REIS ANALISTA DO MP ATIVO BELO HORIZONTE - COMARCA; DIRETORIA DE SISTEMAS DE INFORMACAO 11.685,57 2.337,11 0,00 0,00 0,00 0,00 14.022,68 1.542,49 2.458,42 0,00 4.000,91 10.021,77 8.087,61 907,62 31/01/2020
1042 466200 FREDERICO LUIS FERNANDES ANALISTA DO MP ATIVO BELO HORIZONTE - COMARCA; BH-12PJ JUIZO CRIMINAL-GAB 097PJ 9.337,87 933,79 0,00 0,00 0,00 0,00 10.271,66 1.129,88 1.592,49 0,00 2.722,37 7.549,29 1.550,00 0,00 31/01/2020
1043 419700 FREDERICO MECKLER SANTOS ANALISTA DO MP ATIVO CLÁUDIO - COMARCA; CLAUDIO-PJ-UNPJ 11.317,16 2.263,43 0,00 0,00 0,00 0,00 13.580,59 1.493,86 2.402,35 0,00 3.896,21 9.684,38 8.023,31 1.655,46 31/01/2020
1044 621700 GABRIEL ANDRADE SOUZA GROSSI RIBEIRO OFICIAL DO MP ATIVO BETIM - COMARCA; BETIM-PJ-SECRETARIA 4.467,49 446,75 0,00 0,00 0,00 0,00 4.914,24 540,57 347,95 0,00 888,52 4.025,72 1.550,00 386,28 31/01/2020
1045 613600 GABRIEL BASTOS MEIRELES ANALISTA DO MP ATIVO BELO HORIZONTE - COMARCA; BH-16PJ HABITACAO E URBANISMO 6.882,47 688,25 0,00 0,00 0,00 0,00 7.570,72 832,78 983,57 0,00 1.816,35 5.754,37 1.550,00 595,03 31/01/2020
1046 617900 GABRIELA CIRILA ROQUE ANALISTA DO MP ATIVO ITABIRA - COMARCA; ITABIRA-PJ-04PJ 7.576,76 757,68 0,00 0,00 0,00 0,00 8.334,44 916,79 1.170,49 0,00 2.087,28 6.247,16 7.986,81 1.174,51 31/01/2020
1047 386800 GABRIELA SIMOES CHAVES ANALISTA DO MP ATIVO BELO HORIZONTE - COMARCA; DIRETORIA GESTAO COMPRAS LICITACOES 12.065,98 2.413,20 0,00 0,00 0,00 0,00 14.479,18 1.642,92 2.674,42 0,00 4.317,34 10.161,84 3.088,78 2.233,75 31/01/2020
1048 248600 GABRIELA TERESA DIAS DE MORAIS ANALISTA DO MP ATIVO BELO HORIZONTE - COMARCA; ASSESS TECNICO-JUR JUNTO AS PROC. DE JUST 17.452,52 5.235,76 0,00 0,00 0,00 0,00 22.688,28 2.495,71 4.683,60 0,00 7.179,31 15.508,97 1.550,00 0,00 31/01/2020
1049 449700 GABRIELE COSTA FERREIRA OFICIAL DO MP ATIVO BELO HORIZONTE - COMARCA; DIRETORIA DE ADMINISTRACAO FINANCEIRA 6.251,74 625,17 0,00 0,00 0,00 0,00 6.876,91 780,31 813,76 0,00 1.594,07 5.282,84 7.491,37 1.590,40 31/01/2020
1050 357600 GABRIELLA CRUZ EMRICH OFICIAL DO MP ATIVO OLIVEIRA - COMARCA; OLIVEIRA-PJ-SECRETARIA 4.543,03 908,61 0,00 0,00 0,00 0,00 5.451,64 599,68 464,93 0,00 1.064,61 4.387,03 900,00 0,00 31/01/2020
1051 470600 GABRIELLA SPIRANDELLI COIMBRA ANALISTA DO MP ATIVO UBERLÂNDIA - COMARCA; UBERLANDIA-PJ-18PJ 9.337,87 933,79 0,00 0,00 0,00 0,00 10.271,66 1.129,88 1.644,63 0,00 2.774,51 7.497,15 5.658,66 376,63 31/01/2020
1052 86000 GASPAR GOMES DE SOUSA AGENTE DO MP ATIVO BELO HORIZONTE - COMARCA; BH-15PJ M AMB PAT HIST CULT-RECEPCAO 22.030,87 19.827,79 0,00 0,00 0,00 3.900,84 45.759,50 3.900,84 8.882,75 6.396,44 19.180,03 26.579,47 1.550,00 0,00 31/01/2020
1053 183100 GECIELLE FERNANDA SILVA OFICIAL DO MP ATIVO PITANGUI - COMARCA; PITANGUI-PJ-02PJ 13.715,83 5.486,33 0,00 0,00 0,00 0,00 19.202,16 2.174,09 3.830,37 0,00 6.004,46 13.197,70 1.550,00 2.751,52 31/01/2020
1054 387300 GEOFFREY GIULLIANO OLIVEIRA ALMEIDA ANALISTA DO MP ATIVO BOCAIÚVA - COMARCA; BOCAIUVA-PJ-02PJ 9.337,87 1.867,57 0,00 0,00 0,00 0,00 11.205,44 1.232,60 1.873,17 0,00 3.105,77 8.099,67 1.550,00 0,00 31/01/2020
1055 277700 GEORGIA CRISTINA BASILIO MEDRADO ANALISTA DO MP ATIVO BELO HORIZONTE - COMARCA; SERVICO MEDICO-DEPTO PERIC MEDICA SAUDE OCUP 15.533,57 4.660,07 0,00 0,00 7.029,05 0,00 27.222,69 2.221,30 6.199,60 0,00 8.420,90 18.801,79 1.977,86 2.480,17 31/01/2020
1056 618000 GEOVANE BUENO GUERRA ANALISTA DO MP ATIVO BELO HORIZONTE - COMARCA; CAO-SAUDE 6.882,47 688,25 0,00 0,00 0,00 0,00 7.570,72 832,78 983,57 0,00 1.816,35 5.754,37 1.550,00 595,03 31/01/2020
1057 605200 GEOVANI PREZOTI TONUSSI ANALISTA DO MP ATIVO SANTOS DUMONT - COMARCA; SANTOS DUMONT-PJ-03PJ 7.823,48 782,35 0,00 0,00 0,00 0,00 8.605,83 976,49 1.236,92 0,00 2.213,41 6.392,42 1.550,00 996,03 31/01/2020
1058 512100 GEOVANI VICENTIN ANALISTA DO MP ATIVO SANTA RITA DE CALDAS - COMARCA; SANTA RITA DE CALDAS-PJ-UNPJ 9.337,87 933,79 0,00 0,00 3.423,89 0,00 13.695,55 1.129,88 2.586,20 0,00 3.716,08 9.979,47 2.319,39 0,00 31/01/2020
1059 116300 GEOVANNA DAS GRACAS ROSA REQUEIJO AGENTE DO MP ATIVO SANTA LUZIA - COMARCA; SANTA LUZIA-PJ-01PJ 17.452,52 8.726,26 0,00 0,00 0,00 0,00 26.178,78 2.879,67 5.433,62 0,00 8.313,29 17.865,49 1.550,00 0,00 31/01/2020
1060 274901 GERALDO ANDRE DE OLIVEIRA ANALISTA DO MP ATIVO CONTAGEM - COMARCA; CONTAGEM-PJ-18PJ 8.758,36 2.627,51 0,00 0,00 0,00 0,00 11.385,87 1.252,45 1.917,33 0,00 3.169,78 8.216,09 8.240,04 862,22 31/01/2020
1061 270900 GERALDO BATISTA BRITES OFICIAL DO MP ATIVO BOM DESPACHO - COMARCA; BOM DESPACHO-PJ-02PJ 9.337,87 3.735,15 0,00 0,00 0,00 0,00 13.073,02 1.438,03 2.225,99 0,00 3.664,02 9.409,00 7.455,22 867,91 31/01/2020
1062 204200 GERALDO CELIO ARAUJO SOARES OFICIAL DO MP ATIVO GOVERNADOR VALADARES - COMARCA; GOVERNADOR VALADARES-PJ-04PJ 13.715,83 5.486,33 0,00 0,00 0,00 0,00 19.202,16 2.178,85 3.778,23 0,00 5.957,08 13.245,08 7.071,93 3.254,21 31/01/2020
1063 66900 GERALDO DIAS CYRINO OFICIAL DO MP ATIVO BELO HORIZONTE - COMARCA; DIVISAO DE ATENDIMENTO E CONSULTA JURIDICA 17.452,52 13.962,02 0,00 0,00 0,00 3.455,60 34.870,14 3.455,60 7.769,64 0,00 11.225,24 23.644,90 6.576,33 460,75 31/01/2020
1064 366500 GERALDO LEVY ROMUALDO DA SILVA OFICIAL DO MP ATIVO RIO POMBA - COMARCA; RIO POMBA-PJ-SECRETARIA 5.678,79 1.135,76 0,00 0,00 0,00 0,00 6.814,55 749,60 746,36 0,00 1.495,96 5.318,59 7.546,80 549,71 31/01/2020
1065 124400 GERALDO MAURICIO DE FARIA ROCHA OFICIAL DO MP ATIVO BELO HORIZONTE - COMARCA; BH-13ª PJ JUÍXO DE TÓXICOS 9.337,87 7.470,30 0,00 0,00 0,00 0,00 16.808,17 1.848,90 3.244,44 0,00 5.093,34 11.714,83 1.550,00 0,00 31/01/2020
1066 472800 GERALDO MONTEIRO CAMARGO JUNIOR ANALISTA DO MP ATIVO ESPINOSA - COMARCA; ESPINOSA-PJ-UNPJ 9.337,87 2.801,36 0,00 0,00 0,00 0,00 12.139,23 1.418,19 2.049,58 0,00 3.467,77 8.671,46 7.708,31 3.298,96 31/01/2020
1067 124500 GERALDO ROGERIO GOMES SILVEIRA ASSESSOR/OFICIAL ATIVO BELO HORIZONTE - COMARCA; SUPERINTENDENCIA DE RECURSOS HUMANOS 14.941,94 17.646,35 0,00 0,00 0,00 3.122,86 35.711,15 3.122,86 8.040,28 0,00 11.163,14 24.548,01 6.928,01 1.502,21 31/01/2020
1068 445900 GERALDO TAVARES FERREIRA ANALISTA DO MP ATIVO DIVINÓPOLIS - COMARCA; DIVINOPOLIS-PJ-08PJ 9.337,87 1.867,57 0,00 0,00 3.735,15 0,00 14.940,59 1.232,60 2.900,34 0,00 4.132,94 10.807,65 7.376,83 534,13 31/01/2020
1069 521000 GERALDO VINICIUS IRENO ANALISTA DO MP ATIVO CURVELO - COMARCA; CURVELO-PJ-01PJ 9.337,87 933,79 0,00 0,00 0,00 0,00 10.271,66 1.129,88 1.592,49 0,00 2.722,37 7.549,29 8.560,95 1.364,97 31/01/2020
1070 325400 GERSONI FERREIRA LUCENA OFICIAL DO MP ATIVO POÇOS DE CALDAS - COMARCA; POCOS DE CALDAS-PJ-01PJ 8.758,36 1.751,67 0,00 0,00 0,00 0,00 10.510,03 1.262,06 1.915,13 0,00 3.177,19 7.332,84 7.661,96 6.575,11 31/01/2020
1071 445600 GERUSA E SILVA CASTRO LOPEZ ANALISTA DO MP ATIVO BELO HORIZONTE - COMARCA; CAO-CRIM EXEC PENAL TRIB JURI AUD MILITAR 9.337,87 1.867,57 0,00 0,00 0,00 0,00 11.205,44 1.232,60 1.873,17 0,00 3.105,77 8.099,67 2.319,39 0,00 31/01/2020
1072 468600 GILDA MARIA SANTOS DE FILIPPO ANDRADE OFICIAL DO MP ATIVO UBÁ - COMARCA; COORD REG BACIA DO RIO PARAIBA DO SUL 6.882,47 688,25 0,00 0,00 0,00 0,00 7.570,72 832,78 931,44 0,00 1.764,22 5.806,50 3.088,78 617,48 31/01/2020
1073 508300 GILMAR ALVES FERREIRA OFICIAL DO MP ATIVO BELO HORIZONTE - COMARCA; GAECO - SECRETARIA 6.882,47 688,25 0,00 0,00 0,00 0,00 7.570,72 909,10 983,57 0,00 1.892,67 5.678,05 1.550,00 3.163,73 31/01/2020
1074 455400 GILMAR DIAS NASCIMENTO OFICIAL DO MP ATIVO SÃO FRANCISCO - COMARCA; SAO FRANCISCO-PJ-01PJ 5.678,79